Wetterdaten: Dienstag, 26.06.2018
Datum Zeit Temp. A. Pool Temp. Feuchte A. Luftdruck Regen Wind Richtung Richtung Sonnenschein ET UV Solar Taupunkt Windchill Windben Empfang
26.06.2018 00:00 14,1 C 20,0 C 84 % 1021,2 hPa 0,0 l/m 6,1 km/h (2 Bft) SW 225 0 min 0,000 mm 0,0 UV-I 0 W/m 11,4 C 14,1 C 8,0 km/h (2 Bft) 95,65 %
26.06.2018 00:02 14,1 C 20,0 C 85 % 1021,2 hPa 0,0 l/m 6,4 km/h (2 Bft) SW 220 0 min 0,000 mm 0,0 UV-I 0 W/m 11,6 C 14,1 C 6,4 km/h (2 Bft) 97,22 %
26.06.2018 00:03 14,1 C 20,0 C 85 % 1021,2 hPa 0,0 l/m 8,0 km/h (2 Bft) S 190 0 min 0,000 mm 0,0 UV-I 0 W/m 11,6 C 13,2 C 11,3 km/h (2 Bft) 100,00 %
26.06.2018 00:04 14,1 C 20,0 C 85 % 1021,3 hPa 0,0 l/m 7,3 km/h (2 Bft) SW 217 0 min 0,000 mm 0,0 UV-I 0 W/m 11,6 C 13,6 C 12,9 km/h (3 Bft) 100,00 %
26.06.2018 00:05 14,1 C 20,0 C 84 % 1021,3 hPa 0,0 l/m 8,2 km/h (2 Bft) S-SW 208 0 min 0,000 mm 0,0 UV-I 0 W/m 11,4 C 13,0 C 12,9 km/h (3 Bft) 100,00 %
26.06.2018 00:06 14,1 C 20,0 C 84 % 1021,3 hPa 0,0 l/m 6,2 km/h (2 Bft) SW 225 0 min 0,000 mm 0,0 UV-I 0 W/m 11,4 C 14,1 C 9,7 km/h (2 Bft) 100,00 %
26.06.2018 00:07 14,1 C 20,0 C 84 % 1021,3 hPa 0,0 l/m 6,2 km/h (2 Bft) SW 227 0 min 0,000 mm 0,0 UV-I 0 W/m 11,4 C 14,1 C 8,0 km/h (2 Bft) 100,00 %
26.06.2018 00:08 14,1 C 20,0 C 84 % 1021,3 hPa 0,0 l/m 7,1 km/h (2 Bft) S-SW 209 0 min 0,000 mm 0,0 UV-I 0 W/m 11,4 C 13,7 C 9,7 km/h (2 Bft) 100,00 %
26.06.2018 00:09 14,1 C 20,0 C 84 % 1021,3 hPa 0,0 l/m 5,9 km/h (2 Bft) SW 216 0 min 0,000 mm 0,0 UV-I 0 W/m 11,4 C 14,1 C 8,0 km/h (2 Bft) 100,00 %
26.06.2018 00:10 14,1 C 20,0 C 84 % 1021,3 hPa 0,0 l/m 8,9 km/h (2 Bft) W-SW 237 0 min 0,000 mm 0,0 UV-I 0 W/m 11,4 C 12,7 C 11,3 km/h (2 Bft) 100,00 %
26.06.2018 00:11 14,1 C 20,0 C 84 % 1021,3 hPa 0,0 l/m 6,9 km/h (2 Bft) S-SW 202 0 min 0,000 mm 0,0 UV-I 0 W/m 11,4 C 13,8 C 8,0 km/h (2 Bft) 95,65 %
26.06.2018 00:12 14,1 C 20,0 C 84 % 1021,3 hPa 0,0 l/m 8,6 km/h (2 Bft) SW 232 0 min 0,000 mm 0,0 UV-I 0 W/m 11,4 C 12,8 C 11,3 km/h (2 Bft) 100,00 %
26.06.2018 00:13 14,1 C 20,0 C 84 % 1021,3 hPa 0,0 l/m 5,2 km/h (1 Bft) SW 225 0 min 0,000 mm 0,0 UV-I 0 W/m 11,4 C 14,1 C 6,4 km/h (2 Bft) 100,00 %
26.06.2018 00:14 14,1 C 20,0 C 84 % 1021,3 hPa 0,0 l/m 7,1 km/h (2 Bft) SW 217 0 min 0,000 mm 0,0 UV-I 0 W/m 11,4 C 13,7 C 9,7 km/h (2 Bft) 100,00 %
26.06.2018 00:15 14,1 C 20,0 C 84 % 1021,3 hPa 0,0 l/m 6,2 km/h (2 Bft) S-SW 208 0 min 0,000 mm 0,0 UV-I 0 W/m 11,4 C 14,1 C 8,0 km/h (2 Bft) 100,00 %
26.06.2018 00:16 14,1 C 20,0 C 84 % 1021,2 hPa 0,0 l/m 5,8 km/h (2 Bft) SW 229 0 min 0,000 mm 0,0 UV-I 0 W/m 11,4 C 14,1 C 8,0 km/h (2 Bft) 100,00 %
26.06.2018 00:17 14,1 C 20,0 C 84 % 1021,2 hPa 0,0 l/m 6,4 km/h (2 Bft) SW 217 0 min 0,000 mm 0,0 UV-I 0 W/m 11,4 C 14,1 C 9,7 km/h (2 Bft) 100,00 %
26.06.2018 00:18 14,1 C 20,0 C 84 % 1021,2 hPa 0,0 l/m 5,9 km/h (2 Bft) S-SW 199 0 min 0,000 mm 0,0 UV-I 0 W/m 11,4 C 14,1 C 8,0 km/h (2 Bft) 100,00 %
26.06.2018 00:19 14,0 C 20,0 C 84 % 1021,2 hPa 0,0 l/m 5,5 km/h (1 Bft) S-SW 210 0 min 0,000 mm 0,0 UV-I 0 W/m 11,3 C 14,0 C 8,0 km/h (2 Bft) 95,65 %
26.06.2018 00:20 14,0 C 20,0 C 84 % 1021,2 hPa 0,0 l/m 7,4 km/h (2 Bft) S-SW 205 0 min 0,000 mm 0,0 UV-I 0 W/m 11,3 C 13,4 C 9,7 km/h (2 Bft) 100,00 %
26.06.2018 00:21 14,0 C 20,0 C 84 % 1021,2 hPa 0,0 l/m 5,6 km/h (1 Bft) SW 216 0 min 0,000 mm 0,0 UV-I 0 W/m 11,3 C 14,0 C 8,0 km/h (2 Bft) 100,00 %
26.06.2018 00:22 14,0 C 20,0 C 84 % 1021,2 hPa 0,0 l/m 5,9 km/h (2 Bft) SW 217 0 min 0,000 mm 0,0 UV-I 0 W/m 11,3 C 14,0 C 8,0 km/h (2 Bft) 100,00 %
26.06.2018 00:23 13,9 C 20,0 C 84 % 1021,1 hPa 0,0 l/m 7,3 km/h (2 Bft) S 184 0 min 0,000 mm 0,0 UV-I 0 W/m 11,2 C 13,4 C 9,7 km/h (2 Bft) 95,65 %
26.06.2018 00:24 13,9 C 20,0 C 84 % 1021,1 hPa 0,0 l/m 5,2 km/h (1 Bft) SW 225 0 min 0,000 mm 0,0 UV-I 0 W/m 11,2 C 13,9 C 6,4 km/h (2 Bft) 100,00 %
26.06.2018 00:25 13,9 C 20,0 C 84 % 1021,1 hPa 0,0 l/m 7,1 km/h (2 Bft) SW 226 0 min 0,000 mm 0,0 UV-I 0 W/m 11,2 C 13,5 C 9,7 km/h (2 Bft) 95,65 %
26.06.2018 00:26 13,9 C 20,0 C 84 % 1021,2 hPa 0,0 l/m 5,8 km/h (2 Bft) S-SW 208 0 min 0,000 mm 0,0 UV-I 0 W/m 11,2 C 13,9 C 9,7 km/h (2 Bft) 100,00 %
26.06.2018 00:27 13,9 C 20,0 C 83 % 1021,2 hPa 0,0 l/m 7,4 km/h (2 Bft) SW 215 0 min 0,000 mm 0,0 UV-I 0 W/m 11,1 C 13,3 C 9,7 km/h (2 Bft) 100,00 %
26.06.2018 00:28 13,9 C 20,0 C 83 % 1021,2 hPa 0,0 l/m 5,7 km/h (1 Bft) SW 225 0 min 0,000 mm 0,0 UV-I 0 W/m 11,1 C 13,9 C 8,0 km/h (2 Bft) 95,65 %
26.06.2018 00:29 13,9 C 20,0 C 83 % 1021,2 hPa 0,0 l/m 7,4 km/h (2 Bft) SW 223 0 min 0,000 mm 0,0 UV-I 0 W/m 11,1 C 13,3 C 8,0 km/h (2 Bft) 100,00 %
26.06.2018 00:30 13,9 C 20,0 C 83 % 1021,2 hPa 0,0 l/m 6,9 km/h (2 Bft) SW 231 0 min 0,000 mm 0,0 UV-I 0 W/m 11,1 C 13,6 C 9,7 km/h (2 Bft) 95,65 %
26.06.2018 00:31 13,9 C 20,0 C 83 % 1021,2 hPa 0,0 l/m 7,7 km/h (2 Bft) SW 216 0 min 0,000 mm 0,0 UV-I 0 W/m 11,1 C 13,1 C 11,3 km/h (2 Bft) 100,00 %
26.06.2018 00:32 13,9 C 20,0 C 83 % 1021,2 hPa 0,0 l/m 6,8 km/h (2 Bft) S-SW 208 0 min 0,000 mm 0,0 UV-I 0 W/m 11,1 C 13,7 C 9,7 km/h (2 Bft) 91,30 %
26.06.2018 00:33 13,9 C 20,0 C 83 % 1021,2 hPa 0,0 l/m 7,2 km/h (2 Bft) SW 221 0 min 0,000 mm 0,0 UV-I 0 W/m 11,1 C 13,4 C 9,7 km/h (2 Bft) 100,00 %
26.06.2018 00:34 13,9 C 20,0 C 83 % 1021,1 hPa 0,0 l/m 5,0 km/h (1 Bft) SW 225 0 min 0,000 mm 0,0 UV-I 0 W/m 11,1 C 13,9 C 8,0 km/h (2 Bft) 100,00 %
26.06.2018 00:35 13,9 C 20,0 C 83 % 1021,1 hPa 0,0 l/m 9,4 km/h (2 Bft) SW 219 0 min 0,000 mm 0,0 UV-I 0 W/m 11,1 C 12,2 C 12,9 km/h (3 Bft) 100,00 %
26.06.2018 00:36 13,9 C 20,0 C 83 % 1021,2 hPa 0,0 l/m 6,9 km/h (2 Bft) SW 227 0 min 0,000 mm 0,0 UV-I 0 W/m 11,1 C 13,6 C 9,7 km/h (2 Bft) 95,65 %
26.06.2018 00:37 13,9 C 20,0 C 82 % 1021,2 hPa 0,0 l/m 4,9 km/h (1 Bft) S-SW 209 0 min 0,000 mm 0,0 UV-I 0 W/m 10,9 C 13,9 C 6,4 km/h (2 Bft) 100,00 %
26.06.2018 00:38 13,9 C 20,0 C 83 % 1021,2 hPa 0,0 l/m 6,9 km/h (2 Bft) S-SW 205 0 min 0,000 mm 0,0 UV-I 0 W/m 11,1 C 13,6 C 9,7 km/h (2 Bft) 100,00 %
26.06.2018 00:39 13,9 C 20,0 C 82 % 1021,2 hPa 0,0 l/m 5,5 km/h (1 Bft) S-SW 213 0 min 0,000 mm 0,0 UV-I 0 W/m 10,9 C 13,9 C 6,4 km/h (2 Bft) 100,00 %
26.06.2018 00:40 13,9 C 20,0 C 83 % 1021,2 hPa 0,0 l/m 5,4 km/h (1 Bft) SW 226 0 min 0,000 mm 0,0 UV-I 0 W/m 11,1 C 13,9 C 8,0 km/h (2 Bft) 100,00 %
26.06.2018 00:41 13,9 C 20,0 C 82 % 1021,2 hPa 0,0 l/m 4,7 km/h (1 Bft) SW 227 0 min 0,000 mm 0,0 UV-I 0 W/m 10,9 C 13,9 C 8,0 km/h (2 Bft) 95,65 %
26.06.2018 00:42 13,9 C 20,0 C 82 % 1021,2 hPa 0,0 l/m 5,2 km/h (1 Bft) SW 236 0 min 0,000 mm 0,0 UV-I 0 W/m 10,9 C 13,9 C 6,4 km/h (2 Bft) 100,00 %
26.06.2018 00:43 13,9 C 20,0 C 82 % 1021,2 hPa 0,0 l/m 4,8 km/h (1 Bft) W-SW 239 0 min 0,000 mm 0,0 UV-I 0 W/m 10,9 C 13,9 C 6,4 km/h (2 Bft) 95,83 %
26.06.2018 00:44 13,9 C 20,0 C 82 % 1021,2 hPa 0,0 l/m 5,2 km/h (1 Bft) SW 224 0 min 0,000 mm 0,0 UV-I 0 W/m 10,9 C 13,9 C 8,0 km/h (2 Bft) 100,00 %
26.06.2018 00:45 14,0 C 20,0 C 82 % 1021,2 hPa 0,0 l/m 4,0 km/h (1 Bft) SW 234 0 min 0,000 mm 0,0 UV-I 0 W/m 11,0 C 14,0 C 4,8 km/h (1 Bft) 100,00 %
26.06.2018 00:46 14,0 C 20,0 C 82 % 1021,2 hPa 0,0 l/m 5,5 km/h (1 Bft) SW 232 0 min 0,000 mm 0,0 UV-I 0 W/m 11,0 C 14,0 C 8,0 km/h (2 Bft) 100,00 %
26.06.2018 00:47 14,0 C 20,0 C 82 % 1021,2 hPa 0,0 l/m 5,4 km/h (1 Bft) SW 236 0 min 0,000 mm 0,0 UV-I 0 W/m 11,0 C 14,0 C 8,0 km/h (2 Bft) 100,00 %
26.06.2018 00:48 13,9 C 20,0 C 82 % 1021,2 hPa 0,0 l/m 5,6 km/h (1 Bft) W-SW 237 0 min 0,000 mm 0,0 UV-I 0 W/m 10,9 C 13,9 C 8,0 km/h (2 Bft) 100,00 %
26.06.2018 00:49 13,9 C 20,0 C 82 % 1021,2 hPa 0,0 l/m 4,7 km/h (1 Bft) SW 236 0 min 0,000 mm 0,0 UV-I 0 W/m 10,9 C 13,9 C 6,4 km/h (2 Bft) 95,65 %
26.06.2018 00:50 13,9 C 20,0 C 82 % 1021,2 hPa 0,0 l/m 4,8 km/h (1 Bft) SW 221 0 min 0,000 mm 0,0 UV-I 0 W/m 10,9 C 13,9 C 6,4 km/h (2 Bft) 100,00 %
26.06.2018 00:51 13,9 C 20,0 C 82 % 1021,2 hPa 0,0 l/m 4,1 km/h (1 Bft) W-SW 242 0 min 0,000 mm 0,0 UV-I 0 W/m 10,9 C 13,9 C 4,8 km/h (1 Bft) 95,65 %
26.06.2018 00:52 13,9 C 20,0 C 82 % 1021,2 hPa 0,0 l/m 4,4 km/h (1 Bft) W-SW 247 0 min 0,000 mm 0,0 UV-I 0 W/m 10,9 C 13,9 C 6,4 km/h (2 Bft) 95,83 %
26.06.2018 00:53 13,9 C 20,0 C 83 % 1021,2 hPa 0,0 l/m 5,0 km/h (1 Bft) SW 234 0 min 0,000 mm 0,0 UV-I 0 W/m 11,1 C 13,9 C 8,0 km/h (2 Bft) 100,00 %
26.06.2018 00:54 13,9 C 20,0 C 83 % 1021,2 hPa 0,0 l/m 4,9 km/h (1 Bft) SW 229 0 min 0,000 mm 0,0 UV-I 0 W/m 11,1 C 13,9 C 6,4 km/h (2 Bft) 100,00 %
26.06.2018 00:55 13,9 C 20,0 C 83 % 1021,2 hPa 0,0 l/m 5,7 km/h (1 Bft) SW 233 0 min 0,000 mm 0,0 UV-I 0 W/m 11,1 C 13,9 C 8,0 km/h (2 Bft) 95,65 %
26.06.2018 00:56 13,9 C 20,0 C 83 % 1021,2 hPa 0,0 l/m 4,7 km/h (1 Bft) SW 225 0 min 0,000 mm 0,0 UV-I 0 W/m 11,1 C 13,9 C 6,4 km/h (2 Bft) 100,00 %
26.06.2018 00:57 13,9 C 20,0 C 82 % 1021,2 hPa 0,0 l/m 6,3 km/h (2 Bft) W-SW 238 0 min 0,000 mm 0,0 UV-I 0 W/m 10,9 C 13,9 C 8,0 km/h (2 Bft) 100,00 %
26.06.2018 00:58 13,9 C 20,0 C 82 % 1021,2 hPa 0,0 l/m 6,6 km/h (2 Bft) SW 231 0 min 0,000 mm 0,0 UV-I 0 W/m 10,9 C 13,8 C 8,0 km/h (2 Bft) 100,00 %
26.06.2018 00:59 13,9 C 20,0 C 83 % 1021,2 hPa 0,0 l/m 6,3 km/h (2 Bft) W-SW 257 0 min 0,000 mm 0,0 UV-I 0 W/m 11,1 C 13,9 C 8,0 km/h (2 Bft) 100,00 %
26.06.2018 01:00 13,9 C 20,0 C 83 % 1021,2 hPa 0,0 l/m 7,0 km/h (2 Bft) S-SW 210 0 min 0,025 mm 0,0 UV-I 0 W/m 11,1 C 13,5 C 8,0 km/h (2 Bft) 95,65 %
26.06.2018 01:01 13,9 C 20,0 C 82 % 1021,2 hPa 0,0 l/m 6,8 km/h (2 Bft) SW 221 0 min 0,000 mm 0,0 UV-I 0 W/m 10,9 C 13,7 C 8,0 km/h (2 Bft) 100,00 %
26.06.2018 01:02 13,9 C 20,0 C 82 % 1021,1 hPa 0,0 l/m 7,5 km/h (2 Bft) S-SW 211 0 min 0,000 mm 0,0 UV-I 0 W/m 10,9 C 13,2 C 9,7 km/h (2 Bft) 100,00 %
26.06.2018 01:03 13,9 C 20,0 C 82 % 1021,1 hPa 0,0 l/m 4,9 km/h (1 Bft) SW 223 0 min 0,000 mm 0,0 UV-I 0 W/m 10,9 C 13,9 C 8,0 km/h (2 Bft) 100,00 %
26.06.2018 01:04 13,9 C 20,0 C 82 % 1021,1 hPa 0,0 l/m 6,0 km/h (2 Bft) S-SW 207 0 min 0,000 mm 0,0 UV-I 0 W/m 10,9 C 13,9 C 8,0 km/h (2 Bft) 95,65 %
26.06.2018 01:05 13,9 C 20,0 C 83 % 1021,1 hPa 0,0 l/m 5,6 km/h (1 Bft) SW 215 0 min 0,000 mm 0,0 UV-I 0 W/m 11,1 C 13,9 C 8,0 km/h (2 Bft) 95,83 %
26.06.2018 01:06 13,9 C 20,0 C 82 % 1021,1 hPa 0,0 l/m 6,3 km/h (2 Bft) SW 227 0 min 0,000 mm 0,0 UV-I 0 W/m 10,9 C 13,9 C 8,0 km/h (2 Bft) 100,00 %
26.06.2018 01:07 13,9 C 20,0 C 82 % 1021,1 hPa 0,0 l/m 6,0 km/h (2 Bft) SW 224 0 min 0,000 mm 0,0 UV-I 0 W/m 10,9 C 13,9 C 8,0 km/h (2 Bft) 100,00 %
26.06.2018 01:08 13,9 C 20,0 C 82 % 1021,1 hPa 0,0 l/m 6,7 km/h (2 Bft) S-SW 213 0 min 0,000 mm 0,0 UV-I 0 W/m 10,9 C 13,7 C 8,0 km/h (2 Bft) 95,65 %
26.06.2018 01:09 13,9 C 20,0 C 82 % 1021,1 hPa 0,0 l/m 6,3 km/h (2 Bft) SW 221 0 min 0,000 mm 0,0 UV-I 0 W/m 10,9 C 13,9 C 8,0 km/h (2 Bft) 95,83 %
26.06.2018 01:10 13,9 C 20,0 C 82 % 1021,1 hPa 0,0 l/m 7,9 km/h (2 Bft) SW 215 0 min 0,000 mm 0,0 UV-I 0 W/m 10,9 C 13,0 C 9,7 km/h (2 Bft) 100,00 %
26.06.2018 01:11 13,9 C 20,0 C 82 % 1021,1 hPa 0,0 l/m 6,8 km/h (2 Bft) SW 215 0 min 0,000 mm 0,0 UV-I 0 W/m 10,9 C 13,7 C 9,7 km/h (2 Bft) 95,83 %
26.06.2018 01:12 13,9 C 20,0 C 83 % 1021,1 hPa 0,0 l/m 6,2 km/h (2 Bft) SW 217 0 min 0,000 mm 0,0 UV-I 0 W/m 11,1 C 13,9 C 8,0 km/h (2 Bft) 100,00 %
26.06.2018 01:13 13,9 C 20,0 C 83 % 1021,1 hPa 0,0 l/m 4,5 km/h (1 Bft) SW 215 0 min 0,000 mm 0,0 UV-I 0 W/m 11,1 C 13,9 C 6,4 km/h (2 Bft) 100,00 %
26.06.2018 01:14 13,8 C 20,0 C 83 % 1021,1 hPa 0,0 l/m 4,8 km/h (1 Bft) SW 223 0 min 0,000 mm 0,0 UV-I 0 W/m 11,0 C 13,8 C 6,4 km/h (2 Bft) 100,00 %
26.06.2018 01:15 13,8 C 20,0 C 83 % 1021,1 hPa 0,0 l/m 4,8 km/h (1 Bft) SW 226 0 min 0,000 mm 0,0 UV-I 0 W/m 11,0 C 13,8 C 6,4 km/h (2 Bft) 91,67 %
26.06.2018 01:16 13,8 C 20,0 C 83 % 1021,0 hPa 0,0 l/m 4,3 km/h (1 Bft) SW 215 0 min 0,000 mm 0,0 UV-I 0 W/m 11,0 C 13,8 C 6,4 km/h (2 Bft) 95,65 %
26.06.2018 01:17 13,8 C 20,0 C 84 % 1021,1 hPa 0,0 l/m 5,2 km/h (1 Bft) SW 214 0 min 0,000 mm 0,0 UV-I 0 W/m 11,1 C 13,8 C 8,0 km/h (2 Bft) 100,00 %
26.06.2018 01:18 13,8 C 20,0 C 84 % 1021,1 hPa 0,0 l/m 4,6 km/h (1 Bft) SW 218 0 min 0,000 mm 0,0 UV-I 0 W/m 11,1 C 13,8 C 6,4 km/h (2 Bft) 91,67 %
26.06.2018 01:19 13,8 C 20,0 C 84 % 1021,1 hPa 0,0 l/m 6,0 km/h (2 Bft) S-SW 208 0 min 0,000 mm 0,0 UV-I 0 W/m 11,1 C 13,8 C 8,0 km/h (2 Bft) 100,00 %
26.06.2018 01:20 13,8 C 20,0 C 84 % 1021,1 hPa 0,0 l/m 5,0 km/h (1 Bft) W-SW 237 0 min 0,000 mm 0,0 UV-I 0 W/m 11,1 C 13,8 C 6,4 km/h (2 Bft) 95,83 %
26.06.2018 01:21 13,8 C 20,0 C 84 % 1021,1 hPa 0,0 l/m 5,5 km/h (1 Bft) SW 236 0 min 0,000 mm 0,0 UV-I 0 W/m 11,1 C 13,8 C 6,4 km/h (2 Bft) 100,00 %
26.06.2018 01:22 13,8 C 20,0 C 84 % 1021,1 hPa 0,0 l/m 4,5 km/h (1 Bft) SW 235 0 min 0,000 mm 0,0 UV-I 0 W/m 11,1 C 13,8 C 6,4 km/h (2 Bft) 95,83 %
26.06.2018 01:23 13,8 C 20,0 C 84 % 1021,1 hPa 0,0 l/m 4,4 km/h (1 Bft) SW 235 0 min 0,000 mm 0,0 UV-I 0 W/m 11,1 C 13,8 C 6,4 km/h (2 Bft) 100,00 %
26.06.2018 01:24 13,8 C 20,0 C 84 % 1021,1 hPa 0,0 l/m 4,1 km/h (1 Bft) SW 236 0 min 0,000 mm 0,0 UV-I 0 W/m 11,1 C 13,8 C 4,8 km/h (1 Bft) 87,50 %
26.06.2018 01:25 13,8 C 20,0 C 84 % 1021,1 hPa 0,0 l/m 4,7 km/h (1 Bft) SW 214 0 min 0,000 mm 0,0 UV-I 0 W/m 11,1 C 13,8 C 8,0 km/h (2 Bft) 100,00 %
26.06.2018 01:26 13,8 C 20,0 C 84 % 1021,1 hPa 0,0 l/m 5,6 km/h (1 Bft) SW 215 0 min 0,000 mm 0,0 UV-I 0 W/m 11,1 C 13,8 C 6,4 km/h (2 Bft) 91,67 %
26.06.2018 01:27 13,7 C 20,0 C 84 % 1021,1 hPa 0,0 l/m 4,8 km/h (1 Bft) SW 218 0 min 0,000 mm 0,0 UV-I 0 W/m 11,0 C 13,7 C 6,4 km/h (2 Bft) 95,65 %
26.06.2018 01:28 13,7 C 20,0 C 84 % 1021,0 hPa 0,0 l/m 4,7 km/h (1 Bft) SW 234 0 min 0,000 mm 0,0 UV-I 0 W/m 11,0 C 13,7 C 6,4 km/h (2 Bft) 95,83 %
26.06.2018 01:29 13,7 C 20,0 C 84 % 1021,0 hPa 0,0 l/m 5,4 km/h (1 Bft) SW 222 0 min 0,000 mm 0,0 UV-I 0 W/m 11,0 C 13,7 C 6,4 km/h (2 Bft) 90,91 %
26.06.2018 01:30 13,7 C 20,0 C 84 % 1021,1 hPa 0,0 l/m 4,6 km/h (1 Bft) W-SW 238 0 min 0,000 mm 0,0 UV-I 0 W/m 11,0 C 13,7 C 6,4 km/h (2 Bft) 100,00 %
26.06.2018 01:31 13,7 C 20,0 C 85 % 1021,1 hPa 0,0 l/m 4,2 km/h (1 Bft) SW 236 0 min 0,000 mm 0,0 UV-I 0 W/m 11,2 C 13,7 C 4,8 km/h (1 Bft) 91,30 %
26.06.2018 01:32 13,7 C 20,0 C 85 % 1021,1 hPa 0,0 l/m 3,8 km/h (1 Bft) SW 218 0 min 0,000 mm 0,0 UV-I 0 W/m 11,2 C 13,7 C 4,8 km/h (1 Bft) 100,00 %
26.06.2018 01:33 13,7 C 20,0 C 85 % 1021,1 hPa 0,0 l/m 4,3 km/h (1 Bft) SW 219 0 min 0,000 mm 0,0 UV-I 0 W/m 11,2 C 13,7 C 6,4 km/h (2 Bft) 91,30 %
26.06.2018 01:34 13,6 C 20,0 C 85 % 1021,1 hPa 0,0 l/m 4,8 km/h (1 Bft) SW 216 0 min 0,000 mm 0,0 UV-I 0 W/m 11,1 C 13,6 C 8,0 km/h (2 Bft) 91,67 %
26.06.2018 01:35 13,6 C 20,0 C 85 % 1021,1 hPa 0,0 l/m 6,2 km/h (2 Bft) SW 218 0 min 0,000 mm 0,0 UV-I 0 W/m 11,1 C 13,6 C 8,0 km/h (2 Bft) 95,65 %
26.06.2018 01:36 13,6 C 20,0 C 85 % 1021,1 hPa 0,0 l/m 5,3 km/h (1 Bft) SW 223 0 min 0,000 mm 0,0 UV-I 0 W/m 11,1 C 13,6 C 6,4 km/h (2 Bft) 95,83 %
26.06.2018 01:37 13,6 C 20,0 C 85 % 1021,0 hPa 0,0 l/m 6,5 km/h (2 Bft) SW 221 0 min 0,000 mm 0,0 UV-I 0 W/m 11,1 C 13,6 C 8,0 km/h (2 Bft) 95,65 %
26.06.2018 01:38 13,6 C 20,0 C 85 % 1021,1 hPa 0,0 l/m 5,3 km/h (1 Bft) SW 219 0 min 0,000 mm 0,0 UV-I 0 W/m 11,1 C 13,6 C 8,0 km/h (2 Bft) 95,83 %
26.06.2018 01:39 13,6 C 20,0 C 85 % 1021,1 hPa 0,0 l/m 5,6 km/h (1 Bft) SW 222 0 min 0,000 mm 0,0 UV-I 0 W/m 11,1 C 13,6 C 6,4 km/h (2 Bft) 91,67 %
26.06.2018 01:40 13,5 C 20,0 C 85 % 1021,0 hPa 0,0 l/m 5,4 km/h (1 Bft) S-SW 213 0 min 0,000 mm 0,0 UV-I 0 W/m 11,0 C 13,5 C 8,0 km/h (2 Bft) 91,30 %
26.06.2018 01:41 13,5 C 20,0 C 85 % 1021,1 hPa 0,0 l/m 4,6 km/h (1 Bft) SW 218 0 min 0,000 mm 0,0 UV-I 0 W/m 11,0 C 13,5 C 6,4 km/h (2 Bft) 95,83 %
26.06.2018 01:42 13,4 C 20,0 C 85 % 1021,0 hPa 0,0 l/m 3,8 km/h (1 Bft) SW 218 0 min 0,000 mm 0,0 UV-I 0 W/m 10,9 C 13,4 C 4,8 km/h (1 Bft) 86,96 %
26.06.2018 01:43 13,4 C 20,0 C 86 % 1021,1 hPa 0,0 l/m 3,2 km/h (1 Bft) S-SW 211 0 min 0,000 mm 0,0 UV-I 0 W/m 11,1 C 13,4 C 6,4 km/h (2 Bft) 95,83 %
26.06.2018 01:44 13,4 C 20,0 C 86 % 1021,0 hPa 0,0 l/m 3,5 km/h (1 Bft) S-SW 211 0 min 0,000 mm 0,0 UV-I 0 W/m 11,1 C 13,4 C 4,8 km/h (1 Bft) 96,15 %
26.06.2018 01:45 13,4 C 20,0 C 86 % 1021,0 hPa 0,0 l/m 5,4 km/h (1 Bft) SW 215 0 min 0,000 mm 0,0 UV-I 0 W/m 11,1 C 13,4 C 6,4 km/h (2 Bft) 95,83 %
26.06.2018 01:46 13,4 C 20,0 C 86 % 1021,0 hPa 0,0 l/m 6,0 km/h (2 Bft) S-SW 209 0 min 0,000 mm 0,0 UV-I 0 W/m 11,1 C 13,4 C 6,4 km/h (2 Bft) 95,65 %
26.06.2018 01:47 13,4 C 20,0 C 86 % 1021,0 hPa 0,0 l/m 3,9 km/h (1 Bft) S-SW 209 0 min 0,000 mm 0,0 UV-I 0 W/m 11,1 C 13,4 C 4,8 km/h (1 Bft) 95,83 %
26.06.2018 01:48 13,4 C 20,0 C 86 % 1021,0 hPa 0,0 l/m 5,4 km/h (1 Bft) SW 218 0 min 0,000 mm 0,0 UV-I 0 W/m 11,1 C 13,4 C 6,4 km/h (2 Bft) 91,30 %
26.06.2018 01:49 13,4 C 20,0 C 86 % 1021,1 hPa 0,0 l/m 4,8 km/h (1 Bft) SW 229 0 min 0,000 mm 0,0 UV-I 0 W/m 11,1 C 13,4 C 8,0 km/h (2 Bft) 95,83 %
26.06.2018 01:50 13,4 C 20,0 C 86 % 1021,0 hPa 0,0 l/m 5,3 km/h (1 Bft) SW 225 0 min 0,000 mm 0,0 UV-I 0 W/m 11,1 C 13,4 C 6,4 km/h (2 Bft) 95,65 %
26.06.2018 01:51 13,4 C 20,0 C 86 % 1021,0 hPa 0,0 l/m 4,1 km/h (1 Bft) SW 225 0 min 0,000 mm 0,0 UV-I 0 W/m 11,1 C 13,4 C 4,8 km/h (1 Bft) 95,83 %
26.06.2018 01:52 13,5 C 20,0 C 86 % 1021,0 hPa 0,0 l/m 3,1 km/h (1 Bft) SW 225 0 min 0,000 mm 0,0 UV-I 0 W/m 11,2 C 13,5 C 4,8 km/h (1 Bft) 95,65 %
26.06.2018 01:53 13,5 C 20,0 C 86 % 1021,0 hPa 0,0 l/m 4,2 km/h (1 Bft) SW 229 0 min 0,000 mm 0,0 UV-I 0 W/m 11,2 C 13,5 C 4,8 km/h (1 Bft) 95,83 %
26.06.2018 01:54 13,6 C 20,0 C 86 % 1021,0 hPa 0,0 l/m 2,5 km/h (1 Bft) SW 228 0 min 0,000 mm 0,0 UV-I 0 W/m 11,3 C 13,6 C 3,2 km/h (1 Bft) 100,00 %
26.06.2018 01:55 13,6 C 20,0 C 86 % 1021,0 hPa 0,0 l/m 2,8 km/h (1 Bft) SW 229 0 min 0,000 mm 0,0 UV-I 0 W/m 11,3 C 13,6 C 4,8 km/h (1 Bft) 93,33 %
26.06.2018 01:56 13,6 C 20,0 C 86 % 1021,0 hPa 0,0 l/m 1,7 km/h (1 Bft) SW 229 0 min 0,000 mm 0,0 UV-I 0 W/m 11,3 C 13,6 C 3,2 km/h (1 Bft) 100,00 %
26.06.2018 01:57 13,5 C 20,0 C 86 % 1021,0 hPa 0,0 l/m 3,1 km/h (1 Bft) SW 229 0 min 0,000 mm 0,0 UV-I 0 W/m 11,2 C 13,5 C 4,8 km/h (1 Bft) 95,65 %
26.06.2018 01:58 13,5 C 20,0 C 86 % 1021,0 hPa 0,0 l/m 3,7 km/h (1 Bft) SW 229 0 min 0,000 mm 0,0 UV-I 0 W/m 11,2 C 13,5 C 4,8 km/h (1 Bft) 100,00 %
26.06.2018 01:59 13,5 C 20,0 C 86 % 1021,0 hPa 0,0 l/m 2,8 km/h (1 Bft) SW 229 0 min 0,000 mm 0,0 UV-I 0 W/m 11,2 C 13,5 C 3,2 km/h (1 Bft) 88,46 %
26.06.2018 02:00 13,4 C 20,0 C 86 % 1021,0 hPa 0,0 l/m 2,5 km/h (1 Bft) SW 229 0 min 0,026 mm 0,0 UV-I 0 W/m 11,1 C 13,4 C 4,8 km/h (1 Bft) 100,00 %
26.06.2018 02:01 13,4 C 20,0 C 86 % 1021,0 hPa 0,0 l/m 2,3 km/h (1 Bft) SW 229 0 min 0,000 mm 0,0 UV-I 0 W/m 11,1 C 13,4 C 3,2 km/h (1 Bft) 95,65 %
26.06.2018 02:02 13,4 C 20,0 C 87 % 1021,0 hPa 0,0 l/m 1,5 km/h (1 Bft) SW 229 0 min 0,000 mm 0,0 UV-I 0 W/m 11,3 C 13,4 C 3,2 km/h (1 Bft) 95,83 %
26.06.2018 02:03 13,4 C 20,0 C 87 % 1021,0 hPa 0,0 l/m 1,1 km/h (1 Bft) SW 229 0 min 0,000 mm 0,0 UV-I 0 W/m 11,3 C 13,4 C 1,6 km/h (1 Bft) 100,00 %
26.06.2018 02:04 13,3 C 20,0 C 87 % 1021,0 hPa 0,0 l/m 1,7 km/h (1 Bft) SW 229 0 min 0,000 mm 0,0 UV-I 0 W/m 11,2 C 13,3 C 3,2 km/h (1 Bft) 95,83 %
26.06.2018 02:05 13,3 C 20,0 C 87 % 1021,0 hPa 0,0 l/m 2,1 km/h (1 Bft) SW 229 0 min 0,000 mm 0,0 UV-I 0 W/m 11,2 C 13,3 C 3,2 km/h (1 Bft) 100,00 %
26.06.2018 02:06 13,2 C 20,0 C 87 % 1021,0 hPa 0,0 l/m 2,7 km/h (1 Bft) SW 229 0 min 0,000 mm 0,0 UV-I 0 W/m 11,1 C 13,2 C 3,2 km/h (1 Bft) 95,83 %
26.06.2018 02:07 13,2 C 20,0 C 87 % 1021,0 hPa 0,0 l/m 2,1 km/h (1 Bft) SW 229 0 min 0,000 mm 0,0 UV-I 0 W/m 11,1 C 13,2 C 3,2 km/h (1 Bft) 100,00 %
26.06.2018 02:08 13,2 C 20,0 C 87 % 1020,9 hPa 0,0 l/m 1,6 km/h (1 Bft) SW 229 0 min 0,000 mm 0,0 UV-I 0 W/m 11,1 C 13,2 C 3,2 km/h (1 Bft) 96,00 %
26.06.2018 02:09 13,2 C 20,0 C 87 % 1021,0 hPa 0,0 l/m 2,0 km/h (1 Bft) SW 229 0 min 0,000 mm 0,0 UV-I 0 W/m 11,1 C 13,2 C 3,2 km/h (1 Bft) 95,65 %
26.06.2018 02:10 13,2 C 20,0 C 87 % 1021,0 hPa 0,0 l/m 2,8 km/h (1 Bft) SW 229 0 min 0,000 mm 0,0 UV-I 0 W/m 11,1 C 13,2 C 4,8 km/h (1 Bft) 95,83 %
26.06.2018 02:11 13,2 C 20,0 C 88 % 1021,0 hPa 0,0 l/m 2,9 km/h (1 Bft) SW 229 0 min 0,000 mm 0,0 UV-I 0 W/m 11,3 C 13,2 C 4,8 km/h (1 Bft) 95,65 %
26.06.2018 02:12 13,2 C 20,0 C 88 % 1020,9 hPa 0,0 l/m 2,9 km/h (1 Bft) SW 229 0 min 0,000 mm 0,0 UV-I 0 W/m 11,3 C 13,2 C 4,8 km/h (1 Bft) 100,00 %
26.06.2018 02:13 13,2 C 20,0 C 88 % 1020,9 hPa 0,0 l/m 2,5 km/h (1 Bft) SW 229 0 min 0,000 mm 0,0 UV-I 0 W/m 11,3 C 13,2 C 3,2 km/h (1 Bft) 100,00 %
26.06.2018 02:14 13,2 C 20,0 C 88 % 1020,9 hPa 0,0 l/m 1,2 km/h (1 Bft) SW 229 0 min 0,000 mm 0,0 UV-I 0 W/m 11,3 C 13,2 C 3,2 km/h (1 Bft) 96,15 %
26.06.2018 02:15 13,2 C 20,0 C 88 % 1020,9 hPa 0,0 l/m 1,6 km/h (1 Bft) SW 229 0 min 0,000 mm 0,0 UV-I 0 W/m 11,3 C 13,2 C 3,2 km/h (1 Bft) 95,83 %
26.06.2018 02:16 13,2 C 20,0 C 88 % 1020,9 hPa 0,0 l/m 0,7 km/h (0 Bft) SW 229 0 min 0,000 mm 0,0 UV-I 0 W/m 11,3 C 13,2 C 1,6 km/h (1 Bft) 95,65 %
26.06.2018 02:17 13,2 C 20,0 C 88 % 1021,0 hPa 0,0 l/m 0,0 km/h (0 Bft) SW 229 0 min 0,000 mm 0,0 UV-I 0 W/m 11,3 C 13,2 C 0,0 km/h (0 Bft) 96,30 %
26.06.2018 02:18 13,1 C 20,0 C 88 % 1021,0 hPa 0,0 l/m 0,7 km/h (0 Bft) SW 229 0 min 0,000 mm 0,0 UV-I 0 W/m 11,2 C 13,1 C 1,6 km/h (1 Bft) 100,00 %
26.06.2018 02:19 13,1 C 20,0 C 88 % 1021,0 hPa 0,0 l/m 2,5 km/h (1 Bft) SW 229 0 min 0,000 mm 0,0 UV-I 0 W/m 11,2 C 13,1 C 3,2 km/h (1 Bft) 95,83 %
26.06.2018 02:20 13,0 C 20,0 C 89 % 1021,0 hPa 0,0 l/m 2,9 km/h (1 Bft) SW 229 0 min 0,000 mm 0,0 UV-I 0 W/m 11,2 C 13,0 C 3,2 km/h (1 Bft) 95,65 %
26.06.2018 02:21 12,9 C 20,0 C 89 % 1021,0 hPa 0,0 l/m 0,6 km/h (0 Bft) SW 229 0 min 0,000 mm 0,0 UV-I 0 W/m 11,1 C 12,9 C 1,6 km/h (1 Bft) 96,30 %
26.06.2018 02:22 12,8 C 20,0 C 89 % 1021,0 hPa 0,0 l/m 0,1 km/h (0 Bft) SW 229 0 min 0,000 mm 0,0 UV-I 0 W/m 11,0 C 12,8 C 1,6 km/h (1 Bft) 100,00 %
26.06.2018 02:23 12,8 C 20,0 C 90 % 1021,0 hPa 0,0 l/m 1,3 km/h (1 Bft) SW 229 0 min 0,000 mm 0,0 UV-I 0 W/m 11,2 C 12,8 C 1,6 km/h (1 Bft) 95,83 %
26.06.2018 02:24 12,8 C 20,0 C 90 % 1021,0 hPa 0,0 l/m 1,9 km/h (1 Bft) SW 229 0 min 0,000 mm 0,0 UV-I 0 W/m 11,2 C 12,8 C 3,2 km/h (1 Bft) 100,00 %
26.06.2018 02:25 12,8 C 20,0 C 90 % 1021,0 hPa 0,0 l/m 0,4 km/h (0 Bft) SW 229 0 min 0,000 mm 0,0 UV-I 0 W/m 11,2 C 12,8 C 1,6 km/h (1 Bft) 100,00 %
26.06.2018 02:26 12,8 C 20,0 C 90 % 1021,0 hPa 0,0 l/m 0,5 km/h (0 Bft) SW 229 0 min 0,000 mm 0,0 UV-I 0 W/m 11,2 C 12,8 C 1,6 km/h (1 Bft) 100,00 %
26.06.2018 02:27 12,8 C 20,0 C 90 % 1021,0 hPa 0,0 l/m 0,4 km/h (0 Bft) SW 229 0 min 0,000 mm 0,0 UV-I 0 W/m 11,2 C 12,8 C 1,6 km/h (1 Bft) 100,00 %
26.06.2018 02:28 12,8 C 20,0 C 90 % 1021,0 hPa 0,0 l/m 0,2 km/h (0 Bft) SW 229 0 min 0,000 mm 0,0 UV-I 0 W/m 11,2 C 12,8 C 1,6 km/h (1 Bft) 100,00 %
26.06.2018 02:29 12,9 C 20,0 C 90 % 1021,0 hPa 0,0 l/m 1,3 km/h (1 Bft) SW 229 0 min 0,000 mm 0,0 UV-I 0 W/m 11,3 C 12,9 C 1,6 km/h (1 Bft) 100,00 %
26.06.2018 02:30 12,9 C 20,0 C 90 % 1021,0 hPa 0,0 l/m 0,9 km/h (0 Bft) SW 229 0 min 0,000 mm 0,0 UV-I 0 W/m 11,3 C 12,9 C 1,6 km/h (1 Bft) 100,00 %
26.06.2018 02:31 12,9 C 20,0 C 89 % 1021,0 hPa 0,0 l/m 1,7 km/h (1 Bft) SW 229 0 min 0,000 mm 0,0 UV-I 0 W/m 11,1 C 12,9 C 3,2 km/h (1 Bft) 100,00 %
26.06.2018 02:32 13,0 C 20,0 C 89 % 1021,0 hPa 0,0 l/m 3,4 km/h (1 Bft) SW 229 0 min 0,000 mm 0,0 UV-I 0 W/m 11,2 C 13,0 C 4,8 km/h (1 Bft) 100,00 %
26.06.2018 02:33 13,1 C 20,0 C 89 % 1021,0 hPa 0,0 l/m 3,4 km/h (1 Bft) SW 230 0 min 0,000 mm 0,0 UV-I 0 W/m 11,3 C 13,1 C 6,4 km/h (2 Bft) 100,00 %
26.06.2018 02:34 13,1 C 20,0 C 89 % 1020,9 hPa 0,0 l/m 4,4 km/h (1 Bft) SW 225 0 min 0,000 mm 0,0 UV-I 0 W/m 11,3 C 13,1 C 6,4 km/h (2 Bft) 100,00 %
26.06.2018 02:35 13,2 C 20,0 C 89 % 1020,9 hPa 0,0 l/m 6,0 km/h (2 Bft) SW 234 0 min 0,000 mm 0,0 UV-I 0 W/m 11,4 C 13,2 C 8,0 km/h (2 Bft) 95,65 %
26.06.2018 02:36 13,2 C 20,0 C 89 % 1020,9 hPa 0,0 l/m 5,6 km/h (1 Bft) SW 228 0 min 0,000 mm 0,0 UV-I 0 W/m 11,4 C 13,2 C 8,0 km/h (2 Bft) 100,00 %
26.06.2018 02:37 13,2 C 20,0 C 89 % 1020,9 hPa 0,0 l/m 6,0 km/h (2 Bft) SW 227 0 min 0,000 mm 0,0 UV-I 0 W/m 11,4 C 13,2 C 9,7 km/h (2 Bft) 100,00 %
26.06.2018 02:38 13,1 C 20,0 C 89 % 1020,9 hPa 0,0 l/m 6,7 km/h (2 Bft) SW 236 0 min 0,000 mm 0,0 UV-I 0 W/m 11,3 C 12,9 C 9,7 km/h (2 Bft) 100,00 %
26.06.2018 02:39 13,2 C 20,0 C 89 % 1020,8 hPa 0,0 l/m 6,6 km/h (2 Bft) W-SW 246 0 min 0,000 mm 0,0 UV-I 0 W/m 11,4 C 13,1 C 9,7 km/h (2 Bft) 100,00 %
26.06.2018 02:40 13,2 C 20,0 C 89 % 1020,8 hPa 0,0 l/m 6,1 km/h (2 Bft) W-SW 252 0 min 0,000 mm 0,0 UV-I 0 W/m 11,4 C 13,2 C 8,0 km/h (2 Bft) 95,83 %
26.06.2018 02:41 13,3 C 20,0 C 88 % 1020,9 hPa 0,0 l/m 6,2 km/h (2 Bft) W-SW 237 0 min 0,000 mm 0,0 UV-I 0 W/m 11,4 C 13,3 C 8,0 km/h (2 Bft) 95,65 %
26.06.2018 02:42 13,3 C 20,0 C 88 % 1020,8 hPa 0,0 l/m 7,5 km/h (2 Bft) W-SW 241 0 min 0,000 mm 0,0 UV-I 0 W/m 11,4 C 12,6 C 11,3 km/h (2 Bft) 100,00 %
26.06.2018 02:43 13,3 C 20,0 C 88 % 1020,8 hPa 0,0 l/m 8,0 km/h (2 Bft) SW 234 0 min 0,000 mm 0,0 UV-I 0 W/m 11,4 C 12,3 C 11,3 km/h (2 Bft) 100,00 %
26.06.2018 02:44 13,3 C 20,0 C 87 % 1020,8 hPa 0,0 l/m 8,1 km/h (2 Bft) SW 228 0 min 0,000 mm 0,0 UV-I 0 W/m 11,2 C 12,3 C 12,9 km/h (3 Bft) 95,83 %
26.06.2018 02:45 13,4 C 20,0 C 88 % 1020,8 hPa 0,0 l/m 8,1 km/h (2 Bft) SW 232 0 min 0,000 mm 0,0 UV-I 0 W/m 11,5 C 12,4 C 11,3 km/h (2 Bft) 95,65 %
26.06.2018 02:46 13,4 C 20,0 C 87 % 1020,7 hPa 0,0 l/m 6,4 km/h (2 Bft) W-SW 252 0 min 0,000 mm 0,0 UV-I 0 W/m 11,3 C 13,4 C 11,3 km/h (2 Bft) 100,00 %
26.06.2018 02:47 13,5 C 20,0 C 87 % 1020,8 hPa 0,0 l/m 6,9 km/h (2 Bft) W-SW 245 0 min 0,000 mm 0,0 UV-I 0 W/m 11,4 C 13,2 C 11,3 km/h (2 Bft) 95,65 %
26.06.2018 02:48 13,5 C 20,0 C 87 % 1020,8 hPa 0,0 l/m 7,3 km/h (2 Bft) SW 216 0 min 0,000 mm 0,0 UV-I 0 W/m 11,4 C 12,9 C 11,3 km/h (2 Bft) 95,83 %
26.06.2018 02:49 13,6 C 20,0 C 87 % 1020,8 hPa 0,0 l/m 8,2 km/h (2 Bft) SW 233 0 min 0,000 mm 0,0 UV-I 0 W/m 11,5 C 12,5 C 11,3 km/h (2 Bft) 100,00 %
26.06.2018 02:50 13,6 C 20,0 C 87 % 1020,8 hPa 0,0 l/m 8,5 km/h (2 Bft) W-SW 240 0 min 0,000 mm 0,0 UV-I 0 W/m 11,5 C 12,4 C 12,9 km/h (3 Bft) 100,00 %
26.06.2018 02:51 13,6 C 20,0 C 87 % 1020,8 hPa 0,0 l/m 8,5 km/h (2 Bft) SW 236 0 min 0,000 mm 0,0 UV-I 0 W/m 11,5 C 12,4 C 12,9 km/h (3 Bft) 100,00 %
26.06.2018 02:52 13,7 C 20,0 C 87 % 1020,7 hPa 0,0 l/m 8,6 km/h (2 Bft) W-SW 238 0 min 0,000 mm 0,0 UV-I 0 W/m 11,6 C 12,4 C 12,9 km/h (3 Bft) 100,00 %
26.06.2018 02:53 13,7 C 20,0 C 86 % 1020,7 hPa 0,0 l/m 9,4 km/h (2 Bft) SW 222 0 min 0,000 mm 0,0 UV-I 0 W/m 11,4 C 12,0 C 11,3 km/h (2 Bft) 100,00 %
26.06.2018 02:54 13,7 C 20,0 C 86 % 1020,7 hPa 0,0 l/m 7,4 km/h (2 Bft) SW 225 0 min 0,000 mm 0,0 UV-I 0 W/m 11,4 C 13,1 C 11,3 km/h (2 Bft) 100,00 %
26.06.2018 02:55 13,7 C 20,0 C 86 % 1020,7 hPa 0,0 l/m 8,0 km/h (2 Bft) SW 225 0 min 0,000 mm 0,0 UV-I 0 W/m 11,4 C 12,7 C 12,9 km/h (3 Bft) 100,00 %
26.06.2018 02:56 13,8 C 20,0 C 86 % 1020,7 hPa 0,0 l/m 7,1 km/h (2 Bft) SW 234 0 min 0,000 mm 0,0 UV-I 0 W/m 11,5 C 13,4 C 9,7 km/h (2 Bft) 100,00 %
26.06.2018 02:57 13,7 C 20,0 C 86 % 1020,7 hPa 0,0 l/m 8,2 km/h (2 Bft) SW 236 0 min 0,000 mm 0,0 UV-I 0 W/m 11,4 C 12,6 C 12,9 km/h (3 Bft) 100,00 %
26.06.2018 02:58 13,7 C 20,0 C 86 % 1020,7 hPa 0,0 l/m 11,4 km/h (2 Bft) S-SW 210 0 min 0,000 mm 0,0 UV-I 0 W/m 11,4 C 11,0 C 14,5 km/h (3 Bft) 100,00 %
26.06.2018 02:59 13,7 C 20,0 C 86 % 1020,7 hPa 0,0 l/m 11,5 km/h (2 Bft) W-SW 249 0 min 0,000 mm 0,0 UV-I 0 W/m 11,4 C 11,0 C 14,5 km/h (3 Bft) 100,00 %
26.06.2018 03:00 13,7 C 20,0 C 86 % 1020,6 hPa 0,0 l/m 10,3 km/h (2 Bft) S-SW 213 0 min 0,000 mm 0,0 UV-I 0 W/m 11,4 C 11,5 C 14,5 km/h (3 Bft) 100,00 %
26.06.2018 03:01 13,7 C 20,0 C 86 % 1020,6 hPa 0,0 l/m 7,8 km/h (2 Bft) SW 215 0 min 0,000 mm 0,0 UV-I 0 W/m 11,4 C 12,9 C 11,3 km/h (2 Bft) 100,00 %
26.06.2018 03:02 13,8 C 20,0 C 86 % 1020,6 hPa 0,0 l/m 10,8 km/h (2 Bft) SW 218 0 min 0,000 mm 0,0 UV-I 0 W/m 11,5 C 11,4 C 14,5 km/h (3 Bft) 91,30 %
26.06.2018 03:03 13,8 C 20,0 C 86 % 1020,5 hPa 0,0 l/m 10,4 km/h (2 Bft) SW 235 0 min 0,000 mm 0,0 UV-I 0 W/m 11,5 C 11,6 C 16,1 km/h (3 Bft) 100,00 %
26.06.2018 03:04 13,8 C 20,0 C 86 % 1020,6 hPa 0,0 l/m 7,3 km/h (2 Bft) SW 217 0 min 0,000 mm 0,0 UV-I 0 W/m 11,5 C 13,3 C 11,3 km/h (2 Bft) 91,30 %
26.06.2018 03:05 13,8 C 20,0 C 87 % 1020,6 hPa 0,0 l/m 8,5 km/h (2 Bft) W 269 0 min 0,000 mm 0,0 UV-I 0 W/m 11,7 C 12,6 C 12,9 km/h (3 Bft) 100,00 %
26.06.2018 03:06 13,8 C 20,0 C 86 % 1020,6 hPa 0,0 l/m 9,7 km/h (2 Bft) W-SW 248 0 min 0,000 mm 0,0 UV-I 0 W/m 11,5 C 11,9 C 14,5 km/h (3 Bft) 100,00 %
26.06.2018 03:07 13,8 C 20,0 C 86 % 1020,6 hPa 0,0 l/m 6,2 km/h (2 Bft) W-SW 238 0 min 0,000 mm 0,0 UV-I 0 W/m 11,5 C 13,8 C 9,7 km/h (2 Bft) 100,00 %
26.06.2018 03:08 13,8 C 20,0 C 86 % 1020,6 hPa 0,0 l/m 6,4 km/h (2 Bft) SW 233 0 min 0,000 mm 0,0 UV-I 0 W/m 11,5 C 13,8 C 9,7 km/h (2 Bft) 100,00 %
26.06.2018 03:09 13,8 C 20,0 C 86 % 1020,5 hPa 0,0 l/m 7,0 km/h (2 Bft) W-SW 238 0 min 0,000 mm 0,0 UV-I 0 W/m 11,5 C 13,4 C 9,7 km/h (2 Bft) 100,00 %
26.06.2018 03:10 13,8 C 20,0 C 86 % 1020,5 hPa 0,0 l/m 7,2 km/h (2 Bft) SW 217 0 min 0,000 mm 0,0 UV-I 0 W/m 11,5 C 13,3 C 11,3 km/h (2 Bft) 100,00 %
26.06.2018 03:11 13,8 C 20,0 C 86 % 1020,5 hPa 0,0 l/m 5,2 km/h (1 Bft) SW 223 0 min 0,000 mm 0,0 UV-I 0 W/m 11,5 C 13,8 C 9,7 km/h (2 Bft) 100,00 %
26.06.2018 03:12 13,8 C 20,0 C 86 % 1020,5 hPa 0,0 l/m 3,8 km/h (1 Bft) W 263 0 min 0,000 mm 0,0 UV-I 0 W/m 11,5 C 13,8 C 6,4 km/h (2 Bft) 95,65 %
26.06.2018 03:13 13,8 C 20,0 C 86 % 1020,5 hPa 0,0 l/m 5,7 km/h (1 Bft) W 269 0 min 0,000 mm 0,0 UV-I 0 W/m 11,5 C 13,8 C 8,0 km/h (2 Bft) 100,00 %
26.06.2018 03:14 13,8 C 20,0 C 86 % 1020,5 hPa 0,0 l/m 5,3 km/h (1 Bft) W 267 0 min 0,000 mm 0,0 UV-I 0 W/m 11,5 C 13,8 C 9,7 km/h (2 Bft) 100,00 %
26.06.2018 03:15 13,8 C 20,0 C 87 % 1020,5 hPa 0,0 l/m 4,4 km/h (1 Bft) W 263 0 min 0,000 mm 0,0 UV-I 0 W/m 11,7 C 13,8 C 6,4 km/h (2 Bft) 95,83 %
26.06.2018 03:16 13,8 C 20,0 C 87 % 1020,5 hPa 0,0 l/m 4,2 km/h (1 Bft) W-SW 242 0 min 0,000 mm 0,0 UV-I 0 W/m 11,7 C 13,8 C 6,4 km/h (2 Bft) 95,65 %
26.06.2018 03:17 13,8 C 20,0 C 87 % 1020,5 hPa 0,0 l/m 4,5 km/h (1 Bft) W-SW 244 0 min 0,000 mm 0,0 UV-I 0 W/m 11,7 C 13,8 C 6,4 km/h (2 Bft) 100,00 %
26.06.2018 03:18 13,7 C 20,0 C 87 % 1020,6 hPa 0,0 l/m 6,8 km/h (2 Bft) W 267 0 min 0,000 mm 0,0 UV-I 0 W/m 11,6 C 13,5 C 9,7 km/h (2 Bft) 95,65 %
26.06.2018 03:19 13,7 C 20,0 C 87 % 1020,6 hPa 0,0 l/m 5,2 km/h (1 Bft) W 259 0 min 0,000 mm 0,0 UV-I 0 W/m 11,6 C 13,7 C 9,7 km/h (2 Bft) 100,00 %
26.06.2018 03:20 13,7 C 20,0 C 87 % 1020,6 hPa 0,0 l/m 3,4 km/h (1 Bft) W 259 0 min 0,000 mm 0,0 UV-I 0 W/m 11,6 C 13,7 C 4,8 km/h (1 Bft) 95,83 %
26.06.2018 03:21 13,7 C 20,0 C 87 % 1020,6 hPa 0,0 l/m 3,6 km/h (1 Bft) W-SW 258 0 min 0,000 mm 0,0 UV-I 0 W/m 11,6 C 13,7 C 4,8 km/h (1 Bft) 100,00 %
26.06.2018 03:22 13,7 C 20,0 C 87 % 1020,6 hPa 0,0 l/m 2,7 km/h (1 Bft) W-SW 258 0 min 0,000 mm 0,0 UV-I 0 W/m 11,6 C 13,7 C 3,2 km/h (1 Bft) 95,83 %
26.06.2018 03:23 13,7 C 20,0 C 88 % 1020,5 hPa 0,0 l/m 4,1 km/h (1 Bft) W-SW 250 0 min 0,000 mm 0,0 UV-I 0 W/m 11,7 C 13,7 C 4,8 km/h (1 Bft) 100,00 %
26.06.2018 03:24 13,7 C 20,0 C 87 % 1020,5 hPa 0,0 l/m 4,1 km/h (1 Bft) W-SW 250 0 min 0,000 mm 0,0 UV-I 0 W/m 11,6 C 13,7 C 4,8 km/h (1 Bft) 95,83 %
26.06.2018 03:25 13,7 C 20,0 C 87 % 1020,5 hPa 0,0 l/m 4,0 km/h (1 Bft) W-SW 247 0 min 0,000 mm 0,0 UV-I 0 W/m 11,6 C 13,7 C 4,8 km/h (1 Bft) 95,65 %
26.06.2018 03:26 13,6 C 20,0 C 88 % 1020,5 hPa 0,0 l/m 3,7 km/h (1 Bft) W-SW 239 0 min 0,000 mm 0,0 UV-I 0 W/m 11,6 C 13,6 C 6,4 km/h (2 Bft) 100,00 %
26.06.2018 03:27 13,6 C 20,0 C 88 % 1020,5 hPa 0,0 l/m 3,2 km/h (1 Bft) W-SW 239 0 min 0,000 mm 0,0 UV-I 0 W/m 11,6 C 13,6 C 4,8 km/h (1 Bft) 100,00 %
26.06.2018 03:28 13,6 C 20,0 C 88 % 1020,5 hPa 0,0 l/m 4,5 km/h (1 Bft) W-SW 252 0 min 0,000 mm 0,0 UV-I 0 W/m 11,6 C 13,6 C 6,4 km/h (2 Bft) 91,67 %
26.06.2018 03:29 13,6 C 20,0 C 88 % 1020,5 hPa 0,0 l/m 3,9 km/h (1 Bft) W-SW 248 0 min 0,000 mm 0,0 UV-I 0 W/m 11,6 C 13,6 C 6,4 km/h (2 Bft) 95,65 %
26.06.2018 03:30 13,6 C 20,0 C 88 % 1020,4 hPa 0,0 l/m 4,0 km/h (1 Bft) W-SW 246 0 min 0,000 mm 0,0 UV-I 0 W/m 11,6 C 13,6 C 4,8 km/h (1 Bft) 100,00 %
26.06.2018 03:31 13,6 C 20,0 C 88 % 1020,5 hPa 0,0 l/m 4,2 km/h (1 Bft) W-SW 247 0 min 0,000 mm 0,0 UV-I 0 W/m 11,6 C 13,6 C 4,8 km/h (1 Bft) 95,65 %
26.06.2018 03:32 13,6 C 20,0 C 88 % 1020,4 hPa 0,0 l/m 4,8 km/h (1 Bft) W-SW 255 0 min 0,000 mm 0,0 UV-I 0 W/m 11,6 C 13,6 C 6,4 km/h (2 Bft) 100,00 %
26.06.2018 03:33 13,6 C 20,0 C 88 % 1020,4 hPa 0,0 l/m 5,0 km/h (1 Bft) W 259 0 min 0,000 mm 0,0 UV-I 0 W/m 11,6 C 13,6 C 6,4 km/h (2 Bft) 91,67 %
26.06.2018 03:34 13,6 C 20,0 C 88 % 1020,4 hPa 0,0 l/m 5,8 km/h (2 Bft) W-SW 248 0 min 0,000 mm 0,0 UV-I 0 W/m 11,6 C 13,6 C 8,0 km/h (2 Bft) 100,00 %
26.06.2018 03:35 13,6 C 20,0 C 88 % 1020,4 hPa 0,0 l/m 6,1 km/h (2 Bft) SW 234 0 min 0,000 mm 0,0 UV-I 0 W/m 11,6 C 13,6 C 9,7 km/h (2 Bft) 95,83 %
26.06.2018 03:36 13,6 C 20,0 C 88 % 1020,4 hPa 0,0 l/m 6,9 km/h (2 Bft) W-SW 241 0 min 0,000 mm 0,0 UV-I 0 W/m 11,6 C 13,3 C 11,3 km/h (2 Bft) 91,30 %
26.06.2018 03:37 13,6 C 20,0 C 87 % 1020,4 hPa 0,0 l/m 5,7 km/h (1 Bft) SW 230 0 min 0,000 mm 0,0 UV-I 0 W/m 11,5 C 13,6 C 9,7 km/h (2 Bft) 100,00 %
26.06.2018 03:38 13,6 C 20,0 C 87 % 1020,4 hPa 0,0 l/m 7,8 km/h (2 Bft) W 260 0 min 0,000 mm 0,0 UV-I 0 W/m 11,5 C 12,7 C 12,9 km/h (3 Bft) 95,65 %
26.06.2018 03:39 13,7 C 20,0 C 87 % 1020,4 hPa 0,0 l/m 7,0 km/h (2 Bft) W-SW 247 0 min 0,000 mm 0,0 UV-I 0 W/m 11,6 C 13,3 C 9,7 km/h (2 Bft) 100,00 %
26.06.2018 03:40 13,7 C 20,0 C 86 % 1020,4 hPa 0,0 l/m 6,3 km/h (2 Bft) SW 235 0 min 0,000 mm 0,0 UV-I 0 W/m 11,4 C 13,7 C 9,7 km/h (2 Bft) 95,65 %
26.06.2018 03:41 13,7 C 20,0 C 86 % 1020,3 hPa 0,0 l/m 6,3 km/h (2 Bft) SW 226 0 min 0,000 mm 0,0 UV-I 0 W/m 11,4 C 13,7 C 11,3 km/h (2 Bft) 100,00 %
26.06.2018 03:42 13,7 C 20,0 C 86 % 1020,3 hPa 0,0 l/m 8,9 km/h (2 Bft) SW 227 0 min 0,000 mm 0,0 UV-I 0 W/m 11,4 C 12,2 C 11,3 km/h (2 Bft) 95,65 %
26.06.2018 03:43 13,7 C 20,0 C 86 % 1020,3 hPa 0,0 l/m 7,2 km/h (2 Bft) SW 227 0 min 0,000 mm 0,0 UV-I 0 W/m 11,4 C 13,2 C 11,3 km/h (2 Bft) 100,00 %
26.06.2018 03:44 13,8 C 20,0 C 86 % 1020,3 hPa 0,0 l/m 5,8 km/h (2 Bft) SW 227 0 min 0,000 mm 0,0 UV-I 0 W/m 11,5 C 13,8 C 8,0 km/h (2 Bft) 91,30 %
26.06.2018 03:45 13,8 C 20,0 C 86 % 1020,3 hPa 0,0 l/m 8,4 km/h (2 Bft) SW 225 0 min 0,000 mm 0,0 UV-I 0 W/m 11,5 C 12,6 C 11,3 km/h (2 Bft) 95,83 %
26.06.2018 03:46 13,8 C 20,0 C 86 % 1020,3 hPa 0,0 l/m 7,8 km/h (2 Bft) SW 230 0 min 0,000 mm 0,0 UV-I 0 W/m 11,5 C 13,0 C 11,3 km/h (2 Bft) 100,00 %
26.06.2018 03:47 13,7 C 20,0 C 86 % 1020,3 hPa 0,0 l/m 8,0 km/h (2 Bft) W-SW 246 0 min 0,000 mm 0,0 UV-I 0 W/m 11,4 C 12,7 C 11,3 km/h (2 Bft) 95,83 %
26.06.2018 03:48 13,7 C 20,0 C 86 % 1020,3 hPa 0,0 l/m 6,6 km/h (2 Bft) SW 223 0 min 0,000 mm 0,0 UV-I 0 W/m 11,4 C 13,6 C 9,7 km/h (2 Bft) 100,00 %
26.06.2018 03:49 13,7 C 20,0 C 86 % 1020,2 hPa 0,0 l/m 10,1 km/h (2 Bft) SW 225 0 min 0,000 mm 0,0 UV-I 0 W/m 11,4 C 11,6 C 14,5 km/h (3 Bft) 100,00 %
26.06.2018 03:50 13,7 C 20,0 C 86 % 1020,2 hPa 0,0 l/m 8,5 km/h (2 Bft) W-SW 250 0 min 0,000 mm 0,0 UV-I 0 W/m 11,4 C 12,5 C 12,9 km/h (3 Bft) 95,65 %
26.06.2018 03:51 13,7 C 20,0 C 86 % 1020,2 hPa 0,0 l/m 7,9 km/h (2 Bft) W-SW 239 0 min 0,000 mm 0,0 UV-I 0 W/m 11,4 C 12,8 C 12,9 km/h (3 Bft) 100,00 %
26.06.2018 03:52 13,7 C 20,0 C 86 % 1020,2 hPa 0,0 l/m 9,2 km/h (2 Bft) W-SW 250 0 min 0,000 mm 0,0 UV-I 0 W/m 11,4 C 12,1 C 14,5 km/h (3 Bft) 100,00 %
26.06.2018 03:53 13,7 C 20,0 C 86 % 1020,2 hPa 0,0 l/m 7,8 km/h (2 Bft) W-SW 239 0 min 0,000 mm 0,0 UV-I 0 W/m 11,4 C 12,9 C 12,9 km/h (3 Bft) 96,15 %
26.06.2018 03:54 13,6 C 20,0 C 86 % 1020,2 hPa 0,0 l/m 7,1 km/h (2 Bft) W-SW 242 0 min 0,000 mm 0,0 UV-I 0 W/m 11,3 C 13,2 C 11,3 km/h (2 Bft) 100,00 %
26.06.2018 03:55 13,6 C 20,0 C 86 % 1020,2 hPa 0,0 l/m 7,4 km/h (2 Bft) SW 236 0 min 0,000 mm 0,0 UV-I 0 W/m 11,3 C 13,0 C 11,3 km/h (2 Bft) 100,00 %
26.06.2018 03:56 13,6 C 20,0 C 86 % 1020,2 hPa 0,0 l/m 7,8 km/h (2 Bft) SW 219 0 min 0,000 mm 0,0 UV-I 0 W/m 11,3 C 12,7 C 11,3 km/h (2 Bft) 95,83 %
26.06.2018 03:57 13,6 C 20,0 C 86 % 1020,2 hPa 0,0 l/m 7,3 km/h (2 Bft) SW 234 0 min 0,000 mm 0,0 UV-I 0 W/m 11,3 C 13,0 C 9,7 km/h (2 Bft) 91,30 %
26.06.2018 03:58 13,5 C 20,0 C 86 % 1020,2 hPa 0,0 l/m 6,1 km/h (2 Bft) SW 227 0 min 0,000 mm 0,0 UV-I 0 W/m 11,2 C 13,5 C 8,0 km/h (2 Bft) 95,83 %
26.06.2018 03:59 13,5 C 20,0 C 86 % 1020,2 hPa 0,0 l/m 7,0 km/h (2 Bft) SW 229 0 min 0,000 mm 0,0 UV-I 0 W/m 11,2 C 13,1 C 8,0 km/h (2 Bft) 95,65 %
26.06.2018 04:00 13,4 C 20,0 C 86 % 1020,2 hPa 0,0 l/m 5,8 km/h (2 Bft) SW 223 0 min 0,025 mm 0,0 UV-I 0 W/m 11,1 C 13,4 C 8,0 km/h (2 Bft) 100,00 %
26.06.2018 04:01 13,4 C 20,0 C 86 % 1020,2 hPa 0,0 l/m 4,5 km/h (1 Bft) SW 234 0 min 0,000 mm 0,0 UV-I 0 W/m 11,1 C 13,4 C 6,4 km/h (2 Bft) 100,00 %
26.06.2018 04:02 13,4 C 20,0 C 86 % 1020,1 hPa 0,0 l/m 5,8 km/h (2 Bft) SW 236 0 min 0,000 mm 0,0 UV-I 0 W/m 11,1 C 13,4 C 8,0 km/h (2 Bft) 100,00 %
26.06.2018 04:03 13,4 C 20,0 C 86 % 1020,2 hPa 0,0 l/m 5,8 km/h (2 Bft) SW 225 0 min 0,000 mm 0,0 UV-I 0 W/m 11,1 C 13,4 C 6,4 km/h (2 Bft) 95,65 %
26.06.2018 04:04 13,3 C 20,0 C 87 % 1020,1 hPa 0,0 l/m 5,4 km/h (1 Bft) SW 228 0 min 0,000 mm 0,0 UV-I 0 W/m 11,2 C 13,3 C 8,0 km/h (2 Bft) 95,83 %
26.06.2018 04:05 13,3 C 20,0 C 87 % 1020,1 hPa 0,0 l/m 6,2 km/h (2 Bft) SW 229 0 min 0,000 mm 0,0 UV-I 0 W/m 11,2 C 13,3 C 8,0 km/h (2 Bft) 100,00 %
26.06.2018 04:06 13,3 C 20,0 C 87 % 1020,1 hPa 0,0 l/m 6,3 km/h (2 Bft) SW 217 0 min 0,000 mm 0,0 UV-I 0 W/m 11,2 C 13,3 C 8,0 km/h (2 Bft) 100,00 %
26.06.2018 04:07 13,3 C 20,0 C 86 % 1020,1 hPa 0,0 l/m 5,7 km/h (1 Bft) SW 217 0 min 0,000 mm 0,0 UV-I 0 W/m 11,0 C 13,3 C 9,7 km/h (2 Bft) 100,00 %
26.06.2018 04:08 13,3 C 20,0 C 86 % 1020,1 hPa 0,0 l/m 5,7 km/h (1 Bft) SW 221 0 min 0,000 mm 0,0 UV-I 0 W/m 11,0 C 13,3 C 8,0 km/h (2 Bft) 100,00 %
26.06.2018 04:09 13,3 C 20,0 C 86 % 1020,1 hPa 0,0 l/m 5,6 km/h (1 Bft) W-SW 238 0 min 0,000 mm 0,0 UV-I 0 W/m 11,0 C 13,3 C 9,7 km/h (2 Bft) 100,00 %
26.06.2018 04:10 13,3 C 20,0 C 86 % 1020,1 hPa 0,0 l/m 5,1 km/h (1 Bft) W-SW 238 0 min 0,000 mm 0,0 UV-I 0 W/m 11,0 C 13,3 C 8,0 km/h (2 Bft) 100,00 %
26.06.2018 04:11 13,3 C 20,0 C 86 % 1020,1 hPa 0,0 l/m 5,5 km/h (1 Bft) SW 215 0 min 0,000 mm 0,0 UV-I 0 W/m 11,0 C 13,3 C 8,0 km/h (2 Bft) 95,65 %
26.06.2018 04:12 13,3 C 20,0 C 86 % 1020,1 hPa 0,0 l/m 6,7 km/h (2 Bft) SW 215 0 min 0,000 mm 0,0 UV-I 0 W/m 11,0 C 13,1 C 9,7 km/h (2 Bft) 100,00 %
26.06.2018 04:13 13,3 C 20,0 C 86 % 1020,1 hPa 0,0 l/m 3,5 km/h (1 Bft) W-SW 237 0 min 0,000 mm 0,0 UV-I 0 W/m 11,0 C 13,3 C 4,8 km/h (1 Bft) 100,00 %
26.06.2018 04:14 13,3 C 20,0 C 86 % 1020,1 hPa 0,0 l/m 5,1 km/h (1 Bft) SW 225 0 min 0,000 mm 0,0 UV-I 0 W/m 11,0 C 13,3 C 6,4 km/h (2 Bft) 100,00 %
26.06.2018 04:15 13,2 C 20,0 C 86 % 1020,1 hPa 0,0 l/m 4,4 km/h (1 Bft) SW 224 0 min 0,000 mm 0,0 UV-I 0 W/m 10,9 C 13,2 C 6,4 km/h (2 Bft) 95,83 %
26.06.2018 04:16 13,2 C 20,0 C 86 % 1020,1 hPa 0,0 l/m 3,6 km/h (1 Bft) SW 227 0 min 0,000 mm 0,0 UV-I 0 W/m 10,9 C 13,2 C 4,8 km/h (1 Bft) 100,00 %
26.06.2018 04:17 13,2 C 20,0 C 86 % 1020,1 hPa 0,0 l/m 7,4 km/h (2 Bft) SW 216 0 min 0,000 mm 0,0 UV-I 0 W/m 10,9 C 12,6 C 8,0 km/h (2 Bft) 100,00 %
26.06.2018 04:18 13,2 C 19,4 C 86 % 1020,0 hPa 0,0 l/m 7,0 km/h (2 Bft) SW 231 0 min 0,000 mm 0,0 UV-I 0 W/m 10,9 C 12,8 C 9,7 km/h (2 Bft) 100,00 %
26.06.2018 04:20 13,2 C 19,4 C 86 % 1020,0 hPa 0,0 l/m 5,2 km/h (1 Bft) SW 219 0 min 0,000 mm 0,0 UV-I 0 W/m 10,9 C 13,2 C 8,0 km/h (2 Bft) 100,00 %
26.06.2018 04:21 13,2 C 19,4 C 86 % 1020,0 hPa 0,0 l/m 5,9 km/h (2 Bft) SW 223 0 min 0,000 mm 0,0 UV-I 0 W/m 10,9 C 13,2 C 6,4 km/h (2 Bft) 100,00 %
26.06.2018 04:22 13,2 C 19,4 C 86 % 1020,0 hPa 0,0 l/m 4,8 km/h (1 Bft) SW 226 0 min 0,000 mm 0,0 UV-I 0 W/m 10,9 C 13,2 C 6,4 km/h (2 Bft) 100,00 %
26.06.2018 04:23 13,1 C 19,4 C 86 % 1020,0 hPa 0,0 l/m 4,4 km/h (1 Bft) SW 226 0 min 0,000 mm 0,0 UV-I 0 W/m 10,8 C 13,1 C 6,4 km/h (2 Bft) 100,00 %
26.06.2018 04:24 13,1 C 19,4 C 86 % 1020,1 hPa 0,0 l/m 1,7 km/h (1 Bft) SW 226 0 min 0,000 mm 0,0 UV-I 0 W/m 10,8 C 13,1 C 4,8 km/h (1 Bft) 100,00 %
26.06.2018 04:25 13,1 C 19,4 C 86 % 1020,0 hPa 0,0 l/m 2,7 km/h (1 Bft) SW 227 0 min 0,000 mm 0,0 UV-I 0 W/m 10,8 C 13,1 C 4,8 km/h (1 Bft) 100,00 %
26.06.2018 04:26 13,0 C 19,4 C 86 % 1020,0 hPa 0,0 l/m 3,9 km/h (1 Bft) SW 227 0 min 0,000 mm 0,0 UV-I 0 W/m 10,7 C 13,0 C 4,8 km/h (1 Bft) 100,00 %
26.06.2018 04:27 13,0 C 19,4 C 86 % 1020,0 hPa 0,0 l/m 3,8 km/h (1 Bft) SW 227 0 min 0,000 mm 0,0 UV-I 0 W/m 10,7 C 13,0 C 4,8 km/h (1 Bft) 100,00 %
26.06.2018 04:28 13,0 C 19,4 C 86 % 1020,0 hPa 0,0 l/m 4,1 km/h (1 Bft) SW 227 0 min 0,000 mm 0,0 UV-I 0 W/m 10,7 C 13,0 C 6,4 km/h (2 Bft) 100,00 %
26.06.2018 04:29 13,0 C 19,4 C 86 % 1020,0 hPa 0,0 l/m 3,0 km/h (1 Bft) SW 229 0 min 0,000 mm 0,0 UV-I 0 W/m 10,7 C 13,0 C 4,8 km/h (1 Bft) 100,00 %
26.06.2018 04:30 13,0 C 19,4 C 86 % 1020,0 hPa 0,0 l/m 4,4 km/h (1 Bft) SW 228 0 min 0,000 mm 0,0 UV-I 0 W/m 10,7 C 13,0 C 4,8 km/h (1 Bft) 100,00 %
26.06.2018 04:31 13,0 C 19,4 C 86 % 1020,0 hPa 0,0 l/m 3,6 km/h (1 Bft) SW 228 0 min 0,000 mm 0,0 UV-I 0 W/m 10,7 C 13,0 C 4,8 km/h (1 Bft) 100,00 %
26.06.2018 04:32 13,0 C 19,4 C 86 % 1020,0 hPa 0,0 l/m 4,1 km/h (1 Bft) SW 230 0 min 0,000 mm 0,0 UV-I 0 W/m 10,7 C 13,0 C 6,4 km/h (2 Bft) 100,00 %
26.06.2018 04:33 12,9 C 19,4 C 86 % 1020,0 hPa 0,0 l/m 3,7 km/h (1 Bft) SW 231 0 min 0,000 mm 0,0 UV-I 0 W/m 10,6 C 12,9 C 4,8 km/h (1 Bft) 100,00 %
26.06.2018 04:34 12,9 C 19,4 C 86 % 1020,1 hPa 0,0 l/m 5,1 km/h (1 Bft) SW 231 0 min 0,000 mm 0,0 UV-I 0 W/m 10,6 C 12,9 C 6,4 km/h (2 Bft) 100,00 %
26.06.2018 04:35 12,9 C 19,4 C 87 % 1020,1 hPa 0,0 l/m 4,2 km/h (1 Bft) SW 232 0 min 0,000 mm 0,0 UV-I 0 W/m 10,8 C 12,9 C 4,8 km/h (1 Bft) 95,83 %
26.06.2018 04:36 12,9 C 19,4 C 87 % 1020,1 hPa 0,0 l/m 4,4 km/h (1 Bft) SW 234 0 min 0,000 mm 0,0 UV-I 0 W/m 10,8 C 12,9 C 4,8 km/h (1 Bft) 100,00 %
26.06.2018 04:37 12,9 C 19,4 C 87 % 1020,1 hPa 0,0 l/m 4,1 km/h (1 Bft) SW 233 0 min 0,000 mm 0,0 UV-I 0 W/m 10,8 C 12,9 C 4,8 km/h (1 Bft) 100,00 %
26.06.2018 04:38 12,9 C 19,4 C 87 % 1020,1 hPa 0,0 l/m 2,7 km/h (1 Bft) SW 233 0 min 0,000 mm 0,0 UV-I 0 W/m 10,8 C 12,9 C 4,8 km/h (1 Bft) 95,83 %
26.06.2018 04:39 12,9 C 19,4 C 86 % 1020,0 hPa 0,0 l/m 4,0 km/h (1 Bft) SW 234 0 min 0,000 mm 0,0 UV-I 0 W/m 10,6 C 12,9 C 6,4 km/h (2 Bft) 95,65 %
26.06.2018 04:40 12,8 C 19,4 C 87 % 1020,1 hPa 0,0 l/m 4,7 km/h (1 Bft) SW 234 0 min 0,000 mm 0,0 UV-I 0 W/m 10,7 C 12,8 C 6,4 km/h (2 Bft) 95,83 %
26.06.2018 04:41 12,9 C 19,4 C 87 % 1020,1 hPa 0,0 l/m 3,8 km/h (1 Bft) SW 234 0 min 0,000 mm 0,0 UV-I 0 W/m 10,8 C 12,9 C 4,8 km/h (1 Bft) 100,00 %
26.06.2018 04:42 12,8 C 19,4 C 87 % 1020,1 hPa 0,0 l/m 4,4 km/h (1 Bft) SW 234 0 min 0,000 mm 0,0 UV-I 0 W/m 10,7 C 12,8 C 4,8 km/h (1 Bft) 100,00 %
26.06.2018 04:44 12,9 C 19,4 C 87 % 1020,1 hPa 0,0 l/m 5,1 km/h (1 Bft) W-SW 239 0 min 0,000 mm 0,0 UV-I 0 W/m 10,8 C 12,9 C 6,4 km/h (2 Bft) 97,87 %
26.06.2018 04:45 12,9 C 19,4 C 87 % 1020,1 hPa 0,0 l/m 5,0 km/h (1 Bft) SW 226 0 min 0,000 mm 0,0 UV-I 0 W/m 10,8 C 12,9 C 6,4 km/h (2 Bft) 100,00 %
26.06.2018 04:46 12,9 C 19,4 C 87 % 1020,1 hPa 0,0 l/m 3,9 km/h (1 Bft) SW 226 0 min 0,000 mm 0,0 UV-I 0 W/m 10,8 C 12,9 C 4,8 km/h (1 Bft) 100,00 %
26.06.2018 04:47 12,9 C 19,4 C 87 % 1020,1 hPa 0,0 l/m 4,0 km/h (1 Bft) SW 226 0 min 0,000 mm 0,0 UV-I 0 W/m 10,8 C 12,9 C 4,8 km/h (1 Bft) 95,83 %
26.06.2018 04:48 12,8 C 19,4 C 87 % 1020,1 hPa 0,0 l/m 4,1 km/h (1 Bft) SW 226 0 min 0,000 mm 0,0 UV-I 0 W/m 10,7 C 12,8 C 4,8 km/h (1 Bft) 100,00 %
26.06.2018 04:49 12,8 C 19,4 C 87 % 1020,1 hPa 0,0 l/m 3,9 km/h (1 Bft) SW 226 0 min 0,000 mm 0,0 UV-I 0 W/m 10,7 C 12,8 C 4,8 km/h (1 Bft) 96,30 %
26.06.2018 04:50 12,8 C 19,4 C 87 % 1020,1 hPa 0,0 l/m 3,8 km/h (1 Bft) SW 225 0 min 0,000 mm 0,0 UV-I 0 W/m 10,7 C 12,8 C 4,8 km/h (1 Bft) 100,00 %
26.06.2018 04:51 12,8 C 19,4 C 87 % 1020,1 hPa 0,0 l/m 3,6 km/h (1 Bft) SW 225 0 min 0,000 mm 0,0 UV-I 0 W/m 10,7 C 12,8 C 4,8 km/h (1 Bft) 100,00 %
26.06.2018 04:52 12,8 C 19,4 C 87 % 1020,1 hPa 0,0 l/m 2,7 km/h (1 Bft) SW 225 0 min 0,000 mm 0,0 UV-I 0 W/m 10,7 C 12,8 C 3,2 km/h (1 Bft) 100,00 %
26.06.2018 04:53 12,8 C 19,4 C 87 % 1020,1 hPa 0,0 l/m 3,3 km/h (1 Bft) SW 225 0 min 0,000 mm 0,0 UV-I 0 W/m 10,7 C 12,8 C 4,8 km/h (1 Bft) 100,00 %
26.06.2018 04:54 12,8 C 19,4 C 87 % 1020,1 hPa 0,0 l/m 3,2 km/h (1 Bft) SW 225 0 min 0,000 mm 0,0 UV-I 0 W/m 10,7 C 12,8 C 3,2 km/h (1 Bft) 95,65 %
26.06.2018 04:55 12,8 C 19,4 C 88 % 1020,1 hPa 0,0 l/m 3,4 km/h (1 Bft) SW 225 0 min 0,000 mm 0,0 UV-I 0 W/m 10,9 C 12,8 C 4,8 km/h (1 Bft) 100,00 %
26.06.2018 04:56 12,8 C 19,4 C 87 % 1020,1 hPa 0,0 l/m 2,7 km/h (1 Bft) SW 225 0 min 0,000 mm 0,0 UV-I 0 W/m 10,7 C 12,8 C 4,8 km/h (1 Bft) 95,65 %
26.06.2018 04:57 12,9 C 19,4 C 87 % 1020,2 hPa 0,0 l/m 3,3 km/h (1 Bft) SW 225 0 min 0,000 mm 0,0 UV-I 3 W/m 10,8 C 12,9 C 4,8 km/h (1 Bft) 100,00 %
26.06.2018 04:58 12,9 C 19,4 C 87 % 1020,1 hPa 0,0 l/m 2,9 km/h (1 Bft) SW 225 0 min 0,000 mm 0,0 UV-I 5 W/m 10,8 C 12,9 C 4,8 km/h (1 Bft) 100,00 %
26.06.2018 04:59 12,9 C 19,4 C 87 % 1020,2 hPa 0,0 l/m 3,5 km/h (1 Bft) SW 225 0 min 0,000 mm 0,0 UV-I 5 W/m 10,8 C 12,9 C 4,8 km/h (1 Bft) 100,00 %
26.06.2018 05:00 12,9 C 19,4 C 87 % 1020,2 hPa 0,0 l/m 2,7 km/h (1 Bft) SW 225 0 min 0,000 mm 0,0 UV-I 5 W/m 10,8 C 12,9 C 4,8 km/h (1 Bft) 100,00 %
26.06.2018 05:01 12,9 C 19,4 C 87 % 1020,2 hPa 0,0 l/m 3,2 km/h (1 Bft) SW 225 0 min 0,000 mm 0,0 UV-I 5 W/m 10,8 C 12,9 C 4,8 km/h (1 Bft) 95,83 %
26.06.2018 05:02 13,0 C 19,4 C 87 % 1020,2 hPa 0,0 l/m 4,5 km/h (1 Bft) SW 225 0 min 0,000 mm 0,0 UV-I 5 W/m 10,9 C 13,0 C 4,8 km/h (1 Bft) 91,30 %
26.06.2018 05:03 13,0 C 19,4 C 87 % 1020,2 hPa 0,0 l/m 4,2 km/h (1 Bft) SW 225 0 min 0,000 mm 0,0 UV-I 5 W/m 10,9 C 13,0 C 4,8 km/h (1 Bft) 95,83 %
26.06.2018 05:04 13,0 C 19,4 C 87 % 1020,2 hPa 0,0 l/m 3,8 km/h (1 Bft) SW 225 0 min 0,000 mm 0,0 UV-I 5 W/m 10,9 C 13,0 C 4,8 km/h (1 Bft) 95,65 %
26.06.2018 05:05 13,0 C 19,4 C 87 % 1020,2 hPa 0,0 l/m 3,6 km/h (1 Bft) SW 225 0 min 0,000 mm 0,0 UV-I 5 W/m 10,9 C 13,0 C 4,8 km/h (1 Bft) 95,83 %
26.06.2018 05:06 12,9 C 19,4 C 87 % 1020,2 hPa 0,0 l/m 4,2 km/h (1 Bft) SW 221 0 min 0,000 mm 0,0 UV-I 5 W/m 10,8 C 12,9 C 6,4 km/h (2 Bft) 96,15 %
26.06.2018 05:07 12,9 C 19,4 C 87 % 1020,3 hPa 0,0 l/m 4,8 km/h (1 Bft) SW 223 0 min 0,000 mm 0,0 UV-I 5 W/m 10,8 C 12,9 C 6,4 km/h (2 Bft) 91,67 %
26.06.2018 05:08 12,9 C 19,4 C 87 % 1020,3 hPa 0,0 l/m 4,7 km/h (1 Bft) SW 219 0 min 0,000 mm 0,0 UV-I 5 W/m 10,8 C 12,9 C 6,4 km/h (2 Bft) 100,00 %
26.06.2018 05:09 12,9 C 19,4 C 87 % 1020,3 hPa 0,0 l/m 4,4 km/h (1 Bft) SW 219 0 min 0,000 mm 0,0 UV-I 6 W/m 10,8 C 12,9 C 6,4 km/h (2 Bft) 97,14 %
26.06.2018 05:10 12,9 C 19,4 C 87 % 1020,3 hPa 0,0 l/m 4,8 km/h (1 Bft) S-SW 213 0 min 0,000 mm 0,0 UV-I 7 W/m 10,8 C 12,9 C 6,4 km/h (2 Bft) 100,00 %
26.06.2018 05:11 12,9 C 19,4 C 87 % 1020,3 hPa 0,0 l/m 4,2 km/h (1 Bft) S-SW 213 0 min 0,000 mm 0,0 UV-I 7 W/m 10,8 C 12,9 C 6,4 km/h (2 Bft) 95,65 %
26.06.2018 05:12 12,9 C 19,4 C 87 % 1020,3 hPa 0,0 l/m 3,7 km/h (1 Bft) S-SW 213 0 min 0,000 mm 0,0 UV-I 8 W/m 10,8 C 12,9 C 4,8 km/h (1 Bft) 100,00 %
26.06.2018 05:13 13,0 C 19,4 C 87 % 1020,3 hPa 0,0 l/m 3,1 km/h (1 Bft) S-SW 213 0 min 0,000 mm 0,0 UV-I 9 W/m 10,9 C 13,0 C 4,8 km/h (1 Bft) 95,65 %
26.06.2018 05:14 13,0 C 19,4 C 87 % 1020,3 hPa 0,0 l/m 3,1 km/h (1 Bft) S-SW 213 0 min 0,000 mm 0,0 UV-I 9 W/m 10,9 C 13,0 C 4,8 km/h (1 Bft) 95,83 %
26.06.2018 05:15 13,0 C 19,4 C 87 % 1020,3 hPa 0,0 l/m 4,9 km/h (1 Bft) S-SW 213 0 min 0,000 mm 0,0 UV-I 10 W/m 10,9 C 13,0 C 6,4 km/h (2 Bft) 100,00 %
26.06.2018 05:16 13,0 C 19,4 C 87 % 1020,4 hPa 0,0 l/m 2,7 km/h (1 Bft) S-SW 213 0 min 0,000 mm 0,0 UV-I 11 W/m 10,9 C 13,0 C 3,2 km/h (1 Bft) 95,83 %
26.06.2018 05:17 12,9 C 19,4 C 87 % 1020,3 hPa 0,0 l/m 3,8 km/h (1 Bft) S-SW 213 0 min 0,000 mm 0,0 UV-I 11 W/m 10,8 C 12,9 C 4,8 km/h (1 Bft) 95,65 %
26.06.2018 05:18 13,0 C 19,4 C 87 % 1020,4 hPa 0,0 l/m 3,4 km/h (1 Bft) S-SW 213 1 min 0,000 mm 0,0 UV-I 13 W/m 10,9 C 13,0 C 4,8 km/h (1 Bft) 95,83 %
26.06.2018 05:19 12,9 C 19,4 C 87 % 1020,4 hPa 0,0 l/m 3,7 km/h (1 Bft) S-SW 213 1 min 0,000 mm 0,0 UV-I 14 W/m 10,8 C 12,9 C 4,8 km/h (1 Bft) 95,65 %
26.06.2018 05:20 12,9 C 19,4 C 87 % 1020,4 hPa 0,0 l/m 4,4 km/h (1 Bft) S-SW 213 1 min 0,000 mm 0,0 UV-I 15 W/m 10,8 C 12,9 C 6,4 km/h (2 Bft) 91,67 %
26.06.2018 05:21 12,9 C 19,4 C 87 % 1020,4 hPa 0,0 l/m 3,9 km/h (1 Bft) S-SW 213 1 min 0,000 mm 0,0 UV-I 16 W/m 10,8 C 12,9 C 6,4 km/h (2 Bft) 100,00 %
26.06.2018 05:22 12,9 C 19,4 C 87 % 1020,4 hPa 0,0 l/m 3,7 km/h (1 Bft) S-SW 213 1 min 0,000 mm 0,0 UV-I 18 W/m 10,8 C 12,9 C 4,8 km/h (1 Bft) 91,67 %
26.06.2018 05:23 12,9 C 19,4 C 87 % 1020,4 hPa 0,0 l/m 2,9 km/h (1 Bft) S-SW 213 1 min 0,000 mm 0,0 UV-I 18 W/m 10,8 C 12,9 C 3,2 km/h (1 Bft) 100,00 %
26.06.2018 05:24 12,9 C 19,4 C 87 % 1020,3 hPa 0,0 l/m 3,3 km/h (1 Bft) S-SW 213 1 min 0,000 mm 0,0 UV-I 18 W/m 10,8 C 12,9 C 4,8 km/h (1 Bft) 91,67 %
26.06.2018 05:25 12,9 C 19,4 C 88 % 1020,3 hPa 0,0 l/m 3,1 km/h (1 Bft) S-SW 213 1 min 0,000 mm 0,0 UV-I 20 W/m 11,0 C 12,9 C 4,8 km/h (1 Bft) 95,83 %
26.06.2018 05:26 12,9 C 19,4 C 87 % 1020,3 hPa 0,0 l/m 4,2 km/h (1 Bft) S-SW 213 1 min 0,000 mm 0,0 UV-I 22 W/m 10,8 C 12,9 C 4,8 km/h (1 Bft) 95,65 %
26.06.2018 05:27 12,9 C 19,4 C 87 % 1020,4 hPa 0,0 l/m 4,5 km/h (1 Bft) S-SW 213 1 min 0,000 mm 0,0 UV-I 25 W/m 10,8 C 12,9 C 6,4 km/h (2 Bft) 95,83 %
26.06.2018 05:28 12,9 C 19,4 C 88 % 1020,3 hPa 0,0 l/m 4,9 km/h (1 Bft) S-SW 213 1 min 0,000 mm 0,0 UV-I 30 W/m 11,0 C 12,9 C 6,4 km/h (2 Bft) 95,65 %
26.06.2018 05:29 12,9 C 19,4 C 88 % 1020,3 hPa 0,0 l/m 5,4 km/h (1 Bft) S-SW 213 1 min 0,000 mm 0,0 UV-I 32 W/m 11,0 C 12,9 C 6,4 km/h (2 Bft) 92,31 %
26.06.2018 05:30 12,9 C 19,4 C 88 % 1020,3 hPa 0,0 l/m 6,6 km/h (2 Bft) S-SW 207 1 min 0,000 mm 0,0 UV-I 32 W/m 11,0 C 12,8 C 8,0 km/h (2 Bft) 91,30 %
26.06.2018 05:31 12,9 C 19,4 C 88 % 1020,3 hPa 0,0 l/m 5,5 km/h (1 Bft) S-SW 213 1 min 0,000 mm 0,0 UV-I 32 W/m 11,0 C 12,9 C 6,4 km/h (2 Bft) 87,50 %
26.06.2018 05:32 12,9 C 19,4 C 88 % 1020,3 hPa 0,0 l/m 4,9 km/h (1 Bft) SW 218 1 min 0,000 mm 0,0 UV-I 32 W/m 11,0 C 12,9 C 6,4 km/h (2 Bft) 95,65 %
26.06.2018 05:33 12,9 C 19,4 C 89 % 1020,4 hPa 0,0 l/m 4,0 km/h (1 Bft) SW 219 1 min 0,000 mm 0,0 UV-I 33 W/m 11,1 C 12,9 C 4,8 km/h (1 Bft) 91,67 %
26.06.2018 05:34 12,9 C 19,4 C 89 % 1020,3 hPa 0,0 l/m 4,5 km/h (1 Bft) SW 219 1 min 0,000 mm 0,0 UV-I 35 W/m 11,1 C 12,9 C 6,4 km/h (2 Bft) 95,65 %
26.06.2018 05:35 12,8 C 19,4 C 89 % 1020,3 hPa 0,0 l/m 4,8 km/h (1 Bft) SW 219 1 min 0,000 mm 0,0 UV-I 35 W/m 11,0 C 12,8 C 6,4 km/h (2 Bft) 91,67 %
26.06.2018 05:36 12,8 C 19,4 C 89 % 1020,3 hPa 0,0 l/m 4,0 km/h (1 Bft) SW 219 1 min 0,000 mm 0,0 UV-I 35 W/m 11,0 C 12,8 C 4,8 km/h (1 Bft) 91,30 %
26.06.2018 05:37 12,8 C 19,4 C 89 % 1020,3 hPa 0,0 l/m 5,2 km/h (1 Bft) S-SW 195 1 min 0,000 mm 0,0 UV-I 36 W/m 11,0 C 12,8 C 6,4 km/h (2 Bft) 100,00 %
26.06.2018 05:38 12,8 C 19,4 C 89 % 1020,3 hPa 0,0 l/m 2,8 km/h (1 Bft) S-SW 196 1 min 0,000 mm 0,0 UV-I 37 W/m 11,0 C 12,8 C 3,2 km/h (1 Bft) 95,65 %
26.06.2018 05:39 12,8 C 19,4 C 89 % 1020,3 hPa 0,0 l/m 4,5 km/h (1 Bft) S-SW 196 0 min 0,000 mm 0,0 UV-I 33 W/m 11,0 C 12,8 C 4,8 km/h (1 Bft) 100,00 %
26.06.2018 05:40 12,8 C 19,4 C 89 % 1020,3 hPa 0,0 l/m 4,1 km/h (1 Bft) S-SW 196 0 min 0,000 mm 0,0 UV-I 30 W/m 11,0 C 12,8 C 4,8 km/h (1 Bft) 91,30 %
26.06.2018 05:41 12,8 C 19,4 C 89 % 1020,3 hPa 0,0 l/m 4,3 km/h (1 Bft) S-SW 203 0 min 0,000 mm 0,0 UV-I 26 W/m 11,0 C 12,8 C 6,4 km/h (2 Bft) 100,00 %
26.06.2018 05:42 12,9 C 19,4 C 89 % 1020,3 hPa 0,0 l/m 5,4 km/h (1 Bft) S-SW 202 0 min 0,000 mm 0,0 UV-I 25 W/m 11,1 C 12,9 C 6,4 km/h (2 Bft) 86,67 %
26.06.2018 05:43 12,9 C 19,4 C 89 % 1020,3 hPa 0,0 l/m 5,5 km/h (1 Bft) S-SW 202 0 min 0,000 mm 0,0 UV-I 26 W/m 11,1 C 12,9 C 8,0 km/h (2 Bft) 100,00 %
26.06.2018 05:44 12,9 C 19,4 C 89 % 1020,3 hPa 0,0 l/m 4,4 km/h (1 Bft) S-SW 202 0 min 0,000 mm 0,0 UV-I 31 W/m 11,1 C 12,9 C 6,4 km/h (2 Bft) 91,67 %
26.06.2018 05:45 12,9 C 19,4 C 89 % 1020,4 hPa 0,0 l/m 4,0 km/h (1 Bft) S-SW 202 0 min 0,000 mm 0,0 UV-I 36 W/m 11,1 C 12,9 C 4,8 km/h (1 Bft) 100,00 %
26.06.2018 05:46 12,9 C 19,4 C 89 % 1020,3 hPa 0,0 l/m 4,6 km/h (1 Bft) S-SW 203 0 min 0,000 mm 0,0 UV-I 35 W/m 11,1 C 12,9 C 6,4 km/h (2 Bft) 91,67 %
26.06.2018 05:47 12,9 C 19,4 C 89 % 1020,3 hPa 0,0 l/m 4,0 km/h (1 Bft) S-SW 203 0 min 0,000 mm 0,0 UV-I 39 W/m 11,1 C 12,9 C 4,8 km/h (1 Bft) 95,65 %
26.06.2018 05:48 12,9 C 19,4 C 89 % 1020,3 hPa 0,0 l/m 4,5 km/h (1 Bft) S-SW 202 0 min 0,000 mm 0,0 UV-I 45 W/m 11,1 C 12,9 C 6,4 km/h (2 Bft) 91,67 %
26.06.2018 05:49 12,9 C 19,4 C 90 % 1020,4 hPa 0,0 l/m 4,7 km/h (1 Bft) S-SW 204 0 min 0,000 mm 0,0 UV-I 46 W/m 11,3 C 12,9 C 8,0 km/h (2 Bft) 91,30 %
26.06.2018 05:50 12,9 C 19,4 C 90 % 1020,4 hPa 0,0 l/m 4,8 km/h (1 Bft) S-SW 209 0 min 0,000 mm 0,0 UV-I 46 W/m 11,3 C 12,9 C 6,4 km/h (2 Bft) 100,00 %
26.06.2018 05:51 12,9 C 19,4 C 90 % 1020,4 hPa 0,0 l/m 4,6 km/h (1 Bft) SW 219 0 min 0,000 mm 0,0 UV-I 44 W/m 11,3 C 12,9 C 6,4 km/h (2 Bft) 86,96 %
26.06.2018 05:52 12,9 C 19,4 C 90 % 1020,4 hPa 0,0 l/m 3,8 km/h (1 Bft) SW 219 0 min 0,000 mm 0,0 UV-I 37 W/m 11,3 C 12,9 C 4,8 km/h (1 Bft) 100,00 %
26.06.2018 05:53 12,8 C 19,4 C 90 % 1020,4 hPa 0,0 l/m 3,7 km/h (1 Bft) SW 217 0 min 0,000 mm 0,0 UV-I 34 W/m 11,2 C 12,8 C 4,8 km/h (1 Bft) 91,30 %
26.06.2018 05:54 12,8 C 19,4 C 90 % 1020,4 hPa 0,0 l/m 4,7 km/h (1 Bft) SW 225 0 min 0,000 mm 0,0 UV-I 25 W/m 11,2 C 12,8 C 6,4 km/h (2 Bft) 100,00 %
26.06.2018 05:55 12,8 C 19,4 C 90 % 1020,4 hPa 0,0 l/m 4,6 km/h (1 Bft) SW 224 0 min 0,000 mm 0,0 UV-I 26 W/m 11,2 C 12,8 C 6,4 km/h (2 Bft) 95,65 %
26.06.2018 05:56 12,8 C 19,4 C 90 % 1020,4 hPa 0,0 l/m 4,3 km/h (1 Bft) SW 224 0 min 0,000 mm 0,0 UV-I 26 W/m 11,2 C 12,8 C 6,4 km/h (2 Bft) 100,00 %
26.06.2018 05:57 12,8 C 19,4 C 90 % 1020,4 hPa 0,0 l/m 5,4 km/h (1 Bft) SW 223 0 min 0,000 mm 0,0 UV-I 28 W/m 11,2 C 12,8 C 6,4 km/h (2 Bft) 91,30 %
26.06.2018 05:58 12,8 C 19,4 C 90 % 1020,4 hPa 0,0 l/m 3,7 km/h (1 Bft) SW 224 0 min 0,000 mm 0,0 UV-I 30 W/m 11,2 C 12,8 C 4,8 km/h (1 Bft) 100,00 %
26.06.2018 05:59 12,8 C 19,4 C 90 % 1020,4 hPa 0,0 l/m 3,6 km/h (1 Bft) SW 225 0 min 0,000 mm 0,0 UV-I 32 W/m 11,2 C 12,8 C 4,8 km/h (1 Bft) 96,15 %
26.06.2018 06:00 12,7 C 19,4 C 90 % 1020,4 hPa 0,0 l/m 4,8 km/h (1 Bft) SW 221 0 min 0,026 mm 0,0 UV-I 30 W/m 11,1 C 12,7 C 6,4 km/h (2 Bft) 95,83 %
26.06.2018 06:01 12,7 C 19,4 C 90 % 1020,4 hPa 0,0 l/m 4,9 km/h (1 Bft) SW 217 0 min 0,000 mm 0,0 UV-I 30 W/m 11,1 C 12,7 C 6,4 km/h (2 Bft) 95,65 %
26.06.2018 06:02 12,7 C 19,4 C 90 % 1020,4 hPa 0,0 l/m 4,8 km/h (1 Bft) S-SW 213 0 min 0,000 mm 0,0 UV-I 32 W/m 11,1 C 12,7 C 8,0 km/h (2 Bft) 91,67 %
26.06.2018 06:03 12,7 C 19,4 C 90 % 1020,4 hPa 0,0 l/m 5,0 km/h (1 Bft) SW 215 0 min 0,000 mm 0,0 UV-I 37 W/m 11,1 C 12,7 C 6,4 km/h (2 Bft) 100,00 %
26.06.2018 06:04 12,7 C 19,4 C 91 % 1020,5 hPa 0,0 l/m 3,9 km/h (1 Bft) SW 218 0 min 0,000 mm 0,0 UV-I 39 W/m 11,3 C 12,7 C 6,4 km/h (2 Bft) 95,83 %
26.06.2018 06:05 12,7 C 19,4 C 91 % 1020,5 hPa 0,0 l/m 5,0 km/h (1 Bft) SW 221 0 min 0,000 mm 0,0 UV-I 41 W/m 11,3 C 12,7 C 6,4 km/h (2 Bft) 100,00 %
26.06.2018 06:06 12,7 C 19,4 C 91 % 1020,5 hPa 0,0 l/m 5,6 km/h (1 Bft) SW 215 0 min 0,000 mm 0,0 UV-I 46 W/m 11,3 C 12,7 C 6,4 km/h (2 Bft) 100,00 %
26.06.2018 06:07 12,7 C 19,4 C 91 % 1020,5 hPa 0,0 l/m 5,3 km/h (1 Bft) SW 215 0 min 0,000 mm 0,0 UV-I 50 W/m 11,3 C 12,7 C 6,4 km/h (2 Bft) 100,00 %
26.06.2018 06:08 12,7 C 19,4 C 91 % 1020,5 hPa 0,0 l/m 4,3 km/h (1 Bft) SW 215 0 min 0,000 mm 0,0 UV-I 52 W/m 11,3 C 12,7 C 6,4 km/h (2 Bft) 100,00 %
26.06.2018 06:09 12,7 C 19,4 C 91 % 1020,5 hPa 0,0 l/m 5,0 km/h (1 Bft) SW 215 0 min 0,000 mm 0,0 UV-I 54 W/m 11,3 C 12,7 C 6,4 km/h (2 Bft) 100,00 %
26.06.2018 06:10 12,7 C 19,4 C 91 % 1020,4 hPa 0,0 l/m 5,5 km/h (1 Bft) SW 215 0 min 0,000 mm 0,0 UV-I 58 W/m 11,3 C 12,7 C 6,4 km/h (2 Bft) 100,00 %
26.06.2018 06:11 12,7 C 19,4 C 91 % 1020,5 hPa 0,0 l/m 4,6 km/h (1 Bft) SW 215 0 min 0,000 mm 0,0 UV-I 61 W/m 11,3 C 12,7 C 6,4 km/h (2 Bft) 95,83 %
26.06.2018 06:12 12,7 C 19,4 C 91 % 1020,4 hPa 0,0 l/m 5,0 km/h (1 Bft) S-SW 211 0 min 0,000 mm 0,0 UV-I 62 W/m 11,3 C 12,7 C 6,4 km/h (2 Bft) 100,00 %
26.06.2018 06:13 12,7 C 19,4 C 91 % 1020,4 hPa 0,0 l/m 4,9 km/h (1 Bft) SW 217 0 min 0,000 mm 0,0 UV-I 64 W/m 11,3 C 12,7 C 6,4 km/h (2 Bft) 100,00 %
26.06.2018 06:14 12,7 C 19,4 C 91 % 1020,4 hPa 0,0 l/m 4,0 km/h (1 Bft) SW 217 0 min 0,000 mm 0,0 UV-I 68 W/m 11,3 C 12,7 C 4,8 km/h (1 Bft) 95,65 %
26.06.2018 06:15 12,7 C 19,4 C 91 % 1020,5 hPa 0,0 l/m 4,0 km/h (1 Bft) SW 217 0 min 0,000 mm 0,0 UV-I 71 W/m 11,3 C 12,7 C 4,8 km/h (1 Bft) 100,00 %
26.06.2018 06:16 12,8 C 19,4 C 91 % 1020,5 hPa 0,0 l/m 2,7 km/h (1 Bft) SW 217 0 min 0,000 mm 0,0 UV-I 78 W/m 11,4 C 12,8 C 3,2 km/h (1 Bft) 100,00 %
26.06.2018 06:17 12,8 C 19,4 C 91 % 1020,5 hPa 0,0 l/m 5,0 km/h (1 Bft) SW 217 0 min 0,000 mm 0,0 UV-I 85 W/m 11,4 C 12,8 C 6,4 km/h (2 Bft) 100,00 %
26.06.2018 06:18 12,8 C 19,4 C 91 % 1020,4 hPa 0,0 l/m 5,0 km/h (1 Bft) SW 217 0 min 0,000 mm 0,0 UV-I 77 W/m 11,4 C 12,8 C 6,4 km/h (2 Bft) 100,00 %
26.06.2018 06:19 12,8 C 19,4 C 91 % 1020,5 hPa 0,0 l/m 6,3 km/h (2 Bft) SW 218 0 min 0,000 mm 0,0 UV-I 77 W/m 11,4 C 12,8 C 8,0 km/h (2 Bft) 100,00 %
26.06.2018 06:20 12,8 C 19,4 C 91 % 1020,5 hPa 0,0 l/m 6,0 km/h (2 Bft) SW 218 0 min 0,000 mm 0,0 UV-I 79 W/m 11,4 C 12,8 C 6,4 km/h (2 Bft) 95,65 %
26.06.2018 06:21 12,8 C 19,4 C 91 % 1020,5 hPa 0,0 l/m 5,3 km/h (1 Bft) SW 219 0 min 0,000 mm 0,0 UV-I 81 W/m 11,4 C 12,8 C 6,4 km/h (2 Bft) 100,00 %
26.06.2018 06:22 12,8 C 19,4 C 91 % 1020,5 hPa 0,0 l/m 5,5 km/h (1 Bft) SW 219 0 min 0,000 mm 0,0 UV-I 80 W/m 11,4 C 12,8 C 8,0 km/h (2 Bft) 100,00 %
26.06.2018 06:23 12,9 C 19,4 C 91 % 1020,5 hPa 0,0 l/m 4,7 km/h (1 Bft) SW 219 0 min 0,000 mm 0,0 UV-I 81 W/m 11,5 C 12,9 C 4,8 km/h (1 Bft) 95,65 %
26.06.2018 06:24 12,8 C 19,4 C 91 % 1020,5 hPa 0,0 l/m 5,0 km/h (1 Bft) SW 214 0 min 0,000 mm 0,0 UV-I 82 W/m 11,4 C 12,8 C 6,4 km/h (2 Bft) 100,00 %
26.06.2018 06:25 12,9 C 19,4 C 91 % 1020,4 hPa 0,0 l/m 5,4 km/h (1 Bft) SW 221 0 min 0,000 mm 0,0 UV-I 84 W/m 11,5 C 12,9 C 6,4 km/h (2 Bft) 100,00 %
26.06.2018 06:26 12,9 C 19,4 C 91 % 1020,5 hPa 0,0 l/m 5,7 km/h (1 Bft) SW 219 1 min 0,000 mm 0,0 UV-I 114 W/m 11,5 C 12,9 C 8,0 km/h (2 Bft) 95,83 %
26.06.2018 06:27 12,9 C 19,4 C 91 % 1020,5 hPa 0,0 l/m 5,2 km/h (1 Bft) SW 219 0 min 0,000 mm 0,0 UV-I 102 W/m 11,5 C 12,9 C 8,0 km/h (2 Bft) 95,65 %
26.06.2018 06:28 12,9 C 19,4 C 91 % 1020,4 hPa 0,0 l/m 4,5 km/h (1 Bft) SW 218 1 min 0,000 mm 0,0 UV-I 154 W/m 11,5 C 12,9 C 6,4 km/h (2 Bft) 100,00 %
26.06.2018 06:29 12,9 C 19,4 C 91 % 1020,4 hPa 0,0 l/m 6,4 km/h (2 Bft) S-SW 211 1 min 0,000 mm 0,0 UV-I 124 W/m 11,5 C 12,9 C 8,0 km/h (2 Bft) 100,00 %
26.06.2018 06:30 13,0 C 19,4 C 91 % 1020,4 hPa 0,0 l/m 5,5 km/h (1 Bft) SW 227 1 min 0,000 mm 0,0 UV-I 129 W/m 11,6 C 13,0 C 6,4 km/h (2 Bft) 100,00 %
26.06.2018 06:31 13,1 C 19,4 C 91 % 1020,4 hPa 0,0 l/m 4,1 km/h (1 Bft) SW 226 1 min 0,000 mm 0,0 UV-I 159 W/m 11,7 C 13,1 C 6,4 km/h (2 Bft) 100,00 %
26.06.2018 06:32 13,1 C 19,4 C 91 % 1020,4 hPa 0,0 l/m 5,4 km/h (1 Bft) S-SW 206 1 min 0,000 mm 0,0 UV-I 128 W/m 11,7 C 13,1 C 8,0 km/h (2 Bft) 100,00 %
26.06.2018 06:33 13,1 C 19,4 C 91 % 1020,4 hPa 0,0 l/m 5,0 km/h (1 Bft) SW 226 0 min 0,000 mm 0,0 UV-I 95 W/m 11,7 C 13,1 C 6,4 km/h (2 Bft) 100,00 %
26.06.2018 06:34 13,2 C 19,4 C 91 % 1020,4 hPa 0,0 l/m 3,6 km/h (1 Bft) SW 226 0 min 0,000 mm 0,0 UV-I 78 W/m 11,8 C 13,2 C 4,8 km/h (1 Bft) 100,00 %
26.06.2018 06:35 13,2 C 19,4 C 90 % 1020,4 hPa 0,0 l/m 3,6 km/h (1 Bft) SW 225 0 min 0,000 mm 0,0 UV-I 79 W/m 11,6 C 13,2 C 6,4 km/h (2 Bft) 95,65 %
26.06.2018 06:36 13,2 C 19,4 C 90 % 1020,4 hPa 0,0 l/m 3,2 km/h (1 Bft) SW 228 0 min 0,000 mm 0,0 UV-I 79 W/m 11,6 C 13,2 C 4,8 km/h (1 Bft) 100,00 %
26.06.2018 06:37 13,2 C 19,4 C 90 % 1020,4 hPa 0,0 l/m 4,0 km/h (1 Bft) SW 215 0 min 0,000 mm 0,0 UV-I 78 W/m 11,6 C 13,2 C 4,8 km/h (1 Bft) 100,00 %
26.06.2018 06:38 13,2 C 19,4 C 90 % 1020,4 hPa 0,0 l/m 5,7 km/h (1 Bft) SW 224 0 min 0,000 mm 0,0 UV-I 86 W/m 11,6 C 13,2 C 8,0 km/h (2 Bft) 100,00 %
26.06.2018 06:39 13,2 C 19,4 C 90 % 1020,4 hPa 0,0 l/m 4,5 km/h (1 Bft) W-SW 237 1 min 0,000 mm 0,0 UV-I 160 W/m 11,6 C 13,2 C 8,0 km/h (2 Bft) 100,00 %
26.06.2018 06:40 13,2 C 19,4 C 90 % 1020,4 hPa 0,0 l/m 6,0 km/h (2 Bft) SW 228 1 min 0,000 mm 0,0 UV-I 176 W/m 11,6 C 13,2 C 8,0 km/h (2 Bft) 100,00 %
26.06.2018 06:41 13,2 C 19,4 C 90 % 1020,4 hPa 0,0 l/m 6,9 km/h (2 Bft) SW 236 1 min 0,000 mm 0,0 UV-I 183 W/m 11,6 C 12,9 C 9,7 km/h (2 Bft) 100,00 %
26.06.2018 06:42 13,2 C 19,4 C 89 % 1020,5 hPa 0,0 l/m 4,8 km/h (1 Bft) W-SW 242 1 min 0,000 mm 0,0 UV-I 180 W/m 11,4 C 13,2 C 6,4 km/h (2 Bft) 100,00 %
26.06.2018 06:43 13,3 C 19,4 C 89 % 1020,5 hPa 0,0 l/m 4,4 km/h (1 Bft) SW 236 1 min 0,000 mm 0,0 UV-I 193 W/m 11,5 C 13,3 C 6,4 km/h (2 Bft) 100,00 %
26.06.2018 06:44 13,3 C 19,4 C 89 % 1020,5 hPa 0,0 l/m 5,8 km/h (2 Bft) SW 231 1 min 0,000 mm 0,0 UV-I 205 W/m 11,5 C 13,3 C 6,4 km/h (2 Bft) 100,00 %
26.06.2018 06:45 13,3 C 19,4 C 89 % 1020,5 hPa 0,0 l/m 4,4 km/h (1 Bft) SW 221 1 min 0,000 mm 0,0 UV-I 207 W/m 11,5 C 13,3 C 6,4 km/h (2 Bft) 100,00 %
26.06.2018 06:46 13,4 C 19,4 C 89 % 1020,5 hPa 0,0 l/m 3,6 km/h (1 Bft) W-SW 250 1 min 0,000 mm 0,0 UV-I 209 W/m 11,6 C 13,4 C 4,8 km/h (1 Bft) 100,00 %
26.06.2018 06:47 13,5 C 19,4 C 89 % 1020,5 hPa 0,0 l/m 4,4 km/h (1 Bft) SW 236 1 min 0,000 mm 0,0 UV-I 209 W/m 11,7 C 13,5 C 6,4 km/h (2 Bft) 100,00 %
26.06.2018 06:48 13,5 C 19,4 C 89 % 1020,5 hPa 0,0 l/m 4,5 km/h (1 Bft) SW 226 1 min 0,000 mm 0,0 UV-I 207 W/m 11,7 C 13,5 C 6,4 km/h (2 Bft) 100,00 %
26.06.2018 06:49 13,6 C 19,4 C 89 % 1020,5 hPa 0,0 l/m 5,3 km/h (1 Bft) SW 234 1 min 0,000 mm 0,0 UV-I 206 W/m 11,8 C 13,6 C 8,0 km/h (2 Bft) 100,00 %
26.06.2018 06:50 13,6 C 19,4 C 89 % 1020,5 hPa 0,0 l/m 4,6 km/h (1 Bft) SW 227 1 min 0,000 mm 0,0 UV-I 206 W/m 11,8 C 13,6 C 6,4 km/h (2 Bft) 100,00 %
26.06.2018 06:51 13,7 C 19,4 C 88 % 1020,5 hPa 0,0 l/m 4,7 km/h (1 Bft) S-SW 213 1 min 0,000 mm 0,0 UV-I 204 W/m 11,7 C 13,7 C 8,0 km/h (2 Bft) 100,00 %
26.06.2018 06:52 13,7 C 19,4 C 88 % 1020,5 hPa 0,0 l/m 6,6 km/h (2 Bft) SW 227 1 min 0,000 mm 0,0 UV-I 204 W/m 11,7 C 13,6 C 9,7 km/h (2 Bft) 100,00 %
26.06.2018 06:53 13,8 C 19,4 C 88 % 1020,4 hPa 0,0 l/m 4,2 km/h (1 Bft) S-SW 199 1 min 0,000 mm 0,0 UV-I 204 W/m 11,8 C 13,8 C 6,4 km/h (2 Bft) 100,00 %
26.06.2018 06:54 13,8 C 19,4 C 88 % 1020,5 hPa 0,0 l/m 6,1 km/h (2 Bft) SW 217 1 min 0,000 mm 0,0 UV-I 204 W/m 11,8 C 13,8 C 8,0 km/h (2 Bft) 100,00 %
26.06.2018 06:55 13,8 C 19,4 C 88 % 1020,5 hPa 0,0 l/m 5,8 km/h (2 Bft) SW 223 1 min 0,000 mm 0,0 UV-I 208 W/m 11,8 C 13,8 C 6,4 km/h (2 Bft) 100,00 %
26.06.2018 06:56 13,8 C 19,4 C 88 % 1020,4 hPa 0,0 l/m 6,5 km/h (2 Bft) SW 215 1 min 0,000 mm 0,0 UV-I 214 W/m 11,8 C 13,8 C 9,7 km/h (2 Bft) 100,00 %
26.06.2018 06:57 13,9 C 19,4 C 88 % 1020,5 hPa 0,0 l/m 8,4 km/h (2 Bft) W-SW 254 1 min 0,000 mm 0,0 UV-I 216 W/m 11,9 C 12,7 C 11,3 km/h (2 Bft) 100,00 %
26.06.2018 06:58 13,9 C 19,4 C 88 % 1020,4 hPa 0,0 l/m 5,4 km/h (1 Bft) W-SW 247 1 min 0,000 mm 0,0 UV-I 219 W/m 11,9 C 13,9 C 8,0 km/h (2 Bft) 100,00 %
26.06.2018 06:59 13,9 C 19,4 C 88 % 1020,5 hPa 0,0 l/m 7,2 km/h (2 Bft) SW 223 1 min 0,000 mm 0,0 UV-I 222 W/m 11,9 C 13,4 C 9,7 km/h (2 Bft) 100,00 %
26.06.2018 07:00 14,0 C 19,4 C 88 % 1020,5 hPa 0,0 l/m 6,7 km/h (2 Bft) SW 229 1 min 0,000 mm 0,0 UV-I 224 W/m 12,0 C 13,8 C 9,7 km/h (2 Bft) 95,65 %
26.06.2018 07:01 14,1 C 19,4 C 88 % 1020,5 hPa 0,0 l/m 6,8 km/h (2 Bft) W-SW 237 1 min 0,076 mm 0,0 UV-I 227 W/m 12,1 C 13,9 C 12,9 km/h (3 Bft) 100,00 %
26.06.2018 07:02 14,1 C 19,4 C 87 % 1020,5 hPa 0,0 l/m 8,4 km/h (2 Bft) SW 232 1 min 0,000 mm 0,0 UV-I 230 W/m 12,0 C 12,9 C 14,5 km/h (3 Bft) 95,65 %
26.06.2018 07:03 14,1 C 19,4 C 87 % 1020,5 hPa 0,0 l/m 6,0 km/h (2 Bft) W-SW 247 1 min 0,000 mm 0,0 UV-I 232 W/m 12,0 C 14,1 C 9,7 km/h (2 Bft) 100,00 %
26.06.2018 07:04 14,2 C 19,4 C 87 % 1020,5 hPa 0,0 l/m 9,3 km/h (2 Bft) W 264 1 min 0,000 mm 0,5 UV-I 235 W/m 12,1 C 12,6 C 14,5 km/h (3 Bft) 100,00 %
26.06.2018 07:05 14,2 C 19,4 C 87 % 1020,6 hPa 0,0 l/m 9,7 km/h (2 Bft) SW 234 1 min 0,000 mm 0,5 UV-I 238 W/m 12,1 C 12,4 C 12,9 km/h (3 Bft) 95,65 %
26.06.2018 07:06 14,2 C 19,4 C 87 % 1020,6 hPa 0,0 l/m 9,7 km/h (2 Bft) SW 228 1 min 0,000 mm 0,5 UV-I 240 W/m 12,1 C 12,4 C 14,5 km/h (3 Bft) 100,00 %
26.06.2018 07:07 14,2 C 19,4 C 87 % 1020,6 hPa 0,0 l/m 10,7 km/h (2 Bft) W-SW 248 1 min 0,000 mm 0,5 UV-I 244 W/m 12,1 C 11,9 C 14,5 km/h (3 Bft) 100,00 %
26.06.2018 07:08 14,2 C 19,4 C 86 % 1020,6 hPa 0,0 l/m 8,5 km/h (2 Bft) W 259 1 min 0,000 mm 0,5 UV-I 247 W/m 11,9 C 13,0 C 9,7 km/h (2 Bft) 100,00 %
26.06.2018 07:09 14,3 C 19,4 C 86 % 1020,6 hPa 0,0 l/m 5,2 km/h (1 Bft) SW 233 1 min 0,000 mm 0,5 UV-I 250 W/m 12,0 C 14,3 C 9,7 km/h (2 Bft) 100,00 %
26.06.2018 07:10 14,3 C 19,4 C 86 % 1020,6 hPa 0,0 l/m 4,6 km/h (1 Bft) W 278 1 min 0,000 mm 0,5 UV-I 252 W/m 12,0 C 14,3 C 6,4 km/h (2 Bft) 100,00 %
26.06.2018 07:11 14,4 C 19,4 C 86 % 1020,7 hPa 0,0 l/m 5,6 km/h (1 Bft) W 267 1 min 0,000 mm 0,5 UV-I 254 W/m 12,1 C 14,4 C 6,4 km/h (2 Bft) 95,65 %
26.06.2018 07:12 14,5 C 19,4 C 86 % 1020,6 hPa 0,0 l/m 8,2 km/h (2 Bft) W-SW 257 1 min 0,000 mm 0,5 UV-I 257 W/m 12,2 C 13,5 C 12,9 km/h (3 Bft) 100,00 %
26.06.2018 07:13 14,6 C 19,4 C 86 % 1020,7 hPa 0,0 l/m 6,8 km/h (2 Bft) W-SW 241 1 min 0,000 mm 0,5 UV-I 260 W/m 12,3 C 14,4 C 12,9 km/h (3 Bft) 95,65 %
26.06.2018 07:14 14,6 C 19,4 C 85 % 1020,7 hPa 0,0 l/m 8,9 km/h (2 Bft) W 260 1 min 0,000 mm 0,5 UV-I 262 W/m 12,1 C 13,2 C 11,3 km/h (2 Bft) 100,00 %
26.06.2018 07:15 14,6 C 19,4 C 85 % 1020,7 hPa 0,0 l/m 5,2 km/h (1 Bft) W-SW 244 1 min 0,000 mm 0,5 UV-I 266 W/m 12,1 C 14,6 C 8,0 km/h (2 Bft) 95,65 %
26.06.2018 07:16 14,6 C 19,4 C 85 % 1020,7 hPa 0,0 l/m 7,7 km/h (2 Bft) SW 233 1 min 0,000 mm 0,6 UV-I 268 W/m 12,1 C 13,8 C 11,3 km/h (2 Bft) 100,00 %
26.06.2018 07:17 14,6 C 19,4 C 85 % 1020,7 hPa 0,0 l/m 6,8 km/h (2 Bft) W-NW 294 1 min 0,000 mm 0,6 UV-I 270 W/m 12,1 C 14,4 C 11,3 km/h (2 Bft) 100,00 %
26.06.2018 07:18 14,7 C 19,4 C 85 % 1020,7 hPa 0,0 l/m 6,2 km/h (2 Bft) SW 215 1 min 0,000 mm 0,6 UV-I 272 W/m 12,2 C 14,7 C 8,0 km/h (2 Bft) 95,83 %
26.06.2018 07:19 14,7 C 19,4 C 85 % 1020,7 hPa 0,0 l/m 7,7 km/h (2 Bft) SW 219 1 min 0,000 mm 0,6 UV-I 276 W/m 12,2 C 14,0 C 11,3 km/h (2 Bft) 100,00 %
26.06.2018 07:20 14,8 C 19,4 C 85 % 1020,7 hPa 0,0 l/m 6,4 km/h (2 Bft) W 263 1 min 0,000 mm 0,6 UV-I 278 W/m 12,3 C 14,8 C 9,7 km/h (2 Bft) 95,83 %
26.06.2018 07:21 14,7 C 19,4 C 85 % 1020,7 hPa 0,0 l/m 7,2 km/h (2 Bft) SW 229 1 min 0,000 mm 0,6 UV-I 280 W/m 12,2 C 14,2 C 11,3 km/h (2 Bft) 95,65 %
26.06.2018 07:22 14,8 C 19,4 C 85 % 1020,7 hPa 0,0 l/m 7,1 km/h (2 Bft) SW 215 1 min 0,000 mm 0,6 UV-I 284 W/m 12,3 C 14,4 C 11,3 km/h (2 Bft) 95,83 %
26.06.2018 07:23 14,8 C 19,4 C 85 % 1020,7 hPa 0,0 l/m 9,1 km/h (2 Bft) W-SW 244 1 min 0,000 mm 0,6 UV-I 286 W/m 12,3 C 13,3 C 14,5 km/h (3 Bft) 100,00 %
26.06.2018 07:24 14,8 C 19,4 C 84 % 1020,7 hPa 0,0 l/m 6,8 km/h (2 Bft) W 265 1 min 0,000 mm 0,6 UV-I 288 W/m 12,1 C 14,6 C 11,3 km/h (2 Bft) 95,83 %
26.06.2018 07:25 14,8 C 19,4 C 85 % 1020,7 hPa 0,0 l/m 7,4 km/h (2 Bft) W-NW 282 1 min 0,000 mm 0,7 UV-I 292 W/m 12,3 C 14,2 C 9,7 km/h (2 Bft) 100,00 %
26.06.2018 07:26 14,9 C 19,4 C 85 % 1020,7 hPa 0,0 l/m 7,4 km/h (2 Bft) W 264 1 min 0,000 mm 0,7 UV-I 295 W/m 12,4 C 14,3 C 9,7 km/h (2 Bft) 91,30 %
26.06.2018 07:27 14,9 C 19,4 C 85 % 1020,8 hPa 0,0 l/m 5,5 km/h (1 Bft) W-SW 242 1 min 0,000 mm 0,7 UV-I 298 W/m 12,4 C 14,9 C 8,0 km/h (2 Bft) 95,83 %
26.06.2018 07:28 15,0 C 19,4 C 84 % 1020,8 hPa 0,0 l/m 4,3 km/h (1 Bft) W-NW 292 1 min 0,000 mm 0,7 UV-I 301 W/m 12,3 C 15,0 C 6,4 km/h (2 Bft) 100,00 %
26.06.2018 07:29 15,1 C 19,4 C 85 % 1020,7 hPa 0,0 l/m 5,4 km/h (1 Bft) W-SW 246 1 min 0,000 mm 0,7 UV-I 303 W/m 12,6 C 15,1 C 9,7 km/h (2 Bft) 95,83 %
26.06.2018 07:30 15,1 C 19,4 C 84 % 1020,8 hPa 0,0 l/m 7,3 km/h (2 Bft) W-SW 244 1 min 0,000 mm 0,7 UV-I 306 W/m 12,4 C 14,6 C 11,3 km/h (2 Bft) 100,00 %
26.06.2018 07:31 15,1 C 19,4 C 84 % 1020,8 hPa 0,0 l/m 6,0 km/h (2 Bft) W 259 1 min 0,000 mm 0,7 UV-I 309 W/m 12,4 C 15,1 C 9,7 km/h (2 Bft) 95,83 %
26.06.2018 07:32 15,2 C 19,4 C 84 % 1020,8 hPa 0,0 l/m 11,1 km/h (2 Bft) W 263 1 min 0,000 mm 0,7 UV-I 311 W/m 12,5 C 12,9 C 14,5 km/h (3 Bft) 100,00 %
26.06.2018 07:33 15,2 C 19,4 C 83 % 1020,8 hPa 0,0 l/m 13,7 km/h (3 Bft) W-SW 255 1 min 0,000 mm 0,7 UV-I 314 W/m 12,3 C 11,9 C 16,1 km/h (3 Bft) 95,83 %
26.06.2018 07:34 15,1 C 19,4 C 83 % 1020,8 hPa 0,0 l/m 10,6 km/h (2 Bft) W-SW 243 1 min 0,000 mm 0,8 UV-I 317 W/m 12,2 C 13,0 C 14,5 km/h (3 Bft) 100,00 %
26.06.2018 07:35 15,2 C 19,4 C 83 % 1020,8 hPa 0,0 l/m 7,9 km/h (2 Bft) W-SW 252 1 min 0,000 mm 0,8 UV-I 319 W/m 12,3 C 14,4 C 9,7 km/h (2 Bft) 95,83 %
26.06.2018 07:36 15,2 C 19,4 C 84 % 1020,8 hPa 0,0 l/m 6,8 km/h (2 Bft) W 266 1 min 0,000 mm 0,8 UV-I 322 W/m 12,5 C 15,0 C 9,7 km/h (2 Bft) 100,00 %
26.06.2018 07:37 15,2 C 19,4 C 84 % 1020,8 hPa 0,0 l/m 4,8 km/h (1 Bft) W 259 1 min 0,000 mm 0,8 UV-I 325 W/m 12,5 C 15,2 C 6,4 km/h (2 Bft) 92,59 %
26.06.2018 07:38 15,2 C 19,4 C 83 % 1020,7 hPa 0,0 l/m 4,3 km/h (1 Bft) W 261 1 min 0,000 mm 0,8 UV-I 328 W/m 12,3 C 15,2 C 6,4 km/h (2 Bft) 95,65 %
26.06.2018 07:39 15,3 C 19,4 C 84 % 1020,7 hPa 0,0 l/m 8,4 km/h (2 Bft) W-SW 255 1 min 0,000 mm 0,8 UV-I 331 W/m 12,6 C 14,2 C 14,5 km/h (3 Bft) 100,00 %
26.06.2018 07:40 15,4 C 19,4 C 83 % 1020,7 hPa 0,0 l/m 8,8 km/h (2 Bft) W 259 1 min 0,000 mm 0,8 UV-I 333 W/m 12,5 C 14,1 C 11,3 km/h (2 Bft) 96,15 %
26.06.2018 07:41 15,4 C 19,4 C 82 % 1020,7 hPa 0,0 l/m 8,5 km/h (2 Bft) NW 315 1 min 0,000 mm 0,8 UV-I 335 W/m 12,3 C 14,3 C 12,9 km/h (3 Bft) 100,00 %
26.06.2018 07:42 15,4 C 19,4 C 83 % 1020,7 hPa 0,0 l/m 4,2 km/h (1 Bft) W-SW 252 1 min 0,000 mm 0,9 UV-I 338 W/m 12,5 C 15,4 C 12,9 km/h (3 Bft) 95,65 %
26.06.2018 07:43 15,4 C 19,4 C 82 % 1020,7 hPa 0,0 l/m 9,3 km/h (2 Bft) W-SW 258 1 min 0,000 mm 0,9 UV-I 341 W/m 12,3 C 13,9 C 11,3 km/h (2 Bft) 100,00 %
26.06.2018 07:44 15,4 C 19,4 C 81 % 1020,7 hPa 0,0 l/m 6,4 km/h (2 Bft) W 270 1 min 0,000 mm 0,9 UV-I 344 W/m 12,2 C 15,4 C 9,7 km/h (2 Bft) 95,83 %
26.06.2018 07:45 15,4 C 19,4 C 81 % 1020,7 hPa 0,0 l/m 6,0 km/h (2 Bft) W 261 1 min 0,000 mm 0,9 UV-I 345 W/m 12,2 C 15,4 C 9,7 km/h (2 Bft) 95,65 %
26.06.2018 07:46 15,5 C 19,4 C 81 % 1020,7 hPa 0,0 l/m 7,8 km/h (2 Bft) W 267 1 min 0,000 mm 0,9 UV-I 348 W/m 12,3 C 14,7 C 14,5 km/h (3 Bft) 100,00 %
26.06.2018 07:47 15,5 C 19,4 C 79 % 1020,7 hPa 0,0 l/m 9,8 km/h (2 Bft) SW 224 1 min 0,000 mm 0,9 UV-I 352 W/m 11,9 C 13,8 C 14,5 km/h (3 Bft) 100,00 %
26.06.2018 07:48 15,5 C 19,4 C 79 % 1020,8 hPa 0,0 l/m 10,3 km/h (2 Bft) W 265 1 min 0,000 mm 0,9 UV-I 353 W/m 11,9 C 13,5 C 14,5 km/h (3 Bft) 95,83 %
26.06.2018 07:49 15,5 C 19,4 C 80 % 1020,8 hPa 0,0 l/m 9,0 km/h (2 Bft) W 273 1 min 0,000 mm 0,9 UV-I 357 W/m 12,1 C 14,1 C 11,3 km/h (2 Bft) 95,65 %
26.06.2018 07:50 15,6 C 19,4 C 80 % 1020,8 hPa 0,0 l/m 7,1 km/h (2 Bft) SW 225 1 min 0,000 mm 1,0 UV-I 360 W/m 12,2 C 15,2 C 11,3 km/h (2 Bft) 100,00 %
26.06.2018 07:51 15,6 C 19,4 C 79 % 1020,8 hPa 0,0 l/m 5,4 km/h (1 Bft) W 273 1 min 0,000 mm 1,0 UV-I 363 W/m 12,0 C 15,6 C 6,4 km/h (2 Bft) 100,00 %
26.06.2018 07:52 15,6 C 19,4 C 79 % 1020,8 hPa 0,0 l/m 7,0 km/h (2 Bft) W 273 1 min 0,000 mm 1,0 UV-I 366 W/m 12,0 C 15,3 C 12,9 km/h (3 Bft) 100,00 %
26.06.2018 07:53 15,6 C 19,4 C 79 % 1020,8 hPa 0,0 l/m 11,4 km/h (2 Bft) W-SW 252 1 min 0,000 mm 1,0 UV-I 368 W/m 12,0 C 13,2 C 12,9 km/h (3 Bft) 100,00 %
26.06.2018 07:54 15,6 C 19,4 C 79 % 1020,8 hPa 0,0 l/m 8,9 km/h (2 Bft) W 265 1 min 0,000 mm 1,0 UV-I 372 W/m 12,0 C 14,3 C 12,9 km/h (3 Bft) 100,00 %
26.06.2018 07:55 15,7 C 19,4 C 78 % 1020,7 hPa 0,0 l/m 8,6 km/h (2 Bft) W 278 1 min 0,000 mm 1,0 UV-I 376 W/m 11,9 C 14,5 C 11,3 km/h (2 Bft) 95,65 %
26.06.2018 07:56 15,7 C 19,4 C 78 % 1020,8 hPa 0,0 l/m 9,7 km/h (2 Bft) W 271 1 min 0,000 mm 1,0 UV-I 379 W/m 11,9 C 14,0 C 12,9 km/h (3 Bft) 100,00 %
26.06.2018 07:57 15,7 C 19,4 C 78 % 1020,8 hPa 0,0 l/m 10,7 km/h (2 Bft) W-SW 247 1 min 0,000 mm 1,1 UV-I 383 W/m 11,9 C 13,6 C 12,9 km/h (3 Bft) 95,83 %
26.06.2018 07:58 15,7 C 19,4 C 78 % 1020,8 hPa 0,0 l/m 6,7 km/h (2 Bft) W 261 1 min 0,000 mm 1,1 UV-I 387 W/m 11,9 C 15,5 C 11,3 km/h (2 Bft) 100,00 %
26.06.2018 07:59 15,7 C 19,4 C 78 % 1020,9 hPa 0,0 l/m 5,7 km/h (1 Bft) W 271 1 min 0,000 mm 1,1 UV-I 389 W/m 11,9 C 15,7 C 8,0 km/h (2 Bft) 100,00 %
26.06.2018 08:00 15,8 C 19,4 C 79 % 1020,8 hPa 0,0 l/m 4,2 km/h (1 Bft) W-NW 285 1 min 0,178 mm 1,1 UV-I 392 W/m 12,2 C 15,8 C 6,4 km/h (2 Bft) 100,00 %
26.06.2018 08:02 15,8 C 19,4 C 78 % 1020,8 hPa 0,0 l/m 5,3 km/h (1 Bft) W 275 2 min 0,000 mm 1,1 UV-I 398 W/m 12,0 C 15,8 C 6,4 km/h (2 Bft) 100,00 %
26.06.2018 08:03 15,9 C 19,4 C 78 % 1020,8 hPa 0,0 l/m 6,2 km/h (2 Bft) W-NW 286 1 min 0,000 mm 1,2 UV-I 402 W/m 12,1 C 15,9 C 9,7 km/h (2 Bft) 100,00 %
26.06.2018 08:04 16,0 C 19,4 C 78 % 1020,8 hPa 0,0 l/m 4,3 km/h (1 Bft) W-SW 248 1 min 0,000 mm 1,2 UV-I 405 W/m 12,2 C 16,0 C 6,4 km/h (2 Bft) 95,65 %
26.06.2018 08:05 16,0 C 19,4 C 77 % 1020,8 hPa 0,0 l/m 5,0 km/h (1 Bft) W 269 1 min 0,000 mm 1,2 UV-I 408 W/m 12,0 C 16,0 C 9,7 km/h (2 Bft) 100,00 %
26.06.2018 08:06 16,0 C 19,4 C 78 % 1020,8 hPa 0,0 l/m 7,2 km/h (2 Bft) W 269 1 min 0,000 mm 1,2 UV-I 410 W/m 12,2 C 15,6 C 11,3 km/h (2 Bft) 100,00 %
26.06.2018 08:07 16,0 C 19,4 C 78 % 1020,8 hPa 0,0 l/m 11,7 km/h (2 Bft) W-SW 238 1 min 0,000 mm 1,2 UV-I 411 W/m 12,2 C 13,5 C 16,1 km/h (3 Bft) 100,00 %
26.06.2018 08:08 16,0 C 19,4 C 78 % 1020,9 hPa 0,0 l/m 12,3 km/h (3 Bft) W-NW 284 1 min 0,000 mm 1,2 UV-I 414 W/m 12,2 C 13,3 C 17,7 km/h (3 Bft) 100,00 %
26.06.2018 08:09 16,0 C 19,4 C 77 % 1020,8 hPa 0,0 l/m 8,4 km/h (2 Bft) W-SW 257 1 min 0,000 mm 1,3 UV-I 416 W/m 12,0 C 15,0 C 12,9 km/h (3 Bft) 100,00 %
26.06.2018 08:10 16,0 C 19,4 C 78 % 1020,8 hPa 0,0 l/m 8,3 km/h (2 Bft) W-SW 252 1 min 0,000 mm 1,3 UV-I 419 W/m 12,2 C 15,0 C 12,9 km/h (3 Bft) 100,00 %
26.06.2018 08:11 15,9 C 19,4 C 77 % 1020,8 hPa 0,0 l/m 6,7 km/h (2 Bft) W 261 1 min 0,000 mm 1,3 UV-I 422 W/m 11,9 C 15,7 C 11,3 km/h (2 Bft) 100,00 %
26.06.2018 08:12 15,9 C 19,4 C 78 % 1020,8 hPa 0,0 l/m 5,5 km/h (1 Bft) NW 313 1 min 0,000 mm 1,3 UV-I 424 W/m 12,1 C 15,9 C 8,0 km/h (2 Bft) 100,00 %
26.06.2018 08:13 16,0 C 19,4 C 78 % 1020,8 hPa 0,0 l/m 5,6 km/h (1 Bft) W-SW 258 1 min 0,000 mm 1,3 UV-I 427 W/m 12,2 C 16,0 C 12,9 km/h (3 Bft) 95,83 %
26.06.2018 08:14 16,1 C 19,4 C 78 % 1020,8 hPa 0,0 l/m 5,9 km/h (2 Bft) W-SW 254 1 min 0,000 mm 1,3 UV-I 430 W/m 12,3 C 16,1 C 11,3 km/h (2 Bft) 95,65 %
26.06.2018 08:15 16,1 C 19,4 C 78 % 1020,8 hPa 0,0 l/m 7,1 km/h (2 Bft) W 275 1 min 0,000 mm 1,3 UV-I 433 W/m 12,3 C 15,7 C 11,3 km/h (2 Bft) 100,00 %
26.06.2018 08:16 16,2 C 19,4 C 78 % 1020,8 hPa 0,0 l/m 7,6 km/h (2 Bft) W-SW 248 1 min 0,000 mm 1,3 UV-I 434 W/m 12,4 C 15,6 C 11,3 km/h (2 Bft) 100,00 %
26.06.2018 08:17 16,2 C 19,4 C 77 % 1020,8 hPa 0,0 l/m 9,3 km/h (2 Bft) W-SW 253 1 min 0,000 mm 1,4 UV-I 437 W/m 12,2 C 14,7 C 12,9 km/h (3 Bft) 100,00 %
26.06.2018 08:18 16,1 C 19,4 C 77 % 1020,9 hPa 0,0 l/m 10,6 km/h (2 Bft) W-SW 252 1 min 0,000 mm 1,4 UV-I 441 W/m 12,1 C 14,1 C 14,5 km/h (3 Bft) 100,00 %
26.06.2018 08:19 16,1 C 19,4 C 78 % 1020,8 hPa 0,0 l/m 9,7 km/h (2 Bft) W 263 1 min 0,000 mm 1,4 UV-I 444 W/m 12,3 C 14,5 C 12,9 km/h (3 Bft) 100,00 %
26.06.2018 08:20 16,2 C 20,0 C 78 % 1020,8 hPa 0,0 l/m 7,2 km/h (2 Bft) W 271 1 min 0,000 mm 1,4 UV-I 447 W/m 12,4 C 15,8 C 11,3 km/h (2 Bft) 91,30 %
26.06.2018 08:21 16,1 C 20,0 C 77 % 1020,8 hPa 0,0 l/m 8,3 km/h (2 Bft) W 259 1 min 0,000 mm 1,4 UV-I 449 W/m 12,1 C 15,1 C 11,3 km/h (2 Bft) 100,00 %
26.06.2018 08:22 16,2 C 19,4 C 77 % 1020,8 hPa 0,0 l/m 6,0 km/h (2 Bft) W 271 1 min 0,000 mm 1,4 UV-I 451 W/m 12,2 C 16,2 C 11,3 km/h (2 Bft) 95,83 %
26.06.2018 08:23 16,2 C 19,4 C 78 % 1020,8 hPa 0,0 l/m 1,7 km/h (1 Bft) W 271 1 min 0,000 mm 1,5 UV-I 454 W/m 12,4 C 16,2 C 3,2 km/h (1 Bft) 100,00 %
26.06.2018 08:24 16,3 C 19,4 C 78 % 1020,8 hPa 0,0 l/m 4,6 km/h (1 Bft) W-SW 257 1 min 0,000 mm 1,5 UV-I 459 W/m 12,5 C 16,3 C 8,0 km/h (2 Bft) 100,00 %
26.06.2018 08:25 16,2 C 19,4 C 77 % 1020,8 hPa 0,0 l/m 5,8 km/h (2 Bft) NW 311 1 min 0,000 mm 1,5 UV-I 460 W/m 12,2 C 16,2 C 9,7 km/h (2 Bft) 100,00 %
26.06.2018 08:26 16,2 C 19,4 C 77 % 1020,9 hPa 0,0 l/m 5,8 km/h (2 Bft) W 273 1 min 0,000 mm 1,5 UV-I 461 W/m 12,2 C 16,2 C 9,7 km/h (2 Bft) 91,67 %
26.06.2018 08:27 16,2 C 19,4 C 77 % 1020,9 hPa 0,0 l/m 3,5 km/h (1 Bft) W-NW 298 1 min 0,000 mm 1,5 UV-I 464 W/m 12,2 C 16,2 C 4,8 km/h (1 Bft) 100,00 %
26.06.2018 08:28 16,2 C 20,0 C 77 % 1020,8 hPa 0,0 l/m 3,1 km/h (1 Bft) N 5 1 min 0,000 mm 1,6 UV-I 468 W/m 12,2 C 16,2 C 4,8 km/h (1 Bft) 100,00 %
26.06.2018 08:29 16,3 C 20,0 C 78 % 1020,7 hPa 0,0 l/m 1,9 km/h (1 Bft) N 5 1 min 0,000 mm 1,6 UV-I 472 W/m 12,5 C 16,3 C 3,2 km/h (1 Bft) 100,00 %
26.06.2018 08:30 16,4 C 20,0 C 78 % 1020,8 hPa 0,0 l/m 3,0 km/h (1 Bft) NW 310 1 min 0,000 mm 1,6 UV-I 475 W/m 12,6 C 16,4 C 4,8 km/h (1 Bft) 95,83 %
26.06.2018 08:31 16,5 C 19,4 C 77 % 1020,8 hPa 0,0 l/m 2,6 km/h (1 Bft) NW 323 1 min 0,000 mm 1,6 UV-I 476 W/m 12,5 C 16,5 C 4,8 km/h (1 Bft) 100,00 %
26.06.2018 08:32 16,6 C 20,0 C 77 % 1020,7 hPa 0,0 l/m 0,9 km/h (0 Bft) NW 314 1 min 0,000 mm 1,7 UV-I 479 W/m 12,5 C 16,6 C 3,2 km/h (1 Bft) 95,83 %
26.06.2018 08:33 16,7 C 20,0 C 77 % 1020,8 hPa 0,0 l/m 1,7 km/h (1 Bft) NW 325 1 min 0,000 mm 1,7 UV-I 481 W/m 12,6 C 16,7 C 3,2 km/h (1 Bft) 100,00 %
26.06.2018 08:34 16,9 C 20,0 C 76 % 1020,8 hPa 0,0 l/m 1,1 km/h (1 Bft) NW 325 1 min 0,000 mm 1,8 UV-I 483 W/m 12,6 C 16,9 C 1,6 km/h (1 Bft) 95,83 %
26.06.2018 08:35 16,9 C 19,4 C 77 % 1020,8 hPa 0,0 l/m 1,0 km/h (0 Bft) N-NW 333 1 min 0,000 mm 1,8 UV-I 486 W/m 12,8 C 16,9 C 1,6 km/h (1 Bft) 100,00 %
26.06.2018 08:36 17,0 C 20,0 C 77 % 1020,8 hPa 0,0 l/m 2,7 km/h (1 Bft) N-NW 329 1 min 0,000 mm 1,8 UV-I 492 W/m 12,9 C 17,0 C 3,2 km/h (1 Bft) 96,30 %
26.06.2018 08:37 17,1 C 19,4 C 76 % 1020,8 hPa 0,0 l/m 6,1 km/h (2 Bft) W 274 1 min 0,000 mm 1,8 UV-I 495 W/m 12,8 C 17,1 C 11,3 km/h (2 Bft) 95,65 %
26.06.2018 08:38 17,0 C 20,0 C 74 % 1020,8 hPa 0,0 l/m 7,2 km/h (2 Bft) W-SW 250 1 min 0,000 mm 1,9 UV-I 496 W/m 12,3 C 16,6 C 11,3 km/h (2 Bft) 100,00 %
26.06.2018 08:39 17,0 C 19,4 C 74 % 1020,8 hPa 0,0 l/m 8,3 km/h (2 Bft) W-SW 250 1 min 0,000 mm 1,9 UV-I 497 W/m 12,3 C 16,1 C 11,3 km/h (2 Bft) 96,15 %
26.06.2018 08:40 16,9 C 19,4 C 74 % 1020,8 hPa 0,0 l/m 6,4 km/h (2 Bft) W-SW 246 1 min 0,000 mm 1,9 UV-I 501 W/m 12,2 C 16,9 C 8,0 km/h (2 Bft) 100,00 %
26.06.2018 08:41 17,0 C 19,4 C 74 % 1020,8 hPa 0,0 l/m 4,3 km/h (1 Bft) N-NO 32 1 min 0,000 mm 1,9 UV-I 504 W/m 12,3 C 17,0 C 6,4 km/h (2 Bft) 91,67 %
26.06.2018 08:42 17,0 C 19,4 C 74 % 1020,8 hPa 0,0 l/m 1,7 km/h (1 Bft) N 11 1 min 0,000 mm 1,9 UV-I 506 W/m 12,3 C 17,0 C 4,8 km/h (1 Bft) 100,00 %
26.06.2018 08:43 17,0 C 20,0 C 73 % 1020,8 hPa 0,0 l/m 0,7 km/h (0 Bft) N-NO 13 1 min 0,000 mm 1,9 UV-I 508 W/m 12,1 C 17,0 C 1,6 km/h (1 Bft) 95,83 %
26.06.2018 08:44 17,1 C 20,0 C 74 % 1020,8 hPa 0,0 l/m 4,7 km/h (1 Bft) W-NW 282 1 min 0,000 mm 2,0 UV-I 509 W/m 12,4 C 17,1 C 6,4 km/h (2 Bft) 100,00 %
26.06.2018 08:45 17,0 C 19,4 C 74 % 1020,8 hPa 0,0 l/m 3,4 km/h (1 Bft) W-SW 244 1 min 0,000 mm 2,0 UV-I 516 W/m 12,3 C 17,0 C 4,8 km/h (1 Bft) 95,83 %
26.06.2018 08:46 17,1 C 20,0 C 75 % 1020,8 hPa 0,0 l/m 1,2 km/h (1 Bft) O-NO 61 1 min 0,000 mm 2,0 UV-I 521 W/m 12,6 C 17,1 C 3,2 km/h (1 Bft) 100,00 %
26.06.2018 08:47 17,2 C 20,0 C 74 % 1020,7 hPa 0,0 l/m 4,3 km/h (1 Bft) N 11 1 min 0,000 mm 2,1 UV-I 524 W/m 12,5 C 17,2 C 4,8 km/h (1 Bft) 96,30 %
26.06.2018 08:48 17,3 C 20,0 C 74 % 1020,8 hPa 0,0 l/m 3,8 km/h (1 Bft) W-SW 238 1 min 0,000 mm 2,1 UV-I 526 W/m 12,6 C 17,3 C 6,4 km/h (2 Bft) 86,96 %
26.06.2018 08:49 17,4 C 20,0 C 74 % 1020,7 hPa 0,0 l/m 6,3 km/h (2 Bft) W 260 1 min 0,000 mm 2,1 UV-I 527 W/m 12,7 C 17,4 C 11,3 km/h (2 Bft) 100,00 %
26.06.2018 08:50 17,4 C 20,0 C 72 % 1020,7 hPa 0,0 l/m 2,1 km/h (1 Bft) W 260 1 min 0,000 mm 2,1 UV-I 529 W/m 12,3 C 17,4 C 3,2 km/h (1 Bft) 95,65 %
26.06.2018 08:51 17,3 C 20,0 C 74 % 1020,7 hPa 0,0 l/m 2,7 km/h (1 Bft) S-SW 208 1 min 0,000 mm 2,1 UV-I 532 W/m 12,6 C 17,3 C 4,8 km/h (1 Bft) 100,00 %
26.06.2018 08:52 17,4 C 20,0 C 74 % 1020,8 hPa 0,0 l/m 1,5 km/h (1 Bft) S-SW 208 1 min 0,000 mm 2,2 UV-I 535 W/m 12,7 C 17,4 C 3,2 km/h (1 Bft) 86,96 %
26.06.2018 08:53 17,5 C 20,0 C 75 % 1020,8 hPa 0,0 l/m 3,2 km/h (1 Bft) O-NO 57 1 min 0,000 mm 2,2 UV-I 538 W/m 13,0 C 17,5 C 4,8 km/h (1 Bft) 100,00 %
26.06.2018 08:54 17,6 C 20,0 C 72 % 1020,8 hPa 0,0 l/m 1,9 km/h (1 Bft) W-NW 292 1 min 0,000 mm 2,2 UV-I 539 W/m 12,5 C 17,6 C 4,8 km/h (1 Bft) 92,31 %
26.06.2018 08:55 17,6 C 20,0 C 73 % 1020,8 hPa 0,0 l/m 5,0 km/h (1 Bft) SW 236 1 min 0,000 mm 2,2 UV-I 541 W/m 12,7 C 17,6 C 6,4 km/h (2 Bft) 100,00 %
26.06.2018 08:56 17,6 C 20,0 C 71 % 1020,8 hPa 0,0 l/m 5,2 km/h (1 Bft) W-SW 258 1 min 0,000 mm 2,2 UV-I 539 W/m 12,3 C 17,6 C 8,0 km/h (2 Bft) 91,30 %
26.06.2018 08:57 17,6 C 20,0 C 73 % 1020,8 hPa 0,0 l/m 2,5 km/h (1 Bft) W 259 1 min 0,000 mm 2,3 UV-I 543 W/m 12,7 C 17,6 C 3,2 km/h (1 Bft) 100,00 %
26.06.2018 08:58 17,6 C 20,0 C 72 % 1020,7 hPa 0,0 l/m 4,5 km/h (1 Bft) N-NW 331 1 min 0,000 mm 2,3 UV-I 547 W/m 12,5 C 17,6 C 6,4 km/h (2 Bft) 95,83 %
26.06.2018 08:59 17,5 C 20,0 C 69 % 1020,7 hPa 0,0 l/m 4,2 km/h (1 Bft) N-NO 18 1 min 0,000 mm 2,3 UV-I 550 W/m 11,7 C 17,5 C 6,4 km/h (2 Bft) 100,00 %
26.06.2018 09:00 17,6 C 20,0 C 70 % 1020,7 hPa 0,0 l/m 6,2 km/h (2 Bft) N 5 1 min 0,000 mm 2,3 UV-I 554 W/m 12,1 C 17,6 C 8,0 km/h (2 Bft) 95,83 %
26.06.2018 09:02 17,6 C 20,0 C 71 % 1020,7 hPa 0,0 l/m 7,6 km/h (2 Bft) N 355 2 min 0,279 mm 2,4 UV-I 559 W/m 12,3 C 17,0 C 12,9 km/h (3 Bft) 96,00 %
26.06.2018 09:03 17,6 C 20,0 C 69 % 1020,7 hPa 0,0 l/m 7,3 km/h (2 Bft) N-NW 348 1 min 0,000 mm 2,4 UV-I 563 W/m 11,8 C 17,2 C 9,7 km/h (2 Bft) 95,65 %
26.06.2018 09:04 17,7 C 20,0 C 70 % 1020,7 hPa 0,0 l/m 4,6 km/h (1 Bft) N 5 1 min 0,000 mm 2,4 UV-I 564 W/m 12,2 C 17,7 C 8,0 km/h (2 Bft) 100,00 %
26.06.2018 09:05 17,7 C 20,0 C 70 % 1020,7 hPa 0,0 l/m 4,2 km/h (1 Bft) N-NO 13 1 min 0,000 mm 2,4 UV-I 566 W/m 12,2 C 17,7 C 6,4 km/h (2 Bft) 95,65 %
26.06.2018 09:06 17,6 C 20,0 C 70 % 1020,7 hPa 0,0 l/m 4,1 km/h (1 Bft) W-SW 252 1 min 0,000 mm 2,5 UV-I 570 W/m 12,1 C 17,6 C 4,8 km/h (1 Bft) 91,67 %
26.06.2018 09:07 17,6 C 20,0 C 70 % 1020,7 hPa 0,0 l/m 4,6 km/h (1 Bft) N-NO 20 1 min 0,000 mm 2,5 UV-I 570 W/m 12,1 C 17,6 C 6,4 km/h (2 Bft) 91,30 %
26.06.2018 09:08 17,6 C 20,0 C 70 % 1020,7 hPa 0,0 l/m 3,0 km/h (1 Bft) NW 315 1 min 0,000 mm 2,5 UV-I 573 W/m 12,1 C 17,6 C 4,8 km/h (1 Bft) 100,00 %
26.06.2018 09:09 17,5 C 20,0 C 70 % 1020,7 hPa 0,0 l/m 5,2 km/h (1 Bft) NW 317 1 min 0,000 mm 2,5 UV-I 576 W/m 12,0 C 17,5 C 9,7 km/h (2 Bft) 95,65 %
26.06.2018 09:10 17,5 C 20,0 C 70 % 1020,7 hPa 0,0 l/m 3,4 km/h (1 Bft) NW 315 1 min 0,000 mm 2,5 UV-I 578 W/m 12,0 C 17,5 C 4,8 km/h (1 Bft) 95,83 %
26.06.2018 09:11 17,6 C 20,0 C 70 % 1020,7 hPa 0,0 l/m 5,2 km/h (1 Bft) W-NW 303 1 min 0,000 mm 2,6 UV-I 580 W/m 12,1 C 17,6 C 6,4 km/h (2 Bft) 96,15 %
26.06.2018 09:12 17,6 C 20,0 C 69 % 1020,7 hPa 0,0 l/m 0,9 km/h (0 Bft) W-NW 303 1 min 0,000 mm 2,6 UV-I 582 W/m 11,8 C 17,6 C 3,2 km/h (1 Bft) 91,67 %
26.06.2018 09:13 17,5 C 20,0 C 69 % 1020,7 hPa 0,0 l/m 3,0 km/h (1 Bft) NW 312 1 min 0,000 mm 2,6 UV-I 589 W/m 11,7 C 17,5 C 4,8 km/h (1 Bft) 95,83 %
26.06.2018 09:14 17,5 C 20,0 C 70 % 1020,7 hPa 0,0 l/m 6,2 km/h (2 Bft) W 275 1 min 0,000 mm 2,6 UV-I 591 W/m 12,0 C 17,5 C 11,3 km/h (2 Bft) 91,30 %
26.06.2018 09:15 17,4 C 20,0 C 70 % 1020,8 hPa 0,0 l/m 8,3 km/h (2 Bft) W-NW 282 1 min 0,000 mm 2,7 UV-I 593 W/m 11,9 C 16,5 C 12,9 km/h (3 Bft) 95,83 %
26.06.2018 09:16 17,4 C 20,0 C 70 % 1020,8 hPa 0,0 l/m 1,9 km/h (1 Bft) W-NW 283 1 min 0,000 mm 2,7 UV-I 594 W/m 11,9 C 17,4 C 3,2 km/h (1 Bft) 95,65 %
26.06.2018 09:17 17,4 C 20,0 C 70 % 1020,7 hPa 0,0 l/m 3,6 km/h (1 Bft) W-NW 292 1 min 0,000 mm 2,7 UV-I 596 W/m 11,9 C 17,4 C 4,8 km/h (1 Bft) 95,83 %
26.06.2018 09:18 17,5 C 20,0 C 71 % 1020,8 hPa 0,0 l/m 3,0 km/h (1 Bft) W-NW 296 1 min 0,000 mm 2,7 UV-I 600 W/m 12,2 C 17,5 C 4,8 km/h (1 Bft) 95,65 %
26.06.2018 09:19 17,6 C 20,0 C 70 % 1020,7 hPa 0,0 l/m 2,6 km/h (1 Bft) W 277 1 min 0,000 mm 2,8 UV-I 605 W/m 12,1 C 17,6 C 4,8 km/h (1 Bft) 91,67 %
26.06.2018 09:20 17,7 C 20,0 C 70 % 1020,8 hPa 0,0 l/m 3,1 km/h (1 Bft) W-SW 248 1 min 0,000 mm 2,8 UV-I 609 W/m 12,2 C 17,7 C 6,4 km/h (2 Bft) 100,00 %
26.06.2018 09:21 17,8 C 20,0 C 69 % 1020,7 hPa 0,0 l/m 3,0 km/h (1 Bft) W-SW 248 1 min 0,000 mm 2,8 UV-I 607 W/m 12,0 C 17,8 C 4,8 km/h (1 Bft) 91,67 %
26.06.2018 09:22 17,8 C 20,0 C 69 % 1020,7 hPa 0,0 l/m 7,9 km/h (2 Bft) W-SW 244 1 min 0,000 mm 2,8 UV-I 608 W/m 12,0 C 17,1 C 11,3 km/h (2 Bft) 95,65 %
26.06.2018 09:23 17,7 C 20,0 C 69 % 1020,7 hPa 0,0 l/m 7,6 km/h (2 Bft) W 277 1 min 0,000 mm 2,8 UV-I 602 W/m 11,9 C 17,1 C 12,9 km/h (3 Bft) 95,83 %
26.06.2018 09:24 17,7 C 20,0 C 68 % 1020,7 hPa 0,0 l/m 6,1 km/h (2 Bft) W 277 1 min 0,000 mm 2,8 UV-I 601 W/m 11,7 C 17,7 C 9,7 km/h (2 Bft) 95,65 %
26.06.2018 09:25 17,7 C 20,0 C 69 % 1020,7 hPa 0,0 l/m 4,8 km/h (1 Bft) W-SW 257 1 min 0,000 mm 2,9 UV-I 612 W/m 11,9 C 17,7 C 6,4 km/h (2 Bft) 95,83 %
26.06.2018 09:26 17,7 C 20,0 C 69 % 1020,7 hPa 0,0 l/m 6,2 km/h (2 Bft) W-SW 245 1 min 0,000 mm 2,9 UV-I 621 W/m 11,9 C 17,7 C 9,7 km/h (2 Bft) 95,65 %
26.06.2018 09:27 17,8 C 20,0 C 69 % 1020,6 hPa 0,0 l/m 2,8 km/h (1 Bft) W-SW 239 1 min 0,000 mm 3,0 UV-I 624 W/m 12,0 C 17,8 C 4,8 km/h (1 Bft) 100,00 %
26.06.2018 09:28 17,8 C 20,0 C 70 % 1020,6 hPa 0,0 l/m 2,8 km/h (1 Bft) W-NW 292 1 min 0,000 mm 3,0 UV-I 622 W/m 12,3 C 17,8 C 4,8 km/h (1 Bft) 95,65 %
26.06.2018 09:29 18,0 C 20,0 C 69 % 1020,6 hPa 0,0 l/m 2,6 km/h (1 Bft) N 351 1 min 0,000 mm 3,0 UV-I 621 W/m 12,2 C 18,0 C 3,2 km/h (1 Bft) 100,00 %
26.06.2018 09:30 18,0 C 20,0 C 69 % 1020,6 hPa 0,0 l/m 2,6 km/h (1 Bft) N 355 1 min 0,000 mm 3,0 UV-I 621 W/m 12,2 C 18,0 C 4,8 km/h (1 Bft) 91,67 %
26.06.2018 09:31 18,0 C 20,0 C 69 % 1020,6 hPa 0,0 l/m 3,0 km/h (1 Bft) N-NW 329 1 min 0,000 mm 3,1 UV-I 624 W/m 12,2 C 18,0 C 4,8 km/h (1 Bft) 95,65 %
26.06.2018 09:32 18,0 C 20,0 C 68 % 1020,6 hPa 0,0 l/m 3,5 km/h (1 Bft) N-NO 18 1 min 0,000 mm 3,1 UV-I 628 W/m 12,0 C 18,0 C 6,4 km/h (2 Bft) 100,00 %
26.06.2018 09:33 18,1 C 20,0 C 70 % 1020,6 hPa 0,0 l/m 2,8 km/h (1 Bft) N-NO 20 1 min 0,000 mm 3,1 UV-I 631 W/m 12,5 C 18,1 C 3,2 km/h (1 Bft) 92,31 %
26.06.2018 09:34 18,0 C 20,0 C 67 % 1020,6 hPa 0,0 l/m 2,3 km/h (1 Bft) S-SO 150 1 min 0,000 mm 3,1 UV-I 635 W/m 11,8 C 18,0 C 6,4 km/h (2 Bft) 100,00 %
26.06.2018 09:35 18,0 C 20,0 C 68 % 1020,6 hPa 0,0 l/m 1,7 km/h (1 Bft) SO 132 1 min 0,000 mm 3,2 UV-I 641 W/m 12,0 C 18,0 C 4,8 km/h (1 Bft) 95,65 %
26.06.2018 09:36 18,0 C 20,0 C 68 % 1020,6 hPa 0,0 l/m 0,7 km/h (0 Bft) SO 134 1 min 0,000 mm 3,2 UV-I 643 W/m 12,0 C 18,0 C 3,2 km/h (1 Bft) 100,00 %
26.06.2018 09:37 18,1 C 20,0 C 68 % 1020,5 hPa 0,0 l/m 1,6 km/h (1 Bft) S 175 1 min 0,000 mm 3,2 UV-I 646 W/m 12,1 C 18,1 C 6,4 km/h (2 Bft) 92,86 %
26.06.2018 09:38 18,2 C 20,0 C 68 % 1020,5 hPa 0,0 l/m 3,8 km/h (1 Bft) SW 215 1 min 0,000 mm 3,3 UV-I 649 W/m 12,2 C 18,2 C 6,4 km/h (2 Bft) 100,00 %
26.06.2018 09:39 18,3 C 20,0 C 68 % 1020,6 hPa 0,0 l/m 1,2 km/h (1 Bft) SW 215 1 min 0,000 mm 3,3 UV-I 651 W/m 12,3 C 18,3 C 1,6 km/h (1 Bft) 95,65 %
26.06.2018 09:40 18,4 C 20,0 C 68 % 1020,5 hPa 0,0 l/m 3,6 km/h (1 Bft) W-SW 244 1 min 0,000 mm 3,3 UV-I 656 W/m 12,4 C 18,4 C 6,4 km/h (2 Bft) 95,83 %
26.06.2018 09:41 18,4 C 20,0 C 66 % 1020,5 hPa 0,0 l/m 6,6 km/h (2 Bft) NW 316 1 min 0,000 mm 3,3 UV-I 657 W/m 11,9 C 18,3 C 11,3 km/h (2 Bft) 100,00 %
26.06.2018 09:42 18,3 C 20,0 C 67 % 1020,5 hPa 0,0 l/m 4,4 km/h (1 Bft) N-NW 333 1 min 0,000 mm 3,4 UV-I 658 W/m 12,1 C 18,3 C 6,4 km/h (2 Bft) 100,00 %
26.06.2018 09:43 18,5 C 20,0 C 67 % 1020,5 hPa 0,0 l/m 2,9 km/h (1 Bft) N-NW 334 1 min 0,000 mm 3,4 UV-I 657 W/m 12,3 C 18,5 C 4,8 km/h (1 Bft) 100,00 %
26.06.2018 09:44 18,6 C 20,0 C 67 % 1020,5 hPa 0,0 l/m 0,5 km/h (0 Bft) N-NW 335 1 min 0,000 mm 3,4 UV-I 655 W/m 12,3 C 18,6 C 1,6 km/h (1 Bft) 100,00 %
26.06.2018 09:45 18,6 C 20,0 C 67 % 1020,5 hPa 0,0 l/m 3,0 km/h (1 Bft) W 278 1 min 0,000 mm 3,4 UV-I 652 W/m 12,3 C 18,6 C 6,4 km/h (2 Bft) 100,00 %
26.06.2018 09:46 18,6 C 20,0 C 65 % 1020,5 hPa 0,0 l/m 6,9 km/h (2 Bft) W 275 1 min 0,000 mm 3,4 UV-I 656 W/m 11,9 C 18,4 C 9,7 km/h (2 Bft) 95,83 %
26.06.2018 09:47 18,5 C 20,0 C 65 % 1020,5 hPa 0,0 l/m 5,5 km/h (1 Bft) N-NW 331 1 min 0,000 mm 3,4 UV-I 663 W/m 11,8 C 18,5 C 9,7 km/h (2 Bft) 100,00 %
26.06.2018 09:48 18,4 C 20,0 C 66 % 1020,4 hPa 0,0 l/m 5,9 km/h (2 Bft) NW 306 1 min 0,000 mm 3,5 UV-I 671 W/m 11,9 C 18,4 C 8,0 km/h (2 Bft) 100,00 %
26.06.2018 09:49 18,4 C 20,0 C 67 % 1020,4 hPa 0,0 l/m 6,0 km/h (2 Bft) N-NW 348 1 min 0,000 mm 3,5 UV-I 675 W/m 12,2 C 18,4 C 11,3 km/h (2 Bft) 100,00 %
26.06.2018 09:50 18,4 C 20,0 C 69 % 1020,4 hPa 0,0 l/m 6,2 km/h (2 Bft) N-NO 26 1 min 0,000 mm 3,6 UV-I 679 W/m 12,6 C 18,4 C 6,4 km/h (2 Bft) 100,00 %
26.06.2018 09:51 18,3 C 20,0 C 67 % 1020,4 hPa 0,0 l/m 3,5 km/h (1 Bft) N-NO 27 1 min 0,000 mm 3,6 UV-I 680 W/m 12,1 C 18,3 C 4,8 km/h (1 Bft) 100,00 %
26.06.2018 09:52 18,4 C 20,0 C 66 % 1020,4 hPa 0,0 l/m 1,8 km/h (1 Bft) N-NW 342 1 min 0,000 mm 3,6 UV-I 684 W/m 11,9 C 18,4 C 4,8 km/h (1 Bft) 100,00 %
26.06.2018 09:53 18,4 C 20,0 C 68 % 1020,4 hPa 0,0 l/m 3,8 km/h (1 Bft) N-NW 336 1 min 0,000 mm 3,6 UV-I 685 W/m 12,4 C 18,4 C 6,4 km/h (2 Bft) 100,00 %
26.06.2018 09:54 18,5 C 20,0 C 68 % 1020,4 hPa 0,0 l/m 1,5 km/h (1 Bft) N-NW 335 1 min 0,000 mm 3,6 UV-I 687 W/m 12,5 C 18,5 C 3,2 km/h (1 Bft) 100,00 %
26.06.2018 09:55 18,6 C 20,0 C 68 % 1020,4 hPa 0,0 l/m 3,3 km/h (1 Bft) NO 39 1 min 0,000 mm 3,7 UV-I 693 W/m 12,6 C 18,6 C 4,8 km/h (1 Bft) 95,83 %
26.06.2018 09:56 18,6 C 20,0 C 68 % 1020,4 hPa 0,0 l/m 1,3 km/h (1 Bft) NO 39 1 min 0,000 mm 3,8 UV-I 695 W/m 12,6 C 18,6 C 3,2 km/h (1 Bft) 100,00 %
26.06.2018 09:57 18,7 C 20,0 C 67 % 1020,4 hPa 0,0 l/m 2,9 km/h (1 Bft) W-NW 300 1 min 0,000 mm 3,8 UV-I 704 W/m 12,4 C 18,7 C 6,4 km/h (2 Bft) 100,00 %
26.06.2018 09:58 18,7 C 20,0 C 65 % 1020,4 hPa 0,0 l/m 7,8 km/h (2 Bft) W-SW 247 1 min 0,000 mm 3,8 UV-I 718 W/m 12,0 C 18,1 C 11,3 km/h (2 Bft) 100,00 %
26.06.2018 09:59 18,6 C 20,0 C 66 % 1020,5 hPa 0,0 l/m 11,7 km/h (2 Bft) W 259 1 min 0,000 mm 3,8 UV-I 719 W/m 12,1 C 16,5 C 12,9 km/h (3 Bft) 100,00 %
26.06.2018 10:00 18,6 C 20,0 C 65 % 1020,4 hPa 0,0 l/m 9,2 km/h (2 Bft) W-SW 256 1 min 0,000 mm 3,8 UV-I 712 W/m 11,9 C 17,4 C 14,5 km/h (3 Bft) 95,65 %
26.06.2018 10:02 18,6 C 20,0 C 64 % 1020,4 hPa 0,0 l/m 5,4 km/h (1 Bft) NW 319 2 min 0,356 mm 3,8 UV-I 709 W/m 11,7 C 18,6 C 11,3 km/h (2 Bft) 97,87 %
26.06.2018 10:03 18,6 C 20,0 C 64 % 1020,4 hPa 0,0 l/m 8,4 km/h (2 Bft) SW 236 1 min 0,000 mm 3,6 UV-I 701 W/m 11,7 C 17,7 C 16,1 km/h (3 Bft) 100,00 %
26.06.2018 10:04 18,6 C 20,0 C 64 % 1020,4 hPa 0,0 l/m 12,4 km/h (3 Bft) W-SW 244 1 min 0,000 mm 3,3 UV-I 441 W/m 11,7 C 16,3 C 16,1 km/h (3 Bft) 100,00 %
26.06.2018 10:05 18,6 C 20,0 C 64 % 1020,4 hPa 0,0 l/m 11,2 km/h (2 Bft) W-SW 246 1 min 0,000 mm 3,6 UV-I 465 W/m 11,7 C 16,7 C 12,9 km/h (3 Bft) 100,00 %
26.06.2018 10:06 18,5 C 20,0 C 64 % 1020,4 hPa 0,0 l/m 7,5 km/h (2 Bft) W-SW 254 1 min 0,000 mm 3,5 UV-I 512 W/m 11,6 C 18,0 C 11,3 km/h (2 Bft) 95,65 %
26.06.2018 10:07 18,4 C 20,0 C 64 % 1020,4 hPa 0,0 l/m 5,2 km/h (1 Bft) W-SW 240 1 min 0,000 mm 3,9 UV-I 630 W/m 11,5 C 18,4 C 6,4 km/h (2 Bft) 100,00 %
26.06.2018 10:08 18,4 C 20,0 C 65 % 1020,4 hPa 0,0 l/m 2,6 km/h (1 Bft) W-SW 240 1 min 0,000 mm 4,0 UV-I 713 W/m 11,7 C 18,4 C 4,8 km/h (1 Bft) 100,00 %
26.06.2018 10:09 18,3 C 20,0 C 64 % 1020,4 hPa 0,0 l/m 3,0 km/h (1 Bft) S 175 1 min 0,000 mm 4,0 UV-I 725 W/m 11,4 C 18,3 C 9,7 km/h (2 Bft) 100,00 %
26.06.2018 10:10 18,3 C 20,0 C 64 % 1020,4 hPa 0,0 l/m 9,5 km/h (2 Bft) N 355 1 min 0,000 mm 4,0 UV-I 721 W/m 11,4 C 17,0 C 16,1 km/h (3 Bft) 100,00 %
26.06.2018 10:11 18,4 C 20,0 C 67 % 1020,4 hPa 0,0 l/m 6,1 km/h (2 Bft) N-NW 346 1 min 0,000 mm 4,0 UV-I 719 W/m 12,2 C 18,4 C 8,0 km/h (2 Bft) 100,00 %
26.06.2018 10:12 18,6 C 20,0 C 66 % 1020,4 hPa 0,0 l/m 8,0 km/h (2 Bft) W-SW 250 1 min 0,000 mm 4,0 UV-I 725 W/m 12,1 C 17,9 C 11,3 km/h (2 Bft) 100,00 %
26.06.2018 10:13 18,6 C 20,0 C 65 % 1020,4 hPa 0,0 l/m 6,5 km/h (2 Bft) SW 233 1 min 0,000 mm 4,1 UV-I 727 W/m 11,9 C 18,6 C 12,9 km/h (3 Bft) 100,00 %
26.06.2018 10:14 18,7 C 20,0 C 65 % 1020,4 hPa 0,0 l/m 8,4 km/h (2 Bft) SW 224 1 min 0,000 mm 4,0 UV-I 722 W/m 12,0 C 17,8 C 11,3 km/h (2 Bft) 100,00 %
26.06.2018 10:15 18,7 C 20,0 C 64 % 1020,4 hPa 0,0 l/m 6,2 km/h (2 Bft) SW 229 1 min 0,000 mm 4,1 UV-I 725 W/m 11,7 C 18,7 C 11,3 km/h (2 Bft) 100,00 %
26.06.2018 10:16 18,8 C 20,0 C 65 % 1020,4 hPa 0,0 l/m 7,6 km/h (2 Bft) W 266 1 min 0,000 mm 4,1 UV-I 725 W/m 12,1 C 18,3 C 11,3 km/h (2 Bft) 100,00 %
26.06.2018 10:17 18,8 C 20,0 C 64 % 1020,4 hPa 0,0 l/m 7,2 km/h (2 Bft) W-NW 283 1 min 0,000 mm 4,2 UV-I 735 W/m 11,8 C 18,4 C 11,3 km/h (2 Bft) 100,00 %
26.06.2018 10:18 18,8 C 20,0 C 64 % 1020,4 hPa 0,0 l/m 6,0 km/h (2 Bft) W-SW 257 1 min 0,000 mm 4,2 UV-I 744 W/m 11,8 C 18,8 C 12,9 km/h (3 Bft) 100,00 %
26.06.2018 10:19 18,8 C 20,0 C 63 % 1020,4 hPa 0,0 l/m 6,8 km/h (2 Bft) SW 227 1 min 0,000 mm 4,3 UV-I 743 W/m 11,6 C 18,6 C 11,3 km/h (2 Bft) 100,00 %
26.06.2018 10:20 18,7 C 20,0 C 63 % 1020,4 hPa 0,0 l/m 6,2 km/h (2 Bft) W 269 1 min 0,000 mm 4,3 UV-I 738 W/m 11,5 C 18,7 C 8,0 km/h (2 Bft) 100,00 %
26.06.2018 10:21 18,7 C 20,0 C 64 % 1020,4 hPa 0,0 l/m 5,2 km/h (1 Bft) NW 313 1 min 0,000 mm 4,3 UV-I 745 W/m 11,7 C 18,7 C 6,4 km/h (2 Bft) 100,00 %
26.06.2018 10:22 18,7 C 20,0 C 65 % 1020,4 hPa 0,0 l/m 5,4 km/h (1 Bft) NW 320 1 min 0,000 mm 4,4 UV-I 754 W/m 12,0 C 18,7 C 8,0 km/h (2 Bft) 100,00 %
26.06.2018 10:23 18,8 C 20,0 C 66 % 1020,4 hPa 0,0 l/m 3,8 km/h (1 Bft) NW 321 1 min 0,000 mm 4,4 UV-I 762 W/m 12,3 C 18,8 C 4,8 km/h (1 Bft) 100,00 %
26.06.2018 10:24 18,8 C 20,0 C 66 % 1020,4 hPa 0,0 l/m 3,3 km/h (1 Bft) W-SW 249 1 min 0,000 mm 4,4 UV-I 769 W/m 12,3 C 18,8 C 4,8 km/h (1 Bft) 100,00 %
26.06.2018 10:25 18,9 C 20,0 C 64 % 1020,4 hPa 0,0 l/m 4,6 km/h (1 Bft) N 5 1 min 0,000 mm 4,5 UV-I 773 W/m 11,9 C 18,9 C 6,4 km/h (2 Bft) 100,00 %
26.06.2018 10:26 19,1 C 20,0 C 64 % 1020,4 hPa 0,0 l/m 10,1 km/h (2 Bft) N 5 1 min 0,000 mm 4,5 UV-I 772 W/m 12,1 C 17,6 C 14,5 km/h (3 Bft) 100,00 %
26.06.2018 10:27 19,2 C 20,0 C 65 % 1020,4 hPa 0,0 l/m 10,6 km/h (2 Bft) N-NW 327 1 min 0,000 mm 4,4 UV-I 760 W/m 12,5 C 17,6 C 14,5 km/h (3 Bft) 86,96 %
26.06.2018 10:28 19,2 C 20,0 C 65 % 1020,4 hPa 0,0 l/m 6,7 km/h (2 Bft) N-NW 344 1 min 0,000 mm 4,5 UV-I 761 W/m 12,5 C 19,1 C 9,7 km/h (2 Bft) 100,00 %
26.06.2018 10:29 19,3 C 20,0 C 63 % 1020,4 hPa 0,0 l/m 8,1 km/h (2 Bft) N 9 1 min 0,000 mm 4,5 UV-I 773 W/m 12,1 C 18,6 C 12,9 km/h (3 Bft) 95,65 %
26.06.2018 10:30 19,3 C 20,0 C 64 % 1020,4 hPa 0,0 l/m 5,0 km/h (1 Bft) N 355 1 min 0,000 mm 4,6 UV-I 786 W/m 12,3 C 19,3 C 6,4 km/h (2 Bft) 100,00 %
26.06.2018 10:31 19,4 C 20,0 C 63 % 1020,4 hPa 0,0 l/m 4,0 km/h (1 Bft) NW 306 1 min 0,000 mm 4,7 UV-I 797 W/m 12,2 C 19,4 C 6,4 km/h (2 Bft) 100,00 %
26.06.2018 10:32 19,5 C 20,0 C 65 % 1020,4 hPa 0,0 l/m 8,0 km/h (2 Bft) W-SW 237 1 min 0,000 mm 4,8 UV-I 808 W/m 12,7 C 18,8 C 11,3 km/h (2 Bft) 95,65 %
26.06.2018 10:33 19,5 C 20,0 C 61 % 1020,4 hPa 0,0 l/m 5,6 km/h (1 Bft) S-SW 206 1 min 0,000 mm 4,7 UV-I 808 W/m 11,8 C 19,5 C 8,0 km/h (2 Bft) 100,00 %
26.06.2018 10:34 19,6 C 20,6 C 63 % 1020,4 hPa 0,0 l/m 6,2 km/h (2 Bft) W-SW 247 1 min 0,000 mm 4,7 UV-I 801 W/m 12,4 C 19,6 C 11,3 km/h (2 Bft) 95,65 %
26.06.2018 10:35 19,6 C 20,0 C 62 % 1020,4 hPa 0,0 l/m 3,5 km/h (1 Bft) NW 305 1 min 0,000 mm 4,7 UV-I 801 W/m 12,1 C 19,6 C 6,4 km/h (2 Bft) 100,00 %
26.06.2018 10:36 19,5 C 20,0 C 65 % 1020,4 hPa 0,0 l/m 4,2 km/h (1 Bft) NO 47 1 min 0,000 mm 4,6 UV-I 777 W/m 12,7 C 19,5 C 8,0 km/h (2 Bft) 100,00 %
26.06.2018 10:37 19,6 C 20,0 C 63 % 1020,4 hPa 0,0 l/m 4,8 km/h (1 Bft) N-NW 331 1 min 0,000 mm 3,6 UV-I 759 W/m 12,4 C 19,6 C 8,0 km/h (2 Bft) 100,00 %
26.06.2018 10:38 19,5 C 20,0 C 60 % 1020,4 hPa 0,0 l/m 4,6 km/h (1 Bft) N 355 0 min 0,000 mm 2,9 UV-I 219 W/m 11,5 C 19,5 C 8,0 km/h (2 Bft) 100,00 %
26.06.2018 10:39 19,3 C 20,0 C 61 % 1020,4 hPa 0,0 l/m 7,4 km/h (2 Bft) N 355 0 min 0,000 mm 3,0 UV-I 153 W/m 11,6 C 18,9 C 12,9 km/h (3 Bft) 100,00 %
26.06.2018 10:40 19,2 C 20,0 C 62 % 1020,4 hPa 0,0 l/m 6,1 km/h (2 Bft) N 349 0 min 0,000 mm 4,8 UV-I 352 W/m 11,7 C 19,2 C 9,7 km/h (2 Bft) 100,00 %
26.06.2018 10:41 19,2 C 20,0 C 62 % 1020,4 hPa 0,0 l/m 7,5 km/h (2 Bft) N 9 1 min 0,000 mm 4,9 UV-I 839 W/m 11,7 C 18,7 C 12,9 km/h (3 Bft) 100,00 %
26.06.2018 10:42 19,2 C 20,0 C 61 % 1020,3 hPa 0,0 l/m 7,9 km/h (2 Bft) N-NO 13 1 min 0,000 mm 4,9 UV-I 834 W/m 11,5 C 18,6 C 12,9 km/h (3 Bft) 100,00 %
26.06.2018 10:43 19,3 C 20,0 C 62 % 1020,4 hPa 0,0 l/m 6,1 km/h (2 Bft) NO 45 1 min 0,000 mm 4,9 UV-I 836 W/m 11,8 C 19,3 C 11,3 km/h (2 Bft) 100,00 %
26.06.2018 10:44 19,4 C 20,0 C 62 % 1020,3 hPa 0,0 l/m 4,2 km/h (1 Bft) N 10 1 min 0,000 mm 4,9 UV-I 854 W/m 11,9 C 19,4 C 8,0 km/h (2 Bft) 100,00 %
26.06.2018 10:45 19,5 C 20,0 C 61 % 1020,3 hPa 0,0 l/m 3,9 km/h (1 Bft) N-NW 342 1 min 0,000 mm 4,4 UV-I 816 W/m 11,8 C 19,5 C 8,0 km/h (2 Bft) 100,00 %
26.06.2018 10:46 19,4 C 20,0 C 60 % 1020,4 hPa 0,0 l/m 5,1 km/h (1 Bft) W-SW 258 1 min 0,000 mm 3,0 UV-I 688 W/m 11,4 C 19,4 C 6,4 km/h (2 Bft) 100,00 %
26.06.2018 10:47 19,3 C 20,0 C 60 % 1020,4 hPa 0,0 l/m 3,6 km/h (1 Bft) W-NW 296 0 min 0,000 mm 2,9 UV-I 174 W/m 11,3 C 19,3 C 6,4 km/h (2 Bft) 95,83 %
26.06.2018 10:48 19,2 C 20,0 C 61 % 1020,4 hPa 0,0 l/m 3,6 km/h (1 Bft) W 272 0 min 0,000 mm 2,9 UV-I 170 W/m 11,5 C 19,2 C 4,8 km/h (1 Bft) 100,00 %
26.06.2018 10:49 19,2 C 20,0 C 60 % 1020,3 hPa 0,0 l/m 3,9 km/h (1 Bft) SW 225 0 min 0,000 mm 2,9 UV-I 173 W/m 11,2 C 19,2 C 6,4 km/h (2 Bft) 100,00 %
26.06.2018 10:50 19,1 C 20,0 C 60 % 1020,3 hPa 0,0 l/m 8,4 km/h (2 Bft) W 269 0 min 0,000 mm 4,5 UV-I 174 W/m 11,1 C 18,2 C 11,3 km/h (2 Bft) 100,00 %
26.06.2018 10:51 19,1 C 20,0 C 61 % 1020,3 hPa 0,0 l/m 9,5 km/h (2 Bft) W-SW 246 0 min 0,000 mm 5,1 UV-I 326 W/m 11,4 C 17,8 C 12,9 km/h (3 Bft) 95,65 %
26.06.2018 10:52 19,2 C 20,0 C 59 % 1020,3 hPa 0,0 l/m 8,0 km/h (2 Bft) SW 217 1 min 0,000 mm 5,1 UV-I 905 W/m 11,0 C 18,5 C 14,5 km/h (3 Bft) 100,00 %
26.06.2018 10:53 19,3 C 20,0 C 61 % 1020,3 hPa 0,0 l/m 6,6 km/h (2 Bft) W-SW 243 1 min 0,000 mm 5,1 UV-I 908 W/m 11,6 C 19,2 C 8,0 km/h (2 Bft) 100,00 %
26.06.2018 10:54 19,4 C 20,6 C 61 % 1020,2 hPa 0,0 l/m 4,7 km/h (1 Bft) SW 217 1 min 0,000 mm 4,6 UV-I 900 W/m 11,7 C 19,4 C 6,4 km/h (2 Bft) 100,00 %
26.06.2018 10:55 19,4 C 20,0 C 58 % 1020,3 hPa 0,0 l/m 1,9 km/h (1 Bft) SW 219 1 min 0,000 mm 4,0 UV-I 893 W/m 10,9 C 19,4 C 3,2 km/h (1 Bft) 91,30 %
26.06.2018 10:56 19,4 C 20,0 C 59 % 1020,3 hPa 0,0 l/m 4,4 km/h (1 Bft) W 276 1 min 0,000 mm 3,7 UV-I 893 W/m 11,2 C 19,4 C 6,4 km/h (2 Bft) 95,83 %
26.06.2018 10:57 19,4 C 20,0 C 59 % 1020,3 hPa 0,0 l/m 7,1 km/h (2 Bft) SW 234 1 min 0,000 mm 3,1 UV-I 759 W/m 11,2 C 19,1 C 11,3 km/h (2 Bft) 95,65 %
26.06.2018 10:58 19,4 C 20,0 C 59 % 1020,3 hPa 0,0 l/m 6,3 km/h (2 Bft) W 270 0 min 0,000 mm 3,0 UV-I 259 W/m 11,2 C 19,4 C 12,9 km/h (3 Bft) 100,00 %
26.06.2018 10:59 19,4 C 20,0 C 59 % 1020,3 hPa 0,0 l/m 4,6 km/h (1 Bft) NW 313 0 min 0,000 mm 3,5 UV-I 269 W/m 11,2 C 19,4 C 6,4 km/h (2 Bft) 95,65 %
26.06.2018 11:00 19,4 C 20,0 C 62 % 1020,3 hPa 0,0 l/m 4,9 km/h (1 Bft) W 259 0 min 0,000 mm 4,5 UV-I 269 W/m 11,9 C 19,4 C 9,7 km/h (2 Bft) 100,00 %
26.06.2018 11:02 19,4 C 20,0 C 60 % 1020,3 hPa 0,0 l/m 5,9 km/h (2 Bft) W-SW 255 0 min 0,406 mm 3,4 UV-I 265 W/m 11,4 C 19,4 C 12,9 km/h (3 Bft) 97,87 %
26.06.2018 11:03 19,4 C 20,0 C 60 % 1020,3 hPa 0,0 l/m 12,4 km/h (3 Bft) W 260 0 min 0,000 mm 3,1 UV-I 241 W/m 11,4 C 17,2 C 16,1 km/h (3 Bft) 91,30 %
26.06.2018 11:04 19,3 C 20,0 C 60 % 1020,3 hPa 0,0 l/m 7,7 km/h (2 Bft) W 267 0 min 0,000 mm 3,1 UV-I 244 W/m 11,3 C 18,7 C 12,9 km/h (3 Bft) 100,00 %
26.06.2018 11:05 19,2 C 20,0 C 61 % 1020,3 hPa 0,0 l/m 12,1 km/h (2 Bft) W-SW 237 0 min 0,000 mm 3,2 UV-I 260 W/m 11,5 C 17,1 C 14,5 km/h (3 Bft) 95,65 %
26.06.2018 11:06 19,2 C 20,6 C 58 % 1020,3 hPa 0,0 l/m 11,5 km/h (2 Bft) W-SW 256 0 min 0,000 mm 4,4 UV-I 267 W/m 10,7 C 17,3 C 16,1 km/h (3 Bft) 95,83 %
26.06.2018 11:07 19,2 C 20,6 C 59 % 1020,3 hPa 0,0 l/m 13,2 km/h (3 Bft) W 274 1 min 0,000 mm 5,5 UV-I 859 W/m 11,0 C 16,8 C 19,3 km/h (3 Bft) 100,00 %
26.06.2018 11:08 19,4 C 20,6 C 59 % 1020,3 hPa 0,0 l/m 10,5 km/h (2 Bft) W-NW 284 1 min 0,000 mm 5,4 UV-I 990 W/m 11,2 C 17,8 C 16,1 km/h (3 Bft) 96,30 %
26.06.2018 11:09 19,6 C 20,0 C 58 % 1020,3 hPa 0,0 l/m 7,8 km/h (2 Bft) W 281 1 min 0,000 mm 5,0 UV-I 965 W/m 11,1 C 19,0 C 16,1 km/h (3 Bft) 100,00 %
26.06.2018 11:10 19,7 C 20,6 C 57 % 1020,3 hPa 0,0 l/m 13,1 km/h (3 Bft) W-NW 292 1 min 0,000 mm 5,4 UV-I 991 W/m 10,9 C 17,4 C 17,7 km/h (3 Bft) 95,83 %
26.06.2018 11:11 19,8 C 20,6 C 58 % 1020,3 hPa 0,0 l/m 9,9 km/h (2 Bft) W 269 1 min 0,000 mm 5,2 UV-I 1014 W/m 11,3 C 18,5 C 17,7 km/h (3 Bft) 100,00 %
26.06.2018 11:12 19,9 C 20,0 C 56 % 1020,3 hPa 0,0 l/m 11,1 km/h (2 Bft) W-SW 251 1 min 0,000 mm 4,2 UV-I 1014 W/m 10,9 C 18,2 C 14,5 km/h (3 Bft) 95,65 %
26.06.2018 11:13 19,9 C 20,6 C 57 % 1020,3 hPa 0,0 l/m 6,5 km/h (2 Bft) W-SW 240 1 min 0,000 mm 4,5 UV-I 1014 W/m 11,1 C 19,9 C 11,3 km/h (2 Bft) 91,67 %
26.06.2018 11:14 19,9 C 20,6 C 56 % 1020,3 hPa 0,0 l/m 7,0 km/h (2 Bft) W 264 1 min 0,000 mm 4,4 UV-I 545 W/m 10,9 C 19,7 C 11,3 km/h (2 Bft) 100,00 %
26.06.2018 11:15 19,9 C 20,6 C 57 % 1020,4 hPa 0,0 l/m 7,7 km/h (2 Bft) W 272 1 min 0,000 mm 5,0 UV-I 545 W/m 11,1 C 19,4 C 12,9 km/h (3 Bft) 95,83 %
26.06.2018 11:16 19,8 C 20,0 C 57 % 1020,4 hPa 0,0 l/m 5,0 km/h (1 Bft) W-NW 290 0 min 0,000 mm 3,1 UV-I 407 W/m 11,0 C 19,8 C 8,0 km/h (2 Bft) 100,00 %
26.06.2018 11:17 19,7 C 20,0 C 54 % 1020,4 hPa 0,0 l/m 3,6 km/h (1 Bft) W-NW 294 0 min 0,000 mm 3,1 UV-I 215 W/m 10,1 C 19,7 C 6,4 km/h (2 Bft) 91,67 %
26.06.2018 11:18 19,4 C 20,0 C 55 % 1020,3 hPa 0,0 l/m 3,9 km/h (1 Bft) W-NW 300 0 min 0,000 mm 3,3 UV-I 220 W/m 10,1 C 19,4 C 8,0 km/h (2 Bft) 100,00 %
26.06.2018 11:19 19,3 C 20,0 C 57 % 1020,4 hPa 0,0 l/m 5,0 km/h (1 Bft) SW 225 0 min 0,000 mm 3,4 UV-I 231 W/m 10,6 C 19,3 C 6,4 km/h (2 Bft) 95,83 %
26.06.2018 11:20 19,2 C 20,6 C 56 % 1020,4 hPa 0,0 l/m 5,1 km/h (1 Bft) W 267 0 min 0,000 mm 4,0 UV-I 253 W/m 10,2 C 19,2 C 6,4 km/h (2 Bft) 100,00 %
26.06.2018 11:21 19,3 C 20,6 C 61 % 1020,4 hPa 0,0 l/m 4,6 km/h (1 Bft) W-SW 249 1 min 0,000 mm 5,8 UV-I 458 W/m 11,6 C 19,3 C 6,4 km/h (2 Bft) 95,83 %
26.06.2018 11:22 19,5 C 20,6 C 59 % 1020,4 hPa 0,0 l/m 2,9 km/h (1 Bft) W-SW 251 1 min 0,000 mm 6,0 UV-I 955 W/m 11,3 C 19,5 C 6,4 km/h (2 Bft) 95,65 %
26.06.2018 11:23 19,6 C 20,6 C 58 % 1020,4 hPa 0,0 l/m 2,6 km/h (1 Bft) N-NW 332 1 min 0,000 mm 6,0 UV-I 948 W/m 11,1 C 19,6 C 4,8 km/h (1 Bft) 100,00 %
26.06.2018 11:24 19,7 C 20,6 C 58 % 1020,4 hPa 0,0 l/m 4,1 km/h (1 Bft) W-NW 297 1 min 0,000 mm 6,0 UV-I 939 W/m 11,2 C 19,7 C 6,4 km/h (2 Bft) 95,65 %
26.06.2018 11:25 19,8 C 20,6 C 57 % 1020,4 hPa 0,0 l/m 4,0 km/h (1 Bft) W-NW 297 1 min 0,000 mm 5,9 UV-I 921 W/m 11,0 C 19,8 C 4,8 km/h (1 Bft) 100,00 %
26.06.2018 11:26 19,9 C 20,6 C 56 % 1020,4 hPa 0,0 l/m 1,9 km/h (1 Bft) W-NW 302 1 min 0,000 mm 6,0 UV-I 917 W/m 10,9 C 19,9 C 3,2 km/h (1 Bft) 95,65 %
26.06.2018 11:27 19,9 C 20,6 C 57 % 1020,4 hPa 0,0 l/m 0,8 km/h (0 Bft) W-NW 302 1 min 0,000 mm 6,0 UV-I 918 W/m 11,1 C 19,9 C 1,6 km/h (1 Bft) 100,00 %
26.06.2018 11:28 19,9 C 20,6 C 56 % 1020,4 hPa 0,0 l/m 2,3 km/h (1 Bft) N-NW 344 1 min 0,000 mm 6,1 UV-I 925 W/m 10,9 C 19,9 C 4,8 km/h (1 Bft) 100,00 %
26.06.2018 11:29 20,1 C 20,6 C 55 % 1020,3 hPa 0,0 l/m 6,6 km/h (2 Bft) W-NW 299 1 min 0,000 mm 6,0 UV-I 929 W/m 10,8 C 20,0 C 12,9 km/h (3 Bft) 95,83 %
26.06.2018 11:30 20,3 C 20,6 C 57 % 1020,3 hPa 0,0 l/m 8,0 km/h (2 Bft) W 267 1 min 0,000 mm 6,2 UV-I 945 W/m 11,5 C 19,7 C 14,5 km/h (3 Bft) 100,00 %
26.06.2018 11:31 20,4 C 20,6 C 53 % 1020,3 hPa 0,0 l/m 11,6 km/h (2 Bft) W-SW 257 1 min 0,000 mm 6,2 UV-I 961 W/m 10,5 C 18,6 C 14,5 km/h (3 Bft) 100,00 %
26.06.2018 11:32 20,4 C 20,6 C 51 % 1020,3 hPa 0,0 l/m 12,0 km/h (2 Bft) W 279 1 min 0,000 mm 6,2 UV-I 965 W/m 9,9 C 18,5 C 16,1 km/h (3 Bft) 95,83 %
26.06.2018 11:33 20,6 C 20,6 C 54 % 1020,3 hPa 0,0 l/m 9,6 km/h (2 Bft) N-NO 23 1 min 0,000 mm 6,1 UV-I 966 W/m 11,0 C 19,4 C 12,9 km/h (3 Bft) 91,30 %
26.06.2018 11:34 20,5 C 20,6 C 51 % 1020,3 hPa 0,0 l/m 2,7 km/h (1 Bft) N 5 1 min 0,000 mm 5,3 UV-I 963 W/m 10,0 C 20,5 C 8,0 km/h (2 Bft) 100,00 %
26.06.2018 11:35 20,5 C 20,6 C 51 % 1020,3 hPa 0,0 l/m 7,4 km/h (2 Bft) W-SW 249 1 min 0,000 mm 4,7 UV-I 535 W/m 10,0 C 20,1 C 11,3 km/h (2 Bft) 100,00 %
26.06.2018 11:36 20,5 C 20,6 C 51 % 1020,3 hPa 0,0 l/m 10,6 km/h (2 Bft) SW 223 0 min 0,000 mm 6,2 UV-I 306 W/m 10,0 C 19,0 C 14,5 km/h (3 Bft) 100,00 %
26.06.2018 11:37 20,6 C 20,6 C 52 % 1020,3 hPa 0,0 l/m 7,0 km/h (2 Bft) W 267 0 min 0,000 mm 6,3 UV-I 337 W/m 10,4 C 20,4 C 11,3 km/h (2 Bft) 100,00 %
26.06.2018 11:38 20,7 C 20,6 C 53 % 1020,3 hPa 0,0 l/m 7,8 km/h (2 Bft) W-SW 250 1 min 0,000 mm 6,3 UV-I 1020 W/m 10,8 C 20,2 C 14,5 km/h (3 Bft) 100,00 %
26.06.2018 11:39 20,7 C 20,6 C 51 % 1020,3 hPa 0,0 l/m 8,2 km/h (2 Bft) W 259 1 min 0,000 mm 6,2 UV-I 1033 W/m 10,2 C 20,0 C 11,3 km/h (2 Bft) 95,65 %
26.06.2018 11:40 20,7 C 20,6 C 51 % 1020,3 hPa 0,0 l/m 3,6 km/h (1 Bft) W 263 1 min 0,000 mm 5,6 UV-I 1056 W/m 10,2 C 20,7 C 6,4 km/h (2 Bft) 95,83 %
26.06.2018 11:41 20,6 C 20,6 C 54 % 1020,3 hPa 0,0 l/m 1,4 km/h (1 Bft) W-SW 249 1 min 0,000 mm 5,6 UV-I 1056 W/m 11,0 C 20,6 C 3,2 km/h (1 Bft) 100,00 %
26.06.2018 11:42 20,6 C 20,6 C 51 % 1020,3 hPa 0,0 l/m 6,8 km/h (2 Bft) SW 219 1 min 0,000 mm 6,3 UV-I 1024 W/m 10,1 C 20,4 C 9,7 km/h (2 Bft) 95,83 %
26.06.2018 11:43 20,5 C 20,6 C 51 % 1020,3 hPa 0,0 l/m 3,8 km/h (1 Bft) SW 218 1 min 0,000 mm 6,3 UV-I 990 W/m 10,0 C 20,5 C 6,4 km/h (2 Bft) 100,00 %
26.06.2018 11:44 20,3 C 20,6 C 50 % 1020,3 hPa 0,0 l/m 2,9 km/h (1 Bft) N 11 1 min 0,000 mm 6,0 UV-I 976 W/m 9,5 C 20,3 C 4,8 km/h (1 Bft) 100,00 %
26.06.2018 11:45 20,3 C 20,6 C 54 % 1020,3 hPa 0,0 l/m 2,4 km/h (1 Bft) N-NO 17 1 min 0,000 mm 4,2 UV-I 976 W/m 10,7 C 20,3 C 4,8 km/h (1 Bft) 100,00 %
26.06.2018 11:46 20,4 C 20,6 C 53 % 1020,2 hPa 0,0 l/m 5,2 km/h (1 Bft) W-SW 244 1 min 0,000 mm 4,8 UV-I 976 W/m 10,5 C 20,4 C 11,3 km/h (2 Bft) 100,00 %
26.06.2018 11:47 20,7 C 20,6 C 53 % 1020,2 hPa 0,0 l/m 9,7 km/h (2 Bft) SW 236 1 min 0,000 mm 6,3 UV-I 976 W/m 10,8 C 19,5 C 12,9 km/h (3 Bft) 95,83 %
26.06.2018 11:48 20,8 C 20,6 C 52 % 1020,1 hPa 0,0 l/m 7,3 km/h (2 Bft) NW 319 1 min 0,000 mm 4,9 UV-I 976 W/m 10,6 C 20,5 C 11,3 km/h (2 Bft) 100,00 %
26.06.2018 11:49 20,7 C 20,6 C 52 % 1020,2 hPa 0,0 l/m 7,3 km/h (2 Bft) N-NW 335 1 min 0,000 mm 6,1 UV-I 976 W/m 10,5 C 20,4 C 11,3 km/h (2 Bft) 100,00 %
26.06.2018 11:50 20,8 C 20,6 C 51 % 1020,2 hPa 0,0 l/m 8,2 km/h (2 Bft) N-NW 340 1 min 0,000 mm 6,5 UV-I 968 W/m 10,3 C 20,1 C 14,5 km/h (3 Bft) 100,00 %
26.06.2018 11:51 20,8 C 20,6 C 48 % 1020,1 hPa 0,0 l/m 8,0 km/h (2 Bft) N 9 1 min 0,000 mm 6,3 UV-I 927 W/m 9,4 C 20,2 C 12,9 km/h (3 Bft) 100,00 %
26.06.2018 11:52 20,9 C 20,6 C 52 % 1020,2 hPa 0,0 l/m 8,0 km/h (2 Bft) N 10 1 min 0,000 mm 6,1 UV-I 859 W/m 10,7 C 20,3 C 14,5 km/h (3 Bft) 95,65 %
26.06.2018 11:53 20,9 C 20,6 C 50 % 1020,2 hPa 0,0 l/m 7,9 km/h (2 Bft) W-NW 303 1 min 0,000 mm 6,6 UV-I 837 W/m 10,1 C 20,3 C 12,9 km/h (3 Bft) 95,83 %
26.06.2018 11:54 20,9 C 20,6 C 49 % 1020,2 hPa 0,0 l/m 6,8 km/h (2 Bft) W-SW 258 1 min 0,000 mm 6,6 UV-I 955 W/m 9,8 C 20,8 C 11,3 km/h (2 Bft) 95,65 %
26.06.2018 11:55 20,8 C 20,6 C 48 % 1020,2 hPa 0,0 l/m 4,3 km/h (1 Bft) O-NO 60 1 min 0,000 mm 6,6 UV-I 964 W/m 9,4 C 20,8 C 6,4 km/h (2 Bft) 100,00 %
26.06.2018 11:56 20,8 C 20,6 C 49 % 1020,2 hPa 0,0 l/m 3,5 km/h (1 Bft) W 271 1 min 0,000 mm 6,6 UV-I 970 W/m 9,7 C 20,8 C 4,8 km/h (1 Bft) 100,00 %
26.06.2018 11:57 20,9 C 20,6 C 50 % 1020,2 hPa 0,0 l/m 5,3 km/h (1 Bft) NW 316 1 min 0,000 mm 6,7 UV-I 975 W/m 10,1 C 20,9 C 8,0 km/h (2 Bft) 100,00 %
26.06.2018 11:58 21,0 C 20,6 C 51 % 1020,2 hPa 0,0 l/m 10,9 km/h (2 Bft) N 355 1 min 0,000 mm 6,7 UV-I 983 W/m 10,5 C 19,5 C 14,5 km/h (3 Bft) 100,00 %
26.06.2018 11:59 21,1 C 20,6 C 50 % 1020,2 hPa 0,0 l/m 2,7 km/h (1 Bft) NO 48 1 min 0,000 mm 6,7 UV-I 989 W/m 10,3 C 21,1 C 6,4 km/h (2 Bft) 95,65 %
26.06.2018 12:00 21,2 C 20,6 C 49 % 1020,2 hPa 0,0 l/m 8,8 km/h (2 Bft) N-NO 30 1 min 0,000 mm 6,2 UV-I 994 W/m 10,1 C 20,3 C 14,5 km/h (3 Bft) 100,00 %
26.06.2018 12:02 21,4 C 20,6 C 49 % 1020,1 hPa 0,0 l/m 9,4 km/h (2 Bft) N-NW 327 2 min 0,483 mm 6,6 UV-I 995 W/m 10,2 C 20,4 C 14,5 km/h (3 Bft) 98,00 %
26.06.2018 12:03 21,3 C 20,6 C 46 % 1020,1 hPa 0,0 l/m 10,8 km/h (2 Bft) N-NW 331 1 min 0,000 mm 6,7 UV-I 1014 W/m 9,2 C 19,8 C 14,5 km/h (3 Bft) 95,65 %
26.06.2018 12:04 21,4 C 20,6 C 52 % 1020,1 hPa 0,0 l/m 7,9 km/h (2 Bft) N-NO 21 1 min 0,000 mm 6,7 UV-I 1037 W/m 11,1 C 20,9 C 11,3 km/h (2 Bft) 100,00 %
26.06.2018 12:05 21,4 C 20,6 C 47 % 1020,1 hPa 0,0 l/m 4,4 km/h (1 Bft) NO 39 1 min 0,000 mm 6,7 UV-I 1038 W/m 9,6 C 21,4 C 8,0 km/h (2 Bft) 95,65 %
26.06.2018 12:06 21,4 C 20,6 C 53 % 1020,0 hPa 0,0 l/m 9,1 km/h (2 Bft) NO 37 1 min 0,000 mm 6,7 UV-I 1068 W/m 11,4 C 20,5 C 16,1 km/h (3 Bft) 100,00 %
26.06.2018 12:07 21,6 C 20,6 C 55 % 1020,0 hPa 0,0 l/m 10,3 km/h (2 Bft) NO 40 1 min 0,000 mm 6,7 UV-I 1088 W/m 12,2 C 20,3 C 14,5 km/h (3 Bft) 95,65 %
26.06.2018 12:08 21,7 C 20,6 C 51 % 1020,0 hPa 0,0 l/m 11,6 km/h (2 Bft) N 5 1 min 0,000 mm 6,6 UV-I 1107 W/m 11,1 C 20,1 C 16,1 km/h (3 Bft) 100,00 %
26.06.2018 12:09 21,8 C 20,6 C 51 % 1020,0 hPa 0,0 l/m 9,3 km/h (2 Bft) N 355 1 min 0,000 mm 6,2 UV-I 1070 W/m 11,2 C 20,8 C 12,9 km/h (3 Bft) 100,00 %
26.06.2018 12:10 21,8 C 20,6 C 50 % 1020,0 hPa 0,0 l/m 5,4 km/h (1 Bft) W 280 1 min 0,000 mm 5,0 UV-I 1053 W/m 10,9 C 21,8 C 9,7 km/h (2 Bft) 100,00 %
26.06.2018 12:11 21,8 C 20,6 C 50 % 1020,0 hPa 0,0 l/m 4,8 km/h (1 Bft) W-SW 240 0 min 0,000 mm 3,8 UV-I 477 W/m 10,9 C 21,8 C 6,4 km/h (2 Bft) 91,30 %
26.06.2018 12:13 21,6 C 20,6 C 49 % 1020,1 hPa 0,0 l/m 7,5 km/h (2 Bft) W-SW 252 0 min 0,000 mm 3,2 UV-I 310 W/m 10,4 C 21,2 C 14,5 km/h (3 Bft) 97,87 %
26.06.2018 12:14 21,3 C 20,6 C 51 % 1020,1 hPa 0,0 l/m 4,9 km/h (1 Bft) W-SW 245 0 min 0,000 mm 2,9 UV-I 298 W/m 10,7 C 21,3 C 8,0 km/h (2 Bft) 100,00 %
26.06.2018 12:15 21,1 C 20,6 C 50 % 1020,1 hPa 0,0 l/m 5,7 km/h (1 Bft) W-NW 299 0 min 0,000 mm 2,8 UV-I 287 W/m 10,3 C 21,1 C 8,0 km/h (2 Bft) 95,65 %
26.06.2018 12:16 20,9 C 20,6 C 51 % 1020,1 hPa 0,0 l/m 4,7 km/h (1 Bft) W-SW 238 0 min 0,000 mm 2,8 UV-I 278 W/m 10,4 C 20,9 C 8,0 km/h (2 Bft) 100,00 %
26.06.2018 12:17 20,7 C 20,6 C 51 % 1020,1 hPa 0,0 l/m 5,7 km/h (1 Bft) W-NW 286 0 min 0,000 mm 2,8 UV-I 274 W/m 10,2 C 20,7 C 9,7 km/h (2 Bft) 91,30 %
26.06.2018 12:18 20,4 C 20,6 C 52 % 1020,1 hPa 0,0 l/m 3,1 km/h (1 Bft) NW 310 0 min 0,000 mm 2,8 UV-I 269 W/m 10,2 C 20,4 C 4,8 km/h (1 Bft) 100,00 %
26.06.2018 12:19 20,3 C 20,6 C 52 % 1020,2 hPa 0,0 l/m 4,9 km/h (1 Bft) W-NW 292 0 min 0,000 mm 2,9 UV-I 271 W/m 10,1 C 20,3 C 8,0 km/h (2 Bft) 95,83 %
26.06.2018 12:20 20,2 C 20,6 C 53 % 1020,2 hPa 0,0 l/m 3,9 km/h (1 Bft) NW 306 0 min 0,000 mm 2,9 UV-I 272 W/m 10,3 C 20,2 C 6,4 km/h (2 Bft) 100,00 %
26.06.2018 12:21 20,0 C 20,6 C 53 % 1020,1 hPa 0,0 l/m 4,7 km/h (1 Bft) W-SW 244 0 min 0,000 mm 3,0 UV-I 269 W/m 10,1 C 20,0 C 8,0 km/h (2 Bft) 96,55 %
26.06.2018 12:22 19,9 C 20,6 C 55 % 1020,1 hPa 0,0 l/m 4,2 km/h (1 Bft) W 263 0 min 0,000 mm 3,0 UV-I 267 W/m 10,6 C 19,9 C 9,7 km/h (2 Bft) 95,83 %
26.06.2018 12:23 19,9 C 20,6 C 52 % 1020,2 hPa 0,0 l/m 8,7 km/h (2 Bft) W 264 0 min 0,000 mm 3,1 UV-I 277 W/m 9,7 C 19,0 C 11,3 km/h (2 Bft) 100,00 %
26.06.2018 12:24 19,8 C 20,6 C 53 % 1020,1 hPa 0,0 l/m 4,9 km/h (1 Bft) W-SW 258 0 min 0,000 mm 3,2 UV-I 293 W/m 9,9 C 19,8 C 6,4 km/h (2 Bft) 95,65 %
26.06.2018 12:25 19,7 C 20,6 C 53 % 1020,1 hPa 0,0 l/m 6,9 km/h (2 Bft) W-SW 248 0 min 0,000 mm 3,6 UV-I 355 W/m 9,8 C 19,5 C 11,3 km/h (2 Bft) 100,00 %
26.06.2018 12:26 19,8 C 20,6 C 54 % 1020,1 hPa 0,0 l/m 6,0 km/h (2 Bft) W-NW 290 0 min 0,000 mm 4,1 UV-I 355 W/m 10,2 C 19,8 C 8,0 km/h (2 Bft) 95,65 %
26.06.2018 12:27 19,9 C 20,6 C 54 % 1020,1 hPa 0,0 l/m 8,0 km/h (2 Bft) W 281 0 min 0,000 mm 4,0 UV-I 355 W/m 10,3 C 19,2 C 12,9 km/h (3 Bft) 100,00 %
26.06.2018 12:28 19,9 C 20,6 C 54 % 1020,1 hPa 0,0 l/m 6,7 km/h (2 Bft) W 268 0 min 0,000 mm 3,5 UV-I 352 W/m 10,3 C 19,8 C 9,7 km/h (2 Bft) 91,30 %
26.06.2018 12:29 19,9 C 20,6 C 53 % 1020,1 hPa 0,0 l/m 8,6 km/h (2 Bft) W 279 0 min 0,000 mm 3,5 UV-I 321 W/m 10,0 C 19,0 C 12,9 km/h (3 Bft) 100,00 %
26.06.2018 12:30 19,9 C 20,6 C 53 % 1020,1 hPa 0,0 l/m 5,6 km/h (1 Bft) W-NW 295 0 min 0,000 mm 3,5 UV-I 329 W/m 10,0 C 19,9 C 8,0 km/h (2 Bft) 92,31 %
26.06.2018 12:31 20,0 C 20,6 C 55 % 1020,1 hPa 0,0 l/m 6,2 km/h (2 Bft) W-NW 289 0 min 0,000 mm 4,3 UV-I 329 W/m 10,7 C 20,0 C 9,7 km/h (2 Bft) 100,00 %
26.06.2018 12:33 20,1 C 20,6 C 52 % 1020,0 hPa 0,0 l/m 10,9 km/h (2 Bft) W-NW 283 0 min 0,000 mm 5,2 UV-I 329 W/m 9,9 C 18,5 C 16,1 km/h (3 Bft) 93,62 %
26.06.2018 12:34 20,2 C 20,6 C 52 % 1020,0 hPa 0,0 l/m 9,1 km/h (2 Bft) W 276 0 min 0,000 mm 4,8 UV-I 329 W/m 10,0 C 19,2 C 12,9 km/h (3 Bft) 95,65 %
26.06.2018 12:35 20,2 C 20,6 C 52 % 1020,0 hPa 0,0 l/m 6,0 km/h (2 Bft) W 279 0 min 0,000 mm 5,6 UV-I 329 W/m 10,0 C 20,2 C 9,7 km/h (2 Bft) 95,83 %
26.06.2018 12:36 20,2 C 20,6 C 53 % 1020,0 hPa 0,0 l/m 6,1 km/h (2 Bft) W-SW 257 0 min 0,000 mm 6,2 UV-I 411 W/m 10,3 C 20,2 C 12,9 km/h (3 Bft) 100,00 %
26.06.2018 12:37 20,3 C 20,6 C 52 % 1020,0 hPa 0,0 l/m 9,9 km/h (2 Bft) W 260 1 min 0,000 mm 6,2 UV-I 1019 W/m 10,1 C 19,0 C 12,9 km/h (3 Bft) 96,30 %
26.06.2018 12:38 20,4 C 20,6 C 53 % 1020,0 hPa 0,0 l/m 5,2 km/h (1 Bft) W 273 1 min 0,000 mm 6,6 UV-I 1089 W/m 10,5 C 20,4 C 11,3 km/h (2 Bft) 100,00 %
26.06.2018 12:39 20,5 C 20,6 C 54 % 1020,0 hPa 0,0 l/m 7,8 km/h (2 Bft) SW 219 1 min 0,000 mm 6,7 UV-I 1100 W/m 10,9 C 20,0 C 14,5 km/h (3 Bft) 95,83 %
26.06.2018 12:40 20,6 C 20,6 C 52 % 1019,9 hPa 0,0 l/m 11,3 km/h (2 Bft) W-SW 256 1 min 0,000 mm 6,0 UV-I 1100 W/m 10,4 C 18,9 C 14,5 km/h (3 Bft) 100,00 %
26.06.2018 12:41 20,8 C 20,6 C 53 % 1019,8 hPa 0,0 l/m 9,5 km/h (2 Bft) W 271 1 min 0,000 mm 4,7 UV-I 1100 W/m 10,9 C 19,7 C 16,1 km/h (3 Bft) 95,83 %
26.06.2018 12:42 20,9 C 20,6 C 52 % 1019,8 hPa 0,0 l/m 12,6 km/h (3 Bft) W 267 0 min 0,000 mm 5,0 UV-I 466 W/m 10,7 C 18,9 C 17,7 km/h (3 Bft) 100,00 %
26.06.2018 12:43 20,8 C 20,6 C 52 % 1019,8 hPa 0,0 l/m 6,4 km/h (2 Bft) W-SW 249 0 min 0,000 mm 5,4 UV-I 466 W/m 10,6 C 20,8 C 9,7 km/h (2 Bft) 94,74 %
26.06.2018 12:44 20,8 C 20,6 C 51 % 1019,8 hPa 0,0 l/m 4,0 km/h (1 Bft) W 271 0 min 0,000 mm 3,7 UV-I 369 W/m 10,3 C 20,8 C 6,4 km/h (2 Bft) 95,83 %
26.06.2018 12:45 20,7 C 20,6 C 52 % 1019,9 hPa 0,0 l/m 7,6 km/h (2 Bft) O-NO 59 0 min 0,000 mm 3,6 UV-I 252 W/m 10,5 C 20,2 C 14,5 km/h (3 Bft) 100,00 %
26.06.2018 12:46 20,5 C 20,6 C 52 % 1019,8 hPa 0,0 l/m 7,2 km/h (2 Bft) N 355 0 min 0,000 mm 3,6 UV-I 247 W/m 10,3 C 20,2 C 14,5 km/h (3 Bft) 95,83 %
26.06.2018 12:48 20,2 C 20,6 C 54 % 1019,8 hPa 0,0 l/m 8,5 km/h (2 Bft) NW 319 0 min 0,000 mm 4,5 UV-I 264 W/m 10,6 C 19,4 C 14,5 km/h (3 Bft) 97,87 %
26.06.2018 12:49 20,1 C 20,6 C 53 % 1019,8 hPa 0,0 l/m 4,8 km/h (1 Bft) O-NO 66 0 min 0,000 mm 4,0 UV-I 267 W/m 10,2 C 20,1 C 6,4 km/h (2 Bft) 100,00 %
26.06.2018 12:50 20,1 C 20,6 C 55 % 1019,8 hPa 0,0 l/m 6,7 km/h (2 Bft) W-NW 289 0 min 0,000 mm 4,0 UV-I 268 W/m 10,8 C 20,0 C 11,3 km/h (2 Bft) 95,83 %
26.06.2018 12:51 20,1 C 20,6 C 53 % 1019,8 hPa 0,0 l/m 5,9 km/h (2 Bft) W 259 0 min 0,000 mm 4,2 UV-I 283 W/m 10,2 C 20,1 C 9,7 km/h (2 Bft) 100,00 %
26.06.2018 12:52 20,2 C 20,6 C 54 % 1019,8 hPa 0,0 l/m 5,5 km/h (1 Bft) NO 46 0 min 0,000 mm 5,5 UV-I 295 W/m 10,6 C 20,2 C 8,0 km/h (2 Bft) 95,83 %
26.06.2018 12:53 20,3 C 20,6 C 53 % 1019,8 hPa 0,0 l/m 3,0 km/h (1 Bft) O-NO 70 0 min 0,000 mm 6,7 UV-I 295 W/m 10,4 C 20,3 C 4,8 km/h (1 Bft) 100,00 %
26.06.2018 12:54 20,4 C 20,6 C 55 % 1019,7 hPa 0,0 l/m 3,5 km/h (1 Bft) NW 321 0 min 0,000 mm 6,2 UV-I 413 W/m 11,1 C 20,4 C 6,4 km/h (2 Bft) 91,67 %
26.06.2018 12:55 20,5 C 20,6 C 55 % 1019,7 hPa 0,0 l/m 7,8 km/h (2 Bft) N 11 1 min 0,000 mm 6,3 UV-I 887 W/m 11,1 C 20,0 C 14,5 km/h (3 Bft) 96,15 %
26.06.2018 12:56 20,7 C 20,6 C 52 % 1019,7 hPa 0,0 l/m 10,1 km/h (2 Bft) N-NW 345 1 min 0,000 mm 6,9 UV-I 960 W/m 10,5 C 19,4 C 14,5 km/h (3 Bft) 100,00 %
26.06.2018 12:57 20,8 C 20,6 C 51 % 1019,7 hPa 0,0 l/m 7,1 km/h (2 Bft) NW 320 1 min 0,000 mm 7,0 UV-I 989 W/m 10,3 C 20,5 C 12,9 km/h (3 Bft) 95,65 %
26.06.2018 12:58 20,9 C 20,6 C 53 % 1019,7 hPa 0,0 l/m 5,9 km/h (2 Bft) NW 314 1 min 0,000 mm 6,9 UV-I 980 W/m 11,0 C 20,9 C 8,0 km/h (2 Bft) 95,83 %
26.06.2018 12:59 21,0 C 20,6 C 50 % 1019,7 hPa 0,0 l/m 10,5 km/h (2 Bft) W-NW 284 1 min 0,000 mm 6,9 UV-I 973 W/m 10,2 C 19,6 C 14,5 km/h (3 Bft) 91,67 %
26.06.2018 13:00 21,0 C 20,6 C 49 % 1019,7 hPa 0,0 l/m 8,9 km/h (2 Bft) N-NW 336 1 min 0,000 mm 6,8 UV-I 887 W/m 9,9 C 20,1 C 14,5 km/h (3 Bft) 100,00 %
26.06.2018 13:02 21,1 C 20,6 C 50 % 1019,7 hPa 0,0 l/m 4,6 km/h (1 Bft) W 272 2 min 0,406 mm 7,0 UV-I 953 W/m 10,3 C 21,1 C 6,4 km/h (2 Bft) 93,62 %
26.06.2018 13:03 21,3 C 20,6 C 50 % 1019,6 hPa 0,0 l/m 5,0 km/h (1 Bft) S 173 1 min 0,000 mm 7,0 UV-I 966 W/m 10,4 C 21,3 C 9,7 km/h (2 Bft) 91,67 %
26.06.2018 13:04 21,4 C 20,6 C 49 % 1019,6 hPa 0,0 l/m 6,4 km/h (2 Bft) W 260 1 min 0,000 mm 6,9 UV-I 963 W/m 10,2 C 21,4 C 11,3 km/h (2 Bft) 95,65 %
26.06.2018 13:05 21,6 C 20,6 C 50 % 1019,6 hPa 0,0 l/m 5,0 km/h (1 Bft) S 188 1 min 0,000 mm 7,0 UV-I 945 W/m 10,7 C 21,6 C 9,7 km/h (2 Bft) 95,83 %
26.06.2018 13:06 21,6 C 20,6 C 48 % 1019,5 hPa 0,0 l/m 8,0 km/h (2 Bft) SW 217 1 min 0,000 mm 7,0 UV-I 963 W/m 10,1 C 21,0 C 17,7 km/h (3 Bft) 91,30 %
26.06.2018 13:08 21,6 C 20,6 C 46 % 1019,6 hPa 0,0 l/m 11,6 km/h (2 Bft) W-SW 241 2 min 0,000 mm 7,0 UV-I 958 W/m 9,5 C 20,0 C 17,7 km/h (3 Bft) 95,74 %
26.06.2018 13:09 21,6 C 20,6 C 48 % 1019,6 hPa 0,0 l/m 10,3 km/h (2 Bft) W-SW 252 1 min 0,000 mm 7,0 UV-I 979 W/m 10,1 C 20,3 C 14,5 km/h (3 Bft) 100,00 %
26.06.2018 13:10 21,5 C 21,1 C 46 % 1019,6 hPa 0,0 l/m 6,5 km/h (2 Bft) N-NW 342 1 min 0,000 mm 7,0 UV-I 1004 W/m 9,4 C 21,5 C 11,3 km/h (2 Bft) 91,30 %
26.06.2018 13:11 21,4 C 20,6 C 46 % 1019,6 hPa 0,0 l/m 8,2 km/h (2 Bft) NO 46 1 min 0,000 mm 7,1 UV-I 1024 W/m 9,3 C 20,8 C 14,5 km/h (3 Bft) 100,00 %
26.06.2018 13:13 21,6 C 20,6 C 46 % 1019,6 hPa 0,0 l/m 10,8 km/h (2 Bft) N-NO 22 2 min 0,000 mm 6,5 UV-I 1025 W/m 9,5 C 20,2 C 17,7 km/h (3 Bft) 97,87 %
26.06.2018 13:14 21,6 C 20,6 C 45 % 1019,6 hPa 0,0 l/m 5,1 km/h (1 Bft) N-NO 16 1 min 0,000 mm 5,9 UV-I 1025 W/m 9,2 C 21,6 C 12,9 km/h (3 Bft) 82,61 %
26.06.2018 13:15 21,5 C 20,6 C 46 % 1019,6 hPa 0,0 l/m 6,4 km/h (2 Bft) W-SW 252 1 min 0,000 mm 6,1 UV-I 1025 W/m 9,4 C 21,5 C 11,3 km/h (2 Bft) 91,67 %
26.06.2018 13:16 21,6 C 21,1 C 47 % 1019,6 hPa 0,0 l/m 4,9 km/h (1 Bft) N-NW 336 1 min 0,000 mm 5,8 UV-I 1025 W/m 9,8 C 21,6 C 8,0 km/h (2 Bft) 100,00 %
26.06.2018 13:17 21,6 C 21,1 C 47 % 1019,5 hPa 0,0 l/m 4,2 km/h (1 Bft) N-NO 17 1 min 0,000 mm 6,5 UV-I 1016 W/m 9,8 C 21,6 C 8,0 km/h (2 Bft) 100,00 %
26.06.2018 13:18 21,7 C 21,1 C 51 % 1019,6 hPa 0,0 l/m 4,0 km/h (1 Bft) N-NO 17 1 min 0,000 mm 5,3 UV-I 952 W/m 11,1 C 21,7 C 8,0 km/h (2 Bft) 91,67 %
26.06.2018 13:19 21,8 C 21,1 C 52 % 1019,6 hPa 0,0 l/m 2,6 km/h (1 Bft) N-NO 25 1 min 0,000 mm 7,0 UV-I 948 W/m 11,5 C 21,8 C 4,8 km/h (1 Bft) 91,30 %
26.06.2018 13:20 21,8 C 21,1 C 45 % 1019,5 hPa 0,0 l/m 2,5 km/h (1 Bft) W-SW 246 1 min 0,000 mm 6,9 UV-I 948 W/m 9,3 C 21,8 C 4,8 km/h (1 Bft) 100,00 %
26.06.2018 13:21 21,8 C 21,1 C 46 % 1019,5 hPa 0,0 l/m 5,6 km/h (1 Bft) W 271 1 min 0,000 mm 6,0 UV-I 949 W/m 9,7 C 21,8 C 8,0 km/h (2 Bft) 91,30 %
26.06.2018 13:22 21,8 C 21,1 C 47 % 1019,5 hPa 0,0 l/m 9,3 km/h (2 Bft) W-SW 242 0 min 0,000 mm 6,1 UV-I 384 W/m 10,0 C 20,8 C 14,5 km/h (3 Bft) 100,00 %
26.06.2018 13:23 21,7 C 21,1 C 46 % 1019,5 hPa 0,0 l/m 4,7 km/h (1 Bft) W 261 0 min 0,000 mm 6,8 UV-I 276 W/m 9,6 C 21,7 C 12,9 km/h (3 Bft) 96,15 %
26.06.2018 13:24 21,6 C 21,1 C 45 % 1019,5 hPa 0,0 l/m 2,0 km/h (1 Bft) O-NO 72 0 min 0,000 mm 4,9 UV-I 276 W/m 9,2 C 21,6 C 6,4 km/h (2 Bft) 96,30 %
26.06.2018 13:25 21,7 C 21,1 C 47 % 1019,5 hPa 0,0 l/m 5,0 km/h (1 Bft) NW 308 0 min 0,000 mm 6,9 UV-I 276 W/m 9,9 C 21,7 C 8,0 km/h (2 Bft) 100,00 %
26.06.2018 13:26 21,8 C 21,1 C 47 % 1019,5 hPa 0,0 l/m 3,6 km/h (1 Bft) NO 36 1 min 0,000 mm 7,1 UV-I 722 W/m 10,0 C 21,8 C 6,4 km/h (2 Bft) 95,83 %
26.06.2018 13:27 21,9 C 21,1 C 48 % 1019,5 hPa 0,0 l/m 7,9 km/h (2 Bft) N-NW 330 1 min 0,000 mm 7,3 UV-I 1009 W/m 10,4 C 21,4 C 12,9 km/h (3 Bft) 100,00 %
26.06.2018 13:28 21,9 C 21,1 C 45 % 1019,5 hPa 0,0 l/m 3,6 km/h (1 Bft) N-NW 331 1 min 0,000 mm 7,2 UV-I 1009 W/m 9,4 C 21,9 C 4,8 km/h (1 Bft) 95,83 %
26.06.2018 13:29 21,8 C 21,1 C 48 % 1019,5 hPa 0,0 l/m 2,3 km/h (1 Bft) W 275 1 min 0,000 mm 7,1 UV-I 1007 W/m 10,3 C 21,8 C 3,2 km/h (1 Bft) 100,00 %
26.06.2018 13:30 21,8 C 21,1 C 46 % 1019,5 hPa 0,0 l/m 3,0 km/h (1 Bft) W-SW 256 1 min 0,000 mm 7,1 UV-I 998 W/m 9,7 C 21,8 C 4,8 km/h (1 Bft) 100,00 %
26.06.2018 13:31 21,8 C 21,1 C 46 % 1019,4 hPa 0,0 l/m 5,5 km/h (1 Bft) W-SW 245 1 min 0,000 mm 6,8 UV-I 1005 W/m 9,7 C 21,8 C 9,7 km/h (2 Bft) 100,00 %
26.06.2018 13:32 22,1 C 21,1 C 48 % 1019,4 hPa 0,0 l/m 5,9 km/h (2 Bft) S-SO 159 1 min 0,000 mm 6,1 UV-I 905 W/m 10,6 C 22,1 C 8,0 km/h (2 Bft) 95,83 %
26.06.2018 13:33 22,2 C 21,1 C 46 % 1019,4 hPa 0,0 l/m 7,1 km/h (2 Bft) NW 323 1 min 0,000 mm 6,5 UV-I 785 W/m 10,0 C 22,0 C 16,1 km/h (3 Bft) 100,00 %
26.06.2018 13:34 22,2 C 21,1 C 45 % 1019,4 hPa 0,0 l/m 6,5 km/h (2 Bft) W 274 1 min 0,000 mm 6,6 UV-I 770 W/m 9,7 C 22,2 C 9,7 km/h (2 Bft) 100,00 %
26.06.2018 13:35 22,1 C 21,1 C 45 % 1019,3 hPa 0,0 l/m 6,6 km/h (2 Bft) NW 319 1 min 0,000 mm 4,3 UV-I 676 W/m 9,6 C 22,0 C 11,3 km/h (2 Bft) 91,30 %
26.06.2018 13:36 21,9 C 21,1 C 46 % 1019,3 hPa 0,0 l/m 8,6 km/h (2 Bft) N-NO 12 0 min 0,000 mm 3,9 UV-I 205 W/m 9,7 C 21,2 C 16,1 km/h (3 Bft) 100,00 %
26.06.2018 13:37 21,7 C 21,1 C 43 % 1019,4 hPa 0,0 l/m 7,4 km/h (2 Bft) N-NO 32 0 min 0,000 mm 3,9 UV-I 208 W/m 8,6 C 21,3 C 9,7 km/h (2 Bft) 100,00 %
26.06.2018 13:38 21,4 C 21,1 C 48 % 1019,3 hPa 0,0 l/m 4,2 km/h (1 Bft) NO 38 0 min 0,000 mm 3,9 UV-I 208 W/m 9,9 C 21,4 C 8,0 km/h (2 Bft) 100,00 %
26.06.2018 13:39 21,2 C 21,1 C 46 % 1019,3 hPa 0,0 l/m 2,9 km/h (1 Bft) NO 36 0 min 0,000 mm 4,0 UV-I 220 W/m 9,1 C 21,2 C 4,8 km/h (1 Bft) 100,00 %
26.06.2018 13:40 21,0 C 21,1 C 47 % 1019,3 hPa 0,0 l/m 1,2 km/h (1 Bft) NO 36 0 min 0,000 mm 4,1 UV-I 236 W/m 9,3 C 21,0 C 1,6 km/h (1 Bft) 100,00 %
26.06.2018 13:41 20,9 C 21,1 C 47 % 1019,3 hPa 0,0 l/m 2,3 km/h (1 Bft) NW 318 0 min 0,000 mm 4,1 UV-I 250 W/m 9,2 C 20,9 C 3,2 km/h (1 Bft) 100,00 %
26.06.2018 13:42 20,9 C 21,1 C 46 % 1019,2 hPa 0,0 l/m 3,8 km/h (1 Bft) NW 308 0 min 0,000 mm 4,7 UV-I 264 W/m 8,8 C 20,9 C 6,4 km/h (2 Bft) 100,00 %
26.06.2018 13:43 21,0 C 21,1 C 46 % 1019,3 hPa 0,0 l/m 4,6 km/h (1 Bft) W-NW 302 1 min 0,000 mm 6,9 UV-I 666 W/m 8,9 C 21,0 C 6,4 km/h (2 Bft) 100,00 %
26.06.2018 13:44 21,2 C 21,1 C 48 % 1019,2 hPa 0,0 l/m 8,8 km/h (2 Bft) N-NO 24 1 min 0,000 mm 7,1 UV-I 1076 W/m 9,7 C 20,3 C 19,3 km/h (3 Bft) 100,00 %
26.06.2018 13:45 21,5 C 21,1 C 48 % 1019,2 hPa 0,0 l/m 6,4 km/h (2 Bft) NW 321 1 min 0,000 mm 7,2 UV-I 1095 W/m 10,0 C 21,5 C 12,9 km/h (3 Bft) 100,00 %
26.06.2018 13:46 21,8 C 21,1 C 48 % 1019,2 hPa 0,0 l/m 9,1 km/h (2 Bft) NW 317 1 min 0,000 mm 7,3 UV-I 1128 W/m 10,3 C 20,9 C 16,1 km/h (3 Bft) 96,15 %
26.06.2018 13:48 21,9 C 21,1 C 46 % 1019,3 hPa 0,0 l/m 10,0 km/h (2 Bft) NW 307 2 min 0,000 mm 6,6 UV-I 1088 W/m 9,7 C 20,7 C 16,1 km/h (3 Bft) 100,00 %
26.06.2018 13:49 21,9 C 21,1 C 45 % 1019,3 hPa 0,0 l/m 11,5 km/h (2 Bft) W-NW 283 1 min 0,000 mm 7,1 UV-I 1046 W/m 9,4 C 20,3 C 14,5 km/h (3 Bft) 100,00 %
26.06.2018 13:50 22,0 C 21,1 C 44 % 1019,2 hPa 0,0 l/m 6,7 km/h (2 Bft) W-NW 298 1 min 0,000 mm 7,0 UV-I 1046 W/m 9,2 C 21,9 C 11,3 km/h (2 Bft) 100,00 %
26.06.2018 13:51 21,8 C 21,1 C 45 % 1019,2 hPa 0,0 l/m 5,9 km/h (2 Bft) W 275 1 min 0,000 mm 4,8 UV-I 1046 W/m 9,3 C 21,8 C 11,3 km/h (2 Bft) 100,00 %
26.06.2018 13:53 21,8 C 21,1 C 45 % 1019,2 hPa 0,0 l/m 9,1 km/h (2 Bft) W 259 0 min 0,000 mm 3,7 UV-I 402 W/m 9,3 C 20,9 C 16,1 km/h (3 Bft) 97,37 %
26.06.2018 13:54 21,8 C 21,1 C 47 % 1019,2 hPa 0,0 l/m 4,0 km/h (1 Bft) O-NO 64 0 min 0,000 mm 3,4 UV-I 381 W/m 10,0 C 21,8 C 11,3 km/h (2 Bft) 100,00 %
26.06.2018 13:55 21,7 C 21,1 C 47 % 1019,2 hPa 0,0 l/m 6,8 km/h (2 Bft) W-SW 244 0 min 0,000 mm 3,2 UV-I 371 W/m 9,9 C 21,6 C 14,5 km/h (3 Bft) 100,00 %
26.06.2018 13:56 21,7 C 21,1 C 46 % 1019,2 hPa 0,0 l/m 7,9 km/h (2 Bft) SW 225 0 min 0,000 mm 3,1 UV-I 361 W/m 9,6 C 21,2 C 12,9 km/h (3 Bft) 100,00 %
26.06.2018 13:57 21,7 C 21,1 C 49 % 1019,2 hPa 0,0 l/m 2,5 km/h (1 Bft) W 261 0 min 0,000 mm 3,0 UV-I 354 W/m 10,5 C 21,7 C 6,4 km/h (2 Bft) 100,00 %
26.06.2018 13:58 21,7 C 21,1 C 47 % 1019,2 hPa 0,0 l/m 1,7 km/h (1 Bft) O-SO 109 0 min 0,000 mm 2,9 UV-I 347 W/m 9,9 C 21,7 C 4,8 km/h (1 Bft) 100,00 %
26.06.2018 13:59 21,7 C 21,1 C 46 % 1019,2 hPa 0,0 l/m 5,2 km/h (1 Bft) N-NW 348 0 min 0,000 mm 2,8 UV-I 341 W/m 9,6 C 21,7 C 8,0 km/h (2 Bft) 100,00 %
26.06.2018 14:00 21,7 C 21,1 C 46 % 1019,2 hPa 0,0 l/m 8,2 km/h (2 Bft) N 11 0 min 0,000 mm 2,7 UV-I 333 W/m 9,6 C 21,1 C 12,9 km/h (3 Bft) 100,00 %
26.06.2018 14:02 21,3 C 21,1 C 46 % 1019,2 hPa 0,0 l/m 8,9 km/h (2 Bft) N-NO 13 0 min 0,457 mm 2,6 UV-I 318 W/m 9,2 C 20,4 C 14,5 km/h (3 Bft) 95,74 %
26.06.2018 14:03 21,2 C 21,1 C 46 % 1019,2 hPa 0,0 l/m 8,8 km/h (2 Bft) N-NO 26 0 min 0,000 mm 2,4 UV-I 301 W/m 9,1 C 20,3 C 11,3 km/h (2 Bft) 100,00 %
26.06.2018 14:04 21,1 C 21,1 C 46 % 1019,2 hPa 0,0 l/m 6,9 km/h (2 Bft) N 360 0 min 0,000 mm 2,3 UV-I 291 W/m 9,0 C 20,9 C 9,7 km/h (2 Bft) 100,00 %
26.06.2018 14:05 21,0 C 21,1 C 47 % 1019,2 hPa 0,0 l/m 8,4 km/h (2 Bft) N-NW 335 0 min 0,000 mm 2,2 UV-I 282 W/m 9,3 C 20,3 C 11,3 km/h (2 Bft) 90,91 %
26.06.2018 14:06 20,9 C 21,1 C 46 % 1019,2 hPa 0,0 l/m 7,1 km/h (2 Bft) N-NO 19 0 min 0,000 mm 2,2 UV-I 273 W/m 8,8 C 20,6 C 9,7 km/h (2 Bft) 100,00 %
26.06.2018 14:07 20,9 C 21,1 C 49 % 1019,1 hPa 0,0 l/m 5,3 km/h (1 Bft) N 5 0 min 0,000 mm 2,1 UV-I 265 W/m 9,8 C 20,9 C 8,0 km/h (2 Bft) 100,00 %
26.06.2018 14:08 20,9 C 21,1 C 50 % 1019,2 hPa 0,0 l/m 9,9 km/h (2 Bft) N 350 0 min 0,000 mm 2,1 UV-I 257 W/m 10,1 C 19,7 C 14,5 km/h (3 Bft) 100,00 %
26.06.2018 14:09 20,8 C 21,1 C 50 % 1019,1 hPa 0,0 l/m 10,9 km/h (2 Bft) N 9 0 min 0,000 mm 2,0 UV-I 251 W/m 10,0 C 19,3 C 14,5 km/h (3 Bft) 100,00 %
26.06.2018 14:10 20,8 C 21,1 C 52 % 1019,1 hPa 0,0 l/m 10,3 km/h (2 Bft) N 11 0 min 0,000 mm 2,1 UV-I 246 W/m 10,6 C 19,4 C 14,5 km/h (3 Bft) 100,00 %
26.06.2018 14:11 20,7 C 21,1 C 51 % 1019,1 hPa 0,0 l/m 6,9 km/h (2 Bft) N-NW 344 0 min 0,000 mm 2,1 UV-I 245 W/m 10,2 C 20,5 C 12,9 km/h (3 Bft) 100,00 %
26.06.2018 14:13 20,8 C 21,1 C 49 % 1019,1 hPa 0,0 l/m 3,9 km/h (1 Bft) W-NW 286 0 min 0,000 mm 2,2 UV-I 245 W/m 9,7 C 20,8 C 9,7 km/h (2 Bft) 96,61 %
26.06.2018 14:14 20,8 C 21,1 C 48 % 1019,1 hPa 0,0 l/m 4,9 km/h (1 Bft) SW 214 0 min 0,000 mm 2,4 UV-I 251 W/m 9,4 C 20,8 C 6,4 km/h (2 Bft) 100,00 %
26.06.2018 14:15 20,8 C 21,1 C 49 % 1019,1 hPa 0,0 l/m 3,2 km/h (1 Bft) SW 217 0 min 0,000 mm 2,5 UV-I 258 W/m 9,7 C 20,8 C 6,4 km/h (2 Bft) 100,00 %
26.06.2018 14:16 20,9 C 21,1 C 48 % 1019,1 hPa 0,0 l/m 3,0 km/h (1 Bft) W-NW 283 0 min 0,000 mm 2,6 UV-I 271 W/m 9,5 C 20,9 C 6,4 km/h (2 Bft) 100,00 %
26.06.2018 14:18 21,1 C 21,1 C 48 % 1019,0 hPa 0,0 l/m 4,8 km/h (1 Bft) NW 308 0 min 0,000 mm 2,9 UV-I 294 W/m 9,7 C 21,1 C 9,7 km/h (2 Bft) 100,00 %
26.06.2018 14:19 21,0 C 21,1 C 48 % 1019,0 hPa 0,0 l/m 3,1 km/h (1 Bft) W-SW 257 0 min 0,000 mm 3,2 UV-I 323 W/m 9,6 C 21,0 C 4,8 km/h (1 Bft) 100,00 %
26.06.2018 14:20 21,1 C 21,1 C 49 % 1019,0 hPa 0,0 l/m 5,1 km/h (1 Bft) W-NW 295 0 min 0,000 mm 3,4 UV-I 343 W/m 10,0 C 21,1 C 9,7 km/h (2 Bft) 100,00 %
26.06.2018 14:21 21,1 C 21,1 C 49 % 1019,0 hPa 0,0 l/m 4,4 km/h (1 Bft) N-NO 22 0 min 0,000 mm 5,0 UV-I 377 W/m 10,0 C 21,1 C 6,4 km/h (2 Bft) 100,00 %
26.06.2018 14:23 21,4 C 21,1 C 51 % 1019,0 hPa 0,0 l/m 5,2 km/h (1 Bft) W-NW 285 2 min 0,000 mm 5,7 UV-I 820 W/m 10,8 C 21,4 C 12,9 km/h (3 Bft) 100,00 %
26.06.2018 14:24 21,5 C 21,1 C 47 % 1019,0 hPa 0,0 l/m 8,5 km/h (2 Bft) W-SW 252 1 min 0,000 mm 5,5 UV-I 1092 W/m 9,7 C 20,8 C 14,5 km/h (3 Bft) 100,00 %
26.06.2018 14:25 21,7 C 21,1 C 46 % 1019,0 hPa 0,0 l/m 10,1 km/h (2 Bft) W-NW 282 1 min 0,000 mm 5,1 UV-I 1092 W/m 9,6 C 20,5 C 12,9 km/h (3 Bft) 100,00 %
26.06.2018 14:26 21,8 C 21,1 C 46 % 1018,9 hPa 0,0 l/m 6,7 km/h (2 Bft) W-NW 302 1 min 0,000 mm 4,1 UV-I 1092 W/m 9,7 C 21,7 C 11,3 km/h (2 Bft) 100,00 %
26.06.2018 14:27 21,8 C 21,1 C 45 % 1018,9 hPa 0,0 l/m 7,2 km/h (2 Bft) W 264 0 min 0,000 mm 3,2 UV-I 358 W/m 9,3 C 21,5 C 11,3 km/h (2 Bft) 100,00 %
26.06.2018 14:28 21,8 C 21,1 C 46 % 1018,9 hPa 0,0 l/m 11,5 km/h (2 Bft) NW 304 0 min 0,000 mm 3,1 UV-I 336 W/m 9,7 C 20,2 C 16,1 km/h (3 Bft) 95,65 %
26.06.2018 14:29 21,8 C 21,1 C 48 % 1019,0 hPa 0,0 l/m 4,5 km/h (1 Bft) N-NO 18 0 min 0,000 mm 3,0 UV-I 331 W/m 10,3 C 21,8 C 8,0 km/h (2 Bft) 100,00 %
26.06.2018 14:30 21,7 C 21,1 C 49 % 1019,0 hPa 0,0 l/m 5,6 km/h (1 Bft) N 10 0 min 0,000 mm 3,0 UV-I 329 W/m 10,5 C 21,7 C 8,0 km/h (2 Bft) 100,00 %
26.06.2018 14:31 21,6 C 21,1 C 48 % 1018,9 hPa 0,0 l/m 8,5 km/h (2 Bft) N 9 0 min 0,000 mm 3,0 UV-I 333 W/m 10,1 C 20,9 C 12,9 km/h (3 Bft) 96,30 %
26.06.2018 14:33 21,4 C 21,1 C 51 % 1018,9 hPa 0,0 l/m 5,9 km/h (2 Bft) NO 42 0 min 0,000 mm 3,2 UV-I 365 W/m 10,8 C 21,4 C 14,5 km/h (3 Bft) 100,00 %
26.06.2018 14:34 21,3 C 21,1 C 48 % 1018,9 hPa 0,0 l/m 3,5 km/h (1 Bft) NO 42 0 min 0,000 mm 3,2 UV-I 351 W/m 9,8 C 21,3 C 4,8 km/h (1 Bft) 100,00 %
26.06.2018 14:35 21,3 C 21,1 C 50 % 1018,9 hPa 0,0 l/m 5,2 km/h (1 Bft) W-NW 301 0 min 0,000 mm 3,2 UV-I 345 W/m 10,4 C 21,3 C 11,3 km/h (2 Bft) 100,00 %
26.06.2018 14:36 21,2 C 21,1 C 49 % 1018,9 hPa 0,0 l/m 5,8 km/h (2 Bft) N-NW 327 0 min 0,000 mm 3,2 UV-I 334 W/m 10,1 C 21,2 C 11,3 km/h (2 Bft) 100,00 %
26.06.2018 14:38 21,0 C 21,1 C 48 % 1018,9 hPa 0,0 l/m 5,8 km/h (2 Bft) N 355 0 min 0,000 mm 3,2 UV-I 315 W/m 9,6 C 21,0 C 11,3 km/h (2 Bft) 100,00 %
26.06.2018 14:39 20,9 C 21,1 C 49 % 1018,9 hPa 0,0 l/m 4,3 km/h (1 Bft) NO 34 0 min 0,000 mm 3,3 UV-I 309 W/m 9,8 C 20,9 C 8,0 km/h (2 Bft) 100,00 %
26.06.2018 14:40 20,9 C 21,1 C 52 % 1018,9 hPa 0,0 l/m 5,6 km/h (1 Bft) N-NO 15 0 min 0,000 mm 3,5 UV-I 333 W/m 10,7 C 20,9 C 8,0 km/h (2 Bft) 100,00 %
26.06.2018 14:41 20,9 C 21,1 C 50 % 1018,9 hPa 0,0 l/m 4,3 km/h (1 Bft) O-NO 71 0 min 0,000 mm 4,2 UV-I 378 W/m 10,1 C 20,9 C 6,4 km/h (2 Bft) 95,65 %
26.06.2018 14:43 21,1 C 21,1 C 51 % 1018,9 hPa 0,0 l/m 3,9 km/h (1 Bft) NW 320 0 min 0,000 mm 4,6 UV-I 411 W/m 10,6 C 21,1 C 8,0 km/h (2 Bft) 97,87 %
26.06.2018 14:44 21,1 C 21,1 C 51 % 1018,9 hPa 0,0 l/m 3,5 km/h (1 Bft) W 270 0 min 0,000 mm 5,5 UV-I 459 W/m 10,6 C 21,1 C 6,4 km/h (2 Bft) 100,00 %
26.06.2018 14:45 21,3 C 21,1 C 50 % 1018,8 hPa 0,0 l/m 3,8 km/h (1 Bft) NW 325 0 min 0,000 mm 4,6 UV-I 459 W/m 10,4 C 21,3 C 8,0 km/h (2 Bft) 100,00 %
26.06.2018 14:46 21,4 C 21,1 C 49 % 1018,9 hPa 0,0 l/m 5,8 km/h (2 Bft) NW 306 1 min 0,000 mm 4,7 UV-I 510 W/m 10,2 C 21,4 C 14,5 km/h (3 Bft) 100,00 %
26.06.2018 14:47 21,4 C 21,1 C 50 % 1018,8 hPa 0,0 l/m 6,8 km/h (2 Bft) NW 320 1 min 0,000 mm 4,4 UV-I 633 W/m 10,5 C 21,3 C 12,9 km/h (3 Bft) 91,67 %
26.06.2018 14:48 21,5 C 21,1 C 48 % 1018,8 hPa 0,0 l/m 10,9 km/h (2 Bft) W-NW 290 1 min 0,000 mm 4,4 UV-I 461 W/m 10,0 C 20,0 C 16,1 km/h (3 Bft) 100,00 %
26.06.2018 14:49 21,6 C 21,1 C 47 % 1018,8 hPa 0,0 l/m 9,1 km/h (2 Bft) W 271 0 min 0,000 mm 5,0 UV-I 338 W/m 9,8 C 20,7 C 16,1 km/h (3 Bft) 100,00 %
26.06.2018 14:50 21,6 C 21,1 C 49 % 1018,8 hPa 0,0 l/m 9,5 km/h (2 Bft) W-SW 238 1 min 0,000 mm 5,5 UV-I 825 W/m 10,4 C 20,6 C 16,1 km/h (3 Bft) 100,00 %
26.06.2018 14:51 21,8 C 21,1 C 48 % 1018,8 hPa 0,0 l/m 8,7 km/h (2 Bft) SW 230 1 min 0,000 mm 5,6 UV-I 888 W/m 10,3 C 21,0 C 16,1 km/h (3 Bft) 95,83 %
26.06.2018 14:53 22,1 C 21,1 C 48 % 1018,8 hPa 0,0 l/m 10,6 km/h (2 Bft) SW 222 2 min 0,000 mm 5,6 UV-I 875 W/m 10,6 C 20,8 C 19,3 km/h (3 Bft) 97,87 %
26.06.2018 14:54 22,1 C 21,1 C 47 % 1018,7 hPa 0,0 l/m 7,5 km/h (2 Bft) W-NW 292 1 min 0,000 mm 5,5 UV-I 859 W/m 10,3 C 21,7 C 12,9 km/h (3 Bft) 96,15 %
26.06.2018 14:55 22,1 C 21,1 C 46 % 1018,7 hPa 0,0 l/m 9,5 km/h (2 Bft) NW 315 1 min 0,000 mm 5,5 UV-I 850 W/m 9,9 C 21,1 C 19,3 km/h (3 Bft) 100,00 %
26.06.2018 14:56 22,1 C 21,1 C 47 % 1018,8 hPa 0,0 l/m 5,9 km/h (2 Bft) NW 315 1 min 0,000 mm 5,5 UV-I 844 W/m 10,3 C 22,1 C 12,9 km/h (3 Bft) 95,65 %
26.06.2018 14:58 22,2 C 21,1 C 46 % 1018,8 hPa 0,0 l/m 8,6 km/h (2 Bft) W 263 2 min 0,000 mm 5,5 UV-I 839 W/m 10,0 C 21,5 C 16,1 km/h (3 Bft) 97,87 %
26.06.2018 14:59 22,2 C 21,1 C 46 % 1018,8 hPa 0,0 l/m 6,7 km/h (2 Bft) W-NW 303 1 min 0,000 mm 5,5 UV-I 840 W/m 10,0 C 22,1 C 14,5 km/h (3 Bft) 100,00 %
26.06.2018 15:00 22,2 C 21,1 C 46 % 1018,8 hPa 0,0 l/m 8,5 km/h (2 Bft) SW 234 1 min 0,000 mm 5,5 UV-I 838 W/m 10,0 C 21,5 C 14,5 km/h (3 Bft) 91,30 %
26.06.2018 15:02 22,2 C 21,1 C 46 % 1018,8 hPa 0,0 l/m 11,9 km/h (2 Bft) W-NW 290 2 min 0,356 mm 5,5 UV-I 845 W/m 10,0 C 20,6 C 17,7 km/h (3 Bft) 93,62 %
26.06.2018 15:03 22,3 C 21,1 C 45 % 1018,8 hPa 0,0 l/m 6,4 km/h (2 Bft) W 279 1 min 0,000 mm 5,5 UV-I 853 W/m 9,8 C 22,3 C 11,3 km/h (2 Bft) 95,83 %
26.06.2018 15:04 22,3 C 21,1 C 47 % 1018,8 hPa 0,0 l/m 5,3 km/h (1 Bft) W 259 1 min 0,000 mm 5,4 UV-I 850 W/m 10,4 C 22,3 C 6,4 km/h (2 Bft) 96,55 %
26.06.2018 15:05 22,6 C 21,1 C 47 % 1018,8 hPa 0,0 l/m 3,0 km/h (1 Bft) W 263 1 min 0,000 mm 5,4 UV-I 857 W/m 10,7 C 22,6 C 9,7 km/h (2 Bft) 95,83 %
26.06.2018 15:06 22,7 C 21,1 C 45 % 1018,8 hPa 0,0 l/m 6,9 km/h (2 Bft) N-NW 327 1 min 0,000 mm 5,5 UV-I 867 W/m 10,1 C 22,5 C 12,9 km/h (3 Bft) 95,65 %
26.06.2018 15:08 22,7 C 21,1 C 46 % 1018,7 hPa 0,0 l/m 8,4 km/h (2 Bft) SW 225 2 min 0,000 mm 5,6 UV-I 888 W/m 10,5 C 22,1 C 16,1 km/h (3 Bft) 95,74 %
26.06.2018 15:09 22,8 C 21,1 C 47 % 1018,7 hPa 0,0 l/m 9,1 km/h (2 Bft) W-SW 252 1 min 0,000 mm 5,5 UV-I 890 W/m 10,9 C 22,0 C 12,9 km/h (3 Bft) 95,83 %
26.06.2018 15:10 22,8 C 21,1 C 46 % 1018,8 hPa 0,0 l/m 16,0 km/h (3 Bft) NW 308 1 min 0,000 mm 5,4 UV-I 891 W/m 10,6 C 20,5 C 22,5 km/h (4 Bft) 91,67 %
26.06.2018 15:11 22,7 C 21,1 C 43 % 1018,8 hPa 0,0 l/m 17,3 km/h (3 Bft) SW 234 1 min 0,000 mm 5,4 UV-I 904 W/m 9,5 C 20,1 C 22,5 km/h (4 Bft) 100,00 %
26.06.2018 15:12 22,7 C 21,1 C 44 % 1018,8 hPa 0,0 l/m 7,9 km/h (2 Bft) NW 305 1 min 0,000 mm 5,4 UV-I 914 W/m 9,8 C 22,2 C 12,9 km/h (3 Bft) 92,31 %
26.06.2018 15:13 22,6 C 21,1 C 43 % 1018,8 hPa 0,0 l/m 4,4 km/h (1 Bft) N-NW 341 1 min 0,000 mm 5,5 UV-I 949 W/m 9,4 C 22,6 C 6,4 km/h (2 Bft) 100,00 %
26.06.2018 15:14 22,6 C 21,1 C 45 % 1018,8 hPa 0,0 l/m 5,3 km/h (1 Bft) W-NW 298 1 min 0,000 mm 5,5 UV-I 980 W/m 10,1 C 22,6 C 8,0 km/h (2 Bft) 95,83 %
26.06.2018 15:15 22,6 C 21,1 C 43 % 1018,7 hPa 0,0 l/m 4,4 km/h (1 Bft) N-NW 339 1 min 0,000 mm 5,5 UV-I 992 W/m 9,4 C 22,6 C 8,0 km/h (2 Bft) 95,65 %
26.06.2018 15:16 22,8 C 21,1 C 46 % 1018,7 hPa 0,0 l/m 3,8 km/h (1 Bft) W 273 1 min 0,000 mm 4,3 UV-I 956 W/m 10,6 C 22,8 C 8,0 km/h (2 Bft) 100,00 %
26.06.2018 15:17 22,9 C 21,1 C 44 % 1018,7 hPa 0,0 l/m 10,6 km/h (2 Bft) W-SW 243 1 min 0,000 mm 3,8 UV-I 653 W/m 10,0 C 21,7 C 14,5 km/h (3 Bft) 95,65 %
26.06.2018 15:18 22,9 C 21,1 C 43 % 1018,7 hPa 0,0 l/m 13,0 km/h (3 Bft) W-NW 290 0 min 0,000 mm 4,2 UV-I 397 W/m 9,6 C 21,2 C 16,1 km/h (3 Bft) 100,00 %
26.06.2018 15:19 22,7 C 21,1 C 43 % 1018,7 hPa 0,0 l/m 7,6 km/h (2 Bft) W-NW 290 1 min 0,000 mm 4,2 UV-I 516 W/m 9,5 C 22,3 C 16,1 km/h (3 Bft) 95,65 %
26.06.2018 15:20 22,7 C 21,1 C 44 % 1018,7 hPa 0,0 l/m 7,4 km/h (2 Bft) W-SW 254 1 min 0,000 mm 5,0 UV-I 541 W/m 9,8 C 22,4 C 16,1 km/h (3 Bft) 100,00 %
26.06.2018 15:21 22,5 C 21,1 C 43 % 1018,7 hPa 0,0 l/m 17,6 km/h (3 Bft) W 261 1 min 0,000 mm 4,6 UV-I 541 W/m 9,3 C 19,8 C 22,5 km/h (4 Bft) 95,65 %
26.06.2018 15:22 22,4 C 21,1 C 43 % 1018,7 hPa 0,0 l/m 8,3 km/h (2 Bft) W-SW 254 1 min 0,000 mm 4,2 UV-I 541 W/m 9,2 C 21,8 C 12,9 km/h (3 Bft) 100,00 %
26.06.2018 15:23 22,3 C 21,1 C 45 % 1018,8 hPa 0,0 l/m 5,7 km/h (1 Bft) W 264 1 min 0,000 mm 4,6 UV-I 541 W/m 9,8 C 22,3 C 12,9 km/h (3 Bft) 95,65 %
26.06.2018 15:24 22,4 C 21,1 C 44 % 1018,7 hPa 0,0 l/m 7,1 km/h (2 Bft) NW 311 1 min 0,000 mm 4,3 UV-I 541 W/m 9,5 C 22,2 C 12,9 km/h (3 Bft) 100,00 %
26.06.2018 15:25 22,3 C 21,1 C 43 % 1018,7 hPa 0,0 l/m 8,2 km/h (2 Bft) W 270 1 min 0,000 mm 5,1 UV-I 898 W/m 9,1 C 21,7 C 12,9 km/h (3 Bft) 100,00 %
26.06.2018 15:26 22,3 C 21,1 C 43 % 1018,7 hPa 0,0 l/m 7,0 km/h (2 Bft) W-SW 248 1 min 0,000 mm 4,1 UV-I 949 W/m 9,1 C 22,1 C 12,9 km/h (3 Bft) 100,00 %
26.06.2018 15:27 22,2 C 21,1 C 43 % 1018,7 hPa 0,0 l/m 10,0 km/h (2 Bft) N-NW 347 1 min 0,000 mm 4,2 UV-I 949 W/m 9,0 C 21,1 C 17,7 km/h (3 Bft) 100,00 %
26.06.2018 15:28 22,2 C 21,1 C 44 % 1018,7 hPa 0,0 l/m 5,0 km/h (1 Bft) W-SW 248 1 min 0,000 mm 3,6 UV-I 713 W/m 9,4 C 22,2 C 8,0 km/h (2 Bft) 95,83 %
26.06.2018 15:29 22,3 C 21,1 C 43 % 1018,7 hPa 0,0 l/m 15,6 km/h (3 Bft) W 269 0 min 0,000 mm 4,4 UV-I 385 W/m 9,1 C 19,9 C 25,7 km/h (4 Bft) 100,00 %
26.06.2018 15:30 22,3 C 21,1 C 42 % 1018,7 hPa 0,0 l/m 9,7 km/h (2 Bft) S-SW 211 0 min 0,000 mm 4,3 UV-I 392 W/m 8,8 C 21,3 C 12,9 km/h (3 Bft) 100,00 %
26.06.2018 15:31 22,2 C 21,1 C 42 % 1018,7 hPa 0,0 l/m 12,9 km/h (3 Bft) W-SW 252 0 min 0,000 mm 4,6 UV-I 392 W/m 8,7 C 20,4 C 17,7 km/h (3 Bft) 95,65 %
26.06.2018 15:33 22,4 C 21,1 C 43 % 1018,6 hPa 0,0 l/m 10,9 km/h (2 Bft) W-SW 239 0 min 0,000 mm 4,2 UV-I 376 W/m 9,2 C 21,1 C 22,5 km/h (4 Bft) 100,00 %
26.06.2018 15:34 22,4 C 21,1 C 43 % 1018,6 hPa 0,0 l/m 18,1 km/h (3 Bft) W-NW 282 0 min 0,000 mm 3,4 UV-I 331 W/m 9,2 C 19,6 C 24,1 km/h (4 Bft) 100,00 %
26.06.2018 15:35 22,4 C 21,1 C 43 % 1018,6 hPa 0,0 l/m 15,2 km/h (3 Bft) W 265 0 min 0,000 mm 4,0 UV-I 343 W/m 9,2 C 20,1 C 20,9 km/h (4 Bft) 100,00 %
26.06.2018 15:36 22,3 C 21,1 C 43 % 1018,6 hPa 0,0 l/m 11,3 km/h (2 Bft) W-SW 237 0 min 0,000 mm 4,4 UV-I 343 W/m 9,1 C 20,8 C 17,7 km/h (3 Bft) 100,00 %
26.06.2018 15:37 22,3 C 21,1 C 44 % 1018,6 hPa 0,0 l/m 12,9 km/h (3 Bft) W 259 1 min 0,000 mm 4,5 UV-I 827 W/m 9,5 C 20,5 C 17,7 km/h (3 Bft) 100,00 %
26.06.2018 15:38 22,3 C 21,1 C 43 % 1018,5 hPa 0,0 l/m 13,6 km/h (3 Bft) W 273 1 min 0,000 mm 4,3 UV-I 851 W/m 9,1 C 20,3 C 17,7 km/h (3 Bft) 95,65 %
26.06.2018 15:39 22,2 C 21,1 C 42 % 1018,5 hPa 0,0 l/m 7,6 km/h (2 Bft) W 263 1 min 0,000 mm 4,5 UV-I 851 W/m 8,7 C 21,8 C 11,3 km/h (2 Bft) 95,83 %
26.06.2018 15:40 22,3 C 21,1 C 43 % 1018,5 hPa 0,0 l/m 6,6 km/h (2 Bft) W-SW 245 1 min 0,000 mm 4,5 UV-I 817 W/m 9,1 C 22,2 C 11,3 km/h (2 Bft) 95,65 %
26.06.2018 15:41 22,4 C 21,1 C 44 % 1018,5 hPa 0,0 l/m 9,4 km/h (2 Bft) W 267 1 min 0,000 mm 4,5 UV-I 779 W/m 9,5 C 21,5 C 16,1 km/h (3 Bft) 100,00 %
26.06.2018 15:42 22,5 C 21,7 C 43 % 1018,5 hPa 0,0 l/m 10,0 km/h (2 Bft) W-SW 258 1 min 0,000 mm 4,5 UV-I 774 W/m 9,3 C 21,4 C 14,5 km/h (3 Bft) 95,65 %
26.06.2018 15:43 22,6 C 21,7 C 42 % 1018,5 hPa 0,0 l/m 7,8 km/h (2 Bft) NW 318 1 min 0,000 mm 4,5 UV-I 772 W/m 9,0 C 22,1 C 12,9 km/h (3 Bft) 100,00 %
26.06.2018 15:44 22,7 C 21,7 C 43 % 1018,5 hPa 0,0 l/m 8,3 km/h (2 Bft) N-NW 339 1 min 0,000 mm 4,5 UV-I 769 W/m 9,5 C 22,1 C 19,3 km/h (3 Bft) 95,65 %
26.06.2018 15:45 22,7 C 21,7 C 43 % 1018,5 hPa 0,0 l/m 5,6 km/h (1 Bft) NW 323 1 min 0,000 mm 4,4 UV-I 766 W/m 9,5 C 22,7 C 12,9 km/h (3 Bft) 95,83 %
26.06.2018 15:46 22,8 C 21,7 C 44 % 1018,4 hPa 0,0 l/m 8,4 km/h (2 Bft) N-NO 28 1 min 0,000 mm 4,5 UV-I 764 W/m 9,9 C 22,2 C 16,1 km/h (3 Bft) 95,65 %
26.06.2018 15:48 22,7 C 21,7 C 43 % 1018,4 hPa 0,0 l/m 7,4 km/h (2 Bft) N-NW 335 2 min 0,000 mm 4,4 UV-I 762 W/m 9,5 C 22,4 C 14,5 km/h (3 Bft) 97,87 %
26.06.2018 15:49 22,7 C 21,7 C 42 % 1018,4 hPa 0,0 l/m 7,3 km/h (2 Bft) W 280 1 min 0,000 mm 4,4 UV-I 761 W/m 9,1 C 22,4 C 14,5 km/h (3 Bft) 100,00 %
26.06.2018 15:50 22,8 C 21,7 C 44 % 1018,4 hPa 0,0 l/m 12,3 km/h (3 Bft) W 265 1 min 0,000 mm 4,3 UV-I 759 W/m 9,9 C 21,2 C 16,1 km/h (3 Bft) 100,00 %
26.06.2018 15:51 22,8 C 21,7 C 43 % 1018,3 hPa 0,0 l/m 11,6 km/h (2 Bft) SW 229 1 min 0,000 mm 4,3 UV-I 760 W/m 9,6 C 21,3 C 16,1 km/h (3 Bft) 95,65 %
26.06.2018 15:52 22,9 C 21,7 C 44 % 1018,3 hPa 0,0 l/m 9,5 km/h (2 Bft) W-SW 247 1 min 0,000 mm 4,3 UV-I 763 W/m 10,0 C 22,0 C 16,1 km/h (3 Bft) 100,00 %
26.06.2018 15:53 22,9 C 21,7 C 41 % 1018,2 hPa 0,0 l/m 12,3 km/h (3 Bft) W 261 1 min 0,000 mm 4,2 UV-I 764 W/m 8,9 C 21,3 C 16,1 km/h (3 Bft) 100,00 %
26.06.2018 15:54 22,9 C 21,7 C 42 % 1018,3 hPa 0,0 l/m 11,0 km/h (2 Bft) W-SW 248 1 min 0,000 mm 4,2 UV-I 765 W/m 9,3 C 21,6 C 14,5 km/h (3 Bft) 100,00 %
26.06.2018 15:55 22,9 C 21,7 C 41 % 1018,2 hPa 0,0 l/m 12,0 km/h (2 Bft) W 275 1 min 0,000 mm 4,2 UV-I 765 W/m 8,9 C 21,4 C 17,7 km/h (3 Bft) 100,00 %
26.06.2018 15:56 23,0 C 21,7 C 42 % 1018,2 hPa 0,0 l/m 15,8 km/h (3 Bft) W-SW 255 1 min 0,000 mm 4,1 UV-I 764 W/m 9,4 C 20,7 C 22,5 km/h (4 Bft) 100,00 %
26.06.2018 15:57 23,1 C 21,7 C 42 % 1018,2 hPa 0,0 l/m 10,0 km/h (2 Bft) W-SW 238 1 min 0,000 mm 4,2 UV-I 765 W/m 9,5 C 22,1 C 16,1 km/h (3 Bft) 100,00 %
26.06.2018 15:58 23,0 C 21,7 C 41 % 1018,2 hPa 0,0 l/m 12,8 km/h (3 Bft) NW 313 1 min 0,000 mm 4,2 UV-I 762 W/m 9,0 C 21,3 C 17,7 km/h (3 Bft) 95,83 %
26.06.2018 15:59 23,1 C 21,7 C 42 % 1018,2 hPa 0,0 l/m 9,0 km/h (2 Bft) S-SW 213 1 min 0,000 mm 4,1 UV-I 768 W/m 9,5 C 22,3 C 11,3 km/h (2 Bft) 100,00 %
26.06.2018 16:00 23,1 C 21,7 C 43 % 1018,2 hPa 0,0 l/m 13,0 km/h (3 Bft) W 276 1 min 0,000 mm 4,1 UV-I 776 W/m 9,8 C 21,4 C 16,1 km/h (3 Bft) 100,00 %
26.06.2018 16:02 23,0 C 21,7 C 42 % 1018,1 hPa 0,0 l/m 10,2 km/h (2 Bft) W-SW 247 2 min 0,533 mm 3,8 UV-I 747 W/m 9,4 C 21,9 C 16,1 km/h (3 Bft) 100,00 %
26.06.2018 16:03 22,9 C 21,7 C 43 % 1018,1 hPa 0,0 l/m 10,7 km/h (2 Bft) NW 309 1 min 0,000 mm 3,9 UV-I 724 W/m 9,6 C 21,7 C 20,9 km/h (4 Bft) 95,65 %
26.06.2018 16:04 22,9 C 21,7 C 44 % 1018,1 hPa 0,0 l/m 11,1 km/h (2 Bft) W-SW 253 1 min 0,000 mm 3,5 UV-I 794 W/m 10,0 C 21,6 C 17,7 km/h (3 Bft) 100,00 %
26.06.2018 16:05 22,9 C 21,7 C 43 % 1018,2 hPa 0,0 l/m 16,0 km/h (3 Bft) W 273 1 min 0,000 mm 3,7 UV-I 847 W/m 9,6 C 20,6 C 20,9 km/h (4 Bft) 100,00 %
26.06.2018 16:06 22,9 C 21,7 C 44 % 1018,1 hPa 0,0 l/m 10,2 km/h (2 Bft) W 266 1 min 0,000 mm 3,3 UV-I 847 W/m 10,0 C 21,8 C 16,1 km/h (3 Bft) 100,00 %
26.06.2018 16:07 22,9 C 21,7 C 45 % 1018,2 hPa 0,0 l/m 8,9 km/h (2 Bft) W-NW 298 0 min 0,000 mm 2,7 UV-I 378 W/m 10,3 C 22,1 C 14,5 km/h (3 Bft) 100,00 %
26.06.2018 16:08 22,9 C 21,7 C 45 % 1018,2 hPa 0,0 l/m 9,8 km/h (2 Bft) W-NW 284 0 min 0,000 mm 2,6 UV-I 369 W/m 10,3 C 21,9 C 12,9 km/h (3 Bft) 100,00 %
26.06.2018 16:09 22,8 C 21,7 C 45 % 1018,2 hPa 0,0 l/m 7,7 km/h (2 Bft) W-NW 286 0 min 0,000 mm 2,8 UV-I 322 W/m 10,2 C 22,4 C 11,3 km/h (2 Bft) 100,00 %
26.06.2018 16:10 22,7 C 21,7 C 47 % 1018,1 hPa 0,0 l/m 2,7 km/h (1 Bft) W-NW 288 0 min 0,000 mm 2,8 UV-I 272 W/m 10,8 C 22,7 C 4,8 km/h (1 Bft) 100,00 %
26.06.2018 16:11 22,6 C 21,7 C 47 % 1018,1 hPa 0,0 l/m 6,6 km/h (2 Bft) W-NW 302 0 min 0,000 mm 2,5 UV-I 232 W/m 10,7 C 22,5 C 17,7 km/h (3 Bft) 100,00 %
26.06.2018 16:12 22,4 C 21,7 C 46 % 1018,2 hPa 0,0 l/m 9,7 km/h (2 Bft) W-NW 286 0 min 0,000 mm 2,9 UV-I 257 W/m 10,2 C 21,4 C 16,1 km/h (3 Bft) 100,00 %
26.06.2018 16:13 22,3 C 21,7 C 45 % 1018,2 hPa 0,0 l/m 7,4 km/h (2 Bft) NW 317 0 min 0,000 mm 3,0 UV-I 283 W/m 9,8 C 22,0 C 17,7 km/h (3 Bft) 100,00 %
26.06.2018 16:14 22,3 C 21,7 C 47 % 1018,2 hPa 0,0 l/m 6,5 km/h (2 Bft) W 259 1 min 0,000 mm 3,0 UV-I 390 W/m 10,4 C 22,3 C 12,9 km/h (3 Bft) 100,00 %
26.06.2018 16:15 22,4 C 21,7 C 49 % 1018,2 hPa 0,0 l/m 5,9 km/h (2 Bft) NW 317 1 min 0,000 mm 3,6 UV-I 415 W/m 11,2 C 22,4 C 11,3 km/h (2 Bft) 100,00 %
26.06.2018 16:16 22,4 C 21,7 C 45 % 1018,2 hPa 0,0 l/m 11,3 km/h (2 Bft) W-SW 242 1 min 0,000 mm 3,6 UV-I 592 W/m 9,9 C 21,0 C 16,1 km/h (3 Bft) 100,00 %
26.06.2018 16:18 22,4 C 21,7 C 46 % 1018,2 hPa 0,0 l/m 7,6 km/h (2 Bft) NW 314 2 min 0,000 mm 3,6 UV-I 706 W/m 10,2 C 22,0 C 17,7 km/h (3 Bft) 100,00 %
26.06.2018 16:19 22,4 C 21,7 C 45 % 1018,2 hPa 0,0 l/m 11,3 km/h (2 Bft) W 265 1 min 0,000 mm 3,5 UV-I 687 W/m 9,9 C 21,0 C 17,7 km/h (3 Bft) 100,00 %
26.06.2018 16:20 22,5 C 21,7 C 45 % 1018,2 hPa 0,0 l/m 5,0 km/h (1 Bft) W-SW 250 1 min 0,000 mm 3,5 UV-I 682 W/m 10,0 C 22,5 C 9,7 km/h (2 Bft) 100,00 %
26.06.2018 16:21 22,6 C 21,7 C 46 % 1018,2 hPa 0,0 l/m 10,9 km/h (2 Bft) SW 230 1 min 0,000 mm 3,5 UV-I 684 W/m 10,4 C 21,3 C 17,7 km/h (3 Bft) 95,83 %
26.06.2018 16:22 22,7 C 21,7 C 45 % 1018,2 hPa 0,0 l/m 11,9 km/h (2 Bft) W-NW 282 1 min 0,000 mm 3,5 UV-I 686 W/m 10,1 C 21,2 C 19,3 km/h (3 Bft) 100,00 %
26.06.2018 16:23 22,7 C 21,7 C 43 % 1018,2 hPa 0,0 l/m 14,8 km/h (3 Bft) W-SW 238 1 min 0,000 mm 3,5 UV-I 688 W/m 9,5 C 20,6 C 22,5 km/h (4 Bft) 95,65 %
26.06.2018 16:24 22,6 C 21,7 C 44 % 1018,2 hPa 0,0 l/m 10,5 km/h (2 Bft) W 277 1 min 0,000 mm 3,4 UV-I 686 W/m 9,7 C 21,4 C 20,9 km/h (4 Bft) 100,00 %
26.06.2018 16:25 22,6 C 21,7 C 44 % 1018,3 hPa 0,0 l/m 13,2 km/h (3 Bft) W 271 1 min 0,000 mm 3,4 UV-I 684 W/m 9,7 C 20,8 C 19,3 km/h (3 Bft) 100,00 %
26.06.2018 16:26 22,7 C 21,7 C 45 % 1018,2 hPa 0,0 l/m 7,8 km/h (2 Bft) W-SW 237 1 min 0,000 mm 3,4 UV-I 695 W/m 10,1 C 22,2 C 12,9 km/h (3 Bft) 100,00 %
26.06.2018 16:27 22,8 C 21,7 C 45 % 1018,2 hPa 0,0 l/m 7,9 km/h (2 Bft) W-SW 257 1 min 0,000 mm 3,4 UV-I 709 W/m 10,2 C 22,3 C 14,5 km/h (3 Bft) 100,00 %
26.06.2018 16:28 22,9 C 21,7 C 44 % 1018,3 hPa 0,0 l/m 9,1 km/h (2 Bft) W-SW 246 1 min 0,000 mm 3,4 UV-I 723 W/m 10,0 C 22,1 C 12,9 km/h (3 Bft) 100,00 %
26.06.2018 16:29 23,0 C 21,7 C 42 % 1018,3 hPa 0,0 l/m 14,4 km/h (3 Bft) W-SW 258 1 min 0,000 mm 3,3 UV-I 736 W/m 9,4 C 21,0 C 20,9 km/h (4 Bft) 95,65 %
26.06.2018 16:30 23,0 C 21,7 C 43 % 1018,2 hPa 0,0 l/m 3,7 km/h (1 Bft) W-NW 294 1 min 0,000 mm 3,3 UV-I 756 W/m 9,7 C 23,0 C 6,4 km/h (2 Bft) 91,67 %
26.06.2018 16:31 23,0 C 21,7 C 42 % 1018,2 hPa 0,0 l/m 9,1 km/h (2 Bft) W 280 1 min 0,000 mm 3,0 UV-I 738 W/m 9,4 C 22,2 C 16,1 km/h (3 Bft) 100,00 %
26.06.2018 16:32 23,1 C 21,7 C 42 % 1018,2 hPa 0,0 l/m 12,4 km/h (3 Bft) W-SW 241 1 min 0,000 mm 2,8 UV-I 664 W/m 9,5 C 21,5 C 22,5 km/h (4 Bft) 100,00 %
26.06.2018 16:33 23,1 C 21,7 C 44 % 1018,2 hPa 0,0 l/m 10,5 km/h (2 Bft) W-SW 248 1 min 0,000 mm 2,3 UV-I 476 W/m 10,2 C 21,9 C 16,1 km/h (3 Bft) 100,00 %
26.06.2018 16:34 22,9 C 21,7 C 43 % 1018,2 hPa 0,0 l/m 13,6 km/h (3 Bft) SW 229 0 min 0,000 mm 2,2 UV-I 283 W/m 9,6 C 21,0 C 20,9 km/h (4 Bft) 100,00 %
26.06.2018 16:35 22,7 C 21,7 C 42 % 1018,2 hPa 0,0 l/m 14,7 km/h (3 Bft) W 263 0 min 0,000 mm 2,2 UV-I 294 W/m 9,1 C 20,6 C 24,1 km/h (4 Bft) 100,00 %
26.06.2018 16:36 22,5 C 21,7 C 43 % 1018,2 hPa 0,0 l/m 14,6 km/h (3 Bft) W 279 0 min 0,000 mm 2,1 UV-I 321 W/m 9,3 C 20,4 C 25,7 km/h (4 Bft) 100,00 %
26.06.2018 16:38 22,2 C 21,7 C 44 % 1018,2 hPa 0,0 l/m 10,6 km/h (2 Bft) W 268 0 min 0,000 mm 2,0 UV-I 268 W/m 9,4 C 20,9 C 17,7 km/h (3 Bft) 97,87 %
26.06.2018 16:39 22,2 C 21,7 C 46 % 1018,2 hPa 0,0 l/m 6,7 km/h (2 Bft) S-SW 203 0 min 0,000 mm 2,0 UV-I 274 W/m 10,0 C 22,1 C 12,9 km/h (3 Bft) 100,00 %
26.06.2018 16:40 22,1 C 21,7 C 46 % 1018,1 hPa 0,0 l/m 11,8 km/h (2 Bft) W 260 0 min 0,000 mm 2,3 UV-I 307 W/m 9,9 C 20,5 C 17,7 km/h (3 Bft) 95,83 %
26.06.2018 16:41 22,1 C 21,7 C 45 % 1018,1 hPa 0,0 l/m 12,2 km/h (2 Bft) W-SW 253 0 min 0,000 mm 2,6 UV-I 320 W/m 9,6 C 20,4 C 17,7 km/h (3 Bft) 100,00 %
26.06.2018 16:42 22,2 C 21,7 C 46 % 1018,0 hPa 0,0 l/m 10,1 km/h (2 Bft) W 264 0 min 0,000 mm 2,4 UV-I 320 W/m 10,0 C 21,0 C 17,7 km/h (3 Bft) 95,83 %
26.06.2018 16:43 22,2 C 21,7 C 45 % 1018,1 hPa 0,0 l/m 10,1 km/h (2 Bft) W-NW 302 0 min 0,000 mm 2,3 UV-I 320 W/m 9,7 C 21,0 C 12,9 km/h (3 Bft) 100,00 %
26.06.2018 16:44 22,3 C 21,7 C 45 % 1018,0 hPa 0,0 l/m 9,9 km/h (2 Bft) W-SW 242 0 min 0,000 mm 2,5 UV-I 320 W/m 9,8 C 21,2 C 14,5 km/h (3 Bft) 95,83 %
26.06.2018 16:45 22,4 C 21,7 C 46 % 1018,0 hPa 0,0 l/m 7,0 km/h (2 Bft) SW 236 1 min 0,000 mm 2,9 UV-I 603 W/m 10,2 C 22,2 C 9,7 km/h (2 Bft) 100,00 %
26.06.2018 16:46 22,7 C 21,7 C 46 % 1018,0 hPa 0,0 l/m 4,6 km/h (1 Bft) NW 304 1 min 0,000 mm 2,8 UV-I 794 W/m 10,5 C 22,7 C 6,4 km/h (2 Bft) 95,83 %
26.06.2018 16:47 22,9 C 21,7 C 45 % 1018,0 hPa 0,0 l/m 3,6 km/h (1 Bft) W-SW 244 1 min 0,000 mm 2,7 UV-I 762 W/m 10,3 C 22,9 C 6,4 km/h (2 Bft) 100,00 %
26.06.2018 16:48 23,1 C 21,7 C 45 % 1018,0 hPa 0,0 l/m 5,4 km/h (1 Bft) W-NW 300 1 min 0,000 mm 2,3 UV-I 758 W/m 10,5 C 23,1 C 9,7 km/h (2 Bft) 95,83 %
26.06.2018 16:49 23,0 C 21,7 C 43 % 1018,0 hPa 0,0 l/m 3,8 km/h (1 Bft) W-SW 258 1 min 0,000 mm 2,6 UV-I 758 W/m 9,7 C 23,0 C 6,4 km/h (2 Bft) 91,67 %
26.06.2018 16:50 22,9 C 21,7 C 44 % 1017,9 hPa 0,0 l/m 3,2 km/h (1 Bft) W 267 1 min 0,000 mm 2,3 UV-I 758 W/m 10,0 C 22,9 C 6,4 km/h (2 Bft) 95,65 %
26.06.2018 16:51 23,0 C 21,7 C 44 % 1018,0 hPa 0,0 l/m 9,7 km/h (2 Bft) W-NW 286 1 min 0,000 mm 2,5 UV-I 758 W/m 10,1 C 22,0 C 22,5 km/h (4 Bft) 95,83 %
26.06.2018 16:53 23,1 C 21,7 C 43 % 1017,9 hPa 0,0 l/m 8,9 km/h (2 Bft) S-SO 150 2 min 0,000 mm 2,5 UV-I 705 W/m 9,8 C 22,4 C 20,9 km/h (4 Bft) 97,87 %
26.06.2018 16:54 23,2 C 21,7 C 44 % 1017,9 hPa 0,0 l/m 7,2 km/h (2 Bft) W-SW 254 1 min 0,000 mm 2,4 UV-I 760 W/m 10,3 C 23,0 C 12,9 km/h (3 Bft) 95,65 %
26.06.2018 16:55 23,2 C 21,7 C 42 % 1018,0 hPa 0,0 l/m 16,1 km/h (3 Bft) W 276 1 min 0,000 mm 2,5 UV-I 756 W/m 9,6 C 20,9 C 22,5 km/h (4 Bft) 95,83 %
26.06.2018 16:56 23,2 C 21,7 C 42 % 1017,9 hPa 0,0 l/m 13,4 km/h (3 Bft) W-NW 285 1 min 0,000 mm 2,5 UV-I 756 W/m 9,6 C 21,4 C 17,7 km/h (3 Bft) 92,86 %
26.06.2018 16:57 23,3 C 21,7 C 42 % 1018,0 hPa 0,0 l/m 7,3 km/h (2 Bft) W-SW 256 1 min 0,000 mm 2,3 UV-I 773 W/m 9,7 C 23,0 C 11,3 km/h (2 Bft) 95,83 %
26.06.2018 16:58 23,3 C 21,7 C 44 % 1017,9 hPa 0,0 l/m 7,4 km/h (2 Bft) NW 305 1 min 0,000 mm 2,0 UV-I 449 W/m 10,4 C 23,0 C 14,5 km/h (3 Bft) 96,15 %
26.06.2018 16:59 23,3 C 21,7 C 43 % 1018,0 hPa 0,0 l/m 3,6 km/h (1 Bft) NW 304 0 min 0,000 mm 1,8 UV-I 300 W/m 10,0 C 23,3 C 12,9 km/h (3 Bft) 95,83 %
26.06.2018 17:00 23,1 C 21,7 C 42 % 1018,0 hPa 0,0 l/m 9,9 km/h (2 Bft) W-NW 303 0 min 0,000 mm 1,8 UV-I 287 W/m 9,5 C 22,1 C 16,1 km/h (3 Bft) 95,65 %
26.06.2018 17:02 22,8 C 21,7 C 42 % 1017,9 hPa 0,0 l/m 6,8 km/h (2 Bft) N-NW 332 0 min 0,407 mm 1,8 UV-I 287 W/m 9,2 C 22,7 C 14,5 km/h (3 Bft) 94,00 %
26.06.2018 17:03 22,7 C 21,7 C 43 % 1018,0 hPa 0,0 l/m 6,8 km/h (2 Bft) N 5 1 min 0,000 mm 2,2 UV-I 570 W/m 9,5 C 22,6 C 11,3 km/h (2 Bft) 95,83 %
26.06.2018 17:04 22,8 C 21,7 C 44 % 1018,0 hPa 0,0 l/m 5,5 km/h (1 Bft) NW 314 1 min 0,000 mm 2,3 UV-I 729 W/m 9,9 C 22,8 C 9,7 km/h (2 Bft) 95,83 %
26.06.2018 17:05 22,9 C 21,7 C 45 % 1018,0 hPa 0,0 l/m 8,6 km/h (2 Bft) W 273 1 min 0,000 mm 2,3 UV-I 732 W/m 10,3 C 22,2 C 14,5 km/h (3 Bft) 95,65 %
26.06.2018 17:06 22,9 C 21,7 C 43 % 1017,9 hPa 0,0 l/m 9,2 km/h (2 Bft) NW 317 1 min 0,000 mm 2,2 UV-I 676 W/m 9,6 C 22,1 C 14,5 km/h (3 Bft) 95,83 %
26.06.2018 17:07 23,0 C 21,7 C 43 % 1017,9 hPa 0,0 l/m 9,7 km/h (2 Bft) NW 324 1 min 0,000 mm 2,3 UV-I 667 W/m 9,7 C 22,0 C 19,3 km/h (3 Bft) 95,65 %
26.06.2018 17:08 23,1 C 21,7 C 43 % 1017,9 hPa 0,0 l/m 10,6 km/h (2 Bft) W-SW 248 1 min 0,000 mm 2,2 UV-I 708 W/m 9,8 C 21,9 C 14,5 km/h (3 Bft) 91,67 %
26.06.2018 17:09 23,1 C 21,7 C 43 % 1017,9 hPa 0,0 l/m 7,3 km/h (2 Bft) W-SW 242 1 min 0,000 mm 2,1 UV-I 708 W/m 9,8 C 22,8 C 9,7 km/h (2 Bft) 100,00 %
26.06.2018 17:10 23,2 C 21,7 C 44 % 1017,9 hPa 0,0 l/m 8,6 km/h (2 Bft) NW 314 1 min 0,000 mm 2,3 UV-I 708 W/m 10,3 C 22,5 C 12,9 km/h (3 Bft) 92,59 %
26.06.2018 17:11 23,1 C 21,7 C 43 % 1017,9 hPa 0,0 l/m 7,1 km/h (2 Bft) W-SW 256 1 min 0,000 mm 2,4 UV-I 675 W/m 9,8 C 22,9 C 12,9 km/h (3 Bft) 100,00 %
26.06.2018 17:12 23,1 C 21,7 C 42 % 1017,9 hPa 0,0 l/m 8,5 km/h (2 Bft) W-NW 289 1 min 0,000 mm 2,3 UV-I 638 W/m 9,5 C 22,5 C 12,9 km/h (3 Bft) 91,67 %
26.06.2018 17:13 23,1 C 21,7 C 44 % 1017,8 hPa 0,0 l/m 9,1 km/h (2 Bft) N 5 1 min 0,000 mm 2,3 UV-I 614 W/m 10,2 C 22,3 C 14,5 km/h (3 Bft) 95,65 %
26.06.2018 17:14 23,1 C 21,7 C 42 % 1017,8 hPa 0,0 l/m 8,1 km/h (2 Bft) W-SW 250 1 min 0,000 mm 2,3 UV-I 588 W/m 9,5 C 22,6 C 14,5 km/h (3 Bft) 91,67 %
26.06.2018 17:15 23,2 C 21,7 C 44 % 1017,8 hPa 0,0 l/m 6,6 km/h (2 Bft) NW 313 1 min 0,000 mm 2,3 UV-I 575 W/m 10,3 C 23,1 C 12,9 km/h (3 Bft) 95,65 %
26.06.2018 17:16 23,2 C 21,7 C 43 % 1017,8 hPa 0,0 l/m 8,4 km/h (2 Bft) W 271 1 min 0,000 mm 2,2 UV-I 564 W/m 9,9 C 22,6 C 12,9 km/h (3 Bft) 96,30 %
26.06.2018 17:17 23,2 C 21,7 C 43 % 1017,8 hPa 0,0 l/m 7,6 km/h (2 Bft) W 277 1 min 0,000 mm 2,2 UV-I 554 W/m 9,9 C 22,8 C 11,3 km/h (2 Bft) 92,31 %
26.06.2018 17:18 23,1 C 21,7 C 44 % 1017,7 hPa 0,0 l/m 6,9 km/h (2 Bft) W 269 1 min 0,000 mm 2,2 UV-I 549 W/m 10,2 C 22,9 C 12,9 km/h (3 Bft) 100,00 %
26.06.2018 17:19 23,1 C 21,7 C 44 % 1017,7 hPa 0,0 l/m 7,6 km/h (2 Bft) W-SW 252 1 min 0,000 mm 2,2 UV-I 541 W/m 10,2 C 22,7 C 16,1 km/h (3 Bft) 91,67 %
26.06.2018 17:20 23,1 C 21,7 C 44 % 1017,7 hPa 0,0 l/m 13,7 km/h (3 Bft) SW 234 1 min 0,000 mm 2,2 UV-I 537 W/m 10,2 C 21,2 C 20,9 km/h (4 Bft) 100,00 %
26.06.2018 17:21 23,0 C 21,7 C 44 % 1017,7 hPa 0,0 l/m 13,4 km/h (3 Bft) W 274 1 min 0,000 mm 2,1 UV-I 532 W/m 10,1 C 21,2 C 20,9 km/h (4 Bft) 87,50 %
26.06.2018 17:22 22,9 C 21,7 C 44 % 1017,7 hPa 0,0 l/m 15,9 km/h (3 Bft) N-NW 340 1 min 0,000 mm 2,1 UV-I 531 W/m 10,0 C 20,6 C 22,5 km/h (4 Bft) 96,55 %
26.06.2018 17:23 22,8 C 21,7 C 43 % 1017,8 hPa 0,0 l/m 13,7 km/h (3 Bft) NW 308 1 min 0,000 mm 2,1 UV-I 530 W/m 9,6 C 20,9 C 20,9 km/h (4 Bft) 100,00 %
26.06.2018 17:24 22,8 C 21,7 C 44 % 1017,8 hPa 0,0 l/m 10,8 km/h (2 Bft) W-SW 248 1 min 0,000 mm 2,0 UV-I 520 W/m 9,9 C 21,5 C 17,7 km/h (3 Bft) 95,65 %
26.06.2018 17:25 22,8 C 21,7 C 44 % 1017,8 hPa 0,0 l/m 14,0 km/h (3 Bft) W 279 1 min 0,000 mm 2,0 UV-I 512 W/m 9,9 C 20,8 C 20,9 km/h (4 Bft) 100,00 %
26.06.2018 17:26 22,8 C 21,7 C 44 % 1017,8 hPa 0,0 l/m 12,2 km/h (2 Bft) W 261 1 min 0,000 mm 2,0 UV-I 512 W/m 9,9 C 21,2 C 16,1 km/h (3 Bft) 96,97 %
26.06.2018 17:28 22,7 C 21,7 C 45 % 1017,7 hPa 0,0 l/m 12,9 km/h (3 Bft) W-NW 286 2 min 0,000 mm 2,0 UV-I 512 W/m 10,1 C 20,9 C 24,1 km/h (4 Bft) 97,87 %
26.06.2018 17:29 22,7 C 21,7 C 47 % 1017,7 hPa 0,0 l/m 12,7 km/h (3 Bft) NW 307 1 min 0,000 mm 1,9 UV-I 517 W/m 10,8 C 21,0 C 16,1 km/h (3 Bft) 100,00 %
26.06.2018 17:30 22,8 C 21,7 C 44 % 1017,7 hPa 0,0 l/m 10,3 km/h (2 Bft) W-NW 289 1 min 0,000 mm 1,9 UV-I 520 W/m 9,9 C 21,7 C 14,5 km/h (3 Bft) 91,30 %
26.06.2018 17:31 22,9 C 21,7 C 45 % 1017,8 hPa 0,0 l/m 9,2 km/h (2 Bft) W 262 1 min 0,000 mm 1,9 UV-I 521 W/m 10,3 C 22,1 C 14,5 km/h (3 Bft) 100,00 %
26.06.2018 17:32 22,8 C 21,7 C 44 % 1017,8 hPa 0,0 l/m 15,6 km/h (3 Bft) W 265 1 min 0,000 mm 1,9 UV-I 519 W/m 9,9 C 20,5 C 19,3 km/h (3 Bft) 95,65 %
26.06.2018 17:33 22,8 C 21,7 C 46 % 1017,8 hPa 0,0 l/m 15,3 km/h (3 Bft) W-SW 248 1 min 0,000 mm 1,8 UV-I 516 W/m 10,6 C 20,6 C 22,5 km/h (4 Bft) 100,00 %
26.06.2018 17:34 22,8 C 21,7 C 43 % 1017,8 hPa 0,0 l/m 17,6 km/h (3 Bft) W-SW 257 1 min 0,000 mm 1,8 UV-I 512 W/m 9,6 C 20,2 C 24,1 km/h (4 Bft) 91,30 %
26.06.2018 17:35 22,7 C 21,7 C 43 % 1017,8 hPa 0,0 l/m 13,7 km/h (3 Bft) W 271 1 min 0,000 mm 1,8 UV-I 513 W/m 9,5 C 20,8 C 20,9 km/h (4 Bft) 95,83 %
26.06.2018 17:36 22,7 C 21,7 C 45 % 1017,7 hPa 0,0 l/m 11,9 km/h (2 Bft) W-NW 296 1 min 0,000 mm 1,8 UV-I 510 W/m 10,1 C 21,2 C 19,3 km/h (3 Bft) 91,30 %
26.06.2018 17:37 22,7 C 21,7 C 46 % 1017,7 hPa 0,0 l/m 4,2 km/h (1 Bft) S-SW 192 1 min 0,000 mm 1,8 UV-I 506 W/m 10,5 C 22,7 C 6,4 km/h (2 Bft) 95,83 %
26.06.2018 17:38 22,8 C 21,7 C 46 % 1017,7 hPa 0,0 l/m 8,5 km/h (2 Bft) NO 43 1 min 0,000 mm 1,8 UV-I 503 W/m 10,6 C 22,1 C 14,5 km/h (3 Bft) 91,30 %
26.06.2018 17:39 22,8 C 21,7 C 45 % 1017,7 hPa 0,0 l/m 16,6 km/h (3 Bft) N-NW 341 1 min 0,000 mm 1,8 UV-I 497 W/m 10,2 C 20,4 C 25,7 km/h (4 Bft) 94,44 %
26.06.2018 17:40 22,8 C 21,7 C 45 % 1017,7 hPa 0,0 l/m 11,7 km/h (2 Bft) W-SW 244 1 min 0,000 mm 1,7 UV-I 492 W/m 10,2 C 21,3 C 17,7 km/h (3 Bft) 100,00 %
26.06.2018 17:41 22,8 C 21,7 C 42 % 1017,7 hPa 0,0 l/m 15,7 km/h (3 Bft) W 263 1 min 0,000 mm 1,7 UV-I 486 W/m 9,2 C 20,5 C 20,9 km/h (4 Bft) 95,65 %
26.06.2018 17:42 22,8 C 21,7 C 43 % 1017,7 hPa 0,0 l/m 12,5 km/h (3 Bft) SW 236 1 min 0,000 mm 1,7 UV-I 484 W/m 9,6 C 21,1 C 19,3 km/h (3 Bft) 100,00 %
26.06.2018 17:43 22,8 C 21,7 C 44 % 1017,7 hPa 0,0 l/m 11,7 km/h (2 Bft) SW 215 1 min 0,000 mm 1,7 UV-I 486 W/m 9,9 C 21,3 C 22,5 km/h (4 Bft) 96,15 %
26.06.2018 17:44 22,8 C 21,7 C 43 % 1017,7 hPa 0,0 l/m 13,3 km/h (3 Bft) NW 317 1 min 0,000 mm 1,7 UV-I 484 W/m 9,6 C 21,0 C 22,5 km/h (4 Bft) 100,00 %
26.06.2018 17:45 22,8 C 21,7 C 42 % 1017,7 hPa 0,0 l/m 4,8 km/h (1 Bft) O-NO 74 1 min 0,000 mm 1,7 UV-I 483 W/m 9,2 C 22,8 C 6,4 km/h (2 Bft) 95,65 %
26.06.2018 17:46 22,8 C 21,7 C 42 % 1017,7 hPa 0,0 l/m 4,6 km/h (1 Bft) N-NW 332 1 min 0,000 mm 1,6 UV-I 482 W/m 9,2 C 22,8 C 8,0 km/h (2 Bft) 92,59 %
26.06.2018 17:48 22,7 C 21,7 C 43 % 1017,8 hPa 0,0 l/m 7,4 km/h (2 Bft) SW 225 2 min 0,000 mm 1,6 UV-I 483 W/m 9,5 C 22,4 C 14,5 km/h (3 Bft) 97,87 %
26.06.2018 17:49 22,7 C 21,7 C 43 % 1017,8 hPa 0,0 l/m 8,0 km/h (2 Bft) W 261 1 min 0,000 mm 1,6 UV-I 488 W/m 9,5 C 22,2 C 14,5 km/h (3 Bft) 100,00 %
26.06.2018 17:50 22,7 C 21,7 C 43 % 1017,7 hPa 0,0 l/m 6,0 km/h (2 Bft) W-SW 250 1 min 0,000 mm 1,6 UV-I 482 W/m 9,5 C 22,7 C 9,7 km/h (2 Bft) 95,83 %
26.06.2018 17:51 22,7 C 21,7 C 43 % 1017,7 hPa 0,0 l/m 7,7 km/h (2 Bft) W 262 1 min 0,000 mm 1,5 UV-I 455 W/m 9,5 C 22,3 C 14,5 km/h (3 Bft) 95,65 %
26.06.2018 17:52 22,7 C 21,7 C 43 % 1017,7 hPa 0,0 l/m 9,4 km/h (2 Bft) W 266 1 min 0,000 mm 1,5 UV-I 418 W/m 9,5 C 21,8 C 17,7 km/h (3 Bft) 93,33 %
26.06.2018 17:53 22,7 C 21,7 C 44 % 1017,7 hPa 0,0 l/m 8,4 km/h (2 Bft) N 355 0 min 0,000 mm 1,3 UV-I 218 W/m 9,8 C 22,1 C 19,3 km/h (3 Bft) 100,00 %
26.06.2018 17:54 22,6 C 21,7 C 45 % 1017,7 hPa 0,0 l/m 5,3 km/h (1 Bft) NW 322 0 min 0,000 mm 1,5 UV-I 218 W/m 10,1 C 22,6 C 11,3 km/h (2 Bft) 100,00 %
26.06.2018 17:55 22,6 C 21,7 C 45 % 1017,7 hPa 0,0 l/m 6,2 km/h (2 Bft) W 266 0 min 0,000 mm 1,4 UV-I 218 W/m 10,1 C 22,6 C 8,0 km/h (2 Bft) 100,00 %
26.06.2018 17:56 22,5 C 21,7 C 45 % 1017,7 hPa 0,0 l/m 6,6 km/h (2 Bft) W-SW 252 1 min 0,000 mm 1,5 UV-I 397 W/m 10,0 C 22,4 C 11,3 km/h (2 Bft) 95,83 %
26.06.2018 17:58 22,4 C 21,7 C 46 % 1017,7 hPa 0,0 l/m 7,7 km/h (2 Bft) SW 235 2 min 0,000 mm 1,4 UV-I 472 W/m 10,2 C 22,0 C 14,5 km/h (3 Bft) 100,00 %
26.06.2018 17:59 22,4 C 21,7 C 47 % 1017,7 hPa 0,0 l/m 5,9 km/h (2 Bft) S 180 1 min 0,000 mm 1,4 UV-I 462 W/m 10,5 C 22,4 C 8,0 km/h (2 Bft) 100,00 %
26.06.2018 18:00 22,5 C 21,7 C 47 % 1017,7 hPa 0,0 l/m 8,8 km/h (2 Bft) N 355 1 min 0,000 mm 1,4 UV-I 458 W/m 10,6 C 21,7 C 14,5 km/h (3 Bft) 100,00 %
26.06.2018 18:02 22,6 C 21,7 C 46 % 1017,7 hPa 0,0 l/m 5,9 km/h (2 Bft) N-NO 30 2 min 0,406 mm 1,2 UV-I 344 W/m 10,4 C 22,6 C 17,7 km/h (3 Bft) 100,00 %
26.06.2018 18:03 22,4 C 21,7 C 46 % 1017,7 hPa 0,0 l/m 12,7 km/h (3 Bft) W-NW 300 0 min 0,000 mm 1,0 UV-I 123 W/m 10,2 C 20,6 C 19,3 km/h (3 Bft) 100,00 %
26.06.2018 18:04 22,2 C 21,7 C 46 % 1017,8 hPa 0,0 l/m 11,1 km/h (2 Bft) SW 225 0 min 0,000 mm 1,0 UV-I 111 W/m 10,0 C 20,8 C 16,1 km/h (3 Bft) 100,00 %
26.06.2018 18:05 22,0 C 21,7 C 47 % 1017,7 hPa 0,0 l/m 7,8 km/h (2 Bft) S-SW 199 0 min 0,000 mm 1,0 UV-I 104 W/m 10,2 C 21,5 C 12,9 km/h (3 Bft) 100,00 %
26.06.2018 18:06 21,8 C 21,7 C 47 % 1017,7 hPa 0,0 l/m 5,6 km/h (1 Bft) O-NO 73 0 min 0,000 mm 0,9 UV-I 102 W/m 10,0 C 21,8 C 12,9 km/h (3 Bft) 100,00 %
26.06.2018 18:07 21,6 C 21,7 C 48 % 1017,7 hPa 0,0 l/m 6,8 km/h (2 Bft) W-SW 258 0 min 0,000 mm 0,9 UV-I 102 W/m 10,1 C 21,5 C 14,5 km/h (3 Bft) 100,00 %
26.06.2018 18:08 21,4 C 21,7 C 48 % 1017,8 hPa 0,0 l/m 9,0 km/h (2 Bft) N 360 0 min 0,000 mm 0,9 UV-I 104 W/m 9,9 C 20,5 C 14,5 km/h (3 Bft) 100,00 %
26.06.2018 18:09 21,3 C 21,7 C 49 % 1017,8 hPa 0,0 l/m 8,6 km/h (2 Bft) NW 315 0 min 0,000 mm 0,9 UV-I 109 W/m 10,1 C 20,5 C 14,5 km/h (3 Bft) 96,77 %
26.06.2018 18:10 21,2 C 21,7 C 50 % 1017,8 hPa 0,0 l/m 6,1 km/h (2 Bft) W 281 0 min 0,000 mm 0,8 UV-I 112 W/m 10,4 C 21,2 C 11,3 km/h (2 Bft) 100,00 %
26.06.2018 18:11 21,1 C 21,7 C 50 % 1017,8 hPa 0,0 l/m 6,4 km/h (2 Bft) W-NW 296 0 min 0,000 mm 0,8 UV-I 115 W/m 10,3 C 21,1 C 12,9 km/h (3 Bft) 100,00 %
26.06.2018 18:12 21,1 C 21,7 C 50 % 1017,8 hPa 0,0 l/m 4,3 km/h (1 Bft) NW 313 0 min 0,000 mm 0,8 UV-I 119 W/m 10,3 C 21,1 C 8,0 km/h (2 Bft) 100,00 %
26.06.2018 18:13 21,1 C 21,7 C 50 % 1017,9 hPa 0,0 l/m 5,5 km/h (1 Bft) S-SW 199 0 min 0,000 mm 0,8 UV-I 123 W/m 10,3 C 21,1 C 16,1 km/h (3 Bft) 95,83 %
26.06.2018 18:14 21,1 C 21,7 C 50 % 1017,8 hPa 0,0 l/m 8,4 km/h (2 Bft) N-NW 348 0 min 0,000 mm 0,8 UV-I 127 W/m 10,3 C 20,4 C 14,5 km/h (3 Bft) 100,00 %
26.06.2018 18:15 21,1 C 21,7 C 50 % 1017,8 hPa 0,0 l/m 6,5 km/h (2 Bft) N-NW 328 0 min 0,000 mm 0,8 UV-I 128 W/m 10,3 C 21,1 C 12,9 km/h (3 Bft) 95,83 %
26.06.2018 18:16 21,0 C 21,7 C 50 % 1017,8 hPa 0,0 l/m 3,5 km/h (1 Bft) W-NW 293 0 min 0,000 mm 0,8 UV-I 128 W/m 10,2 C 21,0 C 6,4 km/h (2 Bft) 100,00 %
26.06.2018 18:18 20,9 C 21,7 C 51 % 1017,8 hPa 0,0 l/m 6,2 km/h (2 Bft) W 266 0 min 0,000 mm 0,7 UV-I 129 W/m 10,4 C 20,9 C 12,9 km/h (3 Bft) 95,74 %
26.06.2018 18:19 20,9 C 21,7 C 51 % 1017,8 hPa 0,0 l/m 4,8 km/h (1 Bft) NW 307 0 min 0,000 mm 0,7 UV-I 126 W/m 10,4 C 20,9 C 9,7 km/h (2 Bft) 95,83 %
26.06.2018 18:20 20,9 C 21,7 C 51 % 1017,8 hPa 0,0 l/m 10,7 km/h (2 Bft) W-SW 256 0 min 0,000 mm 0,7 UV-I 126 W/m 10,4 C 19,4 C 17,7 km/h (3 Bft) 100,00 %
26.06.2018 18:21 20,9 C 21,7 C 52 % 1017,8 hPa 0,0 l/m 4,2 km/h (1 Bft) N-NW 332 0 min 0,000 mm 0,7 UV-I 130 W/m 10,7 C 20,9 C 6,4 km/h (2 Bft) 100,00 %
26.06.2018 18:23 20,9 C 21,7 C 52 % 1017,8 hPa 0,0 l/m 4,1 km/h (1 Bft) NW 318 0 min 0,000 mm 0,7 UV-I 135 W/m 10,7 C 20,9 C 6,4 km/h (2 Bft) 97,14 %
26.06.2018 18:24 20,9 C 21,7 C 52 % 1017,8 hPa 0,0 l/m 7,6 km/h (2 Bft) N-NO 30 0 min 0,000 mm 0,7 UV-I 134 W/m 10,7 C 20,4 C 12,9 km/h (3 Bft) 96,30 %
26.06.2018 18:25 20,8 C 21,7 C 52 % 1017,8 hPa 0,0 l/m 3,1 km/h (1 Bft) SW 233 0 min 0,000 mm 0,7 UV-I 134 W/m 10,6 C 20,8 C 4,8 km/h (1 Bft) 100,00 %
26.06.2018 18:26 20,8 C 21,7 C 54 % 1017,8 hPa 0,0 l/m 2,0 km/h (1 Bft) SW 234 0 min 0,000 mm 0,7 UV-I 132 W/m 11,1 C 20,8 C 3,2 km/h (1 Bft) 100,00 %
26.06.2018 18:28 20,9 C 21,7 C 54 % 1017,9 hPa 0,0 l/m 4,6 km/h (1 Bft) N-NO 26 0 min 0,000 mm 0,7 UV-I 131 W/m 11,2 C 20,9 C 6,4 km/h (2 Bft) 100,00 %
26.06.2018 18:29 20,8 C 21,7 C 56 % 1017,9 hPa 0,0 l/m 6,1 km/h (2 Bft) NO 44 0 min 0,000 mm 0,7 UV-I 130 W/m 11,7 C 20,8 C 9,7 km/h (2 Bft) 100,00 %
26.06.2018 18:30 20,8 C 21,7 C 55 % 1017,9 hPa 0,0 l/m 6,2 km/h (2 Bft) W-NW 282 0 min 0,000 mm 0,7 UV-I 132 W/m 11,4 C 20,8 C 12,9 km/h (3 Bft) 100,00 %
26.06.2018 18:31 20,7 C 21,7 C 53 % 1017,9 hPa 0,0 l/m 9,2 km/h (2 Bft) N-NW 347 0 min 0,000 mm 0,7 UV-I 132 W/m 10,8 C 19,7 C 16,1 km/h (3 Bft) 100,00 %
26.06.2018 18:32 20,7 C 21,7 C 53 % 1017,9 hPa 0,0 l/m 7,8 km/h (2 Bft) NW 311 0 min 0,000 mm 0,7 UV-I 128 W/m 10,8 C 20,2 C 11,3 km/h (2 Bft) 100,00 %
26.06.2018 18:33 20,8 C 21,7 C 52 % 1017,9 hPa 0,0 l/m 4,7 km/h (1 Bft) N 355 0 min 0,000 mm 0,7 UV-I 125 W/m 10,6 C 20,8 C 8,0 km/h (2 Bft) 100,00 %
26.06.2018 18:34 20,7 C 21,7 C 52 % 1017,9 hPa 0,0 l/m 4,1 km/h (1 Bft) NW 324 0 min 0,000 mm 0,7 UV-I 121 W/m 10,5 C 20,7 C 6,4 km/h (2 Bft) 100,00 %
26.06.2018 18:35 20,7 C 21,7 C 53 % 1017,8 hPa 0,0 l/m 3,1 km/h (1 Bft) NO 43 0 min 0,000 mm 0,6 UV-I 120 W/m 10,8 C 20,7 C 4,8 km/h (1 Bft) 100,00 %
26.06.2018 18:36 20,6 C 21,7 C 53 % 1017,9 hPa 0,0 l/m 6,2 km/h (2 Bft) W-NW 290 0 min 0,000 mm 0,6 UV-I 122 W/m 10,7 C 20,6 C 12,9 km/h (3 Bft) 100,00 %
26.06.2018 18:37 20,5 C 21,7 C 54 % 1017,9 hPa 0,0 l/m 3,8 km/h (1 Bft) N-NW 328 0 min 0,000 mm 0,6 UV-I 126 W/m 10,9 C 20,5 C 8,0 km/h (2 Bft) 100,00 %
26.06.2018 18:38 20,5 C 21,7 C 53 % 1017,9 hPa 0,0 l/m 5,0 km/h (1 Bft) N-NO 22 0 min 0,000 mm 0,6 UV-I 131 W/m 10,6 C 20,5 C 8,0 km/h (2 Bft) 100,00 %
26.06.2018 18:39 20,4 C 21,7 C 53 % 1017,9 hPa 0,0 l/m 4,3 km/h (1 Bft) N-NO 20 0 min 0,000 mm 0,6 UV-I 136 W/m 10,5 C 20,4 C 4,8 km/h (1 Bft) 100,00 %
26.06.2018 18:40 20,4 C 21,7 C 54 % 1017,9 hPa 0,0 l/m 6,6 km/h (2 Bft) N-NW 344 0 min 0,000 mm 0,6 UV-I 141 W/m 10,8 C 20,3 C 11,3 km/h (2 Bft) 100,00 %
26.06.2018 18:41 20,4 C 21,7 C 53 % 1017,9 hPa 0,0 l/m 3,0 km/h (1 Bft) N 11 0 min 0,000 mm 0,6 UV-I 143 W/m 10,5 C 20,4 C 4,8 km/h (1 Bft) 100,00 %
26.06.2018 18:42 20,4 C 21,7 C 55 % 1017,9 hPa 0,0 l/m 3,8 km/h (1 Bft) N 355 0 min 0,000 mm 0,6 UV-I 146 W/m 11,1 C 20,4 C 6,4 km/h (2 Bft) 100,00 %
26.06.2018 18:43 20,4 C 21,7 C 54 % 1018,0 hPa 0,0 l/m 7,0 km/h (2 Bft) N-NO 32 0 min 0,000 mm 0,6 UV-I 149 W/m 10,8 C 20,2 C 14,5 km/h (3 Bft) 100,00 %
26.06.2018 18:44 20,4 C 21,7 C 54 % 1018,0 hPa 0,0 l/m 8,2 km/h (2 Bft) N-NO 12 0 min 0,000 mm 0,5 UV-I 149 W/m 10,8 C 19,7 C 12,9 km/h (3 Bft) 100,00 %
26.06.2018 18:45 20,4 C 21,7 C 54 % 1018,0 hPa 0,0 l/m 2,7 km/h (1 Bft) N-NW 348 0 min 0,000 mm 0,5 UV-I 148 W/m 10,8 C 20,4 C 8,0 km/h (2 Bft) 95,83 %
26.06.2018 18:46 20,4 C 21,7 C 55 % 1018,0 hPa 0,0 l/m 7,9 km/h (2 Bft) NO 46 0 min 0,000 mm 0,5 UV-I 146 W/m 11,1 C 19,8 C 14,5 km/h (3 Bft) 100,00 %
26.06.2018 18:48 20,4 C 21,7 C 53 % 1018,0 hPa 0,0 l/m 4,2 km/h (1 Bft) N 5 0 min 0,000 mm 0,5 UV-I 146 W/m 10,5 C 20,4 C 11,3 km/h (2 Bft) 96,00 %
26.06.2018 18:49 20,4 C 21,7 C 54 % 1018,0 hPa 0,0 l/m 4,4 km/h (1 Bft) W-SW 240 0 min 0,000 mm 0,5 UV-I 139 W/m 10,8 C 20,4 C 6,4 km/h (2 Bft) 95,83 %
26.06.2018 18:50 20,5 C 21,7 C 53 % 1018,0 hPa 0,0 l/m 4,0 km/h (1 Bft) NW 325 0 min 0,000 mm 0,5 UV-I 133 W/m 10,6 C 20,5 C 6,4 km/h (2 Bft) 100,00 %
26.06.2018 18:51 20,5 C 21,7 C 54 % 1018,0 hPa 0,0 l/m 2,3 km/h (1 Bft) N-NW 340 0 min 0,000 mm 0,5 UV-I 128 W/m 10,9 C 20,5 C 8,0 km/h (2 Bft) 95,83 %
26.06.2018 18:52 20,5 C 21,7 C 53 % 1018,0 hPa 0,0 l/m 7,1 km/h (2 Bft) N 355 0 min 0,000 mm 0,5 UV-I 126 W/m 10,6 C 20,2 C 14,5 km/h (3 Bft) 95,65 %
26.06.2018 18:53 20,5 C 21,7 C 53 % 1018,0 hPa 0,0 l/m 5,6 km/h (1 Bft) N-NW 342 0 min 0,000 mm 0,0 UV-I 125 W/m 10,6 C 20,5 C 8,0 km/h (2 Bft) 95,83 %
26.06.2018 18:54 20,4 C 21,7 C 54 % 1018,0 hPa 0,0 l/m 4,2 km/h (1 Bft) N 5 0 min 0,000 mm 0,0 UV-I 124 W/m 10,8 C 20,4 C 6,4 km/h (2 Bft) 96,15 %
26.06.2018 18:55 20,4 C 21,7 C 54 % 1018,0 hPa 0,0 l/m 6,4 km/h (2 Bft) N 11 0 min 0,000 mm 0,0 UV-I 125 W/m 10,8 C 20,4 C 8,0 km/h (2 Bft) 100,00 %
26.06.2018 18:56 20,4 C 21,7 C 54 % 1018,0 hPa 0,0 l/m 4,5 km/h (1 Bft) N-NO 18 0 min 0,000 mm 0,0 UV-I 127 W/m 10,8 C 20,4 C 6,4 km/h (2 Bft) 95,83 %
26.06.2018 18:57 20,4 C 21,7 C 55 % 1018,0 hPa 0,0 l/m 5,1 km/h (1 Bft) N 349 0 min 0,000 mm 0,0 UV-I 131 W/m 11,1 C 20,4 C 6,4 km/h (2 Bft) 100,00 %
26.06.2018 18:58 20,3 C 21,7 C 55 % 1018,0 hPa 0,0 l/m 4,3 km/h (1 Bft) N-NO 26 0 min 0,000 mm 0,0 UV-I 134 W/m 11,0 C 20,3 C 6,4 km/h (2 Bft) 95,83 %
26.06.2018 18:59 20,3 C 21,7 C 54 % 1018,0 hPa 0,0 l/m 4,2 km/h (1 Bft) N 355 0 min 0,000 mm 0,0 UV-I 135 W/m 10,7 C 20,3 C 8,0 km/h (2 Bft) 100,00 %
26.06.2018 19:00 20,4 C 21,7 C 56 % 1018,0 hPa 0,0 l/m 3,1 km/h (1 Bft) N-NW 339 0 min 0,000 mm 0,0 UV-I 130 W/m 11,3 C 20,4 C 4,8 km/h (1 Bft) 95,83 %
26.06.2018 19:02 20,3 C 21,7 C 55 % 1018,0 hPa 0,0 l/m 3,8 km/h (1 Bft) N-NO 13 0 min 0,127 mm 0,0 UV-I 156 W/m 11,0 C 20,3 C 6,4 km/h (2 Bft) 98,00 %
26.06.2018 19:03 20,4 C 21,7 C 54 % 1018,0 hPa 0,0 l/m 2,9 km/h (1 Bft) N-NO 13 1 min 0,000 mm 0,0 UV-I 168 W/m 10,8 C 20,4 C 4,8 km/h (1 Bft) 91,30 %
26.06.2018 19:04 20,5 C 21,7 C 54 % 1018,0 hPa 0,0 l/m 3,6 km/h (1 Bft) N 350 0 min 0,000 mm 0,0 UV-I 126 W/m 10,9 C 20,5 C 6,4 km/h (2 Bft) 100,00 %
26.06.2018 19:05 20,5 C 21,7 C 55 % 1018,0 hPa 0,0 l/m 4,4 km/h (1 Bft) NW 319 0 min 0,000 mm 0,0 UV-I 110 W/m 11,1 C 20,5 C 6,4 km/h (2 Bft) 95,65 %
26.06.2018 19:06 20,5 C 21,7 C 54 % 1018,0 hPa 0,0 l/m 7,6 km/h (2 Bft) N 9 0 min 0,000 mm 0,0 UV-I 106 W/m 10,9 C 20,0 C 14,5 km/h (3 Bft) 100,00 %
26.06.2018 19:08 20,6 C 21,7 C 54 % 1018,0 hPa 0,0 l/m 3,4 km/h (1 Bft) NW 311 0 min 0,000 mm 0,0 UV-I 106 W/m 11,0 C 20,6 C 6,4 km/h (2 Bft) 96,00 %
26.06.2018 19:09 20,6 C 21,7 C 53 % 1018,0 hPa 0,0 l/m 4,4 km/h (1 Bft) W-SW 247 0 min 0,000 mm 0,0 UV-I 105 W/m 10,7 C 20,6 C 6,4 km/h (2 Bft) 95,65 %
26.06.2018 19:10 20,6 C 21,7 C 53 % 1017,9 hPa 0,0 l/m 5,2 km/h (1 Bft) W 269 0 min 0,000 mm 0,0 UV-I 104 W/m 10,7 C 20,6 C 11,3 km/h (2 Bft) 95,83 %
26.06.2018 19:11 20,7 C 21,7 C 54 % 1017,9 hPa 0,0 l/m 3,5 km/h (1 Bft) N-NO 15 0 min 0,000 mm 0,0 UV-I 105 W/m 11,1 C 20,7 C 4,8 km/h (1 Bft) 100,00 %
26.06.2018 19:12 20,6 C 21,7 C 55 % 1017,9 hPa 0,0 l/m 3,5 km/h (1 Bft) NW 306 0 min 0,000 mm 0,0 UV-I 105 W/m 11,2 C 20,6 C 6,4 km/h (2 Bft) 95,83 %
26.06.2018 19:13 20,6 C 21,7 C 54 % 1017,9 hPa 0,0 l/m 2,7 km/h (1 Bft) NW 321 0 min 0,000 mm 0,0 UV-I 105 W/m 11,0 C 20,6 C 3,2 km/h (1 Bft) 100,00 %
26.06.2018 19:14 20,6 C 21,7 C 56 % 1017,9 hPa 0,0 l/m 0,9 km/h (0 Bft) NW 320 0 min 0,000 mm 0,0 UV-I 105 W/m 11,5 C 20,6 C 1,6 km/h (1 Bft) 95,83 %
26.06.2018 19:15 20,6 C 21,7 C 55 % 1017,9 hPa 0,0 l/m 1,3 km/h (1 Bft) NW 321 0 min 0,000 mm 0,0 UV-I 105 W/m 11,2 C 20,6 C 3,2 km/h (1 Bft) 95,83 %
26.06.2018 19:16 20,5 C 21,7 C 57 % 1017,9 hPa 0,0 l/m 1,7 km/h (1 Bft) NW 321 0 min 0,000 mm 0,0 UV-I 105 W/m 11,7 C 20,5 C 3,2 km/h (1 Bft) 95,65 %
26.06.2018 19:17 20,5 C 21,7 C 55 % 1018,0 hPa 0,0 l/m 4,3 km/h (1 Bft) W-NW 294 0 min 0,000 mm 0,0 UV-I 103 W/m 11,1 C 20,5 C 9,7 km/h (2 Bft) 95,65 %
26.06.2018 19:18 20,5 C 21,7 C 54 % 1017,9 hPa 0,0 l/m 4,3 km/h (1 Bft) W 281 0 min 0,000 mm 0,0 UV-I 101 W/m 10,9 C 20,5 C 9,7 km/h (2 Bft) 100,00 %
26.06.2018 19:19 20,6 C 21,7 C 55 % 1017,9 hPa 0,0 l/m 1,9 km/h (1 Bft) W 277 0 min 0,000 mm 0,0 UV-I 98 W/m 11,2 C 20,6 C 4,8 km/h (1 Bft) 95,83 %
26.06.2018 19:20 20,6 C 21,7 C 54 % 1017,9 hPa 0,0 l/m 1,9 km/h (1 Bft) W 278 0 min 0,000 mm 0,0 UV-I 93 W/m 11,0 C 20,6 C 3,2 km/h (1 Bft) 100,00 %
26.06.2018 19:21 20,7 C 21,7 C 54 % 1017,9 hPa 0,0 l/m 0,4 km/h (0 Bft) W 278 0 min 0,000 mm 0,0 UV-I 91 W/m 11,1 C 20,7 C 1,6 km/h (1 Bft) 100,00 %
26.06.2018 19:22 20,7 C 21,7 C 54 % 1017,9 hPa 0,0 l/m 1,6 km/h (1 Bft) W 271 0 min 0,000 mm 0,0 UV-I 89 W/m 11,1 C 20,7 C 3,2 km/h (1 Bft) 100,00 %
26.06.2018 19:23 20,7 C 21,7 C 55 % 1017,8 hPa 0,0 l/m 2,4 km/h (1 Bft) W-NW 284 0 min 0,000 mm 0,0 UV-I 87 W/m 11,3 C 20,7 C 4,8 km/h (1 Bft) 100,00 %
26.06.2018 19:24 20,7 C 21,7 C 54 % 1017,8 hPa 0,0 l/m 2,2 km/h (1 Bft) W-NW 286 0 min 0,000 mm 0,0 UV-I 85 W/m 11,1 C 20,7 C 4,8 km/h (1 Bft) 92,31 %
26.06.2018 19:25 20,7 C 21,7 C 55 % 1017,9 hPa 0,0 l/m 0,5 km/h (0 Bft) W-NW 286 0 min 0,000 mm 0,0 UV-I 86 W/m 11,3 C 20,7 C 1,6 km/h (1 Bft) 100,00 %
26.06.2018 19:26 20,7 C 21,7 C 54 % 1017,8 hPa 0,0 l/m 1,3 km/h (1 Bft) W-NW 286 0 min 0,000 mm 0,0 UV-I 86 W/m 11,1 C 20,7 C 3,2 km/h (1 Bft) 95,65 %
26.06.2018 19:27 20,7 C 21,7 C 54 % 1017,8 hPa 0,0 l/m 0,8 km/h (0 Bft) W-NW 285 0 min 0,000 mm 0,0 UV-I 91 W/m 11,1 C 20,7 C 3,2 km/h (1 Bft) 100,00 %
26.06.2018 19:28 20,7 C 21,7 C 55 % 1017,8 hPa 0,0 l/m 5,0 km/h (1 Bft) N-NW 344 0 min 0,000 mm 0,0 UV-I 95 W/m 11,3 C 20,7 C 8,0 km/h (2 Bft) 95,65 %
26.06.2018 19:29 20,7 C 21,7 C 54 % 1017,8 hPa 0,0 l/m 3,8 km/h (1 Bft) W-SW 237 0 min 0,000 mm 0,0 UV-I 99 W/m 11,1 C 20,7 C 6,4 km/h (2 Bft) 100,00 %
26.06.2018 19:30 20,8 C 21,7 C 55 % 1017,8 hPa 0,0 l/m 4,2 km/h (1 Bft) NO 42 0 min 0,000 mm 0,0 UV-I 103 W/m 11,4 C 20,8 C 4,8 km/h (1 Bft) 100,00 %
26.06.2018 19:31 20,7 C 21,7 C 56 % 1017,8 hPa 0,0 l/m 3,5 km/h (1 Bft) NO 43 0 min 0,000 mm 0,0 UV-I 105 W/m 11,6 C 20,7 C 4,8 km/h (1 Bft) 100,00 %
26.06.2018 19:32 20,6 C 21,7 C 54 % 1017,8 hPa 0,0 l/m 3,9 km/h (1 Bft) W-NW 292 0 min 0,000 mm 0,0 UV-I 104 W/m 11,0 C 20,6 C 6,4 km/h (2 Bft) 95,65 %
26.06.2018 19:33 20,6 C 21,7 C 56 % 1017,8 hPa 0,0 l/m 1,4 km/h (1 Bft) W-NW 292 0 min 0,000 mm 0,0 UV-I 101 W/m 11,5 C 20,6 C 3,2 km/h (1 Bft) 100,00 %
26.06.2018 19:34 20,4 C 21,7 C 56 % 1017,7 hPa 0,0 l/m 1,6 km/h (1 Bft) W-NW 292 0 min 0,000 mm 0,0 UV-I 99 W/m 11,3 C 20,4 C 3,2 km/h (1 Bft) 100,00 %
26.06.2018 19:35 20,4 C 21,7 C 57 % 1017,7 hPa 0,0 l/m 1,5 km/h (1 Bft) W 279 0 min 0,000 mm 0,0 UV-I 96 W/m 11,6 C 20,4 C 4,8 km/h (1 Bft) 100,00 %
26.06.2018 19:36 20,4 C 21,7 C 56 % 1017,7 hPa 0,0 l/m 4,9 km/h (1 Bft) W-NW 293 0 min 0,000 mm 0,0 UV-I 94 W/m 11,3 C 20,4 C 6,4 km/h (2 Bft) 100,00 %
26.06.2018 19:37 20,4 C 21,7 C 55 % 1017,7 hPa 0,0 l/m 3,0 km/h (1 Bft) W-NW 294 0 min 0,000 mm 0,0 UV-I 93 W/m 11,1 C 20,4 C 4,8 km/h (1 Bft) 95,65 %
26.06.2018 19:38 20,4 C 21,7 C 56 % 1017,7 hPa 0,0 l/m 2,0 km/h (1 Bft) W-NW 292 0 min 0,000 mm 0,0 UV-I 95 W/m 11,3 C 20,4 C 3,2 km/h (1 Bft) 100,00 %
26.06.2018 19:39 20,4 C 21,7 C 56 % 1017,7 hPa 0,0 l/m 2,3 km/h (1 Bft) W-NW 294 0 min 0,000 mm 0,0 UV-I 94 W/m 11,3 C 20,4 C 4,8 km/h (1 Bft) 100,00 %
26.06.2018 19:40 20,5 C 21,7 C 56 % 1017,7 hPa 0,0 l/m 3,6 km/h (1 Bft) W-NW 303 0 min 0,000 mm 0,0 UV-I 92 W/m 11,4 C 20,5 C 4,8 km/h (1 Bft) 100,00 %
26.06.2018 19:41 20,5 C 21,7 C 55 % 1017,7 hPa 0,0 l/m 2,2 km/h (1 Bft) W-NW 302 0 min 0,000 mm 0,0 UV-I 91 W/m 11,1 C 20,5 C 3,2 km/h (1 Bft) 100,00 %
26.06.2018 19:43 20,6 C 21,7 C 57 % 1017,7 hPa 0,0 l/m 1,8 km/h (1 Bft) W-NW 302 0 min 0,000 mm 0,0 UV-I 89 W/m 11,8 C 20,6 C 3,2 km/h (1 Bft) 100,00 %
26.06.2018 19:44 20,6 C 21,7 C 55 % 1017,7 hPa 0,0 l/m 3,1 km/h (1 Bft) W 267 0 min 0,000 mm 0,0 UV-I 84 W/m 11,2 C 20,6 C 4,8 km/h (1 Bft) 100,00 %
26.06.2018 19:45 20,6 C 21,7 C 54 % 1017,7 hPa 0,0 l/m 1,7 km/h (1 Bft) W 267 0 min 0,000 mm 0,0 UV-I 82 W/m 11,0 C 20,6 C 3,2 km/h (1 Bft) 100,00 %
26.06.2018 19:46 20,6 C 21,7 C 55 % 1017,7 hPa 0,0 l/m 3,9 km/h (1 Bft) W-SW 254 0 min 0,000 mm 0,0 UV-I 80 W/m 11,2 C 20,6 C 4,8 km/h (1 Bft) 100,00 %
26.06.2018 19:48 20,6 C 21,7 C 56 % 1017,8 hPa 0,0 l/m 2,5 km/h (1 Bft) W-SW 254 0 min 0,000 mm 0,0 UV-I 73 W/m 11,5 C 20,6 C 4,8 km/h (1 Bft) 100,00 %
26.06.2018 19:49 20,6 C 21,7 C 56 % 1017,8 hPa 0,0 l/m 1,8 km/h (1 Bft) W-SW 254 0 min 0,000 mm 0,0 UV-I 69 W/m 11,5 C 20,6 C 3,2 km/h (1 Bft) 100,00 %
26.06.2018 19:50 20,5 C 21,7 C 56 % 1017,7 hPa 0,0 l/m 2,5 km/h (1 Bft) W-SW 254 0 min 0,000 mm 0,0 UV-I 64 W/m 11,4 C 20,5 C 3,2 km/h (1 Bft) 100,00 %
26.06.2018 19:51 20,4 C 21,7 C 56 % 1017,8 hPa 0,0 l/m 4,1 km/h (1 Bft) N-NW 340 0 min 0,000 mm 0,0 UV-I 61 W/m 11,3 C 20,4 C 6,4 km/h (2 Bft) 100,00 %
26.06.2018 19:52 20,4 C 21,7 C 55 % 1017,8 hPa 0,0 l/m 3,9 km/h (1 Bft) W 273 0 min 0,000 mm 0,0 UV-I 59 W/m 11,1 C 20,4 C 6,4 km/h (2 Bft) 100,00 %
26.06.2018 19:53 20,4 C 21,7 C 55 % 1017,7 hPa 0,0 l/m 2,2 km/h (1 Bft) W 278 0 min 0,000 mm 0,0 UV-I 58 W/m 11,1 C 20,4 C 4,8 km/h (1 Bft) 100,00 %
26.06.2018 19:54 20,4 C 21,7 C 56 % 1017,7 hPa 0,0 l/m 3,5 km/h (1 Bft) W 267 0 min 0,000 mm 0,0 UV-I 56 W/m 11,3 C 20,4 C 6,4 km/h (2 Bft) 95,65 %
26.06.2018 19:55 20,5 C 21,7 C 56 % 1017,7 hPa 0,0 l/m 4,2 km/h (1 Bft) W 269 0 min 0,000 mm 0,0 UV-I 56 W/m 11,4 C 20,5 C 6,4 km/h (2 Bft) 100,00 %
26.06.2018 19:56 20,5 C 21,7 C 55 % 1017,7 hPa 0,0 l/m 3,0 km/h (1 Bft) W 271 0 min 0,000 mm 0,0 UV-I 56 W/m 11,1 C 20,5 C 4,8 km/h (1 Bft) 100,00 %
26.06.2018 19:57 20,5 C 21,7 C 55 % 1017,7 hPa 0,0 l/m 4,1 km/h (1 Bft) W 271 0 min 0,000 mm 0,0 UV-I 54 W/m 11,1 C 20,5 C 4,8 km/h (1 Bft) 100,00 %
26.06.2018 19:58 20,5 C 21,7 C 56 % 1017,7 hPa 0,0 l/m 2,9 km/h (1 Bft) W 271 0 min 0,000 mm 0,0 UV-I 54 W/m 11,4 C 20,5 C 4,8 km/h (1 Bft) 95,65 %
26.06.2018 19:59 20,4 C 21,7 C 55 % 1017,7 hPa 0,0 l/m 6,4 km/h (2 Bft) W 262 0 min 0,000 mm 0,0 UV-I 52 W/m 11,1 C 20,4 C 9,7 km/h (2 Bft) 100,00 %
26.06.2018 20:00 20,4 C 21,7 C 55 % 1017,7 hPa 0,0 l/m 5,3 km/h (1 Bft) W 277 0 min 0,000 mm 0,0 UV-I 48 W/m 11,1 C 20,4 C 6,4 km/h (2 Bft) 100,00 %
26.06.2018 20:02 20,4 C 21,7 C 55 % 1017,7 hPa 0,0 l/m 3,7 km/h (1 Bft) SW 233 0 min 0,076 mm 0,0 UV-I 39 W/m 11,1 C 20,4 C 6,4 km/h (2 Bft) 100,00 %
26.06.2018 20:03 20,4 C 21,7 C 56 % 1017,8 hPa 0,0 l/m 4,4 km/h (1 Bft) W 260 0 min 0,000 mm 0,0 UV-I 32 W/m 11,3 C 20,4 C 6,4 km/h (2 Bft) 100,00 %
26.06.2018 20:04 20,4 C 21,7 C 56 % 1017,7 hPa 0,0 l/m 4,3 km/h (1 Bft) W 265 0 min 0,000 mm 0,0 UV-I 28 W/m 11,3 C 20,4 C 4,8 km/h (1 Bft) 100,00 %
26.06.2018 20:05 20,4 C 21,7 C 56 % 1017,8 hPa 0,0 l/m 4,3 km/h (1 Bft) W 259 0 min 0,000 mm 0,0 UV-I 25 W/m 11,3 C 20,4 C 6,4 km/h (2 Bft) 100,00 %
26.06.2018 20:06 20,4 C 21,7 C 56 % 1017,8 hPa 0,0 l/m 4,4 km/h (1 Bft) W 267 0 min 0,000 mm 0,0 UV-I 23 W/m 11,3 C 20,4 C 6,4 km/h (2 Bft) 95,65 %
26.06.2018 20:07 20,4 C 21,7 C 57 % 1017,8 hPa 0,0 l/m 5,0 km/h (1 Bft) W-SW 257 0 min 0,000 mm 0,0 UV-I 23 W/m 11,6 C 20,4 C 9,7 km/h (2 Bft) 95,83 %
26.06.2018 20:08 20,3 C 21,7 C 57 % 1017,8 hPa 0,0 l/m 4,0 km/h (1 Bft) W-SW 257 0 min 0,000 mm 0,0 UV-I 23 W/m 11,5 C 20,3 C 6,4 km/h (2 Bft) 100,00 %
26.06.2018 20:09 20,3 C 21,7 C 57 % 1017,8 hPa 0,0 l/m 3,9 km/h (1 Bft) W-SW 257 0 min 0,000 mm 0,0 UV-I 23 W/m 11,5 C 20,3 C 4,8 km/h (1 Bft) 100,00 %
26.06.2018 20:10 20,3 C 21,7 C 57 % 1017,8 hPa 0,0 l/m 2,2 km/h (1 Bft) W-SW 257 0 min 0,000 mm 0,0 UV-I 24 W/m 11,5 C 20,3 C 3,2 km/h (1 Bft) 100,00 %
26.06.2018 20:11 20,3 C 21,7 C 57 % 1017,8 hPa 0,0 l/m 3,2 km/h (1 Bft) W-SW 257 0 min 0,000 mm 0,0 UV-I 25 W/m 11,5 C 20,3 C 3,2 km/h (1 Bft) 100,00 %
26.06.2018 20:12 20,3 C 21,7 C 58 % 1017,8 hPa 0,0 l/m 2,4 km/h (1 Bft) W-SW 257 0 min 0,000 mm 0,0 UV-I 25 W/m 11,8 C 20,3 C 3,2 km/h (1 Bft) 100,00 %
26.06.2018 20:13 20,3 C 21,7 C 57 % 1017,8 hPa 0,0 l/m 3,0 km/h (1 Bft) W-SW 248 0 min 0,000 mm 0,0 UV-I 23 W/m 11,5 C 20,3 C 6,4 km/h (2 Bft) 100,00 %
26.06.2018 20:14 20,3 C 21,7 C 58 % 1017,8 hPa 0,0 l/m 4,6 km/h (1 Bft) W-SW 247 0 min 0,000 mm 0,0 UV-I 23 W/m 11,8 C 20,3 C 6,4 km/h (2 Bft) 100,00 %
26.06.2018 20:15 20,2 C 21,7 C 57 % 1017,8 hPa 0,0 l/m 3,1 km/h (1 Bft) W-SW 246 0 min 0,000 mm 0,0 UV-I 22 W/m 11,4 C 20,2 C 4,8 km/h (1 Bft) 100,00 %
26.06.2018 20:16 20,2 C 21,7 C 58 % 1017,8 hPa 0,0 l/m 2,7 km/h (1 Bft) W-SW 246 0 min 0,000 mm 0,0 UV-I 20 W/m 11,7 C 20,2 C 4,8 km/h (1 Bft) 100,00 %
26.06.2018 20:17 20,2 C 21,7 C 58 % 1017,8 hPa 0,0 l/m 1,1 km/h (1 Bft) W-SW 246 0 min 0,000 mm 0,0 UV-I 19 W/m 11,7 C 20,2 C 1,6 km/h (1 Bft) 95,65 %
26.06.2018 20:18 20,2 C 21,7 C 58 % 1017,9 hPa 0,0 l/m 1,3 km/h (1 Bft) W-SW 247 0 min 0,000 mm 0,0 UV-I 18 W/m 11,7 C 20,2 C 3,2 km/h (1 Bft) 100,00 %
26.06.2018 20:19 20,1 C 21,7 C 59 % 1017,9 hPa 0,0 l/m 0,4 km/h (0 Bft) W-SW 247 0 min 0,000 mm 0,0 UV-I 16 W/m 11,8 C 20,1 C 1,6 km/h (1 Bft) 100,00 %
26.06.2018 20:20 20,1 C 21,7 C 59 % 1017,9 hPa 0,0 l/m 1,9 km/h (1 Bft) W-SW 247 0 min 0,000 mm 0,0 UV-I 13 W/m 11,8 C 20,1 C 4,8 km/h (1 Bft) 100,00 %
26.06.2018 20:21 19,9 C 21,7 C 61 % 1017,9 hPa 0,0 l/m 2,4 km/h (1 Bft) W-SW 248 0 min 0,000 mm 0,0 UV-I 12 W/m 12,2 C 19,9 C 3,2 km/h (1 Bft) 100,00 %
26.06.2018 20:22 19,8 C 21,7 C 64 % 1018,0 hPa 0,0 l/m 3,8 km/h (1 Bft) N 5 0 min 0,000 mm 0,0 UV-I 11 W/m 12,8 C 19,8 C 6,4 km/h (2 Bft) 100,00 %
26.06.2018 20:23 19,6 C 21,7 C 67 % 1018,0 hPa 0,0 l/m 12,2 km/h (2 Bft) N-NO 27 0 min 0,000 mm 0,0 UV-I 9 W/m 13,3 C 17,5 C 14,5 km/h (3 Bft) 100,00 %
26.06.2018 20:24 19,2 C 21,7 C 68 % 1018,3 hPa 0,0 l/m 16,7 km/h (3 Bft) NO 41 0 min 0,000 mm 0,0 UV-I 7 W/m 13,1 C 15,9 C 20,9 km/h (4 Bft) 100,00 %
26.06.2018 20:25 18,9 C 21,7 C 67 % 1018,5 hPa 0,0 l/m 30,8 km/h (5 Bft) N 350 0 min 0,000 mm 0,0 UV-I 7 W/m 12,6 C 13,1 C 38,6 km/h (5 Bft) 100,00 %
26.06.2018 20:26 18,6 C 21,7 C 68 % 1018,4 hPa 0,0 l/m 21,3 km/h (4 Bft) N-NO 32 0 min 0,000 mm 0,0 UV-I 7 W/m 12,6 C 14,1 C 30,6 km/h (5 Bft) 100,00 %
26.06.2018 20:27 18,3 C 21,7 C 69 % 1018,5 hPa 0,0 l/m 19,9 km/h (4 Bft) N-NO 12 0 min 0,000 mm 0,0 UV-I 7 W/m 12,5 C 14,0 C 22,5 km/h (4 Bft) 100,00 %
26.06.2018 20:28 18,0 C 21,7 C 73 % 1018,7 hPa 0,2 l/m 24,1 km/h (4 Bft) N-NO 13 0 min 0,000 mm 0,0 UV-I 7 W/m 13,1 C 12,8 C 40,2 km/h (6 Bft) 100,00 %
26.06.2018 20:29 17,6 C 21,7 C 75 % 1018,7 hPa 0,6 l/m 30,4 km/h (5 Bft) N 11 0 min 0,000 mm 0,0 UV-I 7 W/m 13,1 C 11,3 C 40,2 km/h (6 Bft) 95,65 %
26.06.2018 20:30 17,2 C 21,7 C 77 % 1019,0 hPa 1,0 l/m 23,0 km/h (4 Bft) N 360 0 min 0,000 mm 0,0 UV-I 7 W/m 13,1 C 12,0 C 37,0 km/h (5 Bft) 100,00 %
26.06.2018 20:31 16,8 C 21,7 C 79 % 1019,0 hPa 0,4 l/m 18,1 km/h (3 Bft) N 351 0 min 0,000 mm 0,0 UV-I 7 W/m 13,1 C 12,5 C 24,1 km/h (4 Bft) 100,00 %
26.06.2018 20:32 16,3 C 21,7 C 80 % 1019,0 hPa 0,8 l/m 11,5 km/h (2 Bft) W 260 0 min 0,000 mm 0,0 UV-I 9 W/m 12,8 C 14,0 C 20,9 km/h (4 Bft) 100,00 %
26.06.2018 20:33 15,9 C 21,7 C 80 % 1019,0 hPa 0,8 l/m 6,7 km/h (2 Bft) S-SW 202 0 min 0,000 mm 0,0 UV-I 9 W/m 12,5 C 15,7 C 11,3 km/h (2 Bft) 95,83 %
26.06.2018 20:34 15,7 C 21,7 C 80 % 1018,9 hPa 0,4 l/m 11,0 km/h (2 Bft) NW 325 0 min 0,000 mm 0,0 UV-I 10 W/m 12,3 C 13,5 C 20,9 km/h (4 Bft) 100,00 %
26.06.2018 20:35 15,4 C 21,7 C 81 % 1018,9 hPa 0,2 l/m 6,1 km/h (2 Bft) N 355 0 min 0,000 mm 0,0 UV-I 11 W/m 12,2 C 15,4 C 12,9 km/h (3 Bft) 100,00 %
26.06.2018 20:36 15,3 C 21,7 C 81 % 1018,8 hPa 0,0 l/m 5,4 km/h (1 Bft) NW 317 0 min 0,000 mm 0,0 UV-I 11 W/m 12,1 C 15,3 C 12,9 km/h (3 Bft) 100,00 %
26.06.2018 20:37 15,2 C 21,7 C 81 % 1018,9 hPa 0,2 l/m 2,7 km/h (1 Bft) NW 319 0 min 0,000 mm 0,0 UV-I 11 W/m 12,0 C 15,2 C 4,8 km/h (1 Bft) 100,00 %
26.06.2018 20:38 15,0 C 21,7 C 83 % 1018,8 hPa 0,2 l/m 1,7 km/h (1 Bft) NW 319 0 min 0,000 mm 0,0 UV-I 11 W/m 12,1 C 15,0 C 3,2 km/h (1 Bft) 100,00 %
26.06.2018 20:39 14,9 C 21,7 C 84 % 1018,8 hPa 0,2 l/m 1,3 km/h (1 Bft) NW 320 0 min 0,000 mm 0,0 UV-I 10 W/m 12,2 C 14,9 C 1,6 km/h (1 Bft) 100,00 %
26.06.2018 20:40 14,9 C 21,7 C 85 % 1018,7 hPa 0,0 l/m 1,3 km/h (1 Bft) NW 321 0 min 0,000 mm 0,0 UV-I 9 W/m 12,4 C 14,9 C 3,2 km/h (1 Bft) 100,00 %
26.06.2018 20:41 14,9 C 21,7 C 86 % 1018,7 hPa 0,2 l/m 2,4 km/h (1 Bft) NW 320 0 min 0,000 mm 0,0 UV-I 9 W/m 12,6 C 14,9 C 3,2 km/h (1 Bft) 100,00 %
26.06.2018 20:42 14,9 C 21,7 C 86 % 1018,6 hPa 0,0 l/m 2,7 km/h (1 Bft) NW 313 0 min 0,000 mm 0,0 UV-I 9 W/m 12,6 C 14,9 C 4,8 km/h (1 Bft) 95,65 %
26.06.2018 20:43 14,9 C 21,7 C 86 % 1018,6 hPa 0,0 l/m 3,6 km/h (1 Bft) W 277 0 min 0,000 mm 0,0 UV-I 9 W/m 12,6 C 14,9 C 4,8 km/h (1 Bft) 95,83 %
26.06.2018 20:44 15,1 C 21,7 C 85 % 1018,6 hPa 0,0 l/m 3,6 km/h (1 Bft) SW 230 0 min 0,000 mm 0,0 UV-I 9 W/m 12,6 C 15,1 C 6,4 km/h (2 Bft) 86,96 %
26.06.2018 20:45 15,1 C 21,7 C 86 % 1018,5 hPa 0,0 l/m 4,6 km/h (1 Bft) W-SW 248 0 min 0,000 mm 0,0 UV-I 9 W/m 12,8 C 15,1 C 6,4 km/h (2 Bft) 100,00 %
26.06.2018 20:46 15,2 C 21,7 C 86 % 1018,5 hPa 0,0 l/m 5,4 km/h (1 Bft) SW 221 0 min 0,000 mm 0,0 UV-I 9 W/m 12,9 C 15,2 C 8,0 km/h (2 Bft) 95,83 %
26.06.2018 20:47 15,2 C 21,7 C 86 % 1018,5 hPa 0,0 l/m 6,8 km/h (2 Bft) S 188 0 min 0,000 mm 0,0 UV-I 9 W/m 12,9 C 15,0 C 8,0 km/h (2 Bft) 91,30 %
26.06.2018 20:48 15,2 C 21,7 C 87 % 1018,5 hPa 0,0 l/m 8,2 km/h (2 Bft) S-SW 207 0 min 0,000 mm 0,0 UV-I 11 W/m 13,0 C 14,2 C 11,3 km/h (2 Bft) 100,00 %
26.06.2018 20:49 15,1 C 21,7 C 87 % 1018,4 hPa 0,0 l/m 8,7 km/h (2 Bft) SW 215 0 min 0,000 mm 0,0 UV-I 12 W/m 13,0 C 13,8 C 11,3 km/h (2 Bft) 91,30 %
26.06.2018 20:50 15,0 C 21,7 C 87 % 1018,4 hPa 0,0 l/m 10,1 km/h (2 Bft) S-SW 204 0 min 0,000 mm 0,0 UV-I 12 W/m 12,9 C 13,1 C 16,1 km/h (3 Bft) 100,00 %
26.06.2018 20:51 14,9 C 21,7 C 87 % 1018,3 hPa 0,0 l/m 9,7 km/h (2 Bft) SW 231 0 min 0,000 mm 0,0 UV-I 11 W/m 12,8 C 13,1 C 11,3 km/h (2 Bft) 91,30 %
26.06.2018 20:52 14,9 C 21,7 C 88 % 1018,3 hPa 0,0 l/m 6,8 km/h (2 Bft) SW 233 0 min 0,000 mm 0,0 UV-I 11 W/m 12,9 C 14,7 C 8,0 km/h (2 Bft) 100,00 %
26.06.2018 20:53 14,9 C 21,7 C 88 % 1018,3 hPa 0,0 l/m 10,1 km/h (2 Bft) W-SW 253 1 min 0,000 mm 0,0 UV-I 11 W/m 12,9 C 13,0 C 14,5 km/h (3 Bft) 91,30 %
26.06.2018 20:54 14,9 C 21,7 C 88 % 1018,2 hPa 0,0 l/m 8,1 km/h (2 Bft) SW 234 1 min 0,000 mm 0,0 UV-I 11 W/m 12,9 C 13,9 C 11,3 km/h (2 Bft) 92,59 %
26.06.2018 20:55 15,0 C 21,7 C 88 % 1018,2 hPa 0,0 l/m 7,4 km/h (2 Bft) SW 215 1 min 0,000 mm 0,0 UV-I 11 W/m 13,0 C 14,4 C 11,3 km/h (2 Bft) 95,65 %
26.06.2018 20:56 15,0 C 21,7 C 88 % 1018,2 hPa 0,0 l/m 8,7 km/h (2 Bft) S-SW 205 0 min 0,000 mm 0,0 UV-I 11 W/m 13,0 C 13,7 C 12,9 km/h (3 Bft) 91,67 %
26.06.2018 20:57 15,1 C 21,7 C 88 % 1018,2 hPa 0,0 l/m 10,6 km/h (2 Bft) SW 236 0 min 0,000 mm 0,0 UV-I 11 W/m 13,1 C 13,0 C 12,9 km/h (3 Bft) 100,00 %
26.06.2018 20:58 15,1 C 21,7 C 87 % 1018,2 hPa 0,0 l/m 9,7 km/h (2 Bft) SW 221 0 min 0,000 mm 0,0 UV-I 11 W/m 13,0 C 13,4 C 12,9 km/h (3 Bft) 93,33 %
26.06.2018 20:59 15,2 C 21,7 C 87 % 1018,1 hPa 0,0 l/m 7,6 km/h (2 Bft) W-SW 240 0 min 0,000 mm 0,0 UV-I 11 W/m 13,0 C 14,5 C 11,3 km/h (2 Bft) 95,65 %
26.06.2018 21:00 15,2 C 21,7 C 86 % 1018,2 hPa 0,0 l/m 10,6 km/h (2 Bft) W-SW 247 0 min 0,000 mm 0,0 UV-I 11 W/m 12,9 C 13,1 C 14,5 km/h (3 Bft) 91,67 %
26.06.2018 21:02 15,3 C 21,7 C 86 % 1018,1 hPa 0,2 l/m 7,3 km/h (2 Bft) W 262 0 min 0,051 mm 0,0 UV-I 10 W/m 13,0 C 14,8 C 12,9 km/h (3 Bft) 96,23 %
26.06.2018 21:03 15,3 C 21,7 C 86 % 1018,0 hPa 0,0 l/m 8,4 km/h (2 Bft) W 271 0 min 0,000 mm 0,0 UV-I 9 W/m 13,0 C 14,2 C 14,5 km/h (3 Bft) 95,65 %
26.06.2018 21:04 15,3 C 21,7 C 86 % 1018,1 hPa 0,0 l/m 5,1 km/h (1 Bft) W 261 0 min 0,000 mm 0,0 UV-I 9 W/m 13,0 C 15,3 C 9,7 km/h (2 Bft) 96,30 %
26.06.2018 21:05 15,3 C 21,7 C 86 % 1018,1 hPa 0,0 l/m 4,2 km/h (1 Bft) W-NW 297 0 min 0,000 mm 0,0 UV-I 9 W/m 13,0 C 15,3 C 9,7 km/h (2 Bft) 95,65 %
26.06.2018 21:06 15,3 C 21,7 C 86 % 1018,1 hPa 0,0 l/m 4,0 km/h (1 Bft) W-SW 240 0 min 0,000 mm 0,0 UV-I 9 W/m 13,0 C 15,3 C 6,4 km/h (2 Bft) 95,83 %
26.06.2018 21:07 15,2 C 21,7 C 86 % 1018,0 hPa 0,0 l/m 2,2 km/h (1 Bft) W-SW 240 0 min 0,000 mm 0,0 UV-I 8 W/m 12,9 C 15,2 C 3,2 km/h (1 Bft) 91,67 %
26.06.2018 21:08 15,3 C 21,7 C 87 % 1018,0 hPa 0,0 l/m 5,4 km/h (1 Bft) W 261 0 min 0,000 mm 0,0 UV-I 7 W/m 13,1 C 15,3 C 9,7 km/h (2 Bft) 93,55 %
26.06.2018 21:09 15,3 C 21,7 C 87 % 1018,1 hPa 0,0 l/m 3,0 km/h (1 Bft) W 263 0 min 0,000 mm 0,0 UV-I 7 W/m 13,1 C 15,3 C 4,8 km/h (1 Bft) 91,67 %
26.06.2018 21:10 15,3 C 21,7 C 87 % 1018,1 hPa 0,0 l/m 3,1 km/h (1 Bft) NO 56 0 min 0,000 mm 0,0 UV-I 6 W/m 13,1 C 15,3 C 4,8 km/h (1 Bft) 100,00 %
26.06.2018 21:11 15,2 C 21,7 C 87 % 1018,1 hPa 0,0 l/m 0,9 km/h (0 Bft) O-NO 58 0 min 0,000 mm 0,0 UV-I 5 W/m 13,0 C 15,2 C 1,6 km/h (1 Bft) 91,67 %
26.06.2018 21:13 15,2 C 21,7 C 86 % 1018,2 hPa 0,0 l/m 3,9 km/h (1 Bft) NO 34 0 min 0,000 mm 0,0 UV-I 5 W/m 12,9 C 15,2 C 6,4 km/h (2 Bft) 95,74 %
26.06.2018 21:14 15,1 C 21,7 C 88 % 1018,2 hPa 0,0 l/m 4,7 km/h (1 Bft) N-NO 32 0 min 0,000 mm 0,0 UV-I 5 W/m 13,1 C 15,1 C 6,4 km/h (2 Bft) 91,30 %
26.06.2018 21:15 15,0 C 21,7 C 89 % 1018,2 hPa 0,0 l/m 2,6 km/h (1 Bft) N-NO 32 0 min 0,000 mm 0,0 UV-I 5 W/m 13,2 C 15,0 C 4,8 km/h (1 Bft) 95,83 %
26.06.2018 21:16 14,9 C 21,7 C 89 % 1018,2 hPa 0,0 l/m 0,5 km/h (0 Bft) N-NO 32 0 min 0,000 mm 0,0 UV-I 5 W/m 13,1 C 14,9 C 1,6 km/h (1 Bft) 100,00 %
26.06.2018 21:18 14,9 C 21,7 C 89 % 1018,2 hPa 0,0 l/m 2,6 km/h (1 Bft) SW 215 0 min 0,000 mm 0,0 UV-I 4 W/m 13,1 C 14,9 C 4,8 km/h (1 Bft) 95,74 %
26.06.2018 21:19 14,9 C 21,7 C 90 % 1018,2 hPa 0,0 l/m 1,4 km/h (1 Bft) SW 216 0 min 0,000 mm 0,0 UV-I 2 W/m 13,3 C 14,9 C 3,2 km/h (1 Bft) 100,00 %
26.06.2018 21:20 15,1 C 21,7 C 90 % 1018,2 hPa 0,0 l/m 2,1 km/h (1 Bft) SW 216 0 min 0,000 mm 0,0 UV-I 5 W/m 13,5 C 15,1 C 3,2 km/h (1 Bft) 95,65 %
26.06.2018 21:21 15,1 C 21,7 C 89 % 1018,2 hPa 0,0 l/m 0,2 km/h (0 Bft) SW 216 0 min 0,000 mm 0,0 UV-I 2 W/m 13,3 C 15,1 C 1,6 km/h (1 Bft) 100,00 %
26.06.2018 21:22 15,2 C 21,7 C 89 % 1018,2 hPa 0,0 l/m 6,2 km/h (2 Bft) O-NO 78 0 min 0,000 mm 0,0 UV-I 0 W/m 13,4 C 15,2 C 12,9 km/h (3 Bft) 95,65 %
26.06.2018 21:23 15,2 C 21,7 C 89 % 1018,3 hPa 0,0 l/m 12,6 km/h (3 Bft) O-NO 63 0 min 0,000 mm 0,0 UV-I 0 W/m 13,4 C 12,3 C 16,1 km/h (3 Bft) 100,00 %
26.06.2018 21:24 15,1 C 21,7 C 89 % 1018,3 hPa 0,0 l/m 11,5 km/h (2 Bft) O-SO 107 0 min 0,000 mm 0,0 UV-I 0 W/m 13,3 C 12,6 C 14,5 km/h (3 Bft) 95,65 %
26.06.2018 21:25 14,9 C 21,7 C 89 % 1018,3 hPa 0,0 l/m 12,1 km/h (2 Bft) O-SO 105 0 min 0,000 mm 0,0 UV-I 0 W/m 13,1 C 12,1 C 16,1 km/h (3 Bft) 91,67 %
26.06.2018 21:26 14,9 C 21,7 C 89 % 1018,4 hPa 0,0 l/m 9,9 km/h (2 Bft) O-SO 119 0 min 0,000 mm 0,0 UV-I 0 W/m 13,1 C 13,1 C 14,5 km/h (3 Bft) 95,83 %
26.06.2018 21:28 14,9 C 21,7 C 89 % 1018,4 hPa 0,0 l/m 7,5 km/h (2 Bft) O 101 0 min 0,000 mm 0,0 UV-I 0 W/m 13,1 C 14,3 C 11,3 km/h (2 Bft) 95,92 %
26.06.2018 21:29 14,8 C 21,7 C 89 % 1018,4 hPa 0,0 l/m 2,8 km/h (1 Bft) O 101 0 min 0,000 mm 0,0 UV-I 0 W/m 13,0 C 14,8 C 4,8 km/h (1 Bft) 100,00 %
26.06.2018 21:30 14,9 C 21,7 C 89 % 1018,3 hPa 0,0 l/m 3,4 km/h (1 Bft) O 101 0 min 0,000 mm 0,0 UV-I 0 W/m 13,1 C 14,9 C 4,8 km/h (1 Bft) 95,83 %
26.06.2018 21:31 14,9 C 21,7 C 90 % 1018,3 hPa 0,0 l/m 2,5 km/h (1 Bft) O 101 0 min 0,000 mm 0,0 UV-I 0 W/m 13,3 C 14,9 C 3,2 km/h (1 Bft) 100,00 %
26.06.2018 21:32 14,9 C 21,7 C 90 % 1018,3 hPa 0,0 l/m 3,4 km/h (1 Bft) O-SO 113 0 min 0,000 mm 0,0 UV-I 0 W/m 13,3 C 14,9 C 4,8 km/h (1 Bft) 96,30 %
26.06.2018 21:33 14,9 C 21,7 C 91 % 1018,4 hPa 0,0 l/m 1,5 km/h (1 Bft) O-SO 113 0 min 0,000 mm 0,0 UV-I 0 W/m 13,4 C 14,9 C 3,2 km/h (1 Bft) 95,65 %
26.06.2018 21:34 14,9 C 21,7 C 90 % 1018,4 hPa 0,0 l/m 6,1 km/h (2 Bft) O-NO 61 0 min 0,000 mm 0,0 UV-I 0 W/m 13,3 C 14,9 C 8,0 km/h (2 Bft) 100,00 %
26.06.2018 21:35 14,8 C 21,7 C 90 % 1018,5 hPa 0,0 l/m 8,4 km/h (2 Bft) O-NO 63 0 min 0,000 mm 0,0 UV-I 0 W/m 13,2 C 13,7 C 9,7 km/h (2 Bft) 95,65 %
26.06.2018 21:36 14,7 C 21,7 C 91 % 1018,5 hPa 0,0 l/m 7,1 km/h (2 Bft) O 90 0 min 0,000 mm 0,0 UV-I 0 W/m 13,2 C 14,3 C 11,3 km/h (2 Bft) 100,00 %
26.06.2018 21:37 14,6 C 21,7 C 91 % 1018,5 hPa 0,0 l/m 6,8 km/h (2 Bft) O 92 0 min 0,000 mm 0,0 UV-I 0 W/m 13,1 C 14,4 C 11,3 km/h (2 Bft) 95,65 %
26.06.2018 21:38 14,6 C 21,7 C 91 % 1018,5 hPa 0,0 l/m 5,3 km/h (1 Bft) O 94 0 min 0,000 mm 0,0 UV-I 0 W/m 13,1 C 14,6 C 6,4 km/h (2 Bft) 95,83 %
26.06.2018 21:39 14,6 C 21,7 C 92 % 1018,5 hPa 0,0 l/m 4,2 km/h (1 Bft) O 98 0 min 0,000 mm 0,0 UV-I 0 W/m 13,3 C 14,6 C 4,8 km/h (1 Bft) 95,65 %
26.06.2018 21:40 14,6 C 21,7 C 92 % 1018,5 hPa 0,0 l/m 4,4 km/h (1 Bft) O 97 0 min 0,000 mm 0,0 UV-I 0 W/m 13,3 C 14,6 C 6,4 km/h (2 Bft) 100,00 %
26.06.2018 21:41 14,5 C 21,7 C 92 % 1018,6 hPa 0,0 l/m 4,4 km/h (1 Bft) O 80 0 min 0,000 mm 0,0 UV-I 0 W/m 13,2 C 14,5 C 6,4 km/h (2 Bft) 95,65 %
26.06.2018 21:42 14,5 C 21,7 C 92 % 1018,5 hPa 0,0 l/m 5,0 km/h (1 Bft) O 82 0 min 0,000 mm 0,0 UV-I 0 W/m 13,2 C 14,5 C 8,0 km/h (2 Bft) 95,83 %
26.06.2018 21:43 14,5 C 21,7 C 92 % 1018,6 hPa 0,0 l/m 5,6 km/h (1 Bft) O-SO 117 0 min 0,000 mm 0,0 UV-I 0 W/m 13,2 C 14,5 C 9,7 km/h (2 Bft) 100,00 %
26.06.2018 21:44 14,6 C 21,7 C 92 % 1018,5 hPa 0,0 l/m 4,5 km/h (1 Bft) O-SO 110 0 min 0,000 mm 0,0 UV-I 0 W/m 13,3 C 14,6 C 6,4 km/h (2 Bft) 93,33 %
26.06.2018 21:45 14,6 C 21,7 C 92 % 1018,5 hPa 0,0 l/m 5,3 km/h (1 Bft) SO 131 0 min 0,000 mm 0,0 UV-I 0 W/m 13,3 C 14,6 C 9,7 km/h (2 Bft) 95,83 %
26.06.2018 21:46 14,6 C 21,7 C 92 % 1018,5 hPa 0,0 l/m 5,2 km/h (1 Bft) O-SO 119 0 min 0,000 mm 0,0 UV-I 0 W/m 13,3 C 14,6 C 6,4 km/h (2 Bft) 96,88 %
26.06.2018 21:47 14,6 C 21,7 C 92 % 1018,5 hPa 0,0 l/m 5,8 km/h (2 Bft) SO 132 0 min 0,000 mm 0,0 UV-I 0 W/m 13,3 C 14,6 C 8,0 km/h (2 Bft) 100,00 %
26.06.2018 21:48 14,5 C 21,7 C 92 % 1018,6 hPa 0,0 l/m 3,4 km/h (1 Bft) SO 132 0 min 0,000 mm 0,0 UV-I 0 W/m 13,2 C 14,5 C 4,8 km/h (1 Bft) 85,71 %
26.06.2018 21:49 14,5 C 21,7 C 92 % 1018,6 hPa 0,0 l/m 1,6 km/h (1 Bft) SO 132 0 min 0,000 mm 0,0 UV-I 0 W/m 13,2 C 14,5 C 3,2 km/h (1 Bft) 100,00 %
26.06.2018 21:50 14,5 C 21,7 C 92 % 1018,6 hPa 0,0 l/m 1,7 km/h (1 Bft) SO 132 0 min 0,000 mm 0,0 UV-I 0 W/m 13,2 C 14,5 C 3,2 km/h (1 Bft) 95,65 %
26.06.2018 21:51 14,4 C 21,7 C 92 % 1018,6 hPa 0,0 l/m 2,0 km/h (1 Bft) SO 132 0 min 0,000 mm 0,0 UV-I 0 W/m 13,1 C 14,4 C 3,2 km/h (1 Bft) 100,00 %
26.06.2018 21:52 14,4 C 21,7 C 92 % 1018,5 hPa 0,0 l/m 1,6 km/h (1 Bft) SO 132 0 min 0,000 mm 0,0 UV-I 0 W/m 13,1 C 14,4 C 3,2 km/h (1 Bft) 95,65 %
26.06.2018 21:53 14,4 C 21,7 C 92 % 1018,5 hPa 0,0 l/m 1,5 km/h (1 Bft) SO 132 0 min 0,000 mm 0,0 UV-I 0 W/m 13,1 C 14,4 C 1,6 km/h (1 Bft) 100,00 %
26.06.2018 21:54 14,5 C 21,7 C 92 % 1018,6 hPa 0,0 l/m 1,9 km/h (1 Bft) SO 132 0 min 0,000 mm 0,0 UV-I 0 W/m 13,2 C 14,5 C 3,2 km/h (1 Bft) 100,00 %
26.06.2018 21:55 14,6 C 21,7 C 93 % 1018,5 hPa 0,0 l/m 0,7 km/h (0 Bft) SO 132 0 min 0,000 mm 0,0 UV-I 0 W/m 13,5 C 14,6 C 1,6 km/h (1 Bft) 100,00 %
26.06.2018 21:56 14,6 C 21,7 C 93 % 1018,6 hPa 0,0 l/m 0,3 km/h (0 Bft) SO 132 0 min 0,000 mm 0,0 UV-I 0 W/m 13,5 C 14,6 C 1,6 km/h (1 Bft) 95,65 %
26.06.2018 21:58 14,6 C 21,7 C 93 % 1018,6 hPa 0,0 l/m 0,0 km/h (0 Bft) SO 132 0 min 0,000 mm 0,0 UV-I 0 W/m 13,5 C 14,6 C 0,0 km/h (0 Bft) 95,74 %
26.06.2018 21:59 14,4 C 21,7 C 92 % 1018,6 hPa 0,0 l/m 0,0 km/h (0 Bft) SO 132 0 min 0,000 mm 0,0 UV-I 0 W/m 13,1 C 14,4 C 0,0 km/h (0 Bft) 95,83 %
26.06.2018 22:00 14,4 C 21,7 C 92 % 1018,6 hPa 0,0 l/m 0,0 km/h (0 Bft) SO 132 0 min 0,000 mm 0,0 UV-I 0 W/m 13,1 C 14,4 C 0,0 km/h (0 Bft) 100,00 %
26.06.2018 22:02 14,3 C 21,7 C 93 % 1018,6 hPa 0,0 l/m 1,1 km/h (1 Bft) SO 132 0 min 0,000 mm 0,0 UV-I 0 W/m 13,2 C 14,3 C 3,2 km/h (1 Bft) 98,00 %
26.06.2018 22:03 14,3 C 21,7 C 93 % 1018,6 hPa 0,0 l/m 2,1 km/h (1 Bft) SO 132 0 min 0,000 mm 0,0 UV-I 0 W/m 13,2 C 14,3 C 3,2 km/h (1 Bft) 100,00 %
26.06.2018 22:04 14,4 C 21,7 C 93 % 1018,6 hPa 0,0 l/m 1,2 km/h (1 Bft) SO 132 0 min 0,000 mm 0,0 UV-I 0 W/m 13,3 C 14,4 C 1,6 km/h (1 Bft) 100,00 %
26.06.2018 22:05 14,4 C 21,7 C 93 % 1018,7 hPa 0,0 l/m 1,4 km/h (1 Bft) SO 132 0 min 0,000 mm 0,0 UV-I 0 W/m 13,3 C 14,4 C 4,8 km/h (1 Bft) 100,00 %
26.06.2018 22:06 14,4 C 21,7 C 93 % 1018,8 hPa 0,0 l/m 6,4 km/h (2 Bft) NO 54 0 min 0,000 mm 0,0 UV-I 0 W/m 13,3 C 14,4 C 8,0 km/h (2 Bft) 100,00 %
26.06.2018 22:08 14,2 C 21,7 C 93 % 1019,1 hPa 0,0 l/m 14,3 km/h (3 Bft) NO 44 0 min 0,000 mm 0,0 UV-I 0 W/m 13,1 C 10,5 C 19,3 km/h (3 Bft) 100,00 %
26.06.2018 22:09 14,1 C 21,7 C 93 % 1019,1 hPa 0,0 l/m 10,8 km/h (2 Bft) O-NO 69 0 min 0,000 mm 0,0 UV-I 0 W/m 13,0 C 11,8 C 17,7 km/h (3 Bft) 100,00 %
26.06.2018 22:10 14,1 C 21,7 C 93 % 1018,9 hPa 0,0 l/m 6,2 km/h (2 Bft) O-SO 107 0 min 0,000 mm 0,0 UV-I 0 W/m 13,0 C 14,1 C 8,0 km/h (2 Bft) 100,00 %
26.06.2018 22:11 14,1 C 21,7 C 94 % 1018,8 hPa 0,0 l/m 5,6 km/h (1 Bft) O-SO 104 0 min 0,000 mm 0,0 UV-I 0 W/m 13,1 C 14,1 C 9,7 km/h (2 Bft) 100,00 %
26.06.2018 22:12 14,1 C 21,7 C 94 % 1018,9 hPa 0,0 l/m 8,2 km/h (2 Bft) O-NO 63 0 min 0,000 mm 0,0 UV-I 0 W/m 13,1 C 13,0 C 14,5 km/h (3 Bft) 100,00 %
26.06.2018 22:13 14,0 C 21,7 C 93 % 1019,0 hPa 0,0 l/m 12,1 km/h (2 Bft) N-NO 29 0 min 0,000 mm 0,0 UV-I 0 W/m 12,9 C 11,1 C 17,7 km/h (3 Bft) 95,65 %
26.06.2018 22:14 13,9 C 21,7 C 93 % 1019,2 hPa 0,0 l/m 16,2 km/h (3 Bft) NO 34 0 min 0,000 mm 0,0 UV-I 0 W/m 12,8 C 9,5 C 20,9 km/h (4 Bft) 100,00 %
26.06.2018 22:15 13,9 C 21,7 C 93 % 1019,2 hPa 0,0 l/m 13,8 km/h (3 Bft) NO 52 0 min 0,000 mm 0,0 UV-I 0 W/m 12,8 C 10,3 C 17,7 km/h (3 Bft) 95,65 %
26.06.2018 22:16 13,9 C 21,1 C 93 % 1019,2 hPa 0,0 l/m 13,2 km/h (3 Bft) O-NO 59 0 min 0,000 mm 0,0 UV-I 0 W/m 12,8 C 10,5 C 17,7 km/h (3 Bft) 100,00 %
26.06.2018 22:17 13,9 C 21,7 C 94 % 1019,2 hPa 0,0 l/m 5,7 km/h (1 Bft) NO 56 0 min 0,000 mm 0,0 UV-I 0 W/m 12,9 C 13,9 C 9,7 km/h (2 Bft) 100,00 %
26.06.2018 22:18 13,9 C 21,1 C 94 % 1019,2 hPa 0,0 l/m 6,4 km/h (2 Bft) O-NO 69 0 min 0,000 mm 0,0 UV-I 0 W/m 12,9 C 13,9 C 9,7 km/h (2 Bft) 100,00 %
26.06.2018 22:19 13,9 C 21,7 C 94 % 1019,2 hPa 0,0 l/m 7,6 km/h (2 Bft) O-NO 59 0 min 0,000 mm 0,0 UV-I 0 W/m 12,9 C 13,2 C 9,7 km/h (2 Bft) 100,00 %
26.06.2018 22:20 13,9 C 21,7 C 94 % 1019,2 hPa 0,0 l/m 8,2 km/h (2 Bft) NO 49 0 min 0,000 mm 0,0 UV-I 0 W/m 12,9 C 12,8 C 16,1 km/h (3 Bft) 100,00 %
26.06.2018 22:21 13,9 C 21,1 C 93 % 1019,3 hPa 0,0 l/m 11,7 km/h (2 Bft) NO 44 0 min 0,000 mm 0,0 UV-I 0 W/m 12,8 C 11,1 C 16,1 km/h (3 Bft) 100,00 %
26.06.2018 22:22 13,8 C 21,1 C 93 % 1019,3 hPa 0,0 l/m 9,9 km/h (2 Bft) NO 40 0 min 0,000 mm 0,0 UV-I 0 W/m 12,7 C 11,8 C 16,1 km/h (3 Bft) 95,65 %
26.06.2018 22:23 13,8 C 21,7 C 93 % 1019,3 hPa 0,0 l/m 8,2 km/h (2 Bft) O 95 0 min 0,000 mm 0,0 UV-I 0 W/m 12,7 C 12,7 C 14,5 km/h (3 Bft) 100,00 %
26.06.2018 22:24 13,8 C 21,7 C 93 % 1019,3 hPa 0,0 l/m 11,5 km/h (2 Bft) O 79 0 min 0,000 mm 0,0 UV-I 0 W/m 12,7 C 11,1 C 14,5 km/h (3 Bft) 100,00 %
26.06.2018 22:25 13,8 C 21,1 C 93 % 1019,3 hPa 0,0 l/m 9,5 km/h (2 Bft) O-NO 61 0 min 0,000 mm 0,0 UV-I 0 W/m 12,7 C 12,0 C 14,5 km/h (3 Bft) 100,00 %
26.06.2018 22:26 13,8 C 21,1 C 93 % 1019,3 hPa 0,0 l/m 12,0 km/h (2 Bft) O-NO 77 0 min 0,000 mm 0,0 UV-I 0 W/m 12,7 C 10,9 C 17,7 km/h (3 Bft) 100,00 %
26.06.2018 22:28 13,8 C 21,1 C 93 % 1019,2 hPa 0,0 l/m 11,0 km/h (2 Bft) O-NO 78 0 min 0,000 mm 0,0 UV-I 0 W/m 12,7 C 11,3 C 16,1 km/h (3 Bft) 100,00 %
26.06.2018 22:29 13,8 C 21,1 C 93 % 1019,2 hPa 0,0 l/m 11,0 km/h (2 Bft) O 88 0 min 0,000 mm 0,0 UV-I 0 W/m 12,7 C 11,3 C 16,1 km/h (3 Bft) 100,00 %
26.06.2018 22:30 13,8 C 21,1 C 93 % 1019,2 hPa 0,0 l/m 13,9 km/h (3 Bft) O 92 0 min 0,000 mm 0,0 UV-I 0 W/m 12,7 C 10,1 C 20,9 km/h (4 Bft) 100,00 %
26.06.2018 22:31 13,7 C 21,1 C 93 % 1019,2 hPa 0,0 l/m 14,4 km/h (3 Bft) O-NO 78 0 min 0,000 mm 0,0 UV-I 0 W/m 12,6 C 9,8 C 19,3 km/h (3 Bft) 100,00 %
26.06.2018 22:33 13,7 C 21,1 C 93 % 1019,3 hPa 0,0 l/m 16,6 km/h (3 Bft) O-NO 67 0 min 0,000 mm 0,0 UV-I 0 W/m 12,6 C 9,1 C 22,5 km/h (4 Bft) 100,00 %
26.06.2018 22:34 13,7 C 21,1 C 93 % 1019,3 hPa 0,0 l/m 15,9 km/h (3 Bft) O-NO 74 0 min 0,000 mm 0,0 UV-I 0 W/m 12,6 C 9,3 C 20,9 km/h (4 Bft) 100,00 %
26.06.2018 22:35 13,7 C 21,1 C 93 % 1019,3 hPa 0,0 l/m 10,9 km/h (2 Bft) O-NO 60 0 min 0,000 mm 0,0 UV-I 0 W/m 12,6 C 11,3 C 16,1 km/h (3 Bft) 100,00 %
26.06.2018 22:36 13,7 C 21,1 C 93 % 1019,3 hPa 0,0 l/m 10,4 km/h (2 Bft) O 84 0 min 0,000 mm 0,0 UV-I 0 W/m 12,6 C 11,5 C 14,5 km/h (3 Bft) 100,00 %
26.06.2018 22:37 13,7 C 21,1 C 93 % 1019,3 hPa 0,0 l/m 13,8 km/h (3 Bft) O-NO 65 0 min 0,000 mm 0,0 UV-I 0 W/m 12,6 C 10,1 C 17,7 km/h (3 Bft) 100,00 %
26.06.2018 22:38 13,6 C 21,1 C 93 % 1019,3 hPa 0,0 l/m 12,7 km/h (3 Bft) O 90 0 min 0,000 mm 0,0 UV-I 0 W/m 12,5 C 10,4 C 17,7 km/h (3 Bft) 100,00 %
26.06.2018 22:39 13,6 C 21,1 C 93 % 1019,3 hPa 0,0 l/m 11,4 km/h (2 Bft) O-NO 69 0 min 0,000 mm 0,0 UV-I 0 W/m 12,5 C 10,9 C 16,1 km/h (3 Bft) 95,65 %
26.06.2018 22:40 13,6 C 21,1 C 93 % 1019,4 hPa 0,0 l/m 13,1 km/h (3 Bft) O-NO 67 0 min 0,000 mm 0,0 UV-I 0 W/m 12,5 C 10,2 C 17,7 km/h (3 Bft) 100,00 %
26.06.2018 22:41 13,6 C 21,1 C 93 % 1019,4 hPa 0,0 l/m 10,2 km/h (2 Bft) O-NO 67 0 min 0,000 mm 0,0 UV-I 0 W/m 12,5 C 11,5 C 14,5 km/h (3 Bft) 100,00 %
26.06.2018 22:42 13,6 C 21,1 C 93 % 1019,4 hPa 0,0 l/m 9,3 km/h (2 Bft) O-NO 76 0 min 0,000 mm 0,0 UV-I 0 W/m 12,5 C 11,9 C 14,5 km/h (3 Bft) 96,67 %
26.06.2018 22:43 13,6 C 21,1 C 93 % 1019,4 hPa 0,0 l/m 11,1 km/h (2 Bft) O-NO 76 0 min 0,000 mm 0,0 UV-I 0 W/m 12,5 C 11,1 C 14,5 km/h (3 Bft) 100,00 %
26.06.2018 22:44 13,6 C 21,1 C 93 % 1019,4 hPa 0,0 l/m 8,6 km/h (2 Bft) O-NO 70 0 min 0,000 mm 0,0 UV-I 0 W/m 12,5 C 12,3 C 12,9 km/h (3 Bft) 95,83 %
26.06.2018 22:45 13,6 C 21,1 C 93 % 1019,5 hPa 0,0 l/m 7,7 km/h (2 Bft) O-NO 73 0 min 0,000 mm 0,0 UV-I 0 W/m 12,5 C 12,8 C 12,9 km/h (3 Bft) 100,00 %
26.06.2018 22:46 13,6 C 21,1 C 93 % 1019,5 hPa 0,0 l/m 5,9 km/h (2 Bft) O-NO 78 0 min 0,000 mm 0,0 UV-I 0 W/m 12,5 C 13,6 C 12,9 km/h (3 Bft) 96,30 %
26.06.2018 22:47 13,6 C 21,1 C 93 % 1019,5 hPa 0,0 l/m 9,2 km/h (2 Bft) O-NO 71 0 min 0,000 mm 0,0 UV-I 0 W/m 12,5 C 12,0 C 12,9 km/h (3 Bft) 95,65 %
26.06.2018 22:48 13,6 C 21,1 C 93 % 1019,4 hPa 0,0 l/m 8,8 km/h (2 Bft) O 90 0 min 0,000 mm 0,0 UV-I 0 W/m 12,5 C 12,2 C 12,9 km/h (3 Bft) 95,83 %
26.06.2018 22:49 13,6 C 21,1 C 93 % 1019,5 hPa 0,0 l/m 10,8 km/h (2 Bft) O 80 0 min 0,000 mm 0,0 UV-I 0 W/m 12,5 C 11,2 C 14,5 km/h (3 Bft) 91,30 %
26.06.2018 22:50 13,6 C 21,1 C 93 % 1019,5 hPa 0,0 l/m 9,4 km/h (2 Bft) O 86 0 min 0,000 mm 0,0 UV-I 0 W/m 12,5 C 11,9 C 12,9 km/h (3 Bft) 100,00 %
26.06.2018 22:51 13,6 C 21,1 C 93 % 1019,5 hPa 0,0 l/m 8,0 km/h (2 Bft) O-SO 111 0 min 0,000 mm 0,0 UV-I 0 W/m 12,5 C 12,6 C 11,3 km/h (2 Bft) 95,65 %
26.06.2018 22:52 13,6 C 21,1 C 93 % 1019,5 hPa 0,0 l/m 8,0 km/h (2 Bft) SO 132 0 min 0,000 mm 0,0 UV-I 0 W/m 12,5 C 12,6 C 12,9 km/h (3 Bft) 100,00 %
26.06.2018 22:53 13,7 C 21,1 C 93 % 1019,5 hPa 0,0 l/m 8,8 km/h (2 Bft) O-SO 115 0 min 0,000 mm 0,0 UV-I 0 W/m 12,6 C 12,3 C 11,3 km/h (2 Bft) 95,65 %
26.06.2018 22:54 13,7 C 21,1 C 93 % 1019,4 hPa 0,0 l/m 7,6 km/h (2 Bft) O 97 0 min 0,000 mm 0,0 UV-I 0 W/m 12,6 C 13,0 C 12,9 km/h (3 Bft) 100,00 %
26.06.2018 22:55 13,7 C 21,1 C 93 % 1019,3 hPa 0,0 l/m 3,7 km/h (1 Bft) SO 138 0 min 0,000 mm 0,0 UV-I 0 W/m 12,6 C 13,7 C 6,4 km/h (2 Bft) 95,65 %
26.06.2018 22:56 13,7 C 21,1 C 93 % 1019,4 hPa 0,0 l/m 6,4 km/h (2 Bft) O-SO 122 0 min 0,000 mm 0,0 UV-I 0 W/m 12,6 C 13,7 C 9,7 km/h (2 Bft) 91,67 %
26.06.2018 22:57 13,7 C 21,1 C 93 % 1019,4 hPa 0,0 l/m 9,6 km/h (2 Bft) O 86 0 min 0,000 mm 0,0 UV-I 0 W/m 12,6 C 11,9 C 11,3 km/h (2 Bft) 100,00 %
26.06.2018 22:58 13,7 C 21,1 C 93 % 1019,4 hPa 0,0 l/m 12,0 km/h (2 Bft) O-SO 118 0 min 0,000 mm 0,0 UV-I 0 W/m 12,6 C 10,8 C 17,7 km/h (3 Bft) 91,67 %
26.06.2018 22:59 13,6 C 21,1 C 93 % 1019,3 hPa 0,0 l/m 12,5 km/h (3 Bft) SO 130 0 min 0,000 mm 0,0 UV-I 0 W/m 12,5 C 10,5 C 16,1 km/h (3 Bft) 100,00 %
26.06.2018 23:00 13,7 C 21,1 C 93 % 1019,4 hPa 0,0 l/m 9,3 km/h (2 Bft) SO 141 0 min 0,000 mm 0,0 UV-I 0 W/m 12,6 C 12,0 C 12,9 km/h (3 Bft) 95,65 %
26.06.2018 23:02 13,7 C 21,1 C 93 % 1019,3 hPa 0,0 l/m 6,9 km/h (2 Bft) SO 132 0 min 0,000 mm 0,0 UV-I 0 W/m 12,6 C 13,4 C 11,3 km/h (2 Bft) 97,87 %
26.06.2018 23:03 13,7 C 21,1 C 93 % 1019,3 hPa 0,0 l/m 7,7 km/h (2 Bft) SO 140 0 min 0,000 mm 0,0 UV-I 0 W/m 12,6 C 12,9 C 11,3 km/h (2 Bft) 96,30 %
26.06.2018 23:04 13,6 C 21,1 C 93 % 1019,3 hPa 0,0 l/m 10,9 km/h (2 Bft) SO 130 0 min 0,000 mm 0,0 UV-I 0 W/m 12,5 C 11,1 C 12,9 km/h (3 Bft) 100,00 %
26.06.2018 23:05 13,6 C 21,1 C 93 % 1019,3 hPa 0,0 l/m 11,5 km/h (2 Bft) SO 134 0 min 0,000 mm 0,0 UV-I 0 W/m 12,5 C 10,9 C 14,5 km/h (3 Bft) 100,00 %
26.06.2018 23:06 13,6 C 21,1 C 93 % 1019,3 hPa 0,0 l/m 10,5 km/h (2 Bft) O-SO 121 0 min 0,000 mm 0,0 UV-I 0 W/m 12,5 C 11,3 C 16,1 km/h (3 Bft) 91,30 %
26.06.2018 23:08 13,6 C 21,1 C 93 % 1019,4 hPa 0,0 l/m 11,6 km/h (2 Bft) SO 130 0 min 0,000 mm 0,0 UV-I 0 W/m 12,5 C 10,8 C 14,5 km/h (3 Bft) 94,83 %
26.06.2018 23:09 13,6 C 21,1 C 93 % 1019,4 hPa 0,0 l/m 8,7 km/h (2 Bft) O-SO 112 0 min 0,000 mm 0,0 UV-I 0 W/m 12,5 C 12,2 C 12,9 km/h (3 Bft) 97,84 %
26.06.2018 23:10 13,6 C 21,1 C 93 % 1019,4 hPa 0,0 l/m 6,0 km/h (2 Bft) O-SO 103 0 min 0,000 mm 0,0 UV-I 0 W/m 12,5 C 13,6 C 11,3 km/h (2 Bft) 94,74 %
26.06.2018 23:11 13,6 C 21,1 C 93 % 1019,4 hPa 0,0 l/m 4,1 km/h (1 Bft) O 98 0 min 0,000 mm 0,0 UV-I 0 W/m 12,5 C 13,6 C 6,4 km/h (2 Bft) 96,30 %
26.06.2018 23:12 13,5 C 21,1 C 93 % 1019,4 hPa 0,0 l/m 8,9 km/h (2 Bft) O-SO 117 0 min 0,000 mm 0,0 UV-I 0 W/m 12,4 C 12,0 C 11,3 km/h (2 Bft) 100,00 %
26.06.2018 23:13 13,6 C 21,1 C 93 % 1019,4 hPa 0,0 l/m 8,2 km/h (2 Bft) O 101 0 min 0,000 mm 0,0 UV-I 0 W/m 12,5 C 12,5 C 11,3 km/h (2 Bft) 95,83 %
26.06.2018 23:14 13,6 C 21,1 C 93 % 1019,4 hPa 0,0 l/m 7,9 km/h (2 Bft) O 101 0 min 0,000 mm 0,0 UV-I 0 W/m 12,5 C 12,7 C 11,3 km/h (2 Bft) 95,65 %
26.06.2018 23:15 13,6 C 21,1 C 93 % 1019,5 hPa 0,0 l/m 5,5 km/h (1 Bft) O-SO 103 0 min 0,000 mm 0,0 UV-I 0 W/m 12,5 C 13,6 C 9,7 km/h (2 Bft) 95,83 %
26.06.2018 23:16 13,6 C 21,1 C 93 % 1019,5 hPa 0,0 l/m 4,8 km/h (1 Bft) SO 126 0 min 0,000 mm 0,0 UV-I 0 W/m 12,5 C 13,6 C 9,7 km/h (2 Bft) 95,83 %
26.06.2018 23:17 13,6 C 21,1 C 93 % 1019,5 hPa 0,0 l/m 9,8 km/h (2 Bft) O-SO 111 0 min 0,000 mm 0,0 UV-I 0 W/m 12,5 C 11,7 C 11,3 km/h (2 Bft) 96,15 %
26.06.2018 23:18 13,6 C 21,1 C 93 % 1019,5 hPa 0,0 l/m 4,5 km/h (1 Bft) O 97 0 min 0,000 mm 0,0 UV-I 0 W/m 12,5 C 13,6 C 6,4 km/h (2 Bft) 100,00 %
26.06.2018 23:19 13,6 C 21,1 C 93 % 1019,5 hPa 0,0 l/m 6,6 km/h (2 Bft) O-SO 106 0 min 0,000 mm 0,0 UV-I 0 W/m 12,5 C 13,5 C 9,7 km/h (2 Bft) 100,00 %
26.06.2018 23:20 13,6 C 21,1 C 93 % 1019,5 hPa 0,0 l/m 5,8 km/h (2 Bft) O-SO 123 0 min 0,000 mm 0,0 UV-I 0 W/m 12,5 C 13,6 C 9,7 km/h (2 Bft) 96,30 %
26.06.2018 23:21 13,6 C 21,1 C 93 % 1019,4 hPa 0,0 l/m 5,5 km/h (1 Bft) SO 135 0 min 0,000 mm 0,0 UV-I 0 W/m 12,5 C 13,6 C 8,0 km/h (2 Bft) 100,00 %
26.06.2018 23:22 13,6 C 21,1 C 93 % 1019,4 hPa 0,0 l/m 6,5 km/h (2 Bft) SO 137 0 min 0,000 mm 0,0 UV-I 0 W/m 12,5 C 13,6 C 8,0 km/h (2 Bft) 100,00 %
26.06.2018 23:23 13,6 C 21,1 C 93 % 1019,4 hPa 0,0 l/m 4,5 km/h (1 Bft) SO 146 0 min 0,000 mm 0,0 UV-I 0 W/m 12,5 C 13,6 C 6,4 km/h (2 Bft) 100,00 %
26.06.2018 23:24 13,6 C 21,1 C 93 % 1019,4 hPa 0,0 l/m 5,3 km/h (1 Bft) SO 130 0 min 0,000 mm 0,0 UV-I 0 W/m 12,5 C 13,6 C 6,4 km/h (2 Bft) 100,00 %
26.06.2018 23:25 13,6 C 21,1 C 93 % 1019,4 hPa 0,0 l/m 6,2 km/h (2 Bft) O-SO 117 0 min 0,000 mm 0,0 UV-I 0 W/m 12,5 C 13,6 C 9,7 km/h (2 Bft) 100,00 %
26.06.2018 23:26 13,6 C 21,1 C 93 % 1019,4 hPa 0,0 l/m 4,3 km/h (1 Bft) O-SO 116 0 min 0,000 mm 0,0 UV-I 0 W/m 12,5 C 13,6 C 4,8 km/h (1 Bft) 100,00 %
26.06.2018 23:27 13,6 C 21,1 C 93 % 1019,5 hPa 0,0 l/m 5,3 km/h (1 Bft) O 99 0 min 0,000 mm 0,0 UV-I 0 W/m 12,5 C 13,6 C 8,0 km/h (2 Bft) 100,00 %
26.06.2018 23:28 13,6 C 21,1 C 93 % 1019,5 hPa 0,0 l/m 4,6 km/h (1 Bft) O 94 0 min 0,000 mm 0,0 UV-I 0 W/m 12,5 C 13,6 C 4,8 km/h (1 Bft) 100,00 %
26.06.2018 23:29 13,6 C 21,1 C 93 % 1019,5 hPa 0,0 l/m 4,1 km/h (1 Bft) O 81 0 min 0,000 mm 0,0 UV-I 0 W/m 12,5 C 13,6 C 6,4 km/h (2 Bft) 100,00 %
26.06.2018 23:30 13,6 C 21,1 C 93 % 1019,5 hPa 0,0 l/m 4,8 km/h (1 Bft) O 82 0 min 0,000 mm 0,0 UV-I 0 W/m 12,5 C 13,6 C 6,4 km/h (2 Bft) 100,00 %
26.06.2018 23:31 13,6 C 21,1 C 93 % 1019,6 hPa 0,0 l/m 3,1 km/h (1 Bft) O 82 0 min 0,000 mm 0,0 UV-I 0 W/m 12,5 C 13,6 C 3,2 km/h (1 Bft) 95,65 %
26.06.2018 23:33 13,6 C 21,1 C 93 % 1019,6 hPa 0,0 l/m 3,2 km/h (1 Bft) O 94 0 min 0,000 mm 0,0 UV-I 0 W/m 12,5 C 13,6 C 4,8 km/h (1 Bft) 100,00 %
26.06.2018 23:34 13,6 C 21,1 C 93 % 1019,6 hPa 0,0 l/m 3,5 km/h (1 Bft) O 94 0 min 0,000 mm 0,0 UV-I 0 W/m 12,5 C 13,6 C 4,8 km/h (1 Bft) 100,00 %
26.06.2018 23:35 13,6 C 21,1 C 93 % 1019,6 hPa 0,0 l/m 3,8 km/h (1 Bft) O 94 0 min 0,000 mm 0,0 UV-I 0 W/m 12,5 C 13,6 C 4,8 km/h (1 Bft) 100,00 %
26.06.2018 23:36 13,6 C 21,1 C 93 % 1019,6 hPa 0,0 l/m 4,4 km/h (1 Bft) O-NO 63 0 min 0,000 mm 0,0 UV-I 0 W/m 12,5 C 13,6 C 6,4 km/h (2 Bft) 100,00 %
26.06.2018 23:37 13,6 C 21,1 C 93 % 1019,6 hPa 0,0 l/m 3,4 km/h (1 Bft) O-NO 63 0 min 0,000 mm 0,0 UV-I 0 W/m 12,5 C 13,6 C 4,8 km/h (1 Bft) 100,00 %
26.06.2018 23:38 13,6 C 21,1 C 93 % 1019,7 hPa 0,0 l/m 4,8 km/h (1 Bft) O-NO 63 0 min 0,000 mm 0,0 UV-I 0 W/m 12,5 C 13,6 C 6,4 km/h (2 Bft) 100,00 %
26.06.2018 23:39 13,6 C 21,1 C 93 % 1019,7 hPa 0,0 l/m 5,2 km/h (1 Bft) NO 47 0 min 0,000 mm 0,0 UV-I 0 W/m 12,5 C 13,6 C 6,4 km/h (2 Bft) 100,00 %
26.06.2018 23:40 13,6 C 21,1 C 94 % 1019,7 hPa 0,0 l/m 5,8 km/h (2 Bft) NO 45 0 min 0,000 mm 0,0 UV-I 0 W/m 12,7 C 13,6 C 6,4 km/h (2 Bft) 95,65 %
26.06.2018 23:41 13,6 C 21,1 C 94 % 1019,7 hPa 0,0 l/m 4,9 km/h (1 Bft) NO 45 0 min 0,000 mm 0,0 UV-I 0 W/m 12,7 C 13,6 C 6,4 km/h (2 Bft) 100,00 %
26.06.2018 23:43 13,5 C 21,1 C 94 % 1019,6 hPa 0,0 l/m 5,1 km/h (1 Bft) O 92 0 min 0,000 mm 0,0 UV-I 0 W/m 12,6 C 13,5 C 6,4 km/h (2 Bft) 97,87 %
26.06.2018 23:44 13,5 C 21,1 C 94 % 1019,6 hPa 0,0 l/m 6,3 km/h (2 Bft) O 98 0 min 0,000 mm 0,0 UV-I 0 W/m 12,6 C 13,5 C 9,7 km/h (2 Bft) 91,30 %
26.06.2018 23:45 13,5 C 21,1 C 94 % 1019,5 hPa 0,0 l/m 4,8 km/h (1 Bft) O-SO 105 0 min 0,000 mm 0,0 UV-I 0 W/m 12,6 C 13,5 C 6,4 km/h (2 Bft) 100,00 %
26.06.2018 23:46 13,6 C 21,1 C 94 % 1019,5 hPa 0,0 l/m 3,8 km/h (1 Bft) O-SO 105 0 min 0,000 mm 0,0 UV-I 0 W/m 12,7 C 13,6 C 4,8 km/h (1 Bft) 95,65 %
26.06.2018 23:47 13,6 C 21,1 C 94 % 1019,5 hPa 0,0 l/m 5,9 km/h (2 Bft) O-SO 122 0 min 0,000 mm 0,0 UV-I 0 W/m 12,7 C 13,6 C 8,0 km/h (2 Bft) 100,00 %
26.06.2018 23:48 13,6 C 21,1 C 94 % 1019,4 hPa 0,0 l/m 6,7 km/h (2 Bft) SO 138 0 min 0,000 mm 0,0 UV-I 0 W/m 12,7 C 13,4 C 8,0 km/h (2 Bft) 95,65 %
26.06.2018 23:49 13,6 C 21,1 C 94 % 1019,4 hPa 0,0 l/m 6,3 km/h (2 Bft) SO 133 0 min 0,000 mm 0,0 UV-I 0 W/m 12,7 C 13,6 C 11,3 km/h (2 Bft) 100,00 %
26.06.2018 23:50 13,6 C 21,1 C 94 % 1019,4 hPa 0,0 l/m 3,8 km/h (1 Bft) S-SO 156 0 min 0,000 mm 0,0 UV-I 0 W/m 12,7 C 13,6 C 4,8 km/h (1 Bft) 100,00 %
26.06.2018 23:51 13,6 C 21,1 C 94 % 1019,4 hPa 0,0 l/m 3,4 km/h (1 Bft) S-SO 156 0 min 0,000 mm 0,0 UV-I 0 W/m 12,7 C 13,6 C 4,8 km/h (1 Bft) 95,83 %
26.06.2018 23:52 13,6 C 21,1 C 94 % 1019,4 hPa 0,0 l/m 1,2 km/h (1 Bft) S-SO 156 0 min 0,000 mm 0,0 UV-I 0 W/m 12,7 C 13,6 C 3,2 km/h (1 Bft) 100,00 %
26.06.2018 23:53 13,6 C 21,1 C 95 % 1019,4 hPa 0,0 l/m 1,3 km/h (1 Bft) O-NO 69 0 min 0,000 mm 0,0 UV-I 0 W/m 12,8 C 13,6 C 4,8 km/h (1 Bft) 95,83 %
26.06.2018 23:54 13,5 C 21,1 C 95 % 1019,6 hPa 0,0 l/m 6,2 km/h (2 Bft) O-NO 65 0 min 0,000 mm 0,0 UV-I 0 W/m 12,7 C 13,5 C 8,0 km/h (2 Bft) 100,00 %
26.06.2018 23:55 13,4 C 21,1 C 95 % 1019,7 hPa 0,0 l/m 7,8 km/h (2 Bft) NO 49 0 min 0,000 mm 0,0 UV-I 0 W/m 12,6 C 12,5 C 9,7 km/h (2 Bft) 100,00 %
26.06.2018 23:56 13,4 C 21,1 C 94 % 1019,7 hPa 0,0 l/m 6,0 km/h (2 Bft) O-NO 58 0 min 0,000 mm 0,0 UV-I 0 W/m 12,5 C 13,4 C 9,7 km/h (2 Bft) 100,00 %
26.06.2018 23:57 13,4 C 21,1 C 94 % 1019,7 hPa 0,0 l/m 5,6 km/h (1 Bft) NO 35 0 min 0,000 mm 0,0 UV-I 0 W/m 12,5 C 13,4 C 8,0 km/h (2 Bft) 91,30 %
26.06.2018 23:58 13,4 C 21,1 C 94 % 1019,8 hPa 0,0 l/m 9,7 km/h (2 Bft) NO 39 0 min 0,000 mm 0,0 UV-I 0 W/m 12,5 C 11,5 C 16,1 km/h (3 Bft) 100,00 %
26.06.2018 23:59 13,4 C 21,1 C 94 % 1019,8 hPa 0,0 l/m 14,2 km/h (3 Bft) NO 36 0 min 0,000 mm 0,0 UV-I 0 W/m 12,5 C 9,5 C 17,7 km/h (3 Bft) 95,65 %
_ Min-Zeit 06:00 04:18 15:53 17:18 - 02:17 - - - - - - 13:37 22:33 02:17 13:14
Minimum _ 12,7 C 19,4 C 41 % 1017,7 hPa - 0,0 km/h (0 Bft) - - - - - - 8,6 C 9,1 C 0,0 km/h (0 Bft) 82,61 %
_ Max-Zeit 16:57 15:42 23:53 00:04 20:30 20:25 - - 08:02 16:02 13:27 13:46 21:55 16:59 20:28 00:03
Maximum _ 23,3 C 21,7 C 95 % 1021,3 hPa 1,0 l/m 30,8 km/h
N (5 Bft)
- - 2 min 0,533 mm 7,3 UV-I 1128 W/m 13,5 C 23,3 C 40,2 km/h
N-NO (6 Bft)
100,00 %
Durchschnitt _ 17,3 C 20,6 C 70 % 1019,6 hPa #5,4 l/m 6,3 km/h (2 Bft) SW - #9:17 h #4,699 mm 3,3 UV-I 417 W/m 11,2 C 16,8 C 9,7 km/h (2 Bft) 97,82 %